MPMG - Transparência

Contra-cheque - Remuneração de todos os servidores ativos - Pré Resolução CNMP 200/2019

Período: 2013 - Dezembro

Ordem Matrícula Nome Cargo Efetivo Situação Unidade Administrativa Rendimentos Descontos Rendimento Líquido Total Indenizações Outras Remunerações Retroativas/Temporárias Data de Referência
Remuneração Básica Remuneração Eventual ou Temporária Total de Rendimentos Brutos Obrigatórios/Legais Total de Descontos
Remuneração do Cargo Efetivo Outras Verbas Remuneratórias Função de Confiança ou Cargo em Comissão Gratificação Natalina Férias Abono de Permanência Contribuição Previdenciária Imposto de Renda Retenção por Teto Constitucional
1 498900 ABDON MARCIO BARBOSA DA SILVA OFICIAL DO MP ATIVO ABRE CAMPO - COMARCA; ABRE CAMPO-PJ-02PJ 3.250,03 0,00 0,00 1.863,91 0,00 0,00 5.113,94 689,89 83,35 0,00 773,24 4.340,70 692,00 1.230,05 31/12/2013
2 177800 ADALBERTO MENEZES FARIA SAMORA COORDENADOR/OFICIAL ATIVO BELO HORIZONTE - COMARCA; DIRET DE PLANOS PROJETOS E PROGRAMAS INST 0,00 2.060,57 10.302,83 6.558,44 0,00 0,00 18.921,84 2.672,79 4.371,36 0,00 7.044,15 11.877,69 1.236,78 4.692,68 31/12/2013
3 306400 ADALBERTO MOREIRA GONCALVES ANALISTA DO MP ATIVO CONTAGEM - COMARCA; CONTAGEM-PJ-01PJ 9.358,72 935,87 0,00 5.460,99 0,00 0,00 15.755,58 2.690,68 3.422,47 0,00 6.113,15 9.642,43 1.084,40 3.913,57 31/12/2013
4 179300 ADENISE AUXILIADORA SOUZA SAD OFICIAL DO MP ATIVO BARBACENA - COMARCA; EXTINTA-BARBACENA - 06ª PJ EXECUÇÃO PENAL 8.233,02 1.646,60 0,00 5.240,86 3.293,21 0,00 18.413,69 2.067,24 3.238,79 0,00 5.306,03 13.107,66 634,93 3.692,04 31/12/2013
5 77700 ADIL EXPEDITO DE OLIVEIRA JUNIOR ASSESSOR ATIVO BELO HORIZONTE - COMARCA; CAO-CRIANCAS E ADOLESCENTES-SECRETARIA 0,00 6.378,72 7.973,40 7.613,40 4.784,04 0,00 26.749,56 3.741,68 6.530,82 0,00 10.272,50 16.477,06 981,81 5.340,52 31/12/2013
6 272200 ADILSON BATISTA ORNELAS OFICIAL DO MP ATIVO LAVRAS - COMARCA; LAVRAS-PJ-02PJ 3.938,84 787,77 0,00 2.692,27 1.575,54 0,00 8.994,42 1.223,93 869,12 0,00 2.093,05 6.901,37 457,00 1.681,51 31/12/2013
7 380100 ADILSON GONCALVES DE MELO JUNIOR ANALISTA DO MP ATIVO ARAXÁ - COMARCA; ARAXA-PJ-05PJ 6.469,61 646,96 0,00 3.775,14 2.372,19 0,00 13.263,90 1.854,88 2.325,76 0,00 4.180,64 9.083,26 705,68 2.642,66 31/12/2013
8 148800 ADILSON JANUARIO OFICIAL DO MP ATIVO BELO HORIZONTE - COMARCA; BH-22PJ PES COM DEF E IDOSOS-SECRETARIA 10.302,83 5.151,42 0,00 7.446,81 5.151,42 0,00 28.052,48 4.347,74 6.728,02 0,00 11.075,76 16.976,72 686,45 10.062,48 31/12/2013
9 322600 ADMILSON SILVEIRA OFICIAL DO MP ATIVO BOCAIÚVA - COMARCA; BOCAIUVA-PJ-01PJ 4.696,06 469,61 0,00 2.740,24 1.721,89 0,00 9.627,80 1.349,03 1.385,39 0,00 2.734,42 6.893,38 457,00 1.942,29 31/12/2013
10 333700 ADRIANA ABRITTA TEIXEIRA OFICIAL DO MP ATIVO BELO HORIZONTE - COMARCA; DIRET DE PESSOAL DO MINISTERIO PUBLICO - DPMP 5.876,69 587,67 0,00 3.524,84 2.154,79 0,00 12.143,99 1.762,97 2.275,76 0,00 4.038,73 8.105,26 457,00 3.110,86 31/12/2013
11 468500 ADRIANA APARECIDA FIRMINO ANALISTA DO MP ATIVO CARATINGA - COMARCA; CARATINGA-PJ-04PJ 6.265,58 375,93 0,00 3.582,99 0,00 0,00 10.224,50 1.734,23 1.389,61 0,00 3.123,84 7.100,66 913,89 2.828,24 31/12/2013
12 326100 ADRIANA AUGUSTA AMARAL BELO OFICIAL DO MP ATIVO BARBACENA - COMARCA; BARBACENA-PJ-08PJ 5.876,69 587,67 0,00 3.524,84 0,00 0,00 9.989,20 1.676,99 1.354,15 0,00 3.031,14 6.958,06 1.099,85 2.329,08 31/12/2013
13 605700 ADRIANA COSTA LIRA OFICIAL DO MP ATIVO BELO HORIZONTE - COMARCA; BH-17PJ PATRIMONIO PUBLICO 2.859,08 0,00 0,00 0,00 0,00 0,00 2.859,08 476,99 56,76 0,00 533,75 2.325,33 685,50 1.477,19 31/12/2013
14 541100 ADRIANA CRISTINA DE OLIVEIRA OFICIAL DO MP ATIVO GUAPÉ - COMARCA; GUAPE-PJ-UNPJ 2.859,08 0,00 0,00 1.487,63 0,00 0,00 4.346,71 692,79 61,12 0,00 753,91 3.592,80 692,00 1.061,57 31/12/2013
15 254800 ADRIANA DAS GRACAS FERNANDES ANALISTA DO MP ATIVO UBERABA - COMARCA; UBERABA-PJ-07PJ 9.977,95 4.988,98 0,00 8.161,09 0,00 0,00 23.128,02 3.882,09 5.612,88 0,00 9.494,97 13.633,05 457,00 5.680,89 31/12/2013
16 246900 ADRIANA DE ALMEIDA ANTONINI ASSESSOR ATIVO BELO HORIZONTE - COMARCA; PROCON-MG-SECRETARIA DE FISCALIZACOES 0,00 471,82 2.359,08 1.501,71 943,63 0,00 5.276,24 768,89 306,85 0,00 1.075,74 4.200,50 491,51 1.051,51 31/12/2013
17 217400 ADRIANA DE CARVALHO CATAO BRAGA ASSESSOR ATIVO BELO HORIZONTE - COMARCA; EXTINTA - DIRETORIA DE CONTRATOS E CONVÊNIOS 0,00 1.253,12 6.265,58 3.988,46 152,74 0,00 11.659,90 914,98 2.434,61 0,00 3.349,59 8.310,31 457,00 2.793,75 31/12/2013
18 434600 ADRIANA FERREIRA DA SILVA ANALISTA DO MP ATIVO BELO HORIZONTE - COMARCA; BH-19PJ SAUDE-SECRETARIA 129PJ 6.265,58 375,93 0,00 3.808,88 2.213,84 0,00 12.664,23 1.725,91 2.243,09 0,00 3.969,00 8.695,23 457,00 2.419,25 31/12/2013
19 499800 ADRIANA FERREIRA TIAGO OFICIAL DO MP ATIVO SALINAS - COMARCA; SALINAS-PJ-02PJ 3.577,90 0,00 0,00 2.191,78 0,00 0,00 5.769,68 919,06 299,67 0,00 1.218,73 4.550,95 457,00 1.265,51 31/12/2013
20 543400 ADRIANA GUIMARAES NUNES DE PAULA ANALISTA DO MP ATIVO PATROCÍNIO - COMARCA; PATROCINIO-PJ-01PJ 4.848,98 0,00 0,00 2.523,00 0,00 0,00 7.371,98 1.174,95 600,22 0,00 1.775,17 5.596,81 457,00 1.800,37 31/12/2013
21 471500 ADRIANA HORTA DE CARVALHO RODRIGUES DE SOUSA ANALISTA DO MP ATIVO NOVA LIMA - COMARCA; NOVA LIMA-PJ-03PJ 6.068,01 364,08 0,00 6.068,01 0,00 0,00 12.500,10 1.701,71 1.345,95 0,00 3.047,66 9.452,44 927,00 2.981,14 31/12/2013
22 86400 ADRIANA MOREIRA CALDEIRA BRANT OFICIAL DO MP ATIVO BELO HORIZONTE - COMARCA; EXTINTA-TUTELA DAS FUNDACOES-21 PJ- GABINETE 8.501,02 4.250,51 0,00 6.937,64 4.250,51 0,00 23.939,68 3.384,46 5.598,94 0,00 8.983,40 14.956,28 457,00 5.689,09 31/12/2013
23 480700 ADRIANA MOREIRA DE AVELLAR CEZILIO OFICIAL DO MP ATIVO BELO HORIZONTE - COMARCA; EXTINTA - DIVISAO DE MATERIAL DE CONSUMO 3.250,03 0,00 0,00 1.724,05 0,00 0,00 4.974,08 679,23 93,92 0,00 773,15 4.200,93 927,00 1.206,71 31/12/2013
24 326000 ADRIANA PEREIRA CARNEIRO RESENDE OFICIAL DO MP ATIVO BELO HORIZONTE - COMARCA; PJDH-COMB A VIOLENCIA DOMESTICA-ATENDIMENTO 5.511,94 551,19 0,00 3.367,52 0,00 0,00 9.430,65 1.610,74 1.110,95 0,00 2.721,69 6.708,96 701,75 2.719,21 31/12/2013
25 502200 ADRIANA PETRUCCI DAVINA OFICIAL DO MP ATIVO PATROCÍNIO - COMARCA; PATROCINIO-PJ-03PJ 3.938,84 0,00 0,00 2.258,91 0,00 0,00 6.197,75 1.020,95 402,56 0,00 1.423,51 4.774,24 457,00 1.424,49 31/12/2013
26 201900 ADRIANA REIS PIMENTA OFICIAL DO MP ATIVO TEÓFILO OTONI - COMARCA; TEOFILO OTONI-PJ-03PJ 8.233,02 2.469,91 0,00 6.064,17 3.567,64 0,00 20.334,74 2.780,51 4.603,45 0,00 7.383,96 12.950,78 462,40 3.891,05 31/12/2013
27 278700 ADRIANA RODRIGUES PINTO COELHO AMARAL ANALISTA DO MP ATIVO BELO HORIZONTE - COMARCA; EXTINTA-MEIO AMB PATRIM HIST CULTURAL-15PJGAB 9.663,38 1.932,68 0,00 6.762,46 0,00 0,00 18.358,52 2.983,00 3.866,11 0,00 6.849,11 11.509,41 1.141,44 4.159,44 31/12/2013
28 468000 ADRIANA SANTOS DE SANTANA MOREIRA ANALISTA DO MP ATIVO ARAÇUAÍ - COMARCA; ARACUAI-PJ-01PJ 6.265,58 1.253,12 0,00 7.281,61 0,00 0,00 14.800,31 1.998,26 1.908,93 0,00 3.907,19 10.893,12 692,00 3.379,86 31/12/2013
29 194700 ADRIANA TSUKIDE OFICIAL DO MP ATIVO UBERABA - COMARCA; COORD REG BACIAS PARANAIBA BAIXO RIO GRANDE 8.233,02 1.646,60 0,00 5.240,86 0,00 0,00 15.120,48 2.066,84 2.406,23 0,00 4.473,07 10.647,41 457,00 3.687,42 31/12/2013
30 206400 ADRIANE MENDES DE SOUZA ANALISTA DO MP ATIVO BELO HORIZONTE - COMARCA; BH-23PJ CIVEL-FISC AC POL PUB II 11.885,64 5.942,82 0,00 10.092,08 0,00 0,00 27.920,54 4.593,17 7.013,59 0,00 11.606,76 16.313,78 1.252,48 6.133,67 31/12/2013
31 465500 ADRIANO CASSIANO MATOS ANALISTA DO MP ATIVO ARAXÁ - COMARCA; ARAXA-PJ-03PJ 5.169,86 310,19 0,00 2.956,41 0,00 0,00 8.436,46 1.436,45 1.023,47 0,00 2.459,92 5.976,54 457,00 2.382,52 31/12/2013
32 500500 ADRIANO DE ALMEIDA SILVA OFICIAL DO MP ATIVO UBERABA - COMARCA; UBERABA-PJ-12PJ 3.250,03 0,00 0,00 1.863,91 1.083,34 0,00 6.197,28 839,80 404,89 0,00 1.244,69 4.952,59 457,00 1.140,17 31/12/2013
33 187200 ADRIANO DE FREITAS MARON OFICIAL DO MP ATIVO PONTE NOVA - COMARCA; PONTE NOVA-PJ-03PJ 6.265,58 4.385,90 0,00 5.472,14 0,00 0,00 16.123,62 2.885,13 3.514,96 0,00 6.400,09 9.723,53 876,98 5.285,00 31/12/2013
34 477900 ADRIANO FERREIRA DE ALMEIDA OFICIAL DO MP ATIVO MONTES CLAROS - COMARCA; MONTES CLAROS-PJ-01PJ 3.250,03 195,00 0,00 1.724,05 0,00 0,00 5.169,08 914,91 133,80 0,00 1.048,71 4.120,37 457,00 1.694,78 31/12/2013
35 269101 ADRIANO PEREIRA SILVA ANALISTA DO MP ATIVO UBERABA - COMARCA; UBERABA-PJ-02PJ 6.265,58 375,93 0,00 3.792,41 2.213,84 0,00 12.647,76 1.712,65 2.049,67 0,00 3.762,32 8.885,44 692,00 2.297,85 31/12/2013
36 414200 ADRIANO RODRIGUES FERNANDES ANALISTA DO MP ATIVO CARANDAÍ - COMARCA; CARANDAI-PJ-UNPJ 5.876,69 587,67 0,00 3.200,30 2.154,79 0,00 11.819,45 1.833,93 1.880,03 0,00 3.713,96 8.105,49 850,98 4.187,98 31/12/2013
37 536700 ADRIELLE COSTA MARIA OFICIAL DO MP ATIVO SERRO - COMARCA; SERRO-PJ-SECRETARIA 2.859,08 0,00 0,00 2.382,57 0,00 0,00 5.241,65 692,79 87,49 0,00 780,28 4.461,37 457,00 1.061,57 31/12/2013
38 514300 ADRIENE DAMASCENO BRAGA ANALISTA DO MP ATIVO ALFENAS - COMARCA; ALFENAS-PJ-03PJ 5.511,94 0,00 0,00 2.923,93 0,00 0,00 8.435,87 1.559,47 1.312,66 0,00 2.872,13 5.563,74 3.833,47 3.586,37 31/12/2013
39 254600 ADRIENE DOMINGUES COSTA ANALISTA DO MP ATIVO BELO HORIZONTE - COMARCA; PROC. JUSTICA DIR. DIFUSOS E COLETIVOS-SEC 8.501,02 1.700,20 0,00 5.240,86 0,00 0,00 15.442,08 2.604,48 3.048,38 0,00 5.652,86 9.789,22 0,00 3.923,53 31/12/2013
40 252001 ADRIENE GOMES BARRETO ANALISTA DO MP ATIVO BELO HORIZONTE - COMARCA; BH-19PJ SAUDE-SECRETARIA 150PJ 7.973,40 2.392,02 0,00 4.837,21 0,00 0,00 15.202,63 2.929,11 3.152,01 0,00 6.081,12 9.121,51 790,44 7.163,00 31/12/2013
41 118100 AGENOR ALCIR RODRIGUES DA SILVA OFICIAL DO MP ATIVO SÃO JOÃO NEPOMUCENO - COMARCA; SAO JOAO NEPOMUCENO-PJ-01PJ 10.638,28 7.446,79 0,00 9.861,38 6.028,36 0,00 33.974,81 4.691,40 8.893,71 0,00 13.585,11 20.389,70 898,34 6.513,37 31/12/2013
42 302500 AGENOR JOSE DA SILVA JUNIOR ANALISTA DO MP ATIVO JUIZ DE FORA - COMARCA; JUIZ DE FORA-PJ-07PJ 9.358,72 935,87 0,00 5.460,99 0,00 0,00 15.755,58 2.157,83 2.488,61 0,00 4.646,44 11.109,14 472,39 3.880,77 31/12/2013
43 357500 AILSON WAGNER DE ALENCAR SILVA OFICIAL DO MP ATIVO BELO HORIZONTE - COMARCA; DIRETORIA DO COLEGIO E DA CAMARA DE PJ 5.691,44 1.707,43 0,00 3.807,95 2.466,29 0,00 13.673,11 1.806,39 2.208,74 0,00 4.015,13 9.657,98 692,00 5.227,22 31/12/2013
44 366400 AILTON ALEXSSANDRO ALVES OFICIAL DO MP ATIVO PARÁ DE MINAS - COMARCA; PARA DE MINAS-PJ-05PJ 4.848,98 969,80 0,00 5.457,64 0,00 0,00 11.276,42 1.581,39 1.143,18 0,00 2.724,57 8.551,85 457,00 3.109,80 31/12/2013
45 318900 AILTON DE CASTRO RIBEIRO JUNIOR OFICIAL DO MP ATIVO POUSO ALEGRE - COMARCA; POUSO ALEGRE-PJ-03PJ 4.848,98 1.593,22 0,00 3.848,56 2.147,40 0,00 12.438,16 1.155,00 1.723,86 0,00 2.878,86 9.559,30 457,00 2.435,55 31/12/2013
46 464400 ALAN MONTEIRO GASPAR ANALISTA DO MP ATIVO SETE LAGOAS - COMARCA; SETE LAGOAS-PJ-03PJ 6.265,58 375,93 0,00 3.582,99 0,00 0,00 10.224,50 1.738,61 1.583,03 0,00 3.321,64 6.902,86 520,94 2.743,33 31/12/2013
47 492000 ALANA DE CASTRO FREITAS OFICIAL DO MP ATIVO BOM SUCESSO - COMARCA; BOM SUCESSO-PJ-UNPJ 3.250,03 0,00 0,00 1.863,91 0,00 0,00 5.113,94 844,80 212,13 0,00 1.056,93 4.057,01 457,00 1.252,23 31/12/2013
48 306700 ALANA MARCIA DE OLIVEIRA OFICIAL DO MP ATIVO BELO HORIZONTE - COMARCA; DIRETORIA DE ADMINISTRACAO FINANCEIRA 5.511,94 551,19 0,00 3.216,32 0,00 0,00 9.279,45 1.581,54 1.351,17 0,00 2.932,71 6.346,74 457,00 2.262,94 31/12/2013
49 324500 ALANMAR COUTINHO COSTA OFICIAL DO MP ATIVO LEOPOLDINA - COMARCA; LEOPOLDINA-PJ-02PJ 4.696,06 469,61 0,00 2.740,24 1.721,89 0,00 9.627,80 1.349,04 697,39 0,00 2.046,43 7.581,37 699,80 1.942,42 31/12/2013
50 508200 ALBERTO DA SILVA VIEIRA ASSESSOR ATIVO BELO HORIZONTE - COMARCA; ASSESS ESPECIAL DO PGJ ATUACAO JUNTO A PGJAA 0,00 0,00 8.777,78 4.656,37 2.925,93 0,00 16.360,08 914,98 3.696,32 0,00 4.611,30 11.748,78 772,82 3.265,24 31/12/2013
51 407300 ALBERTO LUIZ SOARES DE OLIVEIRA ANALISTA DO MP ATIVO BELO HORIZONTE - COMARCA; SUPERINTENDÊNCIA DE ENGENHARIA E ARQUITETURA 6.469,61 646,96 0,00 7.116,57 0,00 0,00 14.233,14 1.839,03 1.866,83 0,00 3.705,86 10.527,28 457,00 2.633,60 31/12/2013
52 118200 ALBERTO PEREIRA DA COSTA OFICIAL DO MP ATIVO DORES DO INDAIÁ - COMARCA; DORES DO INDAIA-PJ-UNPJ 9.358,72 6.551,11 0,00 8.439,72 0,00 0,00 24.349,55 4.372,84 6.311,48 0,00 10.684,32 13.665,23 457,00 7.966,69 31/12/2013
53 282400 ALCILENE MARISE DE ARAUJO ANALISTA DO MP ATIVO BELO HORIZONTE - COMARCA; BH-23PJ INF-FISC MED SOC FEC 9.663,38 1.932,68 0,00 6.762,46 0,00 0,00 18.358,52 2.969,47 3.866,11 0,00 6.835,58 11.522,94 3.833,47 4.131,75 31/12/2013
54 112600 ALCIONE DA MOTA JARDIM OFICIAL DO MP ATIVO BELO HORIZONTE - COMARCA; CAO-CRIANCAS E ADOLESCENTES 7.721,95 3.088,79 0,00 5.209,30 3.603,58 0,00 19.623,62 2.995,35 4.326,94 0,00 7.322,29 12.301,33 692,00 6.617,96 31/12/2013
55 396400 ALCIONE DE FREITAS E SILVA ANALISTA DO MP ATIVO BELO HORIZONTE - COMARCA; DIRET DE PESSOAL DO MINISTERIO PUBLICO - DPMP 7.973,40 2.392,02 0,00 4.465,11 3.455,14 0,00 18.285,67 2.529,71 3.358,49 0,00 5.888,20 12.397,47 981,13 8.183,43 31/12/2013
56 161600 ALCIONE NERY SOUZA ASSESSOR ATIVO BELO HORIZONTE - COMARCA; BH-22PJ PES COM DEF E IDOSOS-ASS JURIDICA 0,00 1.879,67 6.265,58 4.320,82 165,47 0,00 12.631,54 914,98 2.782,71 0,00 3.697,69 8.933,85 457,00 3.027,64 31/12/2013
57 376000 ALDA GOMES LANA OFICIAL DO MP ATIVO BELO HORIZONTE - COMARCA; BH-18PJ VIOLENCIA DOMESTICA-SECRETARIA 5.006,87 500,69 0,00 2.921,61 0,00 0,00 8.429,17 1.437,11 982,51 0,00 2.419,62 6.009,55 792,65 2.173,53 31/12/2013
58 148000 ALDA MARTINS SIMOES OFICIAL DO MP ATIVO BELO HORIZONTE - COMARCA; BH-23PJ CIVEL- FISC ENT AB POL 9.358,72 3.743,49 0,00 7.389,77 4.367,40 0,00 24.859,38 3.408,90 5.997,84 0,00 9.406,74 15.452,64 457,00 5.076,94 31/12/2013
59 318400 ALDO CREPALDI JUNIOR OFICIAL DO MP ATIVO BELO HORIZONTE - COMARCA; EXTINTA - DIVISAO DE MATERIAL DE CONSUMO 5.511,94 551,19 0,00 3.114,89 0,00 0,00 9.178,02 1.311,93 951,81 0,00 2.263,74 6.914,28 1.049,86 3.031,65 31/12/2013
60 118400 ALECIO JOSE GUIMARAES DE OLIVEIRA ANALISTA DO MP ATIVO BOM SUCESSO - COMARCA; BOM SUCESSO-PJ-UNPJ 13.882,65 11.106,13 0,00 13.255,86 0,00 0,00 38.244,64 6.513,09 10.615,27 0,00 17.128,36 21.116,28 457,00 9.277,99 31/12/2013
61 604500 ALENIZE APARECIDA RODRIGUES HENRIQUE OFICIAL DO MP ATIVO RIO NOVO - COMARCA; RIO NOVO-PJ-UNPJ 2.859,08 0,00 0,00 476,51 0,00 0,00 3.335,59 366,92 56,76 0,00 423,68 2.911,91 457,00 0,00 31/12/2013
62 197900 ALESSA DE SOUSA E SILVA OFICIAL DO MP ATIVO OLIVEIRA - COMARCA; OLIVEIRA-PJ-02PJ 8.501,02 1.700,20 0,00 5.411,46 3.400,41 0,00 19.013,09 2.661,24 4.118,46 0,00 6.779,70 12.233,39 457,00 4.017,90 31/12/2013
63 428500 ALESSANDRA ALVES DINIZ OFICIAL DO MP ATIVO BELO HORIZONTE - COMARCA; CENTRAL DE APOIO TECNICO-SECRETARIA 3.694,41 1.108,32 0,00 4.802,73 0,00 0,00 9.605,46 1.252,10 743,68 0,00 1.995,78 7.609,68 749,70 1.787,44 31/12/2013
64 286801 ALESSANDRA BOTELHO JUNQUEIRA DE MENEZES ANALISTA DO MP ATIVO PASSOS - COMARCA; PASSOS-PJ-05PJ 6.793,15 1.358,63 0,00 4.324,29 2.717,26 0,00 15.193,33 2.125,33 2.927,38 0,00 5.052,71 10.140,62 990,08 3.034,12 31/12/2013
65 307000 ALESSANDRA CRISTINA SANTOS MENDES ANALISTA DO MP ATIVO BELO HORIZONTE - COMARCA; BH-18PJ VIOLENCIA DOMESTICA 6.793,15 679,32 0,00 3.963,94 0,00 0,00 11.436,41 1.563,43 1.504,56 0,00 3.067,99 8.368,42 457,00 2.943,39 31/12/2013
66 264400 ALESSANDRA DE SOUZA SANTOS COORDENADOR/ANALISTA ATIVO BELO HORIZONTE - COMARCA; DIRETORIA DE PRODUCAO EDITORIAL 9.977,95 5.053,96 0,00 8.166,02 0,00 0,00 23.197,93 3.365,37 5.866,05 0,00 9.231,42 13.966,51 457,00 5.730,96 31/12/2013
67 441500 ALESSANDRA DRUMMOND DE FIGUEIREDO ROSSI ANALISTA DO MP ATIVO BELO HORIZONTE - COMARCA; DIRETORIA DE PROJETOS DE EDIFICACOES 6.265,58 375,93 0,00 4.068,47 0,00 0,00 10.709,98 1.703,02 1.634,29 0,00 3.337,31 7.372,67 457,00 2.210,01 31/12/2013
68 524000 ALESSANDRA LUCIOLI DE BARROS GUERRA ANALISTA DO MP ATIVO BELO HORIZONTE - COMARCA; BH-12PJ JUIZO CRIMINAL 4.548,03 0,00 0,00 4.548,03 1.516,01 0,00 10.612,07 1.185,39 773,28 0,00 1.958,67 8.653,40 457,00 1.688,63 31/12/2013
69 479900 ALESSANDRA MARA ANDRADE DE FARIA OFICIAL DO MP ATIVO UBERABA - COMARCA; UBERABA-PJ-05PJ 3.938,84 0,00 0,00 3.938,84 0,00 0,00 7.877,68 1.026,63 402,56 0,00 1.429,19 6.448,49 692,00 1.462,43 31/12/2013
70 226700 ALESSANDRA MARA VASCONCELOS REZENDE OFICIAL DO MP ATIVO CONSELHEIRO LAFAIETE - COMARCA; CONSELHEIRO LAFAIETE-PJ-07PJ 5.169,86 1.033,97 0,00 3.290,96 0,00 0,00 9.494,79 1.621,57 1.420,05 0,00 3.041,62 6.453,17 835,09 2.347,54 31/12/2013
71 112100 ALESSANDRA MARCIA FERREIRA OFICIAL DO MP ATIVO BELO HORIZONTE - COMARCA; BELO HORIZONTE- SECRETARIA DAS PROMOTORIAS 7.478,49 2.991,40 0,00 5.553,98 0,00 0,00 16.023,87 2.728,81 3.411,56 0,00 6.140,37 9.883,50 457,00 3.887,32 31/12/2013
72 196500 ALESSANDRA MARIA RIBEIRO LUCIANO OFICIAL DO MP ATIVO RIO PARANAÍBA - COMARCA; RIO PARANAIBA-PJ-UNPJ 8.501,02 2.550,31 0,00 5.677,61 0,00 0,00 16.728,94 2.943,17 3.610,91 0,00 6.554,08 10.174,86 692,00 5.240,21 31/12/2013
73 91400 ALESSANDRA MENDES VASCONCELOS DE SOUZA OFICIAL DO MP ATIVO BELO HORIZONTE - COMARCA; BH-23PJ INF-FISC MED SOC AB 11.885,64 5.942,82 0,00 10.092,08 5.942,82 0,00 33.863,36 4.591,86 8.744,58 0,00 13.336,44 20.526,92 457,00 6.117,67 31/12/2013
74 384900 ALESSANDRA RODRIGUES ANALISTA DO MP ATIVO VISCONDE DO RIO BRANCO - COMARCA; VISCONDE DO RIO BRANCO-PJ-03PJ 7.973,40 797,34 0,00 4.093,02 2.923,58 0,00 15.787,34 2.603,78 3.212,92 0,00 5.816,70 9.970,64 472,53 7.200,48 31/12/2013
75 390000 ALESSANDRA SPADANO MASSARA VASCONCELOS OFICIAL DO MP ATIVO BETIM - COMARCA; BETIM-PJ-10PJ 5.006,87 500,69 0,00 2.829,47 0,00 0,00 8.337,03 1.466,90 1.036,72 0,00 2.503,62 5.833,41 457,00 2.612,66 31/12/2013
76 426500 ALESSANDRO CAMPOS DE PAIVA COORDENADOR/ANALISTA ATIVO BELO HORIZONTE - COMARCA; DIRETORIA DE PUBLICIDADE INSTITUCIONAL 0,00 618,17 10.302,83 5.793,28 0,00 0,00 16.714,28 1.878,04 3.953,87 0,00 5.831,91 10.882,37 457,00 3.891,01 31/12/2013
77 420600 ALESSANDRO SILVA OFICIAL DO MP ATIVO VISCONDE DO RIO BRANCO - COMARCA; VISCONDE DO RIO BRANCO-PJ-02PJ 3.694,41 738,88 0,00 2.351,73 1.477,76 0,00 8.262,78 1.215,30 457,74 0,00 1.673,04 6.589,74 457,00 2.190,52 31/12/2013
78 375301 ALETHEIA PATRICIA ASSIS MORAIS MOREIRA ANALISTA DO MP ATIVO ITABIRA - COMARCA; ITABIRA-PJ-02PJ 5.338,12 0,00 0,00 4.448,43 0,00 0,00 9.786,55 1.294,80 794,16 0,00 2.088,96 7.697,59 457,00 1.994,10 31/12/2013
79 382300 ALEX CARVALHO LIMA ANALISTA DO MP ATIVO UBERLÂNDIA - COMARCA; UBERLANDIA-PJ-14PJ 7.973,40 797,34 0,00 7.715,81 0,00 0,00 16.486,55 2.478,83 2.306,48 0,00 4.785,31 11.701,24 739,14 6.222,03 31/12/2013
80 195201 ALEX DE CASTRO PEREIRA ANALISTA DO MP ATIVO UBERABA - COMARCA; UBERABA-PJ-09PJ 9.663,38 1.932,68 0,00 6.323,04 3.865,35 0,00 21.784,45 2.427,65 4.081,10 0,00 6.508,75 15.275,70 515,34 4.171,23 31/12/2013
81 358900 ALEX DE PAULA LANZA ASSESSOR ATIVO BELO HORIZONTE - COMARCA; DIRETORIA DE IMPRENSA 0,00 0,00 6.265,58 3.323,71 0,00 0,00 9.589,29 914,98 1.703,39 0,00 2.618,37 6.970,92 457,00 2.326,31 31/12/2013
82 178400 ALEX RODRIGO SALDANHA GUIMARAES OFICIAL DO MP ATIVO BELO HORIZONTE - COMARCA; DIRETORIA DE SISTEMAS DE INFORMACAO 4.696,06 939,21 0,00 2.989,35 0,00 0,00 8.624,62 1.469,05 1.141,73 0,00 2.610,78 6.013,84 457,00 2.209,82 31/12/2013
83 289200 ALEX SANDRO PEREIRA DE MATOS OFICIAL DO MP ATIVO BELO HORIZONTE - COMARCA; PROCON-MG-SECRETARIA DE FISCALIZACOES 4.696,06 1.577,93 0,00 3.848,56 2.091,33 0,00 12.213,88 1.079,67 1.898,22 0,00 2.977,89 9.235,99 3.833,47 2.382,26 31/12/2013
84 413500 ALEX VILELA OLIVEIRA ANALISTA DO MP ATIVO GOVERNADOR VALADARES - COMARCA; COORD REG PJ DEF EDU DIR CRIANCA ADOL RIODOCE 7.014,37 420,86 0,00 7.200,74 0,00 0,00 14.635,97 1.962,94 1.965,42 0,00 3.928,36 10.707,61 457,00 3.369,48 31/12/2013
85 264300 ALEXANDRA FATIMA SARAIVA SOARES ANALISTA DO MP ATIVO BELO HORIZONTE - COMARCA; CENTRAL DE APOIO TECN-SETOR DE MEIO AMBIENTE 9.977,95 1.995,59 0,00 6.528,87 3.991,18 0,00 22.493,59 3.105,43 5.341,89 0,00 8.447,32 14.046,27 457,00 4.305,48 31/12/2013
86 488000 ALEXANDRA LARA PAIS DE CARVALHO ANALISTA DO MP ATIVO GUANHÃES - COMARCA; GUANHAES-PJ-SECRETARIA 5.511,94 0,00 0,00 5.511,94 0,00 0,00 11.023,88 1.434,79 887,94 0,00 2.322,73 8.701,15 927,00 2.142,36 31/12/2013
87 256300 ALEXANDRA SANTOS GOMES OFICIAL DO MP ATIVO BELO HORIZONTE - COMARCA; EXTINTA - DIVISÃO DE COMPRAS 5.691,44 1.138,29 0,00 3.622,98 2.276,58 0,00 12.729,29 1.958,23 2.639,09 0,00 4.597,32 8.131,97 457,00 4.297,23 31/12/2013
88 403300 ALEXANDRE AUGUSTO RODRIGUES ANALISTA DO MP ATIVO ÁGUAS FORMOSAS - COMARCA; AGUAS FORMOSAS-PJ-UNPJ 6.469,61 646,96 0,00 3.998,19 0,00 0,00 11.114,76 1.848,13 1.866,83 0,00 3.714,96 7.399,80 457,00 2.726,17 31/12/2013
89 311700 ALEXANDRE BARCELOS RESENDE OFICIAL DO MP ATIVO BELO HORIZONTE - COMARCA; BH-07PJ 03 TRIBUNAL DO JURI-GAB 109PJ 4.265,74 426,57 0,00 2.558,63 0,00 0,00 7.250,94 1.220,29 699,32 0,00 1.919,61 5.331,33 525,25 1.717,99 31/12/2013
90 285600 ALEXANDRE CAMPOS DE OLIVEIRA OFICIAL DO MP ATIVO UBERABA - COMARCA; COORD REG BACIAS PARANAIBA BAIXO RIO GRANDE 6.068,01 1.213,60 0,00 3.639,61 2.427,20 0,00 13.348,42 1.943,03 2.176,44 0,00 4.119,47 9.228,95 1.084,59 3.720,59 31/12/2013
91 509200 ALEXANDRE CAPUANO DE REZENDE ANALISTA DO MP ATIVO BELO HORIZONTE - COMARCA; PROC. JUSTICA DE HABEAS CORPUS 6.068,01 0,00 0,00 3.480,00 2.022,67 0,00 11.570,68 1.558,95 1.813,08 0,00 3.372,03 8.198,65 457,00 2.046,48 31/12/2013
92 229400 ALEXANDRE CARLOS BOTREL DIRETOR/OFICIAL ATIVO BELO HORIZONTE - COMARCA; SUPERINTENDENCIA DOS ORGAOS COLEGIADOS 0,00 2.670,79 13.353,95 8.500,68 5.341,58 0,00 29.867,00 1.994,98 8.196,12 0,00 10.191,10 19.675,90 1.016,22 5.962,16 31/12/2013
93 411900 ALEXANDRE CARVALHO SANTOS RIBEIRO ANALISTA DO MP ATIVO PERDÕES - COMARCA; PERDOES-PJ-UNPJ 7.014,37 701,44 0,00 7.200,74 0,00 0,00 14.916,55 2.087,42 2.034,09 0,00 4.121,51 10.795,04 457,00 4.073,50 31/12/2013
94 201200 ALEXANDRE DE ALENCAR CORDEIRO OFICIAL DO MP ATIVO ÁGUAS FORMOSAS - COMARCA; AGUAS FORMOSAS-PJ-UNPJ 4.696,06 1.878,43 0,00 3.487,58 0,00 0,00 10.062,07 1.713,53 1.408,06 0,00 3.121,59 6.940,48 457,00 2.440,91 31/12/2013
95 288200 ALEXANDRE DE VASCONCELOS COSTA KER ANALISTA DO MP ATIVO BELO HORIZONTE - COMARCA; BH-03PJ EMPRESARIAL-SECRETARIA 9.358,72 1.871,74 0,00 5.460,99 3.743,49 0,00 20.434,94 2.998,38 4.584,27 0,00 7.582,65 12.852,29 472,39 5.752,51 31/12/2013
96 445000 ALEXANDRE DIOGENES OLIVEIRA ANALISTA DO MP ATIVO SALINAS - COMARCA; SALINAS-PJ-02PJ 6.793,15 407,59 0,00 3.523,13 2.400,25 0,00 13.124,12 1.931,96 2.431,23 0,00 4.363,19 8.760,93 457,00 3.733,45 31/12/2013
97 463400 ALEXANDRE LEAL WINKELSTROTER ANALISTA DO MP ATIVO TEÓFILO OTONI - COMARCA; TEOFILO OTONI-PJ-04PJ 5.691,44 341,49 0,00 3.254,65 2.010,98 0,00 11.298,56 1.588,36 1.746,13 0,00 3.334,49 7.964,07 591,37 2.574,99 31/12/2013
98 356900 ALEXANDRE MOISES MENDONCA E ARAUJO OFICIAL DO MP ATIVO UBERABA - COMARCA; UBERABA-PJ-13PJ 4.265,74 426,57 0,00 4.692,31 0,00 0,00 9.384,62 1.221,01 620,18 0,00 1.841,19 7.543,43 457,00 1.724,12 31/12/2013
99 469900 ALEXANDRE PEREIRA GUEDES ANALISTA DO MP ATIVO CATAGUASES - COMARCA; CATAGUASES-PJ-03PJ 6.068,01 364,08 0,00 3.218,91 0,00 0,00 9.651,00 1.701,83 1.442,67 0,00 3.144,50 6.506,50 457,00 3.106,16 31/12/2013
100 208700 ALEXANDRE RESENDE FRAGA ANALISTA DO MP ATIVO BELO HORIZONTE - COMARCA; BH-19PJ SAUDE 11.885,64 2.377,13 0,00 7.566,01 4.754,26 0,00 26.583,04 3.718,35 6.382,19 0,00 10.100,54 16.482,50 1.378,84 5.306,14 31/12/2013
101 216401 ALEXANDRE RIBEIRO DE LIMA MAIORINO ANALISTA DO MP ATIVO UBERABA - COMARCA; UBERABA-PJ-03PJ 9.358,72 1.871,74 0,00 11.230,46 0,00 0,00 22.460,92 2.935,50 3.783,87 0,00 6.719,37 15.741,55 1.376,44 4.479,17 31/12/2013
102 475100 ALEXANDRE TEOTONIO COSTA ANALISTA DO MP ATIVO ARAGUARI - COMARCA; ARAGUARI-PJ-01PJ 6.068,01 364,08 0,00 3.218,91 2.144,03 0,00 11.795,03 1.701,85 1.838,85 0,00 3.540,70 8.254,33 1.074,93 2.983,18 31/12/2013
103 339000 ALEXANDRE VITOR CARDOSO OFICIAL DO MP ATIVO BELO HORIZONTE - COMARCA; BH-18PJ DIREITOS HUMANOS-SECRETARIA 4.696,06 469,61 0,00 2.962,49 1.721,89 0,00 9.850,05 1.379,06 1.169,78 0,00 2.548,84 7.301,21 692,00 2.205,66 31/12/2013
104 513300 ALFSON MIRANDA BRAGA ANALISTA DO MP ATIVO BELO HORIZONTE - COMARCA; BH-12PJ JUIZO CRIMINAL-GAB 092PJ 5.511,94 0,00 0,00 2.656,00 0,00 0,00 8.167,94 1.482,86 957,75 0,00 2.440,61 5.727,33 457,00 3.241,31 31/12/2013
105 471000 ALICE TITONELI MOREIRA ANALISTA DO MP ATIVO MIRADOURO - COMARCA; MIRADOURO-PJ-UNPJ 6.265,58 375,93 0,00 3.582,99 0,00 0,00 10.224,50 1.753,07 1.486,32 0,00 3.239,39 6.985,11 692,00 2.875,59 31/12/2013
106 373000 ALINE BOTELHO RESENDE OFICIAL DO MP ATIVO PASSA QUATRO - COMARCA; PASSA QUATRO-PJ-SECRETARIA 4.131,19 413,12 0,00 2.410,63 0,00 0,00 6.954,94 1.184,39 640,04 0,00 1.824,43 5.130,51 457,00 1.687,24 31/12/2013
107 407700 ALINE CRISTINA RODRIGUES PEREIRA ANALISTA DO MP ATIVO BELO HORIZONTE - COMARCA; DIRETORIA DE PROJETOS DE EDIFICACOES 5.876,69 587,67 0,00 3.200,30 0,00 0,00 9.664,66 1.759,60 1.441,98 0,00 3.201,58 6.463,08 692,00 3.633,51 31/12/2013
108 193100 ALINE CRISTINA SENA OLIVEIRA OFICIAL DO MP ATIVO UBERLÂNDIA - COMARCA; UBERLANDIA-PJ-03PJ 8.233,02 1.646,60 0,00 5.075,60 3.293,21 0,00 18.248,43 2.634,20 3.952,02 0,00 6.586,22 11.662,21 622,73 4.518,31 31/12/2013
109 554200 ALINE CRISTINA SILVA SOUZA OFICIAL DO MP ATIVO TIROS - COMARCA; TIROS-PJ-UNPJ 2.859,08 0,00 0,00 1.458,58 0,00 0,00 4.317,66 620,91 56,76 0,00 677,67 3.639,99 457,00 883,74 31/12/2013
110 505500 ALINE DA CUNHA MARREIROS OLIVEIRA ANALISTA DO MP ATIVO CARANGOLA - COMARCA; CARANGOLA-PJ-03PJ 6.068,01 0,00 0,00 3.480,00 0,00 0,00 9.548,01 1.567,58 1.256,85 0,00 2.824,43 6.723,58 692,00 2.125,29 31/12/2013
111 433500 ALINE DE MELO QUEIROZ OFICIAL DO MP ATIVO BELO HORIZONTE - COMARCA; PROCON-MG-SECRETARIA DE FISCALIZACOES 4.848,98 1.399,26 0,00 3.265,53 0,00 0,00 9.513,77 1.421,41 1.393,54 0,00 2.814,95 6.698,82 457,00 3.685,95 31/12/2013
112 542700 ALINE DE SOUSA ALBINO ANALISTA DO MP ATIVO CARMO DO PARANAÍBA - COMARCA; CARMO DO PARANAIBA-PJ-02PJ 4.404,59 0,00 0,00 2.291,77 0,00 0,00 6.696,36 1.067,26 448,47 0,00 1.515,73 5.180,63 457,00 1.635,40 31/12/2013
113 330000 ALINE DIORIO MAYRINK OFICIAL DO MP ATIVO BELO HORIZONTE - COMARCA; BH-12PJ JUIZO CRIMINAL 4.848,98 484,90 0,00 2.829,47 1.777,96 0,00 9.941,31 1.392,36 1.483,15 0,00 2.875,51 7.065,80 573,37 2.000,41 31/12/2013
114 499000 ALINE FERREIRA LOPES NEIVA ANALISTA DO MP ATIVO TEÓFILO OTONI - COMARCA; COORD. DE DEF. DO PAT. PUBLICO-JEQUIT./MUCURI 6.068,01 0,00 0,00 3.480,00 0,00 0,00 9.548,01 1.288,05 1.115,44 0,00 2.403,49 7.144,52 457,00 2.172,38 31/12/2013
115 405300 ALINE LAIA CARDOZO ANALISTA DO MP ATIVO BELO HORIZONTE - COMARCA; EXTINTA - DIRETORIA DE CONTRATOS E CONVÊNIOS 7.014,37 701,44 0,00 3.819,79 0,00 0,00 11.535,60 2.109,33 2.034,09 0,00 4.143,42 7.392,18 457,00 4.272,91 31/12/2013
116 278200 ALINE MARCIA FARIA BARBOSA OFICIAL DO MP ATIVO BARBACENA - COMARCA; BARBACENA-PJ-SECRETARIA 4.696,06 469,61 0,00 2.740,24 1.721,89 0,00 9.627,80 1.346,36 1.104,76 0,00 2.451,12 7.176,68 927,00 1.917,94 31/12/2013
117 389000 ALINE NERI NOBRE ANALISTA DO MP ATIVO MONTES CLAROS - COMARCA; COORD REG PJ DEF EDUC DIR CRIANCA ADOL NORTE 7.973,40 1.594,68 0,00 5.615,95 0,00 0,00 15.184,03 2.571,82 3.267,57 0,00 5.839,39 9.344,64 761,29 4.262,61 31/12/2013
118 294600 ALINE PATRICIA SILVA VIEIRA OFICIAL DO MP ATIVO UBERLÂNDIA - COMARCA; UBERLANDIA-PJ-03PJ 6.068,01 606,80 0,00 3.639,61 2.224,94 0,00 12.539,36 1.733,06 2.069,03 0,00 3.802,09 8.737,27 927,00 2.417,32 31/12/2013
119 420000 ALINE RODRIGUES CAMOROPIN ANALISTA DO MP ATIVO SABARÁ - COMARCA; SABARA-PJ-02PJ 6.793,15 407,59 0,00 3.819,79 0,00 0,00 11.020,53 1.877,31 1.908,03 0,00 3.785,34 7.235,19 687,15 2.679,62 31/12/2013
120 408300 ALINE SILVA ARAUJO DE PAULA ANALISTA DO MP ATIVO SÃO SEBASTIÃO DO PARAÍSO - COMARCA; SAO SEBASTIAO DO PARAISO-PJ-02PJ 7.014,37 701,44 0,00 3.819,79 2.571,94 0,00 14.107,54 2.100,16 2.741,38 0,00 4.841,54 9.266,00 3.833,47 4.645,86 31/12/2013
121 425400 ALINE TRINDADE DE FREITAS CAMPOS OFICIAL DO MP ATIVO BELO HORIZONTE - COMARCA; BH-14PJ DEFESA CONSUMIDOR-SECRETARIA 4.848,98 290,94 0,00 5.139,92 0,00 0,00 10.279,84 1.320,52 899,27 0,00 2.219,79 8.060,05 457,00 1.733,55 31/12/2013
122 517200 ALISSOM PEREIRA DA SILVA ANALISTA DO MP ATIVO BORDA DA MATA - COMARCA; BORDA DA MATA-PJ-UNPJ 5.511,94 0,00 0,00 3.161,07 0,00 0,00 8.673,01 1.423,18 1.081,37 0,00 2.504,55 6.168,46 640,09 2.026,65 31/12/2013
123 442400 ALISSON LABRE ANALISTA DO MP ATIVO VARGINHA - COMARCA; VARGINHA-PJ-02PJ 6.793,15 407,59 0,00 3.523,13 2.400,25 0,00 13.124,12 1.952,46 2.431,23 0,00 4.383,69 8.740,43 457,00 3.919,85 31/12/2013
124 349000 ALLEC RODRIGUES VIEIRA ASSESSOR/OFICIAL ATIVO BELO HORIZONTE - COMARCA; COORD DE INCLUSAO E MOBILIZACAO SOCIAIS 0,00 877,78 8.777,78 5.122,01 0,00 0,00 14.777,57 2.643,97 3.074,96 0,00 5.718,93 9.058,64 1.045,45 3.597,90 31/12/2013
125 297300 ALLYSON SALIBA MONTEIRO LAIZO ANALISTA DO MP ATIVO CONSELHEIRO LAFAIETE - COMARCA; CONSELHEIRO LAFAIETE-PJ-03PJ 10.302,83 1.030,28 0,00 5.460,99 3.777,70 0,00 20.571,80 3.140,22 4.715,52 0,00 7.855,74 12.716,06 514,50 6.939,32 31/12/2013
126 303700 ALMIR LOPES LOURES ANALISTA DO MP ATIVO BELO HORIZONTE - COMARCA; CENTRAL DE APOIO TECN-SETOR DE MEIO AMBIENTE 10.302,83 1.030,28 0,00 6.011,90 0,00 0,00 17.345,01 2.375,56 2.877,62 0,00 5.253,18 12.091,83 479,50 4.272,34 31/12/2013
127 515900 ALTAIR NEVES JUNIOR OFICIAL DO MP ATIVO BELO HORIZONTE - COMARCA; BH-03PJ EMPRESARIAL-SECRETARIA 3.577,90 0,00 0,00 3.250,03 1.192,63 0,00 8.020,56 956,84 495,14 0,00 1.451,98 6.568,58 655,07 1.877,44 31/12/2013
128 233300 ALVARINDO BATISTA COORDENADOR/ANALISTA ATIVO BELO HORIZONTE - COMARCA; DIVISAO DE MULTIMIDIA 11.885,64 4.189,85 0,00 9.035,27 0,00 0,00 25.110,76 3.674,87 6.361,89 0,00 10.036,76 15.074,00 4.271,73 6.120,39 31/12/2013
129 274100 ALYSSON CARVALHO VIDAL DE LACERDA OFICIAL DO MP ATIVO MANHUAÇU - COMARCA; MANHUACU-PJ-01PJ 6.265,58 626,56 0,00 6.674,81 0,00 0,00 13.566,95 1.835,36 1.703,78 0,00 3.539,14 10.027,81 457,00 3.130,25 31/12/2013
130 558600 ALYSSON FRANCISCO ALVES GARCIA OFICIAL DO MP ATIVO VESPASIANO - COMARCA; VESPASIANO-PJ-SECRETARIA 2.859,08 0,00 0,00 1.191,28 0,00 0,00 4.050,36 506,76 56,76 0,00 563,52 3.486,84 0,00 559,30 31/12/2013
131 521700 AMANDA CRISTINA AGUIAR MACHADO OFICIAL DO MP ATIVO BARBACENA - COMARCA; BARBACENA-PJ-03PJ 2.952,15 0,00 0,00 1.566,03 984,05 0,00 5.502,23 769,45 235,58 0,00 1.005,03 4.497,20 457,00 1.096,13 31/12/2013
132 520800 AMANDA DE SOUZA MACHADO ANALISTA DO MP ATIVO BAEPENDI - COMARCA; BAEPENDI-PJ-UNPJ 5.511,94 0,00 0,00 2.656,00 0,00 0,00 8.167,94 1.525,61 772,30 0,00 2.297,91 5.870,03 788,44 3.359,89 31/12/2013
133 501800 AMANDA LIMA TEIXEIRA COSTA OFICIAL DO MP ATIVO CATAGUASES - COMARCA; CATAGUASES-PJ-04PJ 3.938,84 0,00 0,00 2.258,91 0,00 0,00 6.197,75 1.019,77 343,29 0,00 1.363,06 4.834,69 740,01 1.473,06 31/12/2013
134 543100 AMANDA VIEIRA FREITAS ANALISTA DO MP ATIVO PARAGUAÇU - COMARCA; PARAGUACU-PJ-UNPJ 4.404,59 0,00 0,00 2.291,77 0,00 0,00 6.696,36 915,60 364,72 0,00 1.280,32 5.416,04 457,00 1.635,40 31/12/2013
135 434400 AMARILIS ASSIS SIMAO CURCIO ANALISTA DO MP ATIVO BELO HORIZONTE - COMARCA; ASSESS TECNICO-JUR JUNTO AS PROC. DE JUST 6.793,15 407,59 0,00 4.082,36 0,00 0,00 11.283,10 1.872,31 1.908,03 0,00 3.780,34 7.502,76 927,00 2.779,90 31/12/2013
136 273700 AMBROLINA CARNEIRO DE VASCONCELOS OFICIAL DO MP ATIVO FRUTAL - COMARCA; FRUTAL-PJ-03PJ 6.265,58 2.506,23 0,00 4.653,20 2.923,94 0,00 16.348,95 2.318,52 3.384,44 0,00 5.702,96 10.645,99 463,90 3.551,82 31/12/2013
137 58000 AMELIA GUARIZE DE CASTRO OFICIAL DO MP ATIVO JUIZ DE FORA - COMARCA; JUIZ DE FORA-PJ-SECRETARIA 5.169,86 4.652,88 0,00 5.210,70 0,00 1.080,50 16.113,94 2.561,04 3.785,77 0,00 6.346,81 9.767,13 846,94 5.136,97 31/12/2013
138 324301 AMERICA SUELI FERREIRA DA SILVA ANALISTA DO MP ATIVO MONTE CARMELO - COMARCA; MONTE CARMELO-PJ-02PJ 6.265,58 375,93 0,00 3.582,99 0,00 0,00 10.224,50 1.738,46 1.583,03 0,00 3.321,49 6.903,01 826,81 2.743,57 31/12/2013
139 273300 AMUJACY DE BRITO ASSIZ OFICIAL DO MP ATIVO BELO HORIZONTE - COMARCA; BH-12PJ JUIZO CRIMINAL-SECRETARIA 5.511,94 1.102,39 0,00 3.767,52 0,00 0,00 10.381,85 1.714,55 1.330,85 0,00 3.045,40 7.336,45 1.095,10 2.495,93 31/12/2013
140 482200 ANA ALICE LOPES ACHTSCHIN ANALISTA DO MP ATIVO BELO HORIZONTE - COMARCA; PROC JUST RECURSOS ESP E EXTRAORD CRIMINAIS 6.068,01 0,00 0,00 3.218,91 2.022,67 0,00 11.309,59 1.581,56 1.909,80 0,00 3.491,36 7.818,23 457,00 2.252,98 31/12/2013
141 490400 ANA AMELIA PAULINO GARCIA OFICIAL DO MP ATIVO GRAO MOGOL - COMARCA; GRAO MOGOL-PJ-UNPJ 3.938,84 0,00 0,00 2.258,91 0,00 0,00 6.197,75 839,49 338,59 0,00 1.178,08 5.019,67 457,00 1.521,33 31/12/2013
142 279100 ANA CAROLINA ARAUJO PEREIRA ANALISTA DO MP ATIVO BELO HORIZONTE - COMARCA; DIRETORIA DE PROJETOS DE EDIFICACOES 10.302,83 2.060,57 0,00 6.396,86 0,00 0,00 18.760,26 2.868,86 3.387,29 0,00 6.256,15 12.504,11 867,66 7.342,33 31/12/2013
143 359400 ANA CAROLINA DE ABREU FARIA ASSESSOR ATIVO BELO HORIZONTE - COMARCA; DIVISAO DE CONTROLE IMOBILIARIO 0,00 0,00 3.938,84 2.089,44 1.312,95 0,00 7.341,23 890,76 829,71 0,00 1.720,47 5.620,76 457,00 1.462,43 31/12/2013
144 408500 ANA CAROLINA DE CASTRO CARVALHO ANALISTA DO MP ATIVO BARBACENA - COMARCA; BARBACENA-PJ-SECRETARIA 7.014,37 420,86 0,00 3.819,79 2.478,41 0,00 13.733,43 1.975,65 2.646,98 0,00 4.622,63 9.110,80 3.431,09 3.610,58 31/12/2013
145 420200 ANA CAROLINA FERNANDES SILVA ANALISTA DO MP ATIVO BELO HORIZONTE - COMARCA; PROC. JUSTICA DE HABEAS CORPUS 6.265,58 375,93 0,00 3.523,13 0,00 0,00 10.164,64 1.731,33 1.634,29 0,00 3.365,62 6.799,02 457,00 2.604,39 31/12/2013
146 522100 ANA CAROLINA FERNANDINO VIDAL PEREIRA SANTOS OFICIAL DO MP ATIVO BELO HORIZONTE - COMARCA; EXTINTA - SECRETARIA ADMINISTRATIVA 3.250,03 0,00 0,00 3.250,03 0,00 0,00 6.500,06 839,99 1.101,39 0,00 1.941,38 4.558,68 890,07 4.907,97 31/12/2013
147 502400 ANA CAROLINA GONCALVES FERNANDES ANALISTA DO MP ATIVO ABRE CAMPO - COMARCA; ABRE CAMPO-PJ-01PJ 6.068,01 0,00 0,00 3.480,00 0,00 0,00 9.548,01 1.285,94 1.115,44 0,00 2.401,38 7.146,63 584,23 2.277,65 31/12/2013
148 529900 ANA CAROLINA GONCALVES PECANHA CHEQUER ANALISTA DO MP ATIVO MANHUAÇU - COMARCA; MANHUACU-PJ-04PJ 4.848,98 0,00 0,00 2.547,62 0,00 0,00 7.396,60 1.010,70 541,63 0,00 1.552,33 5.844,27 457,00 1.800,37 31/12/2013
149 431900 ANA CAROLINA MOTTA GUATIMOSIM ANALISTA DO MP ATIVO BELO HORIZONTE - COMARCA; PROC. JUSTICA DE HABEAS CORPUS 6.793,15 407,59 0,00 4.082,36 2.400,25 0,00 13.683,35 1.873,45 2.568,10 0,00 4.441,55 9.241,80 3.337,30 2.907,31 31/12/2013
150 539400 ANA CAROLINA REIS MACEDO ANALISTA DO MP ATIVO UBERABA - COMARCA; COORD REG PJ DEF EDUC DIR CRIANCA ADOL TRIANG 4.404,59 0,00 0,00 2.291,77 0,00 0,00 6.696,36 1.067,77 448,47 0,00 1.516,24 5.180,12 457,00 1.640,05 31/12/2013
151 490600 ANA CAROLINA XAVIER GODOY ANALISTA DO MP ATIVO BELO HORIZONTE - COMARCA; BH-18PJ VIOLENCIA DOMESTICA 6.068,01 0,00 0,00 3.480,00 0,00 0,00 9.548,01 1.293,41 1.115,44 0,00 2.408,85 7.139,16 591,37 2.221,94 31/12/2013
152 600300 ANA CAROLINE PEREIRA DINIZ ANALISTA DO MP ATIVO BELO HORIZONTE - COMARCA; COMB CRIMES PRAT POR AG POL MUN-SECRETARIA 4.848,98 0,00 0,00 1.835,25 0,00 0,00 6.684,23 877,93 368,05 0,00 1.245,98 5.438,25 457,00 1.300,98 31/12/2013
153 324800 ANA CECILIA MENDES DA SILVA OFICIAL DO MP ATIVO OURO FINO - COMARCA; OURO FINO-PJ-01PJ 5.876,69 1.175,34 0,00 7.052,03 2.350,68 0,00 16.454,74 1.829,14 2.384,96 0,00 4.214,10 12.240,64 692,00 2.676,86 31/12/2013
154 441300 ANA CLAUDIA ALKIMIM MIRANDA BOMTEMPO ANALISTA DO MP ATIVO MONTES CLAROS - COMARCA; MONTES CLAROS-PJ-11PJ 6.793,15 407,59 0,00 4.082,36 0,00 0,00 11.283,10 1.863,28 1.714,61 0,00 3.577,89 7.705,21 927,00 2.685,95 31/12/2013
155 604900 ANA CLAUDIA OLIVEIRA DE MIRANDA OFICIAL DO MP ATIVO PONTE NOVA - COMARCA; PONTE NOVA-PJ-04PJ 2.859,08 0,00 0,00 476,51 0,00 0,00 3.335,59 366,92 56,76 0,00 423,68 2.911,91 457,00 0,00 31/12/2013
156 379300 ANA CRISTINA ALVES FLAVIO ANALISTA DO MP ATIVO SÃO GOTARDO - COMARCA; SAO GOTARDO-PJ-01PJ 7.973,40 797,34 0,00 4.093,02 0,00 0,00 12.863,76 2.475,58 2.321,64 0,00 4.797,22 8.066,54 2.255,67 6.240,10 31/12/2013
157 461200 ANA CRISTINA ALVES PASCHOAL ANALISTA DO MP ATIVO SANTA LUZIA - COMARCA; SANTA LUZIA-PJ-03PJ 6.265,58 375,93 0,00 3.582,99 0,00 0,00 10.224,50 1.801,15 1.583,03 0,00 3.384,18 6.840,32 692,00 3.335,53 31/12/2013
158 514100 ANA CRISTINA ARAUJO ASSUNCAO ANALISTA DO MP ATIVO BELO HORIZONTE - COMARCA; ASSESS JUR DO CONS SUPERIOR DO MINISTERIO PUB 5.006,87 0,00 0,00 5.006,87 0,00 0,00 10.013,74 1.316,93 834,51 0,00 2.151,44 7.862,30 579,06 2.070,57 31/12/2013
159 113400 ANA CRISTINA BRAGA ALBUQUERQUE ANALISTA DO MP ATIVO BELO HORIZONTE - COMARCA; ASSESS ESP ADM E FINANCEIRA DO PGJ ADJ ADM 23.074,69 9.229,88 0,00 12.661,75 8.441,17 0,00 53.407,49 5.571,18 13.100,45 6.981,07 25.652,70 27.754,79 457,00 0,00 31/12/2013
160 233800 ANA CRISTINA BRAGA SOARES RIOS OFICIAL DO MP ATIVO CONTAGEM - COMARCA; CONTAGEM-PJ-SECRETARIA 6.068,01 1.213,60 0,00 4.176,00 0,00 0,00 11.457,61 1.870,72 1.947,61 0,00 3.818,33 7.639,28 457,00 2.428,53 31/12/2013
161 186400 ANA CRISTINA DE AZEVEDO LOPES OFICIAL DO MP ATIVO UBÁ - COMARCA; UBA-PJ-01PJ 8.233,02 1.646,60 0,00 5.240,86 3.293,21 0,00 18.413,69 2.066,84 3.311,86 0,00 5.378,70 13.034,99 462,40 3.687,52 31/12/2013
162 465100 ANA CRISTINA DE OLIVEIRA GUIMARAES ANALISTA DO MP ATIVO BRASÓPOLIS - COMARCA; BRASOPOLIS-PJ-UNPJ 6.265,58 375,93 0,00 3.582,99 0,00 0,00 10.224,50 1.743,35 1.583,03 0,00 3.326,38 6.898,12 457,00 2.910,06 31/12/2013
163 500600 ANA CRISTINA LATADO SUDARIO ANALISTA DO MP ATIVO UBERLÂNDIA - COMARCA; UBERLANDIA-PJ-07PJ 5.511,94 0,00 0,00 3.161,07 0,00 0,00 8.673,01 1.426,46 1.081,37 0,00 2.507,83 6.165,18 457,00 2.055,77 31/12/2013
164 331400 ANA CRISTINA RIBEIRO ALVES OFICIAL DO MP ATIVO BAMBUÍ - COMARCA; BAMBUI-PJ-UNPJ 5.169,86 516,99 0,00 3.016,72 0,00 0,00 8.703,57 1.561,00 1.286,30 0,00 2.847,30 5.856,27 803,58 2.946,33 31/12/2013
165 249300 ANA ELOINA MARTINS DO PINHO OFICIAL DO MP ATIVO BETIM - COMARCA; BETIM-PJ-06PJ 6.578,93 1.973,68 0,00 4.603,65 2.850,87 0,00 16.007,13 1.789,18 2.709,48 0,00 4.498,66 11.508,47 552,18 3.125,28 31/12/2013
166 257400 ANA FLAVIA CAMBRAIA ANALISTA DO MP ATIVO BELO HORIZONTE - COMARCA; BH-19PJ SAUDE-SECRETARIA 150PJ 9.977,95 1.995,59 0,00 6.528,87 3.991,18 0,00 22.493,59 3.105,43 5.245,18 0,00 8.350,61 14.142,98 457,00 4.305,48 31/12/2013
167 248201 ANA FLAVIA DE MORAIS SOUZA ANALISTA DO MP ATIVO DIVINÓPOLIS - COMARCA; DIVINOPOLIS-PJ-01PJ 6.265,58 1.253,12 0,00 3.862,69 2.506,23 0,00 13.887,62 1.999,61 2.694,85 0,00 4.694,46 9.193,16 457,00 3.391,07 31/12/2013
168 238600 ANA FLAVIA FRANCO CAMPOS OFICIAL DO MP ATIVO BELO HORIZONTE - COMARCA; DIRETORIA DE PESSOAL ADMINISTRATIVO - DPAD 6.578,93 1.315,79 0,00 4.249,53 2.631,57 0,00 14.775,82 2.052,43 2.971,41 0,00 5.023,84 9.751,98 512,75 2.884,01 31/12/2013
169 402900 ANA FLAVIA PORTES DE CARVALHO ANALISTA DO MP ATIVO BELO HORIZONTE - COMARCA; DIRET DE PLANOS PROJETOS E PROGRAMAS INST 7.973,40 797,34 0,00 4.334,86 2.923,58 0,00 16.029,18 2.471,40 3.125,62 0,00 5.597,02 10.432,16 692,00 5.995,18 31/12/2013
170 382700 ANA KARENINA SALDANHA GONTIJO ANALISTA DO MP ATIVO BELO HORIZONTE - COMARCA; ASSESS TECNICO-JUR JUNTO AS PROC. DE JUST 6.469,61 646,96 0,00 3.775,14 0,00 0,00 10.891,71 1.855,19 1.866,83 0,00 3.722,02 7.169,69 457,00 2.790,71 31/12/2013
171 220000 ANA LUCIA AMORIM OFICIAL DO MP ATIVO MARTINHO CAMPOS - COMARCA; MARTINHO CAMPOS-PJ-SECRETARIA 6.793,15 3.396,58 0,00 5.405,37 3.396,58 0,00 18.991,68 2.679,24 4.305,21 0,00 6.984,45 12.007,23 457,00 4.205,33 31/12/2013
172 462200 ANA LUCIA ANDRADE TOMICH OTTONI ANALISTA DO MP ATIVO TEÓFILO OTONI - COMARCA; TEOFILO OTONI-PJ-06PJ 6.265,58 375,93 0,00 3.582,99 2.213,84 0,00 12.438,34 1.739,99 1.998,41 0,00 3.738,40 8.699,94 692,00 2.755,59 31/12/2013
173 504100 ANA LUCIA CATAO DE CARVALHO OFICIAL DO MP ATIVO BELO HORIZONTE - COMARCA; BH-09PJ AUDITORIA MILITAR 3.577,90 0,00 0,00 2.051,92 0,00 0,00 5.629,82 926,38 246,91 0,00 1.173,29 4.456,53 692,00 1.338,38 31/12/2013
174 274700 ANA LUCIA DE ALENCAR BRAGATO OFICIAL DO MP ATIVO UBERABA - COMARCA; UBERABA-PJ-04PJ 6.265,58 1.253,12 0,00 4.282,65 2.506,23 0,00 14.307,58 1.595,16 2.283,08 0,00 3.878,24 10.429,34 457,00 2.713,80 31/12/2013
175 258600 ANA LUCIA DE FREITAS AZEVEDO ANALISTA DO MP ATIVO BELO HORIZONTE - COMARCA; BH-19PJ SAUDE-SECRETARIA 150PJ 10.302,83 2.060,57 0,00 6.558,44 0,00 0,00 18.921,84 3.257,97 4.435,15 0,00 7.693,12 11.228,72 457,00 4.915,82 31/12/2013
176 509400 ANA LUCIA DORNELAS MALLOSTO ANALISTA DO MP ATIVO JUIZ DE FORA - COMARCA; JUIZ DE FORA-PJ-18PJ 5.006,87 0,00 0,00 2.871,44 1.668,96 0,00 9.547,27 1.286,49 1.019,53 0,00 2.306,02 7.241,25 567,87 1.690,51 31/12/2013
177 524600 ANA LUCIA DOS SANTOS FERNANDES COELHO ASSESSOR ATIVO BELO HORIZONTE - COMARCA; CAO-MEIO AMBIENTE-SECRETARIA 0,00 0,00 3.938,84 2.089,44 1.312,95 0,00 7.341,23 246,56 991,37 0,00 1.237,93 6.103,30 457,00 1.462,43 31/12/2013
178 302600 ANA LUCIA LOPES SANTOS OFICIAL DO MP ATIVO BELO HORIZONTE - COMARCA; PROCON-MG-SECRETARIA DE FISCALIZACOES 5.876,69 1.695,99 0,00 4.112,77 2.524,23 0,00 14.209,68 1.682,17 2.754,60 0,00 4.436,77 9.772,91 457,00 2.782,91 31/12/2013
179 493400 ANA LUISA NOGUEIRA MOREIRA ANALISTA DO MP ATIVO BELO HORIZONTE - COMARCA; TRIBUNAL DO JURI-07 PJ-02 TRIBUNAL 6.068,01 0,00 0,00 3.480,00 0,00 0,00 9.548,01 1.290,84 1.115,44 0,00 2.406,28 7.141,73 457,00 2.310,37 31/12/2013
180 389300 ANA LUISA REUTER LIMA ANALISTA DO MP ATIVO BELO HORIZONTE - COMARCA; DIRETORIA DE SISTEMAS DE INFORMACAO 6.578,93 657,89 0,00 3.429,16 0,00 0,00 10.665,98 2.024,76 1.736,63 0,00 3.761,39 6.904,59 457,00 4.717,51 31/12/2013
181 480600 ANA LUIZA FERNANDES FRAGA E GRECO OFICIAL DO MP ATIVO SANTO ANTÔNIO DO MONTE - COMARCA; SANTO ANTONIO DO MONTE-PJ-UNPJ 3.577,90 0,00 0,00 1.897,97 0,00 0,00 5.475,87 932,66 299,67 0,00 1.232,33 4.243,54 457,00 1.402,32 31/12/2013
182 517800 ANA LUIZA MAGALHAES CIRINO PIOTO DE MELO OFICIAL DO MP ATIVO BELO HORIZONTE - COMARCA; DIVISAO DE MANUTENCAO PREDIAL 2.952,15 0,00 0,00 2.952,15 0,00 0,00 5.904,30 769,59 136,49 0,00 906,08 4.998,22 457,00 1.157,70 31/12/2013
183 481400 ANA MARCIA CANDIDA FERREIRA OFICIAL DO MP ATIVO BRUMADINHO - COMARCA; BRUMADINHO-PJ-01PJ 3.250,03 0,00 0,00 1.724,05 1.083,34 0,00 6.057,42 847,09 404,89 0,00 1.251,98 4.805,44 457,00 1.206,71 31/12/2013
184 556400 ANA MARIA OLIVEIRA SOUZA OFICIAL DO MP ATIVO ITAPECERICA - COMARCA; ITAPECERICA-PJ-UNPJ 2.859,08 0,00 0,00 1.667,80 0,00 0,00 4.526,88 587,55 56,76 0,00 644,31 3.882,57 457,00 818,45 31/12/2013
185 409600 ANA OLIVIA FARIA ROSENBURG ANALISTA DO MP ATIVO BELO HORIZONTE - COMARCA; DIRETORIA DO COLEGIO E DA CAMARA DE PJ 7.014,37 1.402,87 0,00 4.324,29 0,00 0,00 12.741,53 2.235,06 2.438,54 0,00 4.673,60 8.067,93 692,00 3.931,11 31/12/2013
186 461500 ANA PAULA ALVES CARVALHO ANALISTA DO MP ATIVO UBERLÂNDIA - COMARCA; UBERLANDIA-PJ-08PJ 6.265,58 375,93 0,00 6.432,09 0,00 0,00 13.073,60 1.751,87 1.583,03 0,00 3.334,90 9.738,70 604,93 2.988,19 31/12/2013
187 523200 ANA PAULA ALVES DA SILVA OFICIAL DO MP ATIVO GOVERNADOR VALADARES - COMARCA; GOVERNADOR VALADARES-PJ-15PJ 3.577,90 1.108,32 0,00 1.897,97 0,00 0,00 6.584,19 1.356,36 544,07 0,00 1.900,43 4.683,76 457,00 5.254,06 31/12/2013
188 381200 ANA PAULA BARROS PEREIRA ASSESSOR/ANALISTA ATIVO BELO HORIZONTE - COMARCA; PROC JUST RECURSOS ESP E EXTRAORD CRIMINAIS 0,00 797,34 7.973,40 4.652,63 0,00 0,00 13.423,37 2.359,86 2.644,64 0,00 5.004,50 8.418,87 457,00 3.438,31 31/12/2013
189 227200 ANA PAULA DA SILVA CAMPOLINA ANALISTA DO MP ATIVO BELO HORIZONTE - COMARCA; SUPERINTENDENCIA DE FINANCAS 11.885,64 3.565,69 0,00 8.746,47 5.150,44 0,00 29.348,24 3.980,16 7.363,06 0,00 11.343,22 18.005,02 701,20 5.308,32 31/12/2013
190 84200 ANA PAULA DE SOUZA ROCHA OFICIAL DO MP ATIVO BELO HORIZONTE - COMARCA; ASSESS ESP ADM E FINANCEIRA DO PGJ ADJ ADM 21.687,17 8.674,87 0,00 12.661,75 8.441,17 0,00 51.464,96 5.571,18 12.907,02 5.038,54 23.516,74 27.948,22 457,00 0,00 31/12/2013
191 278500 ANA PAULA DIAS CAPANEMA COORDENADOR/OFICIAL ATIVO BELO HORIZONTE - COMARCA; EXTINTA - DIRETORIA DE MATERIAL E PATRIMONIO 0,00 2.060,57 10.302,83 7.042,19 4.121,13 0,00 23.526,72 1.952,06 5.859,24 0,00 7.811,30 15.715,42 730,29 4.341,59 31/12/2013
192 327300 ANA PAULA GARCIA MAXIMO OFICIAL DO MP ATIVO UNAÍ - COMARCA; UNAI-PJ-01PJ 5.876,69 1.763,01 0,00 4.165,72 2.546,57 0,00 14.351,99 1.981,97 2.533,07 0,00 4.515,04 9.836,95 934,22 2.753,41 31/12/2013
193 270000 ANA PAULA GOULART CRUZ DE MAGALHAES ANALISTA DO MP ATIVO BELO HORIZONTE - COMARCA; COMB CRIMES PRAT POR AG POL MUN-ASSESSORIA 7.721,95 1.544,39 0,00 5.111,69 0,00 0,00 14.378,03 2.447,43 2.847,64 0,00 5.295,07 9.082,96 457,00 4.192,89 31/12/2013
194 262100 ANA PAULA KOMATSUZAKI ABIJAUDI ANALISTA DO MP ATIVO BELO HORIZONTE - COMARCA; BH-17PJ PATRIMONIO PUBLICO-SECRETARIA 9.977,95 2.993,39 0,00 7.072,94 4.323,78 0,00 24.368,06 3.364,40 5.728,35 0,00 9.092,75 15.275,31 789,55 4.666,83 31/12/2013
195 278900 ANA PAULA MOREIRA GURGEL ANALISTA DO MP ATIVO BELO HORIZONTE - COMARCA; EXTINTA - DIRETORIA DE CONTRATOS E CONVÊNIOS 10.302,83 3.090,85 0,00 7.104,97 4.464,56 0,00 24.963,21 3.499,47 6.167,23 0,00 9.666,70 15.296,51 585,93 5.051,80 31/12/2013
196 425700 ANA PAULA ROCHA ASSESSOR/OFICIAL ATIVO BELO HORIZONTE - COMARCA; SUPERINTENDENCIA DE COMUNICACAO INTEGRADA 0,00 375,93 6.265,58 3.523,13 0,00 0,00 10.164,64 1.377,24 1.709,81 0,00 3.087,05 7.077,59 457,00 2.603,10 31/12/2013
197 395601 ANA PAULA SALGE OLIVEIRA ANALISTA DO MP ATIVO UBERABA - COMARCA; COORD REG PJ DEF EDUC DIR CRIANCA ADOL TRIANG 5.511,94 1.102,39 0,00 3.508,72 2.204,78 0,00 12.327,83 1.723,98 2.227,30 0,00 3.951,28 8.376,55 471,62 2.456,14 31/12/2013
198 473200 ANA PAULA SCOTTON BRASIL ANALISTA DO MP ATIVO JUIZ DE FORA - COMARCA; JUIZ DE FORA-PJ-09PJ 5.511,94 330,72 0,00 2.923,93 1.947,55 0,00 10.714,14 1.545,75 1.697,89 0,00 3.243,64 7.470,50 457,00 2.707,92 31/12/2013
199 558900 ANA PAULA TAVARES PONTELLO NEVES ANALISTA DO MP ATIVO BELO HORIZONTE - COMARCA; BH-19PJ SAUDE-SECRETARIA 129PJ 4.404,59 0,00 0,00 2.202,30 0,00 0,00 6.606,89 843,94 297,75 0,00 1.141,69 5.465,20 457,00 1.070,60 31/12/2013
200 470900 ANA PAULA VALADARES ANALISTA DO MP ATIVO PITANGUI - COMARCA; PITANGUI-PJ-01PJ 6.265,58 375,93 0,00 3.582,99 0,00 0,00 10.224,50 1.427,72 1.134,87 0,00 2.562,59 7.661,91 692,00 2.766,32 31/12/2013
201 447000 ANA PAULA VALENTIM DE ARAUJO ANALISTA DO MP ATIVO BELO HORIZONTE - COMARCA; COMB CRIMES PRAT POR AG POL MUN-SECRETARIA 6.265,58 375,93 0,00 3.523,13 2.213,84 0,00 12.378,48 1.731,57 2.243,09 0,00 3.974,66 8.403,82 699,86 2.472,19 31/12/2013
202 604200 ANA PAULA VIANA E SILVA OFICIAL DO MP ATIVO BELO HORIZONTE - COMARCA; BH-17PJ PATRIMONIO PUBLICO-SECRETARIA 3.147,52 0,00 0,00 714,77 0,00 0,00 3.862,29 475,09 85,16 0,00 560,25 3.302,04 457,00 456,70 31/12/2013
203 505400 ANA PAULA VIEIRA SOUTO OFICIAL DO MP ATIVO ALMENARA - COMARCA; COORD. PAT. PUBLICO-MUCURI/JEQUIT - ALMENARA 3.250,03 650,01 0,00 2.236,70 1.300,01 0,00 7.436,75 824,96 561,87 0,00 1.386,83 6.049,92 699,20 1.369,82 31/12/2013
204 280200 ANA RACHEL BRANDAO LADEIRA ROLAND COORDENADOR/ANALISTA ATIVO BELO HORIZONTE - COMARCA; ASSESSORIA JURIDICO-ADMINISTRATIVA 0,00 1.335,40 13.353,95 14.689,35 4.896,45 0,00 34.275,15 2.832,40 7.145,57 0,00 9.977,97 24.297,18 457,00 5.453,98 31/12/2013
205 601200 ANA REGINA RIBEIRO ANALISTA DO MP ATIVO BELO HORIZONTE - COMARCA; EXTINTA - DIVISAO DE SERVICOS GERAIS 4.404,59 0,00 0,00 1.835,25 0,00 0,00 6.239,84 794,64 324,43 0,00 1.119,07 5.120,77 457,00 987,88 31/12/2013
206 384700 ANA RODRIGUES PEREIRA MARRA ANALISTA DO MP ATIVO COROMANDEL - COMARCA; COROMANDEL-PJ-SECRETARIA 5.876,69 587,67 0,00 3.429,16 2.154,79 0,00 12.048,31 1.757,06 2.179,05 0,00 3.936,11 8.112,20 457,00 3.056,91 31/12/2013
207 232700 ANA SILVIA SEMBLANO NAKAMURA ASSESSOR/OFICIAL ATIVO BELO HORIZONTE - COMARCA; CENT DE APOIO TEC-SETOR DEF,IDOSO E INFANC 0,00 1.594,68 7.973,40 5.075,60 3.189,36 0,00 17.833,04 1.962,09 4.067,03 0,00 6.029,12 11.803,92 457,00 3.552,49 31/12/2013
208 326700 ANA TERCIA DE FATIMA COSTA OFICIAL DO MP ATIVO NOVA SERRANA - COMARCA; NOVA SERRANA-PJ-01PJ 5.691,44 569,14 0,00 3.321,06 0,00 688,66 10.270,30 1.636,24 1.729,88 0,00 3.366,12 6.904,18 838,55 3.442,88 31/12/2013
209 602100 ANACLETO FRANCISCO MARCIER PIMENTA OFICIAL DO MP ATIVO SÃO JOÃO DEL REI - COMARCA; SAO JOAO DEL REI-PJ-01PJ 2.859,08 0,00 0,00 714,77 0,00 0,00 3.573,85 416,91 56,76 0,00 473,67 3.100,18 457,00 217,30 31/12/2013
210 310400 ANADEJE DO CARMO DINIZ ARAUJO OFICIAL DO MP ATIVO BELO HORIZONTE - COMARCA; CENT DE ATENDIMENTO E ORIENTACAO DE PESSOAL 5.691,44 569,14 0,00 6.260,58 0,00 0,00 12.521,16 1.636,21 1.447,83 0,00 3.084,04 9.437,12 1.073,55 2.367,19 31/12/2013
211 337000 ANAILDES MARIA MENDES OFICIAL DO MP ATIVO JANAÚBA - COMARCA; JANAUBA-PJ-02PJ 4.696,06 1.577,93 0,00 2.962,49 2.091,33 0,00 11.327,81 1.752,11 1.791,77 0,00 3.543,88 7.783,93 457,00 5.606,17 31/12/2013
212 192900 ANATALIA CERQUEIRA LIMA PERES OFICIAL DO MP ATIVO UBERABA - COMARCA; COORD REG SAUDE MACROR SANIT TRIANGULO SUL 5.691,44 1.138,29 0,00 3.622,98 2.276,58 0,00 12.729,29 1.784,74 2.352,49 0,00 4.137,23 8.592,06 664,54 2.579,58 31/12/2013
213 377400 ANDEIRSON DA MATTA BARBOSA ANALISTA DO MP ATIVO POUSO ALEGRE - COMARCA; POUSO ALEGRE-PJ-01PJ 6.469,61 646,96 0,00 3.775,14 2.372,19 0,00 13.263,90 1.854,97 2.519,18 0,00 4.374,15 8.889,75 508,54 2.643,67 31/12/2013
214 317400 ANDERSON DA SILVA BICALHO OFICIAL DO MP ATIVO CONTAGEM - COMARCA; CONTAGEM-PJ-SECRETARIA 5.169,86 516,99 0,00 3.016,72 1.895,62 0,00 10.599,19 1.188,52 1.187,21 0,00 2.375,73 8.223,46 927,00 2.111,50 31/12/2013
215 506900 ANDERSON DE SOUZA DAMIANI ANALISTA DO MP ATIVO BELO HORIZONTE - COMARCA; DIRETORIA DE PAGAMENTO DE PESSOAL-DPAG 5.511,94 1.102,39 0,00 4.051,82 0,00 0,00 10.666,15 1.693,21 1.620,99 0,00 3.314,20 7.351,95 3.475,73 2.574,22 31/12/2013
216 410000 ANDERSON DE SOUZA NETO ASSESSOR ATIVO BELO HORIZONTE - COMARCA; DIRETORIA DE ADMINISTRACAO FINANCEIRA 0,00 0,00 3.938,84 2.089,44 1.312,95 0,00 7.341,23 890,76 829,71 0,00 1.720,47 5.620,76 457,00 1.462,43 31/12/2013
217 181900 ANDERSON FLAVIO DE OLIVEIRA OFICIAL DO MP ATIVO ITAGUARA - COMARCA; ITAGUARA-PJ-SECRETARIA 6.793,15 1.358,63 0,00 4.324,29 0,00 0,00 12.476,07 2.128,96 2.373,57 0,00 4.502,53 7.973,54 457,00 3.065,76 31/12/2013
218 119500 ANDERSON FUNGHI DE AZEVEDO ROCHA DIRETOR/OFICIAL ATIVO BELO HORIZONTE - COMARCA; SUPRIN DE PLANEJAMENTO E COORDENACAO 0,00 9.347,78 13.353,95 12.042,64 0,00 0,00 34.744,37 4.154,58 9.614,69 0,00 13.769,27 20.975,10 1.631,84 8.450,49 31/12/2013
219 333200 ANDERSON JOSE DE FREITAS OFICIAL DO MP ATIVO IPATINGA - COMARCA; IPATINGA-PJ-07PJ 4.696,06 1.577,93 0,00 4.070,81 0,00 0,00 10.344,80 1.344,74 1.328,02 0,00 2.672,76 7.672,04 457,00 1.903,05 31/12/2013
220 462100 ANDERSON LUIZ GUIMARAES CARDOSO ANALISTA DO MP ATIVO BARBACENA - COMARCA; BARBACENA-PJ-SECRETARIA 6.265,58 375,93 0,00 3.582,99 2.213,84 0,00 12.438,34 1.436,57 1.889,80 0,00 3.326,37 9.111,97 457,00 2.846,34 31/12/2013
221 429700 ANDERSON MELO DE SOUZA OFICIAL DO MP ATIVO BELO HORIZONTE - COMARCA; DIRET DE ESTAGIOS E CONVENIOS ACADEMICOS 3.694,41 221,66 0,00 2.077,36 0,00 0,00 5.993,43 1.023,67 394,96 0,00 1.418,63 4.574,80 673,79 1.489,33 31/12/2013
222 545600 ANDERSON MENDES PROCOPIO FERREIRA ANALISTA DO MP ATIVO BARBACENA - COMARCA; BARBACENA-PJ-SECRETARIA 4.404,59 0,00 0,00 3.303,44 0,00 0,00 7.708,03 1.026,89 399,47 0,00 1.426,36 6.281,67 457,00 1.635,40 31/12/2013
223 519900 ANDERSON MOREIRA DOEHLER ANALISTA DO MP ATIVO NOVO CRUZEIRO - COMARCA; NOVO CRUZEIRO-PJ-UNPJ 5.338,12 1.067,62 0,00 3.398,06 2.135,25 0,00 11.939,05 1.743,02 2.240,45 0,00 3.983,47 7.955,58 1.116,20 3.046,30 31/12/2013
224 103000 ANDERSON TADEU DE DEUS ASSESSOR ATIVO BELO HORIZONTE - COMARCA; EXTINTA - DIVISAO DE TRANSPORTES 0,00 1.969,42 3.938,84 3.134,16 1.969,42 0,00 11.011,84 914,98 2.048,46 0,00 2.963,44 8.048,40 692,00 2.193,69 31/12/2013
225 309200 ANDITYAS SOARES DE MOURA COSTA MATOS ANALISTA DO MP ATIVO BELO HORIZONTE - COMARCA; GABINETE DE PROCURADOR DE JUSTIÇA - SALA 909 8.233,02 1.646,60 0,00 5.075,60 3.293,21 0,00 18.248,43 2.630,87 4.048,73 0,00 6.679,60 11.568,83 457,00 4.487,16 31/12/2013
226 338701 ANDRE BARBUTO VITORINO ANALISTA DO MP ATIVO AIMORÉS - COMARCA; AIMORES-PJ-UNPJ 7.014,37 701,44 0,00 3.819,79 0,00 0,00 11.535,60 2.093,93 2.034,09 0,00 4.128,02 7.407,58 562,32 4.448,96 31/12/2013
227 519200 ANDRE BORJA LANA ANALISTA DO MP ATIVO BELO HORIZONTE - COMARCA; DIRETORIA DE IMPRENSA 5.006,87 0,00 0,00 2.656,00 0,00 0,00 7.662,87 1.305,19 834,51 0,00 2.139,70 5.523,17 457,00 1.962,77 31/12/2013
228 521900 ANDRE LUIS GOMES SILVA ANALISTA DO MP ATIVO FORMIGA - COMARCA; FORMIGA-PJ-01PJ 5.511,94 0,00 0,00 2.656,00 1.837,31 0,00 10.005,25 1.206,72 1.203,38 0,00 2.410,10 7.595,15 457,00 2.814,33 31/12/2013
229 534200 ANDRE LUIS PEREIRA OFICIAL DO MP ATIVO VARZEA DA PALMA - COMARCA; VARZEA DA PALMA-PJ-02PJ 2.859,08 0,00 0,00 1.502,14 0,00 0,00 4.361,22 722,32 103,39 0,00 825,71 3.535,51 457,00 1.091,86 31/12/2013
230 304300 ANDRE LUIZ AVELAR ANALISTA DO MP ATIVO BELO HORIZONTE - COMARCA; DIRETORIA DE REDES E BANCOS DE DADOS 6.265,58 626,56 0,00 3.656,09 2.297,38 0,00 12.845,61 1.802,92 2.388,75 0,00 4.191,67 8.653,94 625,02 2.619,91 31/12/2013
231 397400 ANDRE PATARO MYRRHA DE PAULA E SILVA ASSESSOR/ANALISTA ATIVO BELO HORIZONTE - COMARCA; ASSESSORIA JURIDICO-ADMINISTRATIVA 0,00 797,34 7.973,40 4.652,63 2.923,58 0,00 16.346,95 1.973,24 2.811,81 0,00 4.785,05 11.561,90 670,81 3.259,73 31/12/2013
232 548500 ANDRE VINICIUS CARVALHO MEIRA ANALISTA DO MP ATIVO JUIZ DE FORA - COMARCA; JUIZ DE FORA-PJ-19PJ 4.404,59 0,00 0,00 2.269,40 0,00 0,00 6.673,99 1.026,89 399,47 0,00 1.426,36 5.247,63 457,00 1.635,40 31/12/2013
233 297200 ANDRE WILLE ROSARIO ANALISTA DO MP ATIVO BELO HORIZONTE - COMARCA; ASSESSORIA ESPECIAL DO PGJ 9.663,38 966,34 0,00 5.796,12 3.543,24 0,00 19.969,08 2.764,04 4.270,77 0,00 7.034,81 12.934,27 928,31 3.887,73 31/12/2013
234 423600 ANDREA COSTA GUALBERTO ANALISTA DO MP ATIVO GOVERNADOR VALADARES - COMARCA; COORD REG PJ DEF EDU DIR CRIANCA ADOL RIODOCE 6.265,58 3.132,79 0,00 4.985,57 0,00 0,00 14.383,94 2.454,48 2.887,06 0,00 5.341,54 9.042,40 950,86 3.535,95 31/12/2013
235 198600 ANDREA CRISTINA ANDRADE COSTA E SOUZA OFICIAL DO MP ATIVO MONTES CLAROS - COMARCA; MONTES CLAROS-PJ-SECRETARIA 8.501,02 1.700,20 0,00 5.240,86 3.400,41 0,00 18.842,49 2.716,50 4.039,74 0,00 6.756,24 12.086,25 457,00 4.632,98 31/12/2013
236 467300 ANDREA DE CASSIA PENNA ALVERNAZ ANALISTA DO MP ATIVO PONTE NOVA - COMARCA; PONTE NOVA-PJ-SECRETARIA 6.265,58 375,93 0,00 6.432,09 2.213,84 0,00 15.287,44 1.734,74 2.095,12 0,00 3.829,86 11.457,58 692,00 2.831,75 31/12/2013
237 308000 ANDREA DE CASSIA SANTOS OLIVEIRA ANALISTA DO MP ATIVO BELO HORIZONTE - COMARCA; ASSESS TECNICO-JUR JUNTO AS PROC. DE JUST 9.358,72 935,87 0,00 5.460,99 3.431,53 0,00 19.187,11 2.690,38 4.269,43 0,00 6.959,81 12.227,30 1.319,40 3.891,60 31/12/2013
238 349500 ANDREA DE OLIVEIRA OFICIAL DO MP ATIVO IGUATAMA - COMARCA; IGUATAMA-PJ-UNPJ 5.511,94 551,19 0,00 3.114,89 0,00 0,00 9.178,02 1.615,10 1.207,66 0,00 2.822,76 6.355,26 906,72 2.759,47 31/12/2013
239 254700 ANDREA EMISE REIS DE AZEVEDO COORDENADOR/OFICIAL ATIVO BELO HORIZONTE - COMARCA; COMB CRIMES PRAT POR AG POL MUN-SECRETARIA 0,00 1.812,72 9.063,59 5.769,58 0,00 0,00 16.645,89 1.966,16 3.907,81 0,00 5.873,97 10.771,92 457,00 4.264,93 31/12/2013
240 287900 ANDREA FERNANDES PENA OFICIAL DO MP ATIVO MONTES CLAROS - COMARCA; MONTES CLAROS-PJ-09PJ 6.068,01 606,80 0,00 3.639,61 2.224,94 0,00 12.539,36 1.731,18 2.069,03 0,00 3.800,21 8.739,15 457,00 2.400,13 31/12/2013
241 300800 ANDREA FERREIRA ANALISTA DO MP ATIVO LAVRAS - COMARCA; LAVRAS-PJ-04PJ 8.501,02 850,10 0,00 9.351,12 0,00 0,00 18.702,24 2.439,26 2.960,65 0,00 5.399,91 13.302,33 457,00 3.496,26 31/12/2013
242 316700 ANDREA FRANCISCA DIAS DE SOUZA ASSESSOR ATIVO BELO HORIZONTE - COMARCA; BH-14PJ DEFESA CONSUMIDOR-GAB 110PJ 0,00 0,00 2.359,08 2.359,08 786,36 0,00 5.504,52 665,14 173,65 0,00 838,79 4.665,73 457,00 875,90 31/12/2013
243 395100 ANDREA LANNA MENDES NOVAIS ANALISTA DO MP ATIVO BELO HORIZONTE - COMARCA; PROMOT ESTADUAL DE DEF PATRI CULT E TUR DE MG 7.973,40 797,34 0,00 8.770,74 0,00 0,00 17.541,48 2.245,51 2.579,84 0,00 4.825,35 12.716,13 927,00 2.887,01 31/12/2013
244 67300 ANDREA LEAO MAGALHAES ROQUE ASSESSOR ATIVO BELO HORIZONTE - COMARCA; COORD DE CONT. DA CONSTITUCIONALIDADE-SEC 0,00 3.986,70 7.973,40 6.344,50 3.986,70 0,00 22.291,30 914,98 5.738,29 0,00 6.653,27 15.638,03 457,00 4.394,80 31/12/2013
245 335700 ANDREA LOPES PEREIRA ANALISTA DO MP ATIVO GOVERNADOR VALADARES - COMARCA; COORD REG DO MA DA BACIA DO RIO DOCE 9.358,72 935,87 0,00 4.960,51 0,00 0,00 15.255,10 2.853,14 3.191,56 0,00 6.044,70 9.210,40 818,20 6.311,10 31/12/2013
246 389200 ANDREA TUPINI DOS SANTOS TRISTAO DA ROCHA OFICIAL DO MP ATIVO DIVINO - COMARCA; DIVINO-PJ-UNPJ 3.814,70 381,47 0,00 2.288,07 1.398,72 0,00 7.882,96 1.114,29 760,68 0,00 1.874,97 6.007,99 712,73 1.747,19 31/12/2013
247 419000 ANDREIA BARBOSA DE ALMEIDA ANALISTA DO MP ATIVO BELO HORIZONTE - COMARCA; PROC. JUSTICA DE HABEAS CORPUS 6.793,15 407,59 0,00 3.819,79 0,00 0,00 11.020,53 1.876,77 1.908,03 0,00 3.784,80 7.235,73 457,00 2.673,57 31/12/2013
248 281501 ANDREIA CARLA COSTA FILGUEIRAS ANALISTA DO MP ATIVO VISCONDE DO RIO BRANCO - COMARCA; VISCONDE DO RIO BRANCO-PJ-02PJ 7.014,37 701,44 0,00 3.819,79 2.571,94 0,00 14.107,54 2.201,92 2.709,84 0,00 4.911,76 9.195,78 895,84 5.117,89 31/12/2013
249 477100 ANDREIA DE ALMEIDA RIBEIRO MELO OFICIAL DO MP ATIVO CONTAGEM - COMARCA; CONTAGEM-PJ-07PJ 3.577,90 214,67 0,00 1.897,97 0,00 0,00 5.690,54 818,65 264,36 0,00 1.083,01 4.607,53 2.209,03 1.978,63 31/12/2013
250 100200 ANDREIA FERREIRA MATTOZINHOS ANALISTA DO MP ATIVO BELO HORIZONTE - COMARCA; PROCON-MG-GAB DO COORDENADOR DO PROCON-MG 16.857,24 11.800,07 0,00 12.661,75 8.441,17 2.785,59 52.545,82 5.571,18 14.632,51 3.333,81 23.537,50 29.008,32 1.926,10 2.920,26 31/12/2013
251 424000 ANDREIA LUCIA COUTO ANALISTA DO MP ATIVO BELO HORIZONTE - COMARCA; BH-18PJ DIREITOS HUMANOS 6.793,15 407,59 0,00 3.819,79 0,00 0,00 11.020,53 1.876,77 1.908,03 0,00 3.784,80 7.235,73 692,00 2.673,57 31/12/2013
252 370100 ANDREIA MARIA SILVA PINTO OFICIAL DO MP ATIVO CORONEL FABRICIANO - COMARCA; CORONEL FABRICIANO-PJ-01PJ 5.169,86 516,99 0,00 2.921,61 0,00 0,00 8.608,46 1.514,72 1.123,11 0,00 2.637,83 5.970,63 698,83 2.586,29 31/12/2013
253 382100 ANDREIA NATALI PEREIRA OFICIAL DO MP ATIVO PRADOS - COMARCA; PRADOS-PJ-UNPJ 5.006,87 500,69 0,00 2.921,61 0,00 0,00 8.429,17 1.436,69 1.079,23 0,00 2.515,92 5.913,25 457,00 2.055,58 31/12/2013
254 198700 ANDREIA NUNES DURAES OFICIAL DO MP ATIVO MONTES CLAROS - COMARCA; MONTES CLAROS-PJ-06PJ 8.501,02 1.700,20 0,00 5.411,46 3.400,41 0,00 19.013,09 2.134,13 3.461,81 0,00 5.595,94 13.417,15 463,01 3.807,54 31/12/2013
255 275200 ANDREIA RIBEIRO FREITAS OFICIAL DO MP ATIVO VIÇOSA - COMARCA; VICOSA-PJ-03PJ 6.265,58 1.253,12 0,00 3.988,46 2.506,23 0,00 14.013,39 1.964,30 2.559,46 0,00 4.523,76 9.489,63 692,00 2.834,14 31/12/2013
256 352200 ANDREIA XAVIER PEREIRA OFICIAL DO MP ATIVO CLÁUDIO - COMARCA; CLAUDIO-PJ-UNPJ 5.511,94 551,19 0,00 3.114,89 2.021,04 0,00 11.199,06 1.614,60 1.860,17 0,00 3.474,77 7.724,29 457,00 2.753,76 31/12/2013
257 383700 ANDRESSA EDUARDO SOUZA ANALISTA DO MP ATIVO OURO BRANCO - COMARCA; OURO BRANCO-PJ-SECRETARIA 7.973,40 797,34 0,00 4.093,02 2.923,58 0,00 15.787,34 2.076,69 2.730,94 0,00 4.807,63 10.979,71 471,83 6.030,00 31/12/2013
258 426200 ANDRESSA MENDES CASAL ASSESSOR/OFICIAL ATIVO BELO HORIZONTE - COMARCA; BH-12PJ JUIZO CRIMINAL-SECRETARIA 0,00 375,93 6.265,58 3.523,13 0,00 0,00 10.164,64 889,34 1.513,43 0,00 2.402,77 7.761,87 457,00 2.978,65 31/12/2013
259 390100 ANDRESSA RIBEIRO PUCCI OFICIAL DO MP ATIVO UBERABA - COMARCA; UBERABA-PJ-14PJ 4.131,19 413,12 0,00 2.410,63 1.514,77 0,00 8.469,71 949,89 896,86 0,00 1.846,75 6.622,96 457,00 1.782,01 31/12/2013
260 462500 ANDREZA APARECIDA COSTA E SILVA ANALISTA DO MP ATIVO CONSELHEIRO LAFAIETE - COMARCA; CONSELHEIRO LAFAIETE-PJ-02PJ 6.265,58 375,93 0,00 3.582,99 0,00 0,00 10.224,50 1.743,83 1.583,03 0,00 3.326,86 6.897,64 457,00 2.790,50 31/12/2013
261 537800 ANDREZZA LUZIA DE OLIVEIRA ALVES ANALISTA DO MP ATIVO PATOS DE MINAS - COMARCA; COORD REG PJ DEF EDU DIR CRI ADO AL PAR NOROE 4.404,59 0,00 0,00 3.670,49 1.468,20 0,00 9.543,28 1.067,26 674,61 0,00 1.741,87 7.801,41 457,00 1.635,40 31/12/2013
262 491600 ANE PATRICIA RIBEIRO ANALISTA DO MP ATIVO SETE LAGOAS - COMARCA; SETE LAGOAS-PJ-10PJ 6.068,01 0,00 0,00 3.480,00 0,00 0,00 9.548,01 1.292,61 1.042,37 0,00 2.334,98 7.213,03 692,00 2.337,98 31/12/2013
263 465800 ANELISE GAMA ASSESSOR ATIVO BELO HORIZONTE - COMARCA; BH-18PJ VIOLENCIA DOMESTICA-SECRETARIA 0,00 0,00 3.938,84 2.379,48 1.392,97 0,00 7.711,29 890,76 851,71 0,00 1.742,47 5.968,82 457,00 1.463,53 31/12/2013
264 535200 ANELIZE FERNANDA ALVES VILARINHO OFICIAL DO MP ATIVO CAPINÓPOLIS - COMARCA; CAPINOPOLIS-PJ-UNPJ 2.859,08 0,00 0,00 2.382,57 0,00 0,00 5.241,65 704,89 87,49 0,00 792,38 4.449,27 457,00 1.172,14 31/12/2013
265 197200 ANGELA COELHO SALDANHA OFICIAL DO MP ATIVO PARÁ DE MINAS - COMARCA; PARA DE MINAS-PJ-03PJ 8.501,02 2.550,31 0,00 6.261,57 3.683,78 0,00 20.996,68 2.876,79 4.805,93 0,00 7.682,72 13.313,96 3.833,47 4.379,57 31/12/2013
266 307400 ANGELA CRISTINA GONCALVES MUNIZ ANALISTA DO MP ATIVO UBERLÂNDIA - COMARCA; UBERLANDIA-PJ-SEC FAMILIA 9.663,38 1.932,68 0,00 6.323,04 0,00 0,00 17.919,10 3.007,54 3.962,82 0,00 6.970,36 10.948,74 692,00 4.169,68 31/12/2013
267 191800 ANGELA MARIA DE OLIVEIRA OFICIAL DO MP ATIVO GUARANÉSIA - COMARCA; GUARANESIA-PJ-SECRETARIA 8.501,02 3.400,41 0,00 6.313,38 0,00 0,00 18.214,81 3.105,26 4.112,30 0,00 7.217,56 10.997,25 1.182,32 4.452,33 31/12/2013
268 69900 ANGELA MARIA DE PAULA CUNHA OFICIAL DO MP ATIVO JUIZ DE FORA - COMARCA; JUIZ DE FORA-PJ-11PJ 9.358,72 4.679,36 0,00 7.446,81 4.679,36 0,00 26.164,25 3.716,77 6.348,31 0,00 10.065,08 16.099,17 644,37 5.742,21 31/12/2013
269 497400 ANGELA MARIA HENRIQUES ANALISTA DO MP ATIVO BELO HORIZONTE - COMARCA; COORD REG BACIAS RIO VELHAS E PARAOPEBA 5.511,94 0,00 0,00 3.161,07 0,00 0,00 8.673,01 1.426,33 1.081,37 0,00 2.507,70 6.165,31 927,00 1.952,32 31/12/2013
270 260700 ANGELICA CRISTINA AZEVEDO MOREIRA MOUCO OFICIAL DO MP ATIVO UBÁ - COMARCA; UBA-PJ-02PJ 6.578,93 1.315,79 0,00 4.475,80 0,00 0,00 12.370,52 2.032,78 2.151,02 0,00 4.183,80 8.186,72 457,00 2.703,54 31/12/2013
271 334600 ANGELICA PANISSA DE FREITAS OFICIAL DO MP ATIVO GUAXUPÉ - COMARCA; GUAXUPE-PJ-02PJ 4.848,98 969,80 0,00 3.231,81 1.939,59 0,00 10.990,18 1.545,08 1.720,03 0,00 3.265,11 7.725,07 457,00 2.602,12 31/12/2013
272 521100 ANGELICA SALES MOREIRA OFICIAL DO MP ATIVO BELO HORIZONTE - COMARCA; BH-02PJ FAMILIA-SECRETARIA 3.250,03 0,00 0,00 1.863,91 0,00 0,00 5.113,94 841,01 212,13 0,00 1.053,14 4.060,80 457,00 1.151,28 31/12/2013
273 466500 ANGELLO MARQUES AGRELLI ANALISTA DO MP ATIVO MAR DE ESPANHA - COMARCA; MAR DE ESPANHA-PJ-UNPJ 6.265,58 375,93 0,00 3.582,99 0,00 0,00 10.224,50 1.739,37 1.583,03 0,00 3.322,40 6.902,10 801,78 2.751,04 31/12/2013
274 363300 ANGELO VERDOLIN HENRIQUES ANALISTA DO MP ATIVO SETE LAGOAS - COMARCA; SETE LAGOAS-PJ-04PJ 8.501,02 1.700,20 0,00 5.240,86 0,00 0,00 15.442,08 2.206,23 2.558,01 0,00 4.764,24 10.677,84 692,00 4.632,98 31/12/2013
275 250900 ANISIO APARECIDO SANTOS OFICIAL DO MP ATIVO CONTAGEM - COMARCA; CONTAGEM-PJ-19PJ 4.696,06 939,21 0,00 2.989,35 1.878,42 0,00 10.503,04 1.468,78 520,50 0,00 1.989,28 8.513,76 457,00 2.092,30 31/12/2013
276 253400 ANNA FLAVIA LEHMAN BATTAGLIA ASSESSOR ESPECIAL ATIVO BELO HORIZONTE - COMARCA; GABINETE DO PROCURADOR-GERAL DE JUSTICA 18.939,65 3.787,93 0,00 12.056,35 7.575,86 0,00 42.359,79 3.111,10 11.952,27 0,00 15.063,37 27.296,42 1.251,22 8.450,84 31/12/2013
277 447600 ANNGELUCE ALCANTARA DE CAMPOS OFICIAL DO MP ATIVO DIVINÓPOLIS - COMARCA; DIVINOPOLIS-PJ-10PJ 3.355,81 335,58 0,00 1.958,18 1.230,46 0,00 6.880,03 962,13 587,90 0,00 1.550,03 5.330,00 457,00 1.370,56 31/12/2013
278 119600 ANSELMO BORGES PARREIRAS OFICIAL DO MP ATIVO BONFIM - COMARCA; BONFIM-PJ-UNPJ 5.338,12 3.736,69 0,00 4.813,93 0,00 0,00 13.888,74 2.365,32 2.728,68 0,00 5.094,00 8.794,74 457,00 3.369,34 31/12/2013
279 194800 ANTONIA MARIA AFONSO DE SOUZA OFICIAL DO MP ATIVO ITAPAGIPE - COMARCA; ITAPAGIPE-PJ-SECRETARIA 8.233,02 4.116,51 0,00 6.344,50 0,00 0,00 18.694,03 3.288,61 4.236,34 0,00 7.524,95 11.169,08 457,00 5.738,79 31/12/2013
280 332400 ANTONIA MARIA MAMEDE OFICIAL DO MP ATIVO ARAGUARI - COMARCA; ARAGUARI-PJ-05PJ 5.511,94 551,19 0,00 3.216,32 2.021,04 0,00 11.300,49 1.581,54 1.810,25 0,00 3.391,79 7.908,70 457,00 2.262,94 31/12/2013
281 401600 ANTONIO CARLOS GUEDES AROUCA ANALISTA DO MP ATIVO BELO HORIZONTE - COMARCA; EXTINTA - CAO-IDOSOS PESSOAS DEFIC-SEC ADM 7.014,37 701,44 0,00 4.334,86 0,00 0,00 12.050,67 2.007,04 2.160,15 0,00 4.167,19 7.883,48 551,05 2.986,31 31/12/2013
282 7100 ANTONIO DO NASCIMENTO OLIVEIRA ASSESSOR ATIVO BELO HORIZONTE - COMARCA; GAECO - SECRETARIA 0,00 2.123,17 2.359,08 2.377,70 0,00 0,00 6.859,95 914,98 424,55 0,00 1.339,53 5.520,42 457,00 1.664,21 31/12/2013
283 59400 ANTONIO GOBIRA DE ALCANTARA AGENTE DO MP ATIVO BELO HORIZONTE - COMARCA; EXTINTA - DIVISAO DE TRANSPORTES 5.169,86 3.618,91 0,00 8.788,77 2.929,59 0,00 20.507,13 2.786,61 4.339,11 0,00 7.125,72 13.381,41 457,00 7.776,13 31/12/2013
284 333900 ANTONIO GONCALVES DE SOUZA FILHO OFICIAL DO MP ATIVO BELO HORIZONTE - COMARCA; ARQUIVO DO MINISTERIO PUBLICO DO ESTADO DE MG 5.511,94 551,19 0,00 3.114,89 2.021,04 0,00 11.199,06 1.614,67 1.860,17 0,00 3.474,84 7.724,22 489,79 2.754,63 31/12/2013
285 176100 ANTONIO MARCELO CAMPOS CAMPANELLA OFICIAL DO MP ATIVO BELO HORIZONTE - COMARCA; SUPERINTENDENCIA DE RECURSOS HUMANOS 8.501,02 2.550,31 0,00 11.051,33 3.683,78 0,00 25.786,44 2.883,39 4.805,93 0,00 7.689,32 18.097,12 1.349,39 4.133,61 31/12/2013
286 119800 ANTONIO MARCIANO DE PAULA AGENTE DO MP ATIVO BELO HORIZONTE - COMARCA; DIVISAO DE MANUTENCAO PREDIAL 4.131,19 3.718,08 0,00 4.163,82 2.616,42 863,42 15.492,93 2.046,33 3.129,74 0,00 5.176,07 10.316,86 935,37 4.104,30 31/12/2013
287 321001 ANTONIO OLINTO VIEIRA MACHADO ANALISTA DO MP ATIVO BELO HORIZONTE - COMARCA; CENTRAL DE APOIO TECN-SETOR DE MEIO AMBIENTE 7.973,40 797,34 0,00 5.147,95 2.923,58 0,00 16.842,27 2.245,17 3.190,39 0,00 5.435,56 11.406,71 655,04 2.884,88 31/12/2013
288 356200 ANTONIO PAULA DA SILVA OFICIAL DO MP ATIVO JUIZ DE FORA - COMARCA; JUIZ DE FORA-PJ-20PJ 4.696,06 939,21 0,00 3.307,62 0,00 0,00 8.942,89 1.464,82 1.141,73 0,00 2.606,55 6.336,34 457,00 2.056,19 31/12/2013
289 119900 ANTONIO RODRIGUES DE PINHO OFICIAL DO MP ATIVO GUANHÃES - COMARCA; GUANHAES-PJ-01PJ 8.233,02 4.116,51 0,00 12.349,53 0,00 0,00 24.699,06 3.222,42 4.234,94 0,00 7.457,36 17.241,70 785,46 4.872,46 31/12/2013
290 373300 ANTONIO SERGIO ANANIAS OFICIAL DO MP ATIVO AIURUOCA - COMARCA; AIURUOCA-PJ-UNPJ 4.848,98 484,90 0,00 2.653,86 1.777,96 0,00 9.765,70 1.450,41 1.216,84 0,00 2.667,25 7.098,45 692,00 2.858,14 31/12/2013
291 374700 ANTONIO SILVA NETO OFICIAL DO MP ATIVO BELO HORIZONTE - COMARCA; GAECO - SECRETARIA 5.006,87 500,69 0,00 2.829,47 0,00 0,00 8.337,03 1.466,64 1.036,72 0,00 2.503,36 5.833,67 457,00 2.501,42 31/12/2013
292 413200 ANY PEREIRA SILVA ANALISTA DO MP ATIVO TRÊS PONTAS - COMARCA; TRES PONTAS-PJ-01PJ 7.014,37 701,44 0,00 3.819,79 2.571,94 0,00 14.107,54 2.193,73 2.709,84 0,00 4.903,57 9.203,97 528,17 5.041,59 31/12/2013
293 151401 APARECIDA DE FATIMA MENDES DE ALMEIDA ASSESSOR ATIVO JUIZ DE FORA - COMARCA; JUIZ DE FORA-PJ-SECRETARIA 0,00 0,00 3.938,84 2.089,44 1.312,95 0,00 7.341,23 890,76 829,71 0,00 1.720,47 5.620,76 457,00 1.462,43 31/12/2013
294 329300 APARECIDA MARIA MELO DE ASSIS OFICIAL DO MP ATIVO BELO HORIZONTE - COMARCA; BH-18PJ DIREITOS HUMANOS-SECRETARIA 5.876,69 587,67 0,00 3.524,84 0,00 0,00 9.989,20 1.676,75 1.547,57 0,00 3.224,32 6.764,88 457,00 2.453,83 31/12/2013
295 475300 APARECIDA MARLENE FREIRE ROSA ANALISTA DO MP ATIVO BELO HORIZONTE - COMARCA; BH-02PJ FAMILIA 6.068,01 4.854,40 0,00 5.794,03 3.640,80 0,00 20.357,24 2.847,36 4.731,01 0,00 7.578,37 12.778,87 705,27 4.061,77 31/12/2013
296 240300 APARECIDA PEREIRA DO NASCIMENTO OFICIAL DO MP ATIVO ITURAMA - COMARCA; ITURAMA-PJ-01PJ 6.578,93 3.289,47 0,00 5.311,91 0,00 0,00 15.180,31 2.697,83 3.420,89 0,00 6.118,72 9.061,59 469,00 4.809,14 31/12/2013
297 354500 APARECIDA VIEIRA DE CARVALHO OFICIAL DO MP ATIVO BELO HORIZONTE - COMARCA; PROCON-MG-SEC DE EDUCACAO PARA O CONSUMO 4.265,74 426,57 0,00 2.558,63 1.564,10 0,00 8.815,04 1.222,74 1.026,94 0,00 2.249,68 6.565,36 457,00 1.739,96 31/12/2013
298 551000 ARACELES BICALHO FELIX ANALISTA DO MP ATIVO MANHUAÇU - COMARCA; MANHUACU-PJ-02PJ 4.848,98 0,00 0,00 2.473,74 0,00 0,00 7.322,72 1.086,05 479,01 0,00 1.565,06 5.757,66 457,00 1.800,37 31/12/2013
299 286200 ARACELI MEDRADO DOS SANTOS LIMA OFICIAL DO MP ATIVO PARACATU - COMARCA; PARACATU-PJ-03PJ 4.696,06 469,61 0,00 5.165,67 1.721,89 0,00 12.053,23 1.362,69 1.385,39 0,00 2.748,08 9.305,15 645,89 2.068,12 31/12/2013
300 189000 ARAHY MARQUES SILVA OFICIAL DO MP ATIVO BELO HORIZONTE - COMARCA; BH-15PJ M AMB 16PJ HAB URB-SECRETARIA 4.696,06 939,21 0,00 2.989,35 1.878,42 0,00 10.503,04 1.481,87 1.658,30 0,00 3.140,17 7.362,87 457,00 2.211,90 31/12/2013
301 112200 ARAQUEM AUGUSTO DE MATOS AGENTE DO MP ATIVO BELO HORIZONTE - COMARCA; BH-23PJ INFRACIONAL-SEC EXP 4.696,06 3.287,25 0,00 4.234,92 0,00 0,00 12.218,23 2.089,18 2.000,97 0,00 4.090,15 8.128,08 761,15 3.042,08 31/12/2013
302 280600 ARDUINO FRATTEZI ANALISTA DO MP ATIVO BELO HORIZONTE - COMARCA; CENTRAL DE APOIO TECNICO-SETOR CONTABIL 9.663,38 966,34 0,00 5.796,12 3.543,24 0,00 19.969,08 2.756,87 4.367,48 0,00 7.124,35 12.844,73 458,31 3.822,28 31/12/2013
303 520200 ARIANE DE FATIMA CARVALHO ALMEIDA OFICIAL DO MP ATIVO BELO HORIZONTE - COMARCA; BH-19PJ SAUDE-SECRETARIA 129PJ 3.250,03 0,00 0,00 1.566,03 0,00 0,00 4.816,06 716,43 105,82 0,00 822,25 3.993,81 457,00 1.762,80 31/12/2013
304 537600 ARIELA FREIRE MONTIJO ANALISTA DO MP ATIVO ARCOS - COMARCA; ARCOS-PJ-01PJ 4.404,59 0,00 0,00 2.291,77 0,00 0,00 6.696,36 1.067,26 382,25 0,00 1.449,51 5.246,85 457,00 1.635,40 31/12/2013
305 182000 ARILSON ALEXANDRE MARTINS MAGALHAES OFICIAL DO MP ATIVO JOÃO MONLEVADE - COMARCA; JOAO MONLEVADE-PJ-02PJ 8.233,02 2.469,91 0,00 5.498,57 3.567,64 0,00 19.769,14 2.850,15 4.327,42 0,00 7.177,57 12.591,57 674,71 4.861,25 31/12/2013
306 511000 ARISLANE CAROLINA DA SILVA ANALISTA DO MP ATIVO CAMPINA VERDE - COMARCA; CAMPINA VERDE-PJ-UNPJ 5.511,94 0,00 0,00 2.656,00 0,00 0,00 8.167,94 1.523,36 957,75 0,00 2.481,11 5.686,83 457,00 3.339,34 31/12/2013
307 170000 ARLEY BRITES DA SILVA ASSESSOR ATIVO BELO HORIZONTE - COMARCA; EXTINTA - DIVISÃO DE MATERIAL PERMANENTE 0,00 1.181,65 3.938,84 2.901,21 1.706,83 0,00 9.728,53 914,98 1.259,07 0,00 2.174,05 7.554,48 927,00 1.827,74 31/12/2013
308 120400 ARLINDO CASSIO DA CRUZ OFICIAL DO MP ATIVO SÃO GONÇALO DO SAPUCAÍ - COMARCA; SAO GONCALO DO SAPUCAI-PJ-01PJ 11.885,64 8.319,94 0,00 10.718,50 6.735,19 0,00 37.659,27 5.266,30 9.835,94 0,00 15.102,24 22.557,03 1.108,00 7.502,11 31/12/2013
309 243700 ARLINDO MARCIO LACERDA OFICIAL DO MP ATIVO CONTAGEM - COMARCA; CONTAGEM-PJ-03PJ 6.578,93 3.082,00 0,00 5.645,24 0,00 0,00 15.306,17 2.229,11 3.179,35 0,00 5.408,46 9.897,71 457,00 3.175,50 31/12/2013
310 392100 ARNALDO DE ANDRADE OFICIAL DO MP ATIVO DIVINÓPOLIS - COMARCA; DIVINOPOLIS-PJ-02PJ 5.006,87 1.609,01 0,00 2.921,61 0,00 0,00 9.537,49 1.956,88 1.384,01 0,00 3.340,89 6.196,60 457,39 6.784,42 31/12/2013
311 352801 ARTHUR JONAS MENDONCA E ARAUJO ANALISTA DO MP ATIVO UBERABA - COMARCA; UBERABA-PJ-12PJ 6.265,58 375,93 0,00 3.200,30 2.213,84 0,00 12.055,65 1.777,68 1.900,72 0,00 3.678,40 8.377,25 692,00 3.497,68 31/12/2013
312 302100 AUGUSTO ROUSSEAU DE CASTRO ANALISTA DO MP ATIVO CATAGUASES - COMARCA; CATAGUASES-PJ-02PJ 10.302,83 1.030,28 0,00 6.011,90 0,00 0,00 17.345,01 2.961,72 3.930,83 0,00 6.892,55 10.452,46 1.037,18 4.303,80 31/12/2013
313 540200 AUREA AVELAR OFICIAL DO MP ATIVO RIO VERMELHO - COMARCA; RIO VERMELHO-PJ-UNPJ 2.859,08 0,00 0,00 1.487,63 0,00 0,00 4.346,71 692,79 34,74 0,00 727,53 3.619,18 457,00 1.061,57 31/12/2013
314 183200 AURELIANO MAGELA DE REZENDE COORDENADOR/OFICIAL ATIVO BELO HORIZONTE - COMARCA; COORD DE GABINETE DO PGJ 0,00 2.060,57 10.302,83 6.558,44 4.121,13 0,00 23.042,97 2.557,40 5.711,05 0,00 8.268,45 14.774,52 1.210,48 4.605,79 31/12/2013
315 436800 BARBARA ROCHA LADEIA COLEN OFICIAL DO MP ATIVO BELO HORIZONTE - COMARCA; ASSESS TECNICO-JUR JUNTO AS PROC. DE JUST 4.404,59 264,28 0,00 2.677,60 1.556,29 0,00 8.902,76 1.209,24 1.102,47 0,00 2.311,71 6.591,05 457,00 1.663,61 31/12/2013
316 546500 BARBARA ZACARONI GOULART OFICIAL DO MP ATIVO BETIM - COMARCA; BETIM-PJ-06PJ 2.859,08 0,00 0,00 1.473,10 0,00 0,00 4.332,18 593,76 58,85 0,00 652,61 3.679,57 457,00 1.070,65 31/12/2013
317 316500 BEATRIZ ABILVIA DA SILVA ANALISTA DO MP ATIVO GOVERNADOR VALADARES - COMARCA; GOVERNADOR VALADARES-PJ-13PJ 9.358,72 935,87 0,00 5.460,99 3.431,53 0,00 19.187,11 2.689,66 4.366,14 0,00 7.055,80 12.131,31 676,13 3.882,95 31/12/2013
318 311800 BEATRIZ APARECIDA SOARES GANEM OFICIAL DO MP ATIVO ITAMBACURI - COMARCA; ITAMBACURI-PJ-02PJ 6.265,58 1.253,12 0,00 3.622,98 2.506,23 0,00 13.647,91 2.188,31 2.451,84 0,00 4.640,15 9.007,76 692,00 5.559,54 31/12/2013
319 266800 BEATRIZ AUGUSTA VILACA GOMES DA SILVA OFICIAL DO MP ATIVO BELO HORIZONTE - COMARCA; BH-05PJ-JUÍZO SUCESSÕES-SEC 5.169,86 1.033,97 0,00 3.422,29 0,00 0,00 9.626,12 1.364,95 1.134,56 0,00 2.499,51 7.126,61 823,17 2.907,60 31/12/2013
320 235200 BEATRIZ BOTELHO BATISTA OFICIAL DO MP ATIVO BELO HORIZONTE - COMARCA; BH-21PJ TUTELA FUNDACOES-SECRETARIA 6.469,61 1.293,92 0,00 4.233,29 2.587,84 0,00 14.584,66 2.013,50 2.895,17 0,00 4.908,67 9.675,99 457,00 2.791,59 31/12/2013
321 113500 BEATRIZ DE LOURDES SOUZA ASSESSOR ATIVO BELO HORIZONTE - COMARCA; BH-02PJ FAMILIA-PROM DEC PAT 0,00 3.132,79 6.265,58 4.985,57 3.132,79 0,00 17.516,73 914,98 3.449,12 0,00 4.364,10 13.152,63 457,00 3.489,48 31/12/2013
322 182300 BEATRIZ PAULA SOUSA RAMOS OFICIAL DO MP ATIVO MARIANA - COMARCA; MARIANA-PJ-01PJ 8.233,02 2.469,91 0,00 10.365,42 0,00 0,00 21.068,35 2.850,99 3.346,32 0,00 6.197,31 14.871,04 1.088,71 4.872,06 31/12/2013
323 507000 BELCHIOR FRANKLIN AMARAL LEITE ANALISTA DO MP ATIVO BELO HORIZONTE - COMARCA; CENTRAL DE APOIO TECNICO 6.068,01 0,00 0,00 3.480,00 2.022,67 0,00 11.570,68 1.274,27 1.501,89 0,00 2.776,16 8.794,52 3.119,20 2.268,97 31/12/2013
324 345100 BENITO ELIAS RODRIGUES ANALISTA DO MP ATIVO BARBACENA - COMARCA; BARBACENA-PJ-SECRETARIA 8.501,02 850,10 0,00 4.960,51 3.117,04 0,00 17.428,67 2.566,07 4.014,00 0,00 6.580,07 10.848,60 602,72 4.645,53 31/12/2013
325 207300 BENITO VIEIRA DOS SANTOS ANALISTA DO MP ATIVO BELO HORIZONTE - COMARCA; COMB CRIMES PRAT POR AG POL MUN-ASSESSORIA 12.845,44 3.853,63 0,00 8.858,39 5.566,36 1.836,90 32.960,72 4.353,60 5.977,49 0,00 10.331,09 22.629,63 1.169,63 8.731,69 31/12/2013
326 480200 BERNADETE NUNES DOS SANTOS ANALISTA DO MP ATIVO GUANHÃES - COMARCA; GUANHAES-PJ-02PJ 6.068,01 0,00 0,00 6.068,01 0,00 0,00 12.136,02 1.581,72 1.353,57 0,00 2.935,29 9.200,73 457,00 2.378,34 31/12/2013
327 378400 BETANIA FARNESI DE SOUZA E SILVA OFICIAL DO MP ATIVO SETE LAGOAS - COMARCA; SETE LAGOAS-PJ-03PJ 5.006,87 1.001,37 0,00 3.086,70 2.002,75 0,00 11.097,69 1.599,97 1.731,97 0,00 3.331,94 7.765,75 692,00 2.728,82 31/12/2013
328 546400 BETANIA GONCALVES GONTIJO OFICIAL DO MP ATIVO PATOS DE MINAS - COMARCA; PATOS DE MINAS-PJ-02PJ 2.859,08 0,00 0,00 2.144,31 0,00 0,00 5.003,39 666,59 71,58 0,00 738,17 4.265,22 457,00 1.061,57 31/12/2013
329 387400 BETANIA MENDONCA DE ASSIS ANALISTA DO MP ATIVO BELO HORIZONTE - COMARCA; BH-08PJ JUIZADO ESPECIAL-SECRETARIA 7.973,40 797,34 0,00 4.093,02 0,00 0,00 12.863,76 2.483,58 2.418,35 0,00 4.901,93 7.961,83 457,00 6.264,00 31/12/2013
330 450300 BIANCA OLIVEIRA DE ALBUQUERQUE ANALISTA DO MP ATIVO BELO HORIZONTE - COMARCA; BH-10PJ EXECUÇÃO PENAL-SECRETARIA 6.265,58 375,93 0,00 3.808,88 0,00 0,00 10.450,39 1.716,95 1.634,29 0,00 3.351,24 7.099,15 677,60 2.349,11 31/12/2013
331 535400 BIANCA SALOTO ROSSI ANALISTA DO MP ATIVO SANTOS DUMONT - COMARCA; SANTOS DUMONT-PJ-01PJ 4.404,59 0,00 0,00 2.291,77 0,00 0,00 6.696,36 1.069,80 448,47 0,00 1.518,27 5.178,09 457,00 1.658,67 31/12/2013
332 120800 BRAS MARQUES DE SOUZA ANALISTA DO MP ATIVO BELO HORIZONTE - COMARCA; EXTINTA - SUPERINTENDENCIA ADMINISTRATIVA-SAD 18.218,36 12.752,86 0,00 12.661,75 8.441,17 0,00 52.074,14 5.571,18 12.810,31 5.647,72 24.029,21 28.044,93 692,00 0,00 31/12/2013
333 460900 BRENO CRISTIANO DE SOUZA REZENDE ANALISTA DO MP ATIVO ITAÚNA - COMARCA; ITAUNA-PJ-02PJ 5.169,86 310,19 0,00 2.956,41 1.826,68 0,00 10.263,14 1.447,43 1.525,81 0,00 2.973,24 7.289,90 640,09 2.381,04 31/12/2013
334 239000 BRENO VENANCIO ROMANINI OFICIAL DO MP ATIVO BELO HORIZONTE - COMARCA; BH-20PJ ORD ECON TRIBUTARIA-SECRETARIA 5.691,44 1.138,29 0,00 3.622,98 0,00 0,00 10.452,71 1.431,54 1.336,87 0,00 2.768,41 7.684,30 457,00 2.574,41 31/12/2013
335 513600 BRUNA KARLA MARTINS CARVALHO ANALISTA DO MP ATIVO GOVERNADOR VALADARES - COMARCA; GOVERNADOR VALADARES-PJ-01PJ 5.511,94 0,00 0,00 2.656,00 0,00 0,00 8.167,94 1.499,20 957,75 0,00 2.456,95 5.710,99 655,75 3.223,26 31/12/2013
336 415100 BRUNA MARIA SOARES OLIVEIRA COSTA RAMOS ANALISTA DO MP ATIVO UBÁ - COMARCA; COORD REG BACIA DO RIO PARAIBA DO SUL 6.793,15 679,32 0,00 3.819,79 2.490,82 0,00 13.783,08 1.594,53 2.227,31 0,00 3.821,84 9.961,24 457,00 3.217,03 31/12/2013
337 470000 BRUNA MORAES MARQUES ANALISTA DO MP ATIVO TOMBOS - COMARCA; TOMBOS-PJ-UNPJ 6.265,58 375,93 0,00 3.582,99 2.213,84 0,00 12.438,34 1.818,81 2.331,17 0,00 4.149,98 8.288,36 457,00 3.473,10 31/12/2013
338 463800 BRUNO ALVES TEIXEIRA ANALISTA DO MP ATIVO UBERLÂNDIA - COMARCA; UBERLANDIA-PJ-04PJ 6.265,58 375,93 0,00 3.582,99 0,00 0,00 10.224,50 1.740,76 1.583,03 0,00 3.323,79 6.900,71 457,00 2.832,38 31/12/2013
339 538500 BRUNO AUGUSTO DA SILVA OFICIAL DO MP ATIVO SANTA LUZIA - COMARCA; SANTA LUZIA-PJ-03PJ 2.859,08 0,00 0,00 2.382,57 0,00 0,00 5.241,65 725,04 110,11 0,00 835,15 4.406,50 457,00 1.355,08 31/12/2013
340 318200 BRUNO BARROS DE SOUZA OFICIAL DO MP ATIVO UBÁ - COMARCA; UBA-PJ-04PJ 5.876,69 587,67 0,00 3.524,84 0,00 0,00 9.989,20 1.700,96 812,94 0,00 2.513,90 7.475,30 457,00 2.546,13 31/12/2013
341 459600 BRUNO CASTELAR LUGAO MENDES OFICIAL DO MP ATIVO GOVERNADOR VALADARES - COMARCA; GOVERNADOR VALADARES-PJ-SECRETARIA 4.000,95 240,06 0,00 2.391,61 1.413,67 0,00 8.046,29 1.096,29 872,86 0,00 1.969,15 6.077,14 457,00 1.491,55 31/12/2013
342 427400 BRUNO CESAR RIBEIRO DE PAIVA ASSESSOR/ANALISTA ATIVO BELO HORIZONTE - COMARCA; ASSESS JUR DO CONS SUPERIOR DO MINISTERIO PUB 0,00 478,40 7.973,40 4.483,44 2.817,27 0,00 15.752,51 1.883,98 3.370,86 0,00 5.254,84 10.497,67 457,00 3.199,23 31/12/2013
343 380900 BRUNO CIRILO ANTUNES OFICIAL DO MP ATIVO VARGINHA - COMARCA; VARGINHA-PJ-05PJ 3.814,70 1.489,79 0,00 2.225,95 0,00 0,00 7.530,44 1.504,54 768,93 0,00 2.273,47 5.256,97 712,73 5.380,00 31/12/2013
344 329000 BRUNO DE MELO REIS ANALISTA DO MP ATIVO PATROCÍNIO - COMARCA; PATROCINIO-PJ-02PJ 9.358,72 1.871,74 0,00 5.411,46 3.743,49 0,00 20.385,41 3.111,70 4.658,14 0,00 7.769,84 12.615,57 457,00 6.875,31 31/12/2013
345 601700 BRUNO DIAS JUNQUEIRA PEREIRA ANALISTA DO MP ATIVO BELO HORIZONTE - COMARCA; ASSESS TECNICO-JUR JUNTO AS PROC. DE JUST 4.848,98 0,00 0,00 1.616,33 0,00 0,00 6.465,31 759,71 368,05 0,00 1.127,76 5.337,55 457,00 443,33 31/12/2013
346 378300 BRUNO HERDY LOPES DE OLIVEIRA ANALISTA DO MP ATIVO MANTENA - COMARCA; MANTENA-PJ-SECRETARIA 7.973,40 797,34 0,00 4.093,02 0,00 0,00 12.863,76 2.475,16 2.418,35 0,00 4.893,51 7.970,25 457,00 6.029,60 31/12/2013
347 529700 BRUNO JOSE BUENO DIAS OFICIAL DO MP ATIVO SÃO SEBASTIÃO DO PARAÍSO - COMARCA; SAO SEBASTIAO DO PARAISO-PJ-02PJ 2.859,08 0,00 0,00 1.502,14 0,00 0,00 4.361,22 719,00 77,02 0,00 796,02 3.565,20 692,00 1.061,57 31/12/2013
348 350100 BRUNO LAUD SERRANO DOS REIS OFICIAL DO MP ATIVO UBÁ - COMARCA; UBA-PJ-03PJ 5.006,87 1.001,37 0,00 3.086,70 0,00 0,00 9.094,94 1.595,80 1.084,51 0,00 2.680,31 6.414,63 692,00 2.690,92 31/12/2013
349 373800 BRUNO MARTINO DE ALBUQUERQUE ANALISTA DO MP ATIVO PONTE NOVA - COMARCA; PONTE NOVA-PJ-SECRETARIA 7.973,40 797,34 0,00 4.093,02 0,00 0,00 12.863,76 2.579,77 2.408,93 0,00 4.988,70 7.875,06 692,00 6.981,71 31/12/2013
350 470400 BRUNO NOVAIS CABRAL ANALISTA DO MP ATIVO RESPLENDOR - COMARCA; RESPLENDOR-PJ-UNPJ 6.068,01 364,08 0,00 3.218,91 0,00 0,00 9.651,00 1.701,71 1.442,67 0,00 3.144,38 6.506,62 457,00 2.981,14 31/12/2013
351 369200 BRUNO ROBERTO DIAS DE OLIVEIRA OFICIAL DO MP ATIVO BELO HORIZONTE - COMARCA; BH-23PJ CIVEL-SETOR JURIDICO 5.169,86 516,99 0,00 3.016,72 1.895,62 0,00 10.599,19 1.483,45 1.688,28 0,00 3.171,73 7.427,46 457,00 2.122,55 31/12/2013
352 547700 BRUNO ROBERTO SOUZA GONCALVES ANALISTA DO MP ATIVO PARACATU - COMARCA; PARACATU-PJ-03PJ 4.848,98 0,00 0,00 2.498,37 0,00 0,00 7.347,35 1.184,66 627,29 0,00 1.811,95 5.535,40 457,00 2.293,09 31/12/2013
353 546100 BRUNO SA VIEIRA ANALISTA DO MP ATIVO ERVÁLIA - COMARCA; ERVALIA-PJ-UNPJ 4.404,59 0,00 0,00 3.303,44 0,00 0,00 7.708,03 1.026,89 399,47 0,00 1.426,36 6.281,67 457,00 1.635,40 31/12/2013
354 438200 BRUNO SALES PEREIRA ANALISTA DO MP ATIVO BELO HORIZONTE - COMARCA; CENTRAL DE APOIO TECNICO-SETOR CONTABIL 6.793,15 407,59 0,00 4.082,36 0,00 0,00 11.283,10 1.865,10 1.811,32 0,00 3.676,42 7.606,68 457,00 2.566,97 31/12/2013
355 537400 BRUNO SANT'ANA CESAR ANALISTA DO MP ATIVO CONTAGEM - COMARCA; CONTAGEM-PJ-09PJ 4.404,59 0,00 0,00 2.291,77 0,00 0,00 6.696,36 1.070,33 448,47 0,00 1.518,80 5.177,56 457,00 1.663,46 31/12/2013
356 405800 CAIO FERNANDO RODRIGUES DE OLIVEIRA ANALISTA DO MP ATIVO BELO HORIZONTE - COMARCA; ASSESS TECNICO-JUR JUNTO AS PROC. DE JUST 7.014,37 701,44 0,00 4.334,86 2.571,94 0,00 14.622,61 2.000,21 2.867,44 0,00 4.867,65 9.754,96 895,84 2.768,27 31/12/2013
357 530000 CAIO GUEDES DE OLIVEIRA ANALISTA DO MP ATIVO DIAMANTINA - COMARCA; DIAMANTINA-PJ-03PJ 4.848,98 0,00 0,00 2.547,62 1.616,33 0,00 9.012,93 1.010,70 906,72 0,00 1.917,42 7.095,51 692,00 1.800,37 31/12/2013
358 491400 CAIO MIRANDA JUNQUEIRA ANALISTA DO MP ATIVO BUENO BRANDAO - COMARCA; BUENO BRANDAO-PJ-UNPJ 5.511,94 0,00 0,00 5.511,94 1.837,31 0,00 12.861,19 1.432,96 1.489,92 0,00 2.922,88 9.938,31 948,00 2.012,97 31/12/2013
359 415800 CAMILA ALVES DA SILVA ANALISTA DO MP ATIVO CAETÉ - COMARCA; CAETE-PJ-01PJ 6.793,15 679,32 0,00 3.819,79 0,00 0,00 11.292,26 1.594,70 1.542,34 0,00 3.137,04 8.155,22 632,54 3.219,52 31/12/2013
360 555800 CAMILA CAROLINE ROCHA CHAVES OFICIAL DO MP ATIVO SALINAS - COMARCA; SALINAS-PJ-01PJ 2.859,08 0,00 0,00 1.444,06 0,00 0,00 4.303,14 599,87 56,76 0,00 656,63 3.646,51 457,00 931,01 31/12/2013
361 445200 CAMILA CONDE ROCHA ANALISTA DO MP ATIVO CONTAGEM - COMARCA; CONTAGEM-PJ-08PJ 6.793,15 407,59 0,00 3.523,13 0,00 0,00 10.723,87 1.921,84 1.771,16 0,00 3.693,00 7.030,87 457,00 3.777,08 31/12/2013
362 419900 CAMILA CUNNINGHAM PIMENTA DE PADUA ANALISTA DO MP ATIVO BELO HORIZONTE - COMARCA; ASSESSORIA PSICOSSOCIAL 6.793,15 679,32 0,00 3.819,79 0,00 0,00 11.292,26 1.966,44 1.974,54 0,00 3.940,98 7.351,28 457,00 3.217,03 31/12/2013
363 507700 CAMILA ELIZABETH RODRIGUES ANALISTA DO MP ATIVO BELO HORIZONTE - COMARCA; BH-02PJ FAMILIA 6.068,01 0,00 0,00 3.480,00 2.022,67 0,00 11.570,68 1.558,95 1.909,80 0,00 3.468,75 8.101,93 457,00 2.046,48 31/12/2013
364 372700 CAMILA FONSECA LIMONGE ANALISTA DO MP ATIVO BETIM - COMARCA; BETIM-PJ-01PJ 7.973,40 797,34 0,00 4.093,02 2.923,58 0,00 15.787,34 2.476,09 3.222,33 0,00 5.698,42 10.088,92 927,23 6.040,47 31/12/2013
365 409800 CAMILA GONCALVES COSTA RIBEIRO ANALISTA DO MP ATIVO INHAPIM - COMARCA; INHAPIM-PJ-02PJ 7.014,37 420,86 0,00 3.819,79 0,00 0,00 11.255,02 1.973,32 1.868,71 0,00 3.842,03 7.412,99 692,00 3.463,79 31/12/2013
366 335000 CAMILA GONTIJO DE PAIVA ANALISTA DO MP ATIVO BELO HORIZONTE - COMARCA; COORD DE CONTROLE DA CONSTITUCIONALIDADE 9.063,59 906,36 0,00 9.655,56 0,00 0,00 19.625,51 2.697,46 3.089,91 0,00 5.787,37 13.838,14 1.665,89 4.937,41 31/12/2013
367 547800 CAMILA MATTARELLI DE ABREU E SILVA ANALISTA DO MP ATIVO BELO HORIZONTE - COMARCA; DIR ANALISES TECNOLOGIA INTELIGENCIA 4.404,59 0,00 0,00 2.269,40 0,00 0,00 6.673,99 1.026,89 399,47 0,00 1.426,36 5.247,63 457,00 1.635,40 31/12/2013
368 430000 CANDIDA MARINA COSTA ANALISTA DO MP ATIVO BELO HORIZONTE - COMARCA; DIVISAO DE DOCUMENTACAO JURIDICA 6.793,15 407,59 0,00 3.819,79 2.400,25 0,00 13.420,78 1.879,03 2.568,10 0,00 4.447,13 8.973,65 457,00 2.694,24 31/12/2013
369 380400 CARINA DIAS FACANHA DE SOUZA ANALISTA DO MP ATIVO SANTA RITA DO SAPUCAÍ - COMARCA; SANTA RITA DO SAPUCAI-PJ-SECRETARIA 7.973,40 797,34 0,00 7.715,81 0,00 0,00 16.486,55 2.476,09 2.418,35 0,00 4.894,44 11.592,11 927,23 6.040,47 31/12/2013
370 255000 CARLA ADRIANA DE MENEZES ASSESSOR/OFICIAL ATIVO BELO HORIZONTE - COMARCA; CENT DE APOIO TEC-SETOR DEF,IDOSO E INFANC 0,00 1.253,12 6.265,58 3.988,46 2.506,23 0,00 14.013,39 1.964,35 2.750,34 0,00 4.714,69 9.298,70 497,83 2.792,52 31/12/2013
371 425100 CARLA ADRIANA DINIZ AMARAL OFICIAL DO MP ATIVO CONTAGEM - COMARCA; CONTAGEM-PJ-08PJ 4.848,98 290,94 0,00 2.947,76 0,00 0,00 8.087,68 1.079,50 674,85 0,00 1.754,35 6.333,33 457,00 1.830,01 31/12/2013
372 508100 CARLA ALESSANDRA FONSECA ANALISTA DO MP ATIVO BELO HORIZONTE - COMARCA; CAO-ORDEM ECONOMICA E TRIBUTARIA-SECRETARIA 6.068,01 0,00 0,00 3.480,00 0,00 0,00 9.548,01 1.559,27 1.353,57 0,00 2.912,84 6.635,17 1.804,97 2.273,91 31/12/2013
373 351500 CARLA APARECIDA MENDES RAMIRIO OFICIAL DO MP ATIVO PASSOS - COMARCA; PASSOS-PJ-07PJ 5.169,86 516,99 0,00 2.921,61 0,00 0,00 8.608,46 1.502,92 1.026,39 0,00 2.529,31 6.079,15 893,39 2.479,30 31/12/2013
374 206200 CARLA BORGES DA COSTA COORDENADOR/ANALISTA ATIVO BELO HORIZONTE - COMARCA; DIRETORIA DE PROJETOS DE EDIFICACOES 12.845,44 7.198,75 0,00 10.632,89 0,00 0,00 30.677,08 13.834,04 9.049,43 0,00 22.883,47 7.793,61 12.098,06 90.781,04 31/12/2013
375 442800 CARLA GONCALVES COSTA SOALHEIRO ANALISTA DO MP ATIVO GOVERNADOR VALADARES - COMARCA; GOVERNADOR VALADARES-PJ-11PJ 6.793,15 407,59 0,00 3.523,13 0,00 0,00 10.723,87 1.963,03 1.674,45 0,00 3.637,48 7.086,39 692,00 4.151,57 31/12/2013
376 321500 CARLA GONCALVES MASSOTE OFICIAL DO MP ATIVO CAMPO BELO - COMARCA; CAMPO BELO-PJ-01PJ 5.876,69 587,67 0,00 3.524,84 0,00 0,00 9.989,20 1.676,58 1.547,57 0,00 3.224,15 6.765,05 457,00 2.324,49 31/12/2013
377 429200 CARLA HAUTEQUESTT BECHARA ANALISTA DO MP ATIVO BELO HORIZONTE - COMARCA; DIVISAO DE DOCUMENTACAO JURIDICA 6.793,15 407,59 0,00 3.819,79 2.400,25 0,00 13.420,78 1.881,78 2.568,10 0,00 4.449,88 8.970,90 457,00 2.901,13 31/12/2013
378 247500 CARLA MATILDE GUIMARAES DE OLIVEIRA OFICIAL DO MP ATIVO ITAJUBA - COMARCA; ITAJUBA-PJ-03PJ 6.265,58 1.253,12 0,00 3.988,46 2.506,23 0,00 14.013,39 1.991,10 2.656,17 0,00 4.647,27 9.366,12 811,32 3.094,32 31/12/2013
379 226100 CARLA MERLI DA CONCEICAO ANALISTA DO MP ATIVO BELO HORIZONTE - COMARCA; CENTRAL DE APOIO TECNICO-SETOR CONTABIL 11.885,64 2.377,13 0,00 8.073,67 4.754,26 0,00 27.090,70 3.673,91 6.575,61 0,00 10.249,52 16.841,18 634,25 4.898,81 31/12/2013
380 181401 CARLO MICHEL GAUDENSI COELHO ANALISTA DO MP ATIVO BELO HORIZONTE - COMARCA; BH-08PJ JUIZADO ESPECIAL-SECRETARIA 6.793,15 1.358,63 0,00 4.324,29 0,00 0,00 12.476,07 2.124,68 2.373,57 0,00 4.498,25 7.977,82 457,00 3.026,66 31/12/2013
381 375801 CARLOS ALBERTO ROCHA ANALISTA DO MP ATIVO ELOI MENDES - COMARCA; ELOI MENDES-PJ-SECRETARIA 5.338,12 0,00 0,00 4.448,43 0,00 0,00 9.786,55 1.359,28 906,13 0,00 2.265,41 7.521,14 457,00 2.580,78 31/12/2013
382 462800 CARLOS ANDREI SOARES FAGUNDES ANALISTA DO MP ATIVO MONTES CLAROS - COMARCA; MONTES CLAROS-PJ-09PJ 6.265,58 375,93 0,00 6.432,09 2.213,84 0,00 15.287,44 1.749,21 2.191,83 0,00 3.941,04 11.346,40 457,00 2.839,36 31/12/2013
383 370300 CARLOS AUGUSTO BUENO DIAS ASSESSOR ATIVO BELO HORIZONTE - COMARCA; DIRETORIA DE FISCALIZACAO DE OBRAS 0,00 0,00 7.973,40 7.973,40 0,00 0,00 15.946,80 914,98 1.086,55 0,00 2.001,53 13.945,27 457,00 2.960,43 31/12/2013
384 505100 CARLOS CEZAR CARVALHO ANALISTA DO MP ATIVO RIBEIRÃO DAS NEVES - COMARCA; RIBEIRAO DAS NEVES-PJ-09PJ 5.511,94 1.653,58 0,00 7.165,52 0,00 0,00 14.331,04 1.869,03 1.697,37 0,00 3.566,40 10.764,64 457,00 2.819,35 31/12/2013
385 195900 CARLOS DE SOUZA FERREIRA OFICIAL DO MP ATIVO COROMANDEL - COMARCA; COROMANDEL-PJ-UNPJ 7.242,73 5.069,91 0,00 12.312,64 0,00 0,00 24.625,28 3.164,03 4.339,43 0,00 7.503,46 17.121,82 457,00 4.380,51 31/12/2013
386 196800 CARLOS EDUARDO DE OLIVEIRA MARINHO OFICIAL DO MP ATIVO ALPINÓPOLIS - COMARCA; ALPINOPOLIS-PJ-UNPJ 8.501,02 3.400,41 0,00 6.114,34 3.967,14 0,00 21.982,91 3.169,44 5.111,44 0,00 8.280,88 13.702,03 768,37 5.407,21 31/12/2013
387 491800 CARLOS EDUARDO ROMAN OFICIAL DO MP ATIVO BARBACENA - COMARCA; BARBACENA-PJ-01PJ 3.938,84 393,88 0,00 4.332,72 0,00 0,00 8.665,44 1.184,69 629,67 0,00 1.814,36 6.851,08 562,62 2.193,88 31/12/2013
388 299300 CARLOS HENRIQUE BICALHO ANALISTA DO MP ATIVO BELO HORIZONTE - COMARCA; BH-17PJ PATRIMONIO PUBLICO-SECRETARIA 9.663,38 2.899,01 0,00 6.849,95 0,00 0,00 19.412,34 3.258,71 4.532,57 0,00 7.791,28 11.621,06 457,00 4.770,91 31/12/2013
389 205100 CARLOS HENRIQUE ESTEVES OFICIAL DO MP ATIVO ITAMBACURI - COMARCA; ITAMBACURI-PJ-01PJ 8.501,02 1.700,20 0,00 5.411,46 0,00 0,00 15.612,68 2.798,98 3.494,07 0,00 6.293,05 9.319,63 457,00 5.063,77 31/12/2013
390 351600 CARLOS HENRIQUE FELICIO DA FONSECA OFICIAL DO MP ATIVO LIMA DUARTE - COMARCA; LIMA DUARTE-PJ-UNPJ 5.511,94 1.102,39 0,00 3.398,06 2.204,78 0,00 12.217,17 1.430,55 1.835,41 0,00 3.265,96 8.951,21 457,00 3.004,13 31/12/2013
391 85400 CARLOS JOSE VIEIRA OFICIAL DO MP ATIVO BELO HORIZONTE - COMARCA; DIRETORIA DO CONSELHO SUPERIOR DO MP 18.218,36 12.752,85 0,00 12.661,75 8.441,17 0,00 52.074,13 5.571,18 13.100,45 5.647,71 24.319,34 27.754,79 457,00 0,00 31/12/2013
392 229100 CARLOS MERCES DE OLIVEIRA ANALISTA DO MP ATIVO BELO HORIZONTE - COMARCA; CENTRAL DE APOIO TECN-SETOR DE MEIO AMBIENTE 10.984,62 2.196,92 0,00 6.992,44 0,00 0,00 20.173,98 3.435,63 3.294,91 0,00 6.730,54 13.443,44 457,00 4.894,09 31/12/2013
393 538300 CARLOS RANGEL SILVA DE MELO ANALISTA DO MP ATIVO BELO HORIZONTE - COMARCA; DIVISAO DE CONTROLE IMOBILIARIO 4.404,59 880,92 0,00 3.025,87 0,00 0,00 8.311,38 1.129,03 688,75 0,00 1.817,78 6.493,60 457,00 1.961,98 31/12/2013
394 265100 CARLOS REIFF MIRANDA ANALISTA DO MP ATIVO BELO HORIZONTE - COMARCA; BH-19PJ SAUDE-SECRETARIA 150PJ 9.358,72 1.871,74 0,00 6.396,86 0,00 0,00 17.627,32 2.927,10 3.880,59 0,00 6.807,69 10.819,63 457,00 4.189,09 31/12/2013
395 305400 CARLOS ROCHA DE SOUZA OFICIAL DO MP ATIVO MONTALVÂNIA - COMARCA; MONTALVANIA-PJ-SECRETARIA 4.696,06 469,61 0,00 2.740,24 1.721,89 0,00 9.627,80 1.346,36 1.016,64 0,00 2.363,00 7.264,80 1.162,00 1.917,94 31/12/2013
396 365100 CARLOS WAGNER SANDER MORAIS COORDENADOR/OFICIAL ATIVO BELO HORIZONTE - COMARCA; DIRETORIA DE ADMINISTRACAO FINANCEIRA 0,00 1.030,28 10.302,83 11.333,11 3.777,70 0,00 26.443,92 1.610,28 5.282,75 0,00 6.893,03 19.550,89 457,00 4.182,83 31/12/2013
397 399900 CARMELITA EVANGELISTA DE SOUZA OFICIAL DO MP ATIVO JOÃO PINHEIRO - COMARCA; JOAO PINHEIRO-PJ-01PJ 3.814,70 381,47 0,00 4.196,17 1.398,72 0,00 9.791,06 1.091,94 848,79 0,00 1.940,73 7.850,33 695,66 1.543,05 31/12/2013
398 390400 CARMEM APARECIDA ANTUNES RESENDE OFICIAL DO MP ATIVO IGARAPÉ - COMARCA; IGARAPE-PJ-SECRETARIA 4.848,98 3.879,18 0,00 4.884,39 2.909,39 960,10 17.482,04 2.252,97 3.887,13 0,00 6.140,10 11.341,94 472,74 4.332,81 31/12/2013
399 202000 CARMEN LUCIA MARIZ DE MACEDO OFICIAL DO MP ATIVO BELO HORIZONTE - COMARCA; COORD COMB REPRES TRAFICO ILICITO ENTORPECEN 8.233,02 4.116,51 0,00 6.114,34 4.116,51 0,00 22.580,38 3.620,00 5.683,66 0,00 9.303,66 13.276,72 1.159,45 9.063,21 31/12/2013
400 228500 CAROLINA CHIARELLA DOS SANTOS RIBEIRO OFICIAL DO MP ATIVO BELO HORIZONTE - COMARCA; BH-13ª PJ JUÍXO DE TÓXICOS 4.848,98 969,80 0,00 3.172,86 1.939,59 0,00 10.931,23 1.509,16 1.571,52 0,00 3.080,68 7.850,55 927,00 2.092,30 31/12/2013
401 446500 CAROLINA COSTA VAL RODRIGUES ANALISTA DO MP ATIVO CONTAGEM - COMARCA; CONTAGEM-PJ-05PJ 6.265,58 626,56 0,00 6.892,14 2.297,38 0,00 16.081,66 1.796,34 2.388,75 0,00 4.185,09 11.896,57 457,00 2.558,96 31/12/2013
402 603501 CAROLINA DOMINGOS BRANDAO ANALISTA DO MP ATIVO CARATINGA - COMARCA; CARATINGA-PJ-03PJ 4.404,59 0,00 0,00 0,00 0,00 0,00 4.404,59 888,25 340,98 0,00 1.229,23 3.175,36 789,36 3.670,49 31/12/2013
403 404300 CAROLINA DOS SANTOS VIEIRA ANALISTA DO MP ATIVO BELO HORIZONTE - COMARCA; BH-08PJ JUIZADO ESPECIAL-SECRETARIA 7.973,40 797,34 0,00 4.334,86 2.923,58 0,00 16.029,18 2.464,67 3.028,91 0,00 5.493,58 10.535,60 927,00 5.933,66 31/12/2013
404 551200 CAROLINA LOPES ARANTES MASCARENHAS ANALISTA DO MP ATIVO BELO HORIZONTE - COMARCA; EXTINTA - COORD DEFESA DO DIREITO DE FAMILIA 4.848,98 0,00 0,00 3.232,65 0,00 0,00 8.081,63 1.086,85 479,01 0,00 1.565,86 6.515,77 457,00 1.807,74 31/12/2013
405 382200 CAROLINA MENDES CHAVES LIN ANALISTA DO MP ATIVO BELO HORIZONTE - COMARCA; SUPERINTENDENCIA DE RECURSOS HUMANOS 5.876,69 587,67 0,00 3.429,16 0,00 0,00 9.893,52 1.685,05 1.450,86 0,00 3.135,91 6.757,61 0,00 2.533,69 31/12/2013
406 461900 CAROLINA MURTA TEIXEIRA DIAS ANALISTA DO MP ATIVO BELO HORIZONTE - COMARCA; DIRET DE FORMACAO, APERFEIC. E POS-GRADUACAO 6.265,58 375,93 0,00 3.582,99 0,00 0,00 10.224,50 1.737,69 1.583,03 0,00 3.320,72 6.903,78 540,77 2.734,65 31/12/2013
407 509600 CAROLINA PINTO DE OLIVEIRA SOUZA ANALISTA DO MP ATIVO MURIAÉ - COMARCA; MURIAE-PJ-01PJ 6.068,01 0,00 0,00 3.480,00 0,00 0,00 9.548,01 1.274,27 1.042,37 0,00 2.316,64 7.231,37 692,00 2.046,48 31/12/2013
408 502600 CAROLINA RODRIGUES RUBEN ANALISTA DO MP ATIVO BELO HORIZONTE - COMARCA; EXTINTA-DEF DIREIT HUM-COMB A VIOL DOMEST-18 6.068,01 0,00 0,00 3.480,00 0,00 0,00 9.548,01 1.286,09 1.115,44 0,00 2.401,53 7.146,48 502,21 2.168,89 31/12/2013
409 529600 CAROLINA VAZ DE MELO MAMBRINI ANALISTA DO MP ATIVO MINAS NOVAS - COMARCA; MINAS NOVAS-PJ-UNPJ 4.848,98 0,00 0,00 2.547,62 0,00 0,00 7.396,60 1.220,81 681,14 0,00 1.901,95 5.494,65 457,00 1.813,25 31/12/2013
410 517600 CAROLINE ALVES DE OLIVEIRA MULLER ANALISTA DO MP ATIVO VISCONDE DO RIO BRANCO - COMARCA; VISCONDE DO RIO BRANCO-PJ-01PJ 5.511,94 0,00 0,00 2.923,93 1.837,31 0,00 10.273,18 1.436,61 1.489,92 0,00 2.926,53 7.346,65 692,00 2.046,48 31/12/2013
411 373200 CAROLINE ANTUNES RIBEIRO OFICIAL DO MP ATIVO JACUI - COMARCA; JACUI-PJ-UNPJ 5.006,87 500,69 0,00 2.921,61 1.835,85 0,00 10.265,02 1.436,85 1.293,94 0,00 2.730,79 7.534,23 826,26 2.057,65 31/12/2013
412 556800 CAROLINE DE SOUZA CARDOSO OFICIAL DO MP ATIVO BRASÍLIA DE MINAS - COMARCA; BRASILIA DE MINAS-PJ-02PJ 2.859,08 0,00 0,00 1.667,80 0,00 0,00 4.526,88 619,47 79,38 0,00 698,85 3.828,03 457,00 1.108,93 31/12/2013
413 499400 CAROLINE MARQUES DE LOURDES MARZULLO OFICIAL DO MP ATIVO JUIZ DE FORA - COMARCA; JUIZ DE FORA-PJ-20PJ 3.938,84 0,00 0,00 2.258,91 0,00 0,00 6.197,75 1.017,83 402,56 0,00 1.420,39 4.777,36 457,00 1.462,38 31/12/2013
414 604000 CASSIA APARECIDA DA SILVA OFICIAL DO MP ATIVO CANÁPOLIS - COMARCA; CANAPOLIS-PJ-UNPJ 2.859,08 0,00 0,00 476,51 0,00 0,00 3.335,59 366,92 56,76 0,00 423,68 2.911,91 457,00 0,00 31/12/2013
415 268800 CASSIA BEATRIZ TEIXEIRA OFICIAL DO MP ATIVO BELO HORIZONTE - COMARCA; COMB CRIMES PRAT POR AG POL MUN-SECRETARIA 6.469,61 1.293,92 0,00 4.527,48 0,00 0,00 12.291,01 2.005,29 2.183,51 0,00 4.188,80 8.102,21 1.003,63 2.901,16 31/12/2013
416 500000 CASSIA DE OLIVEIRA COSTA VIANA ANALISTA DO MP ATIVO SETE LAGOAS - COMARCA; SETE LAGOAS-PJ-01PJ 6.068,01 0,00 0,00 6.068,01 0,00 0,00 12.136,02 1.572,39 1.353,57 0,00 2.925,96 9.210,06 457,00 2.293,13 31/12/2013
417 368800 CASSIA LUISA BATISTA MENDONCA WEBER OFICIAL DO MP ATIVO BELO HORIZONTE - COMARCA; PROCON-MG-SEC DE EDUCACAO PARA O CONSUMO 4.265,74 426,57 0,00 2.489,13 0,00 0,00 7.181,44 1.224,12 699,32 0,00 1.923,44 5.258,00 927,00 1.848,26 31/12/2013
418 121000 CASSIO HENRIQUE AFONSO DA SILVA COORDENADOR/OFICIAL ATIVO BELO HORIZONTE - COMARCA; DIR ANALISES TECNOLOGIA INTELIGENCIA 10.302,83 7.624,10 0,00 9.509,73 5.975,64 0,00 33.412,30 4.039,42 8.757,97 0,00 12.797,39 20.614,91 1.357,66 6.753,49 31/12/2013
419 121100 CASSIO MOREIRA DE MIRANDA AGENTE DO MP ATIVO BELO HORIZONTE - COMARCA; PROCON-MG-SECRETARIA DE FISCALIZACOES 3.355,81 3.457,38 0,00 3.614,20 2.271,06 0,00 12.698,45 1.487,41 1.295,87 0,00 2.783,28 9.915,17 457,00 2.529,73 31/12/2013
420 512000 CATARINA NATALINO CALIXTO OFICIAL DO MP ATIVO BELO HORIZONTE - COMARCA; EXTINTA - DIVISÃO DE APOIO À LICITAÇÃO 3.577,90 0,00 0,00 1.724,05 1.192,63 0,00 6.494,58 999,17 543,36 0,00 1.542,53 4.952,05 575,84 2.262,02 31/12/2013
421 606200 CATARINE DE SIQUEIRA DE QUADROS ANALISTA DO MP ATIVO RIBEIRÃO DAS NEVES - COMARCA; RIBEIRAO DAS NEVES-PJ-04PJ 4.404,59 0,00 0,00 0,00 0,00 0,00 4.404,59 670,23 279,06 0,00 949,29 3.455,30 602,41 1.688,43 31/12/2013
422 71800 CATIA EFIGENIA CARNEIRO DE FREITAS OFICIAL DO MP ATIVO BELO HORIZONTE - COMARCA; ASSESSORIA JURIDICO-ADMINISTRATIVA 20.993,41 14.695,38 0,00 12.661,75 0,00 0,00 48.350,54 5.571,18 10.682,41 10.365,29 26.618,88 21.731,66 457,00 0,00 31/12/2013
423 538000 CECILIA FONTES DE MATOS ANALISTA DO MP ATIVO PALMA - COMARCA; PALMA-PJ-SECRETARIA 4.848,98 0,00 0,00 2.523,00 0,00 0,00 7.371,98 1.174,95 600,22 0,00 1.775,17 5.596,81 457,00 1.800,37 31/12/2013
424 261300 CECILIO ANTONIO CAMPOS DOS REIS ANALISTA DO MP ATIVO BELO HORIZONTE - COMARCA; CENTRAL DE APOIO TECNICO-SETOR CONTABIL 9.977,95 1.995,59 0,00 6.528,87 0,00 0,00 18.502,41 3.106,69 4.244,31 0,00 7.351,00 11.151,41 955,01 4.653,02 31/12/2013
425 386400 CEFAS AMORELI DE FIGUEIREDO OFICIAL DO MP ATIVO CABO VERDE - COMARCA; CABO VERDE-PJ-SECRETARIA 3.814,70 381,47 0,00 2.225,95 1.398,72 0,00 7.820,84 1.093,67 848,79 0,00 1.942,46 5.878,38 457,00 1.549,36 31/12/2013
426 149000 CELIA MAGALHAES CLAROS SOSSI OFICIAL DO MP ATIVO GOVERNADOR VALADARES - COMARCA; GOVERNADOR VALADARES-PJ-01PJ 9.358,72 3.743,49 0,00 6.950,35 0,00 0,00 20.052,56 3.423,76 4.796,81 0,00 8.220,57 11.831,99 817,10 4.947,39 31/12/2013
427 113100 CELIA MARIA ALVES PINTO OFICIAL DO MP ATIVO BELO HORIZONTE - COMARCA; PROCON-MG-SEC DE EDUCACAO PARA O CONSUMO 6.469,61 4.528,72 0,00 5.997,16 3.666,11 0,00 20.661,60 2.885,05 4.775,13 0,00 7.660,18 13.001,42 480,06 4.252,63 31/12/2013
428 421000 CELINA BENEDITA DE SOUZA ALMEIDA OFICIAL DO MP ATIVO CAMBUÍ - COMARCA; CAMBUI-PJ-01PJ 4.848,98 1.939,59 0,00 3.893,26 0,00 0,00 10.681,83 1.820,30 1.751,98 0,00 3.572,28 7.109,55 832,81 2.984,97 31/12/2013
429 252900 CELIO DE MELO CASTOR ANALISTA DO MP ATIVO BELO HORIZONTE - COMARCA; BH-20PJ ORD ECON TRIBUTARIA-SECRETARIA 9.977,95 1.995,59 0,00 6.528,87 0,00 0,00 18.502,41 3.105,43 4.147,60 0,00 7.253,03 11.249,38 457,00 4.305,48 31/12/2013
430 395700 CELIO FERREIRA LIMA OFICIAL DO MP ATIVO CONTAGEM - COMARCA; CONTAGEM-PJ-07PJ 4.131,19 413,12 0,00 2.410,63 0,00 0,00 6.954,94 1.185,79 560,91 0,00 1.746,70 5.208,24 692,00 1.702,98 31/12/2013
431 281300 CELMA REGINA PEREIRA SANTOS ANALISTA DO MP ATIVO BELO HORIZONTE - COMARCA; DIVISAO DE ACERVOS BIBLIOGRAFICOS 10.302,83 2.060,57 0,00 6.011,90 0,00 0,00 18.375,30 3.414,71 4.182,99 0,00 7.597,70 10.777,60 457,00 7.598,93 31/12/2013
432 535600 CELSO MEDEIROS DE PAIVA OFICIAL DO MP ATIVO RIO PRETO - COMARCA; RIO PRETO-PJ-SECRETARIA 2.859,08 0,00 0,00 1.487,63 0,00 0,00 4.346,71 692,79 61,12 0,00 753,91 3.592,80 457,00 1.061,57 31/12/2013
433 367000 CESAR NARVAES DE AVELAR OFICIAL DO MP ATIVO BELO HORIZONTE - COMARCA; DIVISAO DE MEMORIA INSTITUCIONAL 5.169,86 516,99 0,00 3.016,72 0,00 0,00 8.703,57 1.190,27 908,76 0,00 2.099,03 6.604,54 803,58 2.129,23 31/12/2013
434 226500 CESAR SILVEIRA BARROUIN OFICIAL DO MP ATIVO BELO HORIZONTE - COMARCA; DIRETORIA DE ADMINISTRACAO FINANCEIRA 6.578,93 1.973,68 0,00 8.552,61 0,00 0,00 17.105,22 2.230,11 2.569,77 0,00 4.799,88 12.305,34 978,23 3.187,25 31/12/2013
435 121400 CEZAR MORENO CONCEICAO TAVARES OFICIAL DO MP ATIVO BELO HORIZONTE - COMARCA; COORD DE INCLUSAO E MOBILIZACAO SOCIAIS 9.358,72 4.679,36 0,00 6.764,33 4.679,36 0,00 25.481,77 3.890,01 6.226,85 0,00 10.116,86 15.364,91 608,05 8.598,16 31/12/2013
436 243800 CHARLES MARTINS MUNIZ OFICIAL DO MP ATIVO BELO HORIZONTE - COMARCA; GAECO - SECRETARIA 5.691,44 1.138,29 0,00 3.622,98 2.276,58 0,00 12.729,29 1.781,51 2.352,49 0,00 4.134,00 8.595,29 457,00 2.549,04 31/12/2013
437 193500 CHARLIN CESAR KOURLY OFICIAL DO MP ATIVO UBERLÂNDIA - COMARCA; UBERLANDIA-PJ-10PJ 8.501,02 1.700,20 0,00 5.240,86 0,00 0,00 15.442,08 2.749,02 3.298,06 0,00 6.047,08 9.395,00 457,00 4.930,26 31/12/2013
438 385500 CHILLEN PEIXOTO DE MOURA OFICIAL DO MP ATIVO BELO HORIZONTE - COMARCA; BH-14PJ DEFESA CONSUMIDOR-GAB 112PJ 3.814,70 381,47 0,00 2.225,95 1.398,72 0,00 7.820,84 880,58 742,75 0,00 1.623,33 6.197,51 457,00 1.591,11 31/12/2013
439 534500 CHRISTIAN DOUGLAS BRITO RUAS OFICIAL DO MP ATIVO SÃO JOÃO DA PONTE - COMARCA; SAO JOAO DA PONTE-PJ-SECRETARIA 2.859,08 0,00 0,00 1.502,14 953,03 0,00 5.314,25 742,66 264,99 0,00 1.007,65 4.306,60 457,00 1.277,00 31/12/2013
440 370600 CHRISTIAN KARINE FELIX PRATES ASSESSOR ATIVO BELO HORIZONTE - COMARCA; ASSESS ESPECIAL DO PGJ ATUACAO JUNTO A PGJAI 0,00 0,00 6.265,58 3.323,71 127,28 0,00 9.716,57 914,98 1.738,39 0,00 2.653,37 7.063,20 911,13 2.330,51 31/12/2013
441 435800 CHRISTIANA BAHIA ANDRADE PINA ANALISTA DO MP ATIVO BELO HORIZONTE - COMARCA; CAO-ORDEM ECONOMICA E TRIBUTARIA 6.793,15 407,59 0,00 4.082,36 0,00 0,00 11.283,10 1.868,30 1.908,03 0,00 3.776,33 7.506,77 692,00 2.743,15 31/12/2013
442 516800 CHRISTIANE FERREIRA DO NASCIMENTO ANALISTA DO MP ATIVO ESTRELA DO SUL - COMARCA; ESTRELA DO SUL-PJ-UNPJ 4.548,03 0,00 0,00 2.412,60 0,00 0,00 6.960,63 955,87 502,40 0,00 1.458,27 5.502,36 457,00 1.830,63 31/12/2013
443 176000 CHRISTIANE JUNQUEIRA PULITI ANDRADE DE BARROS ASSESSOR ATIVO BELO HORIZONTE - COMARCA; GABINETE DO PROCURADOR-GERAL DE JUSTICA 0,00 7.211,98 10.302,83 10.258,61 0,00 0,00 27.773,42 4.523,65 6.860,06 0,00 11.383,71 16.389,71 772,76 6.126,68 31/12/2013
444 319200 CHRISTIANE MARIA DE ASSIS RUSSO OFICIAL DO MP ATIVO BELO HORIZONTE - COMARCA; CAO-ORDEM ECONOMICA E TRIBUTARIA-SECRETARIA 5.876,69 587,67 0,00 3.524,84 0,00 0,00 9.989,20 1.676,58 1.450,86 0,00 3.127,44 6.861,76 692,00 2.324,49 31/12/2013
445 510300 CHRISTIANE MARY DE CARVALHO FERREIRA ANALISTA DO MP ATIVO BELO HORIZONTE - COMARCA; DIRETORIA DE SISTEMAS DE INFORMACAO 5.511,94 0,00 0,00 3.161,07 0,00 0,00 8.673,01 1.416,29 984,66 0,00 2.400,95 6.272,06 692,00 1.962,77 31/12/2013
446 424900 CHRISTIANE PEREIRA TURNER DE ARAUJO OFICIAL DO MP ATIVO BELO HORIZONTE - COMARCA; CAO-PATRIMONIO PUBLICO 4.848,98 290,94 0,00 2.476,71 0,00 0,00 7.616,63 1.424,16 789,79 0,00 2.213,95 5.402,68 457,00 3.146,70 31/12/2013
447 513700 CHRISTIANE VIEIRA SOARES PEDERSOLI ANALISTA DO MP ATIVO BELO HORIZONTE - COMARCA; EXTINTA - SECRETARIA ADMINISTRATIVA 5.511,94 0,00 0,00 2.923,93 0,00 0,00 8.435,87 1.436,61 1.081,37 0,00 2.517,98 5.917,89 457,00 2.046,48 31/12/2013
448 412300 CHRYSTIAN MACHADO RIBEIRO ANALISTA DO MP ATIVO VARGINHA - COMARCA; VARGINHA-PJ-04PJ 7.014,37 701,44 0,00 3.819,79 2.571,94 0,00 14.107,54 1.805,03 2.471,06 0,00 4.276,09 9.831,45 457,00 4.887,67 31/12/2013
449 513800 CHRYSTIANE DO NASCIMENTO DE MAGALHAES OFICIAL DO MP ATIVO UBERLÂNDIA - COMARCA; UBERLANDIA-PJ-10PJ 3.577,90 0,00 0,00 1.897,97 1.192,63 0,00 6.668,50 944,60 538,91 0,00 1.483,51 5.184,99 692,00 1.438,41 31/12/2013
450 497900 CIBELE DE FREITAS SANCHES DIAS ANALISTA DO MP ATIVO SABARÁ - COMARCA; SABARA-PJ-03PJ 5.511,94 0,00 0,00 3.161,07 0,00 0,00 8.673,01 1.427,15 1.081,37 0,00 2.508,52 6.164,49 457,00 2.062,11 31/12/2013
451 500900 CIBELLE SILVA PRADO ALVARENGA ANALISTA DO MP ATIVO ITANHANDU - COMARCA; ITANHANDU-PJ-UNPJ 6.068,01 0,00 0,00 6.068,01 0,00 0,00 12.136,02 1.573,23 1.353,57 0,00 2.926,80 9.209,22 3.833,47 2.598,99 31/12/2013
452 296400 CINTIA APARECIDA MOREIRA NAVES E RODRIGUES ANALISTA DO MP ATIVO CAMPO BELO - COMARCA; CAMPO BELO-PJ-04PJ 9.663,38 966,34 0,00 5.796,12 0,00 0,00 16.425,84 2.757,37 3.586,51 0,00 6.343,88 10.081,96 667,01 3.827,82 31/12/2013
453 407900 CINTIA NETO COMELLI ANALISTA DO MP ATIVO BELO HORIZONTE - COMARCA; CENTRAL DE APOIO TECNICO-SETOR CONTABIL 7.014,37 420,86 0,00 3.819,79 0,00 0,00 11.255,02 1.979,26 1.965,42 0,00 3.944,68 7.310,34 457,00 3.517,77 31/12/2013
454 304700 CINTIA QUEIROZ OFICIAL DO MP ATIVO BELO HORIZONTE - COMARCA; BH-17PJ PATRIMONIO PUBLICO 6.265,58 626,56 0,00 3.321,06 0,00 0,00 10.213,20 1.909,63 1.602,40 0,00 3.512,03 6.701,17 457,00 4.219,14 31/12/2013
455 286100 CIRO CANGUSSU CORDEIRO OFICIAL DO MP ATIVO IPATINGA - COMARCA; IPATINGA-PJ-09PJ 4.696,06 939,21 0,00 2.740,24 0,00 0,00 8.375,51 1.502,09 930,09 0,00 2.432,18 5.943,33 771,82 2.971,03 31/12/2013
456 412500 CLARICE GOMES MAROTTA ANALISTA DO MP ATIVO BELO HORIZONTE - COMARCA; ASSESS TECNICO-JUR JUNTO AS PROC. DE JUST 7.014,37 1.402,87 0,00 4.324,29 0,00 0,00 12.741,53 2.226,88 2.438,54 0,00 4.665,42 8.076,11 457,00 3.690,31 31/12/2013
457 605300 CLARISSA AZEVEDO ROCHA OFICIAL DO MP ATIVO BELO HORIZONTE - COMARCA; EXTINTA - DIVISÃO DE COMPRAS 2.859,08 0,00 0,00 0,00 0,00 0,00 2.859,08 445,54 56,76 0,00 502,30 2.356,78 623,18 1.191,29 31/12/2013
458 308100 CLARISSA DUARTE MARTINS DIRETOR/ANALISTA ATIVO BELO HORIZONTE - COMARCA; SUPERINTENDENCIA DE RECURSOS HUMANOS 0,00 1.335,40 13.353,95 7.792,29 4.896,45 0,00 27.378,09 2.759,30 7.069,13 0,00 9.828,43 17.549,66 726,14 5.460,84 31/12/2013
459 497100 CLARISSA ROCHA GUIDI ANALISTA DO MP ATIVO BELO HORIZONTE - COMARCA; EXTINTA - JUIZO DE FAMILIA-02 PJ-02 VARA 6.068,01 0,00 0,00 3.480,00 0,00 0,00 9.548,01 1.573,35 1.353,57 0,00 2.926,92 6.621,09 457,00 2.301,98 31/12/2013
460 463700 CLAUDIA ADRIANA FERRAO DIAS ANALISTA DO MP ATIVO SETE LAGOAS - COMARCA; SETE LAGOAS-PJ-06PJ 6.265,58 375,93 0,00 6.432,09 0,00 0,00 13.073,60 1.833,96 1.432,23 0,00 3.266,19 9.807,41 3.853,80 4.106,47 31/12/2013
461 415400 CLAUDIA ALMEIDA DE VASCONCELLOS BARROS ASSESSOR/OFICIAL ATIVO BELO HORIZONTE - COMARCA; DIRET DE PESSOAL DO MINISTERIO PUBLICO - DPMP 0,00 478,40 7.973,40 4.483,44 2.817,27 0,00 15.752,51 1.787,76 2.713,32 0,00 4.501,08 11.251,43 457,00 3.138,10 31/12/2013
462 389600 CLAUDIA ALVES PERDOMO ASSESSOR ATIVO BELO HORIZONTE - COMARCA; PROCON-MG-GAB DO COORDENADOR DO PROCON-MG 0,00 0,00 7.973,40 4.229,67 2.657,80 0,00 14.860,87 914,98 3.373,60 0,00 4.288,58 10.572,29 457,00 2.960,43 31/12/2013
463 207000 CLAUDIA APARECIDA VILELA MACHADO ANALISTA DO MP ATIVO BELO HORIZONTE - COMARCA; CENTRAL DE APOIO TECNICO-SETOR CONTABIL 11.885,64 3.565,69 0,00 8.196,50 5.150,44 0,00 28.798,27 4.028,19 7.072,93 0,00 11.101,12 17.697,15 1.216,28 5.748,69 31/12/2013
464 365700 CLAUDIA BREGUEZ CUNHA ANALISTA DO MP ATIVO VARGINHA - COMARCA; VARGINHA-PJ-07PJ 8.233,02 823,30 0,00 4.804,12 0,00 0,00 13.860,44 2.363,13 2.816,33 0,00 5.179,46 8.680,98 1.008,92 3.395,96 31/12/2013
465 430500 CLAUDIA CECILIA SANTANA VENCESLAU COORDENADOR/OFICIAL ATIVO BELO HORIZONTE - COMARCA; DIRET DE DESENV DE RECURSOS HUMANOS-DDRH 0,00 618,17 10.302,83 5.793,28 3.640,33 0,00 20.354,61 1.378,58 5.063,26 0,00 6.441,84 13.912,77 457,00 4.282,47 31/12/2013
466 112400 CLAUDIA CRISTINA FIUZA DE AVELAR AGENTE DO MP ATIVO BELO HORIZONTE - COMARCA; SERVICO MEDICO-DEPTO PERIC MEDICA SAUDE OCUP 5.691,44 2.845,72 0,00 4.528,72 0,00 0,00 13.065,88 2.226,93 2.562,21 0,00 4.789,14 8.276,74 457,00 3.186,35 31/12/2013
467 149400 CLAUDIA DINIZ OFICIAL DO MP ATIVO BELO HORIZONTE - COMARCA; BH-09PJ AUDITORIA MILITAR-SECRETARIA 10.984,62 5.492,31 0,00 8.984,48 5.492,31 0,00 30.953,72 4.274,40 7.765,69 0,00 12.040,09 18.913,63 962,70 5.936,26 31/12/2013
468 480400 CLAUDIA GOULART DE SOUZA OFICIAL DO MP ATIVO PASSOS - COMARCA; PASSOS-PJ-06PJ 3.577,90 357,79 0,00 2.255,76 1.311,90 0,00 7.503,35 1.013,70 709,00 0,00 1.722,70 5.780,65 457,00 1.350,45 31/12/2013
469 519800 CLAUDIA HELENA CORREA DE ALMEIDA ANALISTA DO MP ATIVO BELO HORIZONTE - COMARCA; BH-12PJ JUIZO CRIMINAL-GAB 090PJ 5.511,94 0,00 0,00 2.923,93 0,00 0,00 8.435,87 1.460,14 1.081,37 0,00 2.541,51 5.894,36 457,00 2.271,78 31/12/2013
470 422100 CLAUDIA IACOMINI CABRAL ANALISTA DO MP ATIVO BELO HORIZONTE - COMARCA; CENT DE APOIO TEC-SETOR DEF,IDOSO E INFANC 6.793,15 2.717,27 0,00 5.045,02 3.170,14 0,00 17.725,58 2.478,75 3.910,40 0,00 6.389,15 11.336,43 457,00 3.531,09 31/12/2013
471 258200 CLAUDIA LAGE MICHALAROS ANALISTA DO MP ATIVO BELO HORIZONTE - COMARCA; CENTRAL DE APOIO TECN-SETOR DE MEIO AMBIENTE 9.977,95 4.988,98 0,00 7.939,54 4.988,98 0,00 27.895,45 3.786,82 6.727,05 0,00 10.513,87 17.381,58 1.369,14 4.829,48 31/12/2013
472 284600 CLAUDIA LENI DE ABREU OFICIAL DO MP ATIVO CONTAGEM - COMARCA; CONTAGEM-PJ-22PJ 4.696,06 1.408,82 0,00 3.238,47 0,00 0,00 9.343,35 1.591,13 1.371,61 0,00 2.962,74 6.380,61 457,00 2.266,66 31/12/2013
473 433600 CLAUDIA LUIZA SANTIAGO FELICIO ANALISTA DO MP ATIVO BELO HORIZONTE - COMARCA; CAO-SAUDE-TECNICO JURIDICO 6.793,15 407,59 0,00 3.739,41 0,00 0,00 10.940,15 2.051,31 1.533,96 0,00 3.585,27 7.354,88 927,00 4.856,81 31/12/2013
474 317000 CLAUDIA MACHADO ALVES OFICIAL DO MP ATIVO BELO HORIZONTE - COMARCA; ASSESS ESPECIAL DO PGJ ATUACAO JUNTO A PGJAI 4.848,98 484,90 0,00 2.740,24 0,00 0,00 8.074,12 1.422,18 953,04 0,00 2.375,22 5.698,90 457,00 2.438,98 31/12/2013
475 155300 CLAUDIA MACIEL MIRANDA OFICIAL DO MP ATIVO CONGONHAS - COMARCA; CONGONHAS-PJ-02PJ 9.358,72 3.743,49 0,00 11.901,43 4.367,40 0,00 29.371,04 3.765,34 5.785,40 0,00 9.550,74 19.820,30 1.366,75 9.251,44 31/12/2013
476 242200 CLAUDIA MICHELLE DIAS MUNIZ BALEEIRO OFICIAL DO MP ATIVO MONTE AZUL - COMARCA; MONTE AZUL-PJ-SECRETARIA 6.578,93 1.973,68 0,00 4.848,78 0,00 0,00 13.401,39 1.795,66 1.912,42 0,00 3.708,08 9.693,31 1.172,75 2.939,88 31/12/2013
477 418400 CLAUDIA REGINA MARTINS BONIFACIO OFICIAL DO MP ATIVO ITUIUTABA - COMARCA; ITUIUTABA-PJ-SECRETARIA 4.848,98 290,94 0,00 2.947,76 0,00 0,00 8.087,68 1.344,28 720,32 0,00 2.064,60 6.023,08 479,03 1.950,69 31/12/2013
478 498300 CLAUDIA SOUTO FARIAS BRAUN OFICIAL DO MP ATIVO TEÓFILO OTONI - COMARCA; TEOFILO OTONI-PJ-SECRETARIA 3.577,90 0,00 0,00 3.577,90 0,00 0,00 7.155,80 925,68 143,97 0,00 1.069,65 6.086,15 692,00 1.331,97 31/12/2013
479 206500 CLAUDIA VALERIA FONSECA ANDRADE ANALISTA DO MP ATIVO BELO HORIZONTE - COMARCA; BH-23PJ INF-FISC MED SOC FEC 11.885,64 4.754,25 0,00 8.827,00 0,00 0,00 25.466,89 4.338,08 6.431,78 0,00 10.769,86 14.697,03 1.053,71 6.191,26 31/12/2013
480 277500 CLAUDIO ANTONIO BORGES ALVARES ASSESSOR/OFICIAL ATIVO BELO HORIZONTE - COMARCA; COORD REG BACIAS RIO VELHAS E PARAOPEBA 0,00 626,56 6.265,58 3.656,09 2.297,38 0,00 12.845,61 1.732,22 2.401,90 0,00 4.134,12 8.711,49 877,04 2.568,92 31/12/2013
481 444800 CLAUDIO ARESIO DO CARMO ANALISTA DO MP ATIVO SETE LAGOAS - COMARCA; SETE LAGOAS-PJ-09PJ 6.793,15 1.358,63 0,00 3.988,46 2.717,26 0,00 14.857,50 2.302,79 3.040,16 0,00 5.342,95 9.514,55 692,00 5.279,51 31/12/2013
482 541600 CLAUDIO DE OLIVEIRA MELO OFICIAL DO MP ATIVO PARACATU - COMARCA; PARACATU-PJ-01PJ 2.859,08 0,00 0,00 1.487,63 0,00 0,00 4.346,71 692,79 34,74 0,00 727,53 3.619,18 927,00 1.061,57 31/12/2013
483 545100 CLAUDIO HENRIQUE MACEDO DE SOUZA FRANSOZO ANALISTA DO MP ATIVO OURO PRETO - COMARCA; OURO PRETO-PJ-01PJ 4.404,59 0,00 0,00 3.303,44 0,00 0,00 7.708,03 1.026,89 399,47 0,00 1.426,36 6.281,67 457,00 1.635,40 31/12/2013
484 353500 CLAUDIO HENRIQUE PEDRO DA ROCHA OFICIAL DO MP ATIVO BELO HORIZONTE - COMARCA; CAO-CRIMINAL-SECRETARIA 5.511,94 551,19 0,00 3.114,89 2.021,04 0,00 11.199,06 1.615,69 1.666,74 0,00 3.282,43 7.916,63 457,00 2.763,77 31/12/2013
485 265800 CLAUDIO KUPIDLOWSKY FERNANDES OFICIAL DO MP ATIVO BELO HORIZONTE - COMARCA; EXTINTA - SECRETARIA ADMINISTRATIVA 6.068,01 1.213,60 0,00 3.970,48 2.427,20 0,00 13.679,29 1.889,08 1.223,93 0,00 3.113,01 10.566,28 692,00 3.154,22 31/12/2013
486 193600 CLAUDIO LEITE FONTES OFICIAL DO MP ATIVO ITUIUTABA - COMARCA; ITUIUTABA-PJ-02PJ 5.169,86 1.550,96 0,00 3.452,80 0,00 0,00 10.173,62 1.790,56 1.434,80 0,00 3.225,36 6.948,26 853,68 3.061,82 31/12/2013
487 329400 CLAUDIO MARCIO BERNARDES OFICIAL DO MP ATIVO ITAÚNA - COMARCA; ITAUNA-PJ-04PJ 5.876,69 2.350,68 0,00 4.486,16 2.742,46 0,00 15.455,99 2.134,01 3.068,04 0,00 5.202,05 10.253,94 525,21 2.960,25 31/12/2013
488 270200 CLAUDIO RABELO ALVES OFICIAL DO MP ATIVO FORMIGA - COMARCA; FORMIGA-PJ-SECRETARIA 6.469,61 1.293,92 0,00 4.233,29 2.587,84 0,00 14.584,66 2.047,51 2.508,33 0,00 4.555,84 10.028,82 457,00 3.102,35 31/12/2013
489 264700 CLAUDIO ROBERTO KFURI DE ARAUJO ANALISTA DO MP ATIVO BELO HORIZONTE - COMARCA; CENTRAL DE APOIO TECNICO-SETOR DE INFORMATICA 9.977,95 1.995,59 0,00 6.982,59 3.991,18 0,00 22.947,31 3.092,29 5.148,47 0,00 8.240,76 14.706,55 457,00 4.176,16 31/12/2013
490 188600 CLAUDIO SALES OFICIAL DO MP ATIVO NEPOMUCENO - COMARCA; NEPOMUCENO-PJ-SECRETARIA 8.233,02 4.116,51 0,00 6.344,50 4.116,51 0,00 22.810,54 2.674,06 5.271,67 0,00 7.945,73 14.864,81 4.508,35 102.042,09 31/12/2013
491 543300 CLAUDIO SILVA DE CARVALHO ANALISTA DO MP ATIVO CAMPO BELO - COMARCA; CAMPO BELO-PJ-02PJ 4.404,59 0,00 0,00 2.291,77 0,00 0,00 6.696,36 1.067,26 316,89 0,00 1.384,15 5.312,21 457,00 1.635,40 31/12/2013
492 160700 CLAUDIO VICENTE HESS ASSESSOR ATIVO BELO HORIZONTE - COMARCA; EXTINTA - SUPERINTENDENCIA ADMINISTRATIVA-SAD 0,00 2.633,33 8.777,78 6.053,27 4.035,52 0,00 21.499,90 914,98 5.353,07 0,00 6.268,05 15.231,85 4.052,60 4.551,99 31/12/2013
493 312900 CLAUDIO VIEIRA FIRPE ASSESSOR/OFICIAL ATIVO BELO HORIZONTE - COMARCA; DIRETORIA DE RELACOES PUBLICAS E CERIMONIAL 0,00 797,34 7.973,40 4.652,63 0,00 0,00 13.423,37 1.639,29 2.827,68 0,00 4.466,97 8.956,40 457,00 3.303,79 31/12/2013
494 459200 CLEIA ZILLE PEREIRA ANALISTA DO MP ATIVO BELO HORIZONTE - COMARCA; ASSESS TECNICO-JUR JUNTO AS PROC. DE JUST 6.265,58 375,93 0,00 3.792,41 0,00 0,00 10.433,92 1.713,12 1.634,29 0,00 3.347,41 7.086,51 1.319,00 2.435,46 31/12/2013
495 461300 CLEIDE ALVES DA SILVA OFICIAL DO MP ATIVO BOA ESPERANÇA - COMARCA; BOA ESPERANCA-PJ-01PJ 4.000,95 240,06 0,00 2.325,77 0,00 0,00 6.566,78 1.107,67 505,38 0,00 1.613,05 4.953,73 457,00 1.741,10 31/12/2013
496 481800 CLEIDE CARDOSO DA SILVA ANALISTA DO MP ATIVO GOVERNADOR VALADARES - COMARCA; GOVERNADOR VALADARES-PJ-15PJ 6.068,01 0,00 0,00 3.218,91 0,00 0,00 9.286,92 1.581,97 1.160,14 0,00 2.742,11 6.544,81 1.148,89 2.381,76 31/12/2013
497 347600 CLEIDIMAR DE OLIVEIRA SILVA OFICIAL DO MP ATIVO PATOS DE MINAS - COMARCA; PATOS DE MINAS-PJ-05PJ 4.848,98 969,80 0,00 2.989,35 1.939,59 0,00 10.747,72 1.550,12 1.333,19 0,00 2.883,31 7.864,41 487,48 2.648,36 31/12/2013
498 396500 CLEIDISON BATISTA DE ANDRADE OFICIAL DO MP ATIVO RESPLENDOR - COMARCA; RESPLENDOR-PJ-UNPJ 3.814,70 381,47 0,00 4.196,17 0,00 0,00 8.392,34 1.123,07 306,49 0,00 1.429,56 6.962,78 500,43 1.826,74 31/12/2013
499 535100 CLEISON ALVES DA SILVA ANALISTA DO MP ATIVO BOA ESPERANÇA - COMARCA; BOA ESPERANCA-PJ-01PJ 4.848,98 0,00 0,00 2.523,00 0,00 0,00 7.371,98 1.174,95 521,09 0,00 1.696,04 5.675,94 457,00 1.800,37 31/12/2013
500 298100 CLEONICE AUGUSTA BARROS DE OLIVEIRA ANALISTA DO MP ATIVO JUIZ DE FORA - COMARCA; JUIZ DE FORA-PJ-08PJ 10.302,83 1.030,28 0,00 5.460,99 0,00 0,00 16.794,10 3.140,94 3.676,65 0,00 6.817,59 9.976,51 875,70 6.947,74 31/12/2013
501 60200 CLERES DE ALMEIDA AGENTE DO MP ATIVO BELO HORIZONTE - COMARCA; EXTINTA - DIVISAO DE TRANSPORTES 4.404,59 3.083,22 0,00 3.972,07 0,00 0,00 11.459,88 2.280,86 2.467,84 0,00 4.748,70 6.711,18 457,00 5.775,49 31/12/2013
502 114300 CLERES PEREIRA DA SILVA JUNIOR ASSESSOR ATIVO BELO HORIZONTE - COMARCA; GAECO - SECRETARIA 0,00 1.575,53 3.938,84 2.925,21 1.838,12 0,00 10.277,70 914,98 1.505,58 0,00 2.420,56 7.857,14 457,00 2.047,47 31/12/2013
503 264100 CLETO HENRIQUE ANDRADE SILVA ANALISTA DO MP ATIVO BELO HORIZONTE - COMARCA; DIRETORIA DE SISTEMAS DE INFORMACAO 9.977,95 1.995,59 0,00 6.982,59 0,00 0,00 18.956,13 3.144,80 3.954,18 0,00 7.098,98 11.857,15 692,00 4.665,14 31/12/2013
504 334400 CLEUBA DE OLIVEIRA BARCELOS GONCALVES OFICIAL DO MP ATIVO DIVINÓPOLIS - COMARCA; COORD REG SAUDE MACRORREGIAO SANITARIA OESTE 5.876,69 587,67 0,00 3.524,84 2.154,79 0,00 12.143,99 1.353,23 1.669,85 0,00 3.023,08 9.120,91 457,00 2.324,49 31/12/2013
505 347500 CLEUSA CORDEIRO DA MATA PIMENTA OFICIAL DO MP ATIVO CAMPO BELO - COMARCA; CAMPO BELO-PJ-04PJ 5.691,44 3.984,01 0,00 4.662,19 3.225,15 0,00 17.562,79 2.680,97 3.595,88 0,00 6.276,85 11.285,94 512,22 5.924,76 31/12/2013
506 510200 CLEZIO SALES SILVA OFICIAL DO MP ATIVO BRASÓPOLIS - COMARCA; BRASOPOLIS-PJ-UNPJ 3.250,03 0,00 0,00 1.566,03 0,00 0,00 4.816,06 749,17 143,99 0,00 893,16 3.922,90 754,88 2.159,62 31/12/2013
507 323000 CLOTILDE DE PADUA VIEIRA OFICIAL DO MP ATIVO BELO HORIZONTE - COMARCA; BH-15PJ M AMB 16PJ HAB URB-SECRETARIA 4.131,19 413,12 0,00 2.334,64 1.514,77 0,00 8.393,72 1.210,31 1.006,94 0,00 2.217,25 6.176,47 457,00 2.155,62 31/12/2013
508 285200 CLOVIS ANDRE LUDTKE OFICIAL DO MP ATIVO BELO HORIZONTE - COMARCA; DIVISAO DE MANUTENCAO PREDIAL 6.265,58 1.253,12 0,00 3.656,09 2.506,23 0,00 13.681,02 2.253,41 2.743,46 0,00 4.996,87 8.684,15 457,00 5.634,14 31/12/2013
509 381100 CONCEICAO APARECIDA TEIXEIRA ARANTES ANALISTA DO MP ATIVO BELO HORIZONTE - COMARCA; BH-23PJ INFRACIONAL-ASS JURIDICA 6.469,61 646,96 0,00 3.775,14 0,00 0,00 10.891,71 1.857,33 1.770,12 0,00 3.627,45 7.264,26 457,00 2.665,00 31/12/2013
510 249900 CONSTANTINO CEZAR GOMES MOTA OFICIAL DO MP ATIVO MONTES CLAROS - COMARCA; COORD REG BACIA RIOS VERDE GRANDE E PARDO 4.696,06 939,21 0,00 2.989,35 1.878,42 0,00 10.503,04 1.468,78 1.561,59 0,00 3.030,37 7.472,67 457,00 2.092,30 31/12/2013
511 481000 CRISHMA ANALIA LOMBELLO ANALISTA DO MP ATIVO JUIZ DE FORA - COMARCA; JUIZ DE FORA-PJ-13PJ 6.068,01 0,00 0,00 6.068,01 0,00 0,00 12.136,02 1.581,85 1.256,85 0,00 2.838,70 9.297,32 457,00 2.379,53 31/12/2013
512 187500 CRISLEY PATRICK TOSTES OFICIAL DO MP ATIVO JUIZ DE FORA - COMARCA; JUIZ DE FORA-PJ-21PJ 8.501,02 1.700,20 0,00 5.411,46 3.400,41 0,00 19.013,09 2.661,00 4.311,88 0,00 6.972,88 12.040,21 941,89 3.851,89 31/12/2013
513 523900 CRISTHYANE BAZOLI COSTA GUEDES OFICIAL DO MP ATIVO BELO HORIZONTE - COMARCA; BH-23PJ DEF DIR CRIAN ADOL 2.952,15 0,00 0,00 1.566,03 984,05 0,00 5.502,23 771,68 283,13 0,00 1.054,81 4.447,42 457,00 1.116,46 31/12/2013
514 187000 CRISTIAN DAYVSON EVANGELISTA OFICIAL DO MP ATIVO JUIZ DE FORA - COMARCA; JUIZ DE FORA-PJ-09PJ 8.233,02 1.646,60 0,00 5.075,60 3.293,21 0,00 18.248,43 2.136,92 3.271,42 0,00 5.408,34 12.840,09 457,00 4.684,54 31/12/2013
515 319800 CRISTIANA GONCALVES DOS SANTOS GUSMAO OFICIAL DO MP ATIVO BELO HORIZONTE - COMARCA; BH-14PJ DEFESA CONSUMIDOR-SECRETARIA 5.691,44 569,14 0,00 3.016,72 2.086,86 0,00 11.364,16 1.739,65 1.881,29 0,00 3.620,94 7.743,22 803,58 3.995,97 31/12/2013
516 520600 CRISTIANA JANAINA BARBOZA JUVENCIO DOS SANTOS ANALISTA DO MP ATIVO BELO HORIZONTE - COMARCA; EXTINTA - JUIZO DE FAMILIA-02 PJ-02 VARA 5.511,94 0,00 0,00 2.923,93 1.837,31 0,00 10.273,18 1.436,92 1.586,63 0,00 3.023,55 7.249,63 658,55 2.162,87 31/12/2013
517 195600 CRISTIANA SOARES HALABI OFICIAL DO MP ATIVO UBERABA - COMARCA; UBERABA-PJ-11PJ 7.973,40 1.594,68 0,00 4.610,49 0,00 0,00 14.178,57 2.651,80 2.852,25 0,00 5.504,05 8.674,52 777,99 5.865,30 31/12/2013
518 218900 CRISTIANE ALVES BELLES OFICIAL DO MP ATIVO JUIZ DE FORA - COMARCA; JUIZ DE FORA-PJ-10PJ 4.696,06 939,21 0,00 2.989,35 1.878,42 0,00 10.503,04 1.468,78 1.368,17 0,00 2.836,95 7.666,09 457,00 2.092,30 31/12/2013
519 263600 CRISTIANE CARVALHO COUTINHO OFICIAL DO MP ATIVO BELO HORIZONTE - COMARCA; BH-23PJ INFRACIONAL-SEC EXP 6.265,58 1.253,12 0,00 3.988,46 0,00 0,00 11.507,16 1.964,30 1.966,96 0,00 3.931,26 7.575,90 692,00 2.834,14 31/12/2013
520 541000 CRISTIANE COELHO ALVES OFICIAL DO MP ATIVO ITABIRA - COMARCA; ITABIRA-PJ-01PJ 2.859,08 0,00 0,00 2.382,57 0,00 0,00 5.241,65 692,79 61,12 0,00 753,91 4.487,74 457,00 1.061,57 31/12/2013
521 441700 CRISTIANE CORRADO DE ANDRADE ANALISTA DO MP ATIVO BELO HORIZONTE - COMARCA; DIRETORIA DE SISTEMAS DE INFORMACAO 6.793,15 407,59 0,00 4.082,36 2.400,25 0,00 13.683,35 1.863,09 2.568,10 0,00 4.431,19 9.252,16 457,00 2.548,59 31/12/2013
522 375100 CRISTIANE DAS DORES ERCIO DE LIMA OFICIAL DO MP ATIVO GOVERNADOR VALADARES - COMARCA; GOVERNADOR VALADARES-PJ-15PJ 4.131,19 413,12 0,00 2.410,63 0,00 0,00 6.954,94 1.184,39 640,04 0,00 1.824,43 5.130,51 458,94 1.687,29 31/12/2013
523 178800 CRISTIANE DE LIMA HOSKEN OFICIAL DO MP ATIVO BELO HORIZONTE - COMARCA; BH-14PJ DEFESA CONSUMIDOR-GAB 113PJ 8.501,02 1.700,20 0,00 5.240,86 3.400,41 0,00 18.842,49 2.774,21 4.071,44 0,00 6.845,65 11.996,84 457,00 5.157,62 31/12/2013
524 494000 CRISTIANE DE MELO MARQUEZ OLIVEIRA ANALISTA DO MP ATIVO UBERLÂNDIA - COMARCA; UBERLANDIA-PJ-06PJ 6.068,01 0,00 0,00 3.480,00 2.022,67 0,00 11.570,68 1.576,08 1.909,80 0,00 3.485,88 8.084,80 591,37 2.203,59 31/12/2013
525 266100 CRISTIANE DE OLIVEIRA CASTRO OFICIAL DO MP ATIVO BELO HORIZONTE - COMARCA; PROCON-MG-SECRETARIA DE FISCALIZACOES 6.578,93 2.424,11 0,00 5.063,73 0,00 0,00 14.066,77 2.033,24 2.567,18 0,00 4.600,42 9.466,35 692,00 3.115,07 31/12/2013
526 329500 CRISTIANE DOS REIS SILVA OFICIAL DO MP ATIVO ARAXÁ - COMARCA; ARAXA-PJ-04PJ 4.696,06 469,61 0,00 2.740,24 1.721,89 0,00 9.627,80 1.363,56 1.192,87 0,00 2.556,43 7.071,37 880,89 2.075,86 31/12/2013
527 301600 CRISTIANE GODINHO PIRES ANALISTA DO MP ATIVO BETIM - COMARCA; BETIM-PJ-07PJ 9.358,72 935,87 0,00 5.288,78 0,00 0,00 15.583,37 2.741,40 3.343,02 0,00 6.084,42 9.498,95 457,00 4.675,68 31/12/2013
528 406100 CRISTIANE GONCALVES CHAVES ANALISTA DO MP ATIVO BELO HORIZONTE - COMARCA; ASSESS TECNICO-JUR JUNTO AS PROC. DE JUST 7.973,40 1.594,68 0,00 4.589,75 3.189,36 0,00 17.347,19 2.693,74 3.662,25 0,00 6.355,99 10.991,20 457,00 6.518,44 31/12/2013
529 487600 CRISTIANE LOPES DE OLIVEIRA OFICIAL DO MP ATIVO IBIRACI - COMARCA; IBIRACI-PJ-SECRETARIA 3.577,90 0,00 0,00 3.577,90 0,00 0,00 7.155,80 931,43 246,91 0,00 1.178,34 5.977,46 457,00 1.318,09 31/12/2013
530 502500 CRISTIANE MACIEL DE OLIVEIRA GOMES ANALISTA DO MP ATIVO JUIZ DE FORA - COMARCA; JUIZ DE FORA-PJ-04PJ 6.068,01 0,00 0,00 3.480,00 2.022,67 0,00 11.570,68 1.570,88 1.909,80 0,00 3.480,68 8.090,00 826,81 2.157,25 31/12/2013
531 285500 CRISTIANE MAGALHAES LOURENCO ANALISTA DO MP ATIVO BELO HORIZONTE - COMARCA; CENTRAL DE APOIO TECNICO-SETOR CONTABIL 9.663,38 966,34 0,00 5.796,12 3.543,24 0,00 19.969,08 2.756,87 4.367,48 0,00 7.124,35 12.844,73 458,31 3.822,28 31/12/2013
532 536500 CRISTIANE MICHELE DE SOUZA ANALISTA DO MP ATIVO SANTA BÁRBARA - COMARCA; SANTA BARBARA-PJ-UNPJ 4.848,98 0,00 0,00 2.523,00 0,00 0,00 7.371,98 1.174,95 521,09 0,00 1.696,04 5.675,94 692,00 1.800,37 31/12/2013
533 346600 CRISTIANE NOGUEIRA ANDRADE ANALISTA DO MP ATIVO BELO HORIZONTE - COMARCA; CENTRAL DE APOIO TECNICO-SETOR CONTABIL 8.501,02 850,10 0,00 4.960,51 0,00 0,00 14.311,63 2.439,26 2.960,65 0,00 5.399,91 8.911,72 927,00 3.496,26 31/12/2013
534 234000 CRISTIANE OLIVEIRA TOSTES OFICIAL DO MP ATIVO JUIZ DE FORA - COMARCA; JUIZ DE FORA-PJ-19PJ 7.973,40 1.594,68 0,00 4.984,49 3.189,36 0,00 17.741,93 2.618,68 3.729,32 0,00 6.348,00 11.393,93 457,00 5.561,60 31/12/2013
535 445800 CRISTIANE ORZIL COSTA OFICIAL DO MP ATIVO SANTA LUZIA - COMARCA; SANTA LUZIA-PJ-05PJ 3.355,81 201,35 0,00 3.557,16 0,00 0,00 7.114,32 927,16 294,13 0,00 1.221,29 5.893,03 457,00 1.320,73 31/12/2013
536 215000 CRISTIANE RODRIGUES DE CARVALHO ASSESSOR ATIVO BELO HORIZONTE - COMARCA; BH-14PJ DEFESA CONSUMIDOR-GAB 005PJ 0,00 787,77 3.938,84 2.507,33 1.575,54 0,00 8.809,48 914,98 1.290,36 0,00 2.205,34 6.604,14 457,00 1.754,92 31/12/2013
537 257700 CRISTIANE RODRIGUES PAES NUNES ANALISTA DO MP ATIVO BELO HORIZONTE - COMARCA; BH-22PJ PES COM DEF E IDOSOS-ORIENTACAO PSIC 10.302,83 2.060,57 0,00 6.558,44 4.121,13 0,00 23.042,97 3.281,67 5.471,75 0,00 8.753,42 14.289,55 515,34 5.132,61 31/12/2013
538 510800 CRISTIANE SANTOS FERNANDES ORNELES ANALISTA DO MP ATIVO BELO HORIZONTE - COMARCA; COORD ESTADUAL DAS PJS DE HAB. E URBANISMO 6.068,01 0,00 0,00 5.006,87 2.022,67 0,00 13.097,55 1.756,85 1.553,37 0,00 3.310,22 9.787,33 762,14 5.009,15 31/12/2013
539 535700 CRISTIANE SANTOS MIRANDA OFICIAL DO MP ATIVO BETIM - COMARCA; BETIM-PJ-02PJ 3.147,52 0,00 0,00 1.637,70 0,00 0,00 4.785,22 763,39 96,41 0,00 859,80 3.925,42 457,00 1.175,27 31/12/2013
540 536200 CRISTIANO DE OLIVEIRA ANALISTA DO MP ATIVO CONCEIÇÃO DO MATO DENTRO - COMARCA; CONCEICAO DO MATO DENTRO-PJ-UNPJ 4.848,98 0,00 0,00 2.523,00 0,00 0,00 7.371,98 1.174,95 600,22 0,00 1.775,17 5.596,81 457,00 1.800,37 31/12/2013
541 477400 CRISTIANO SOARES ELEUTERIO ANALISTA DO MP ATIVO BELO HORIZONTE - COMARCA; BH-17PJ PATRIMONIO PUBLICO 6.068,01 364,08 0,00 3.218,91 0,00 0,00 9.651,00 1.701,71 1.442,67 0,00 3.144,38 6.506,62 457,00 2.981,14 31/12/2013
542 449400 CRISTIANO TEIXEIRA RODRIGUES LANA ANALISTA DO MP ATIVO BELO HORIZONTE - COMARCA; ASSESS TECNICO-JUR JUNTO AS PROC. DE JUST 6.265,58 375,93 0,00 3.523,13 0,00 0,00 10.164,64 1.735,74 1.634,29 0,00 3.370,03 6.794,61 861,76 2.646,57 31/12/2013
543 239400 CRISTINA DE FATIMA CRUZ E SILVA OFICIAL DO MP ATIVO MONTE SANTO DE MINAS - COMARCA; MONTE SANTO DE MINAS-PJ-SECRETARIA 6.793,15 1.358,63 0,00 3.988,46 0,00 0,00 12.140,24 2.386,30 2.389,63 0,00 4.775,93 7.364,31 710,23 6.054,42 31/12/2013
544 544000 CRISTINA DE OLIVEIRA TERRA ANALISTA DO MP ATIVO MATOZINHOS - COMARCA; MATOZINHOS-PJ-02PJ 4.404,59 0,00 0,00 3.303,44 0,00 0,00 7.708,03 1.026,89 399,47 0,00 1.426,36 6.281,67 457,00 1.635,40 31/12/2013
545 356800 CRISTINA DE PINHO BARROSO OFICIAL DO MP ATIVO SABINÓPOLIS - COMARCA; SABINOPOLIS-PJ-UNPJ 4.265,74 853,15 0,00 2.791,24 1.706,30 0,00 9.616,43 1.340,77 1.167,76 0,00 2.508,53 7.107,90 457,00 2.065,29 31/12/2013
546 449100 CRISTINA KISTEMANN CHIODI ASSESSOR ATIVO BELO HORIZONTE - COMARCA; CAO-MEIO AMBIENTE-SECRETARIA 0,00 0,00 7.973,40 4.229,67 0,00 0,00 12.203,07 914,98 2.642,70 0,00 3.557,68 8.645,39 457,00 2.960,43 31/12/2013
547 348201 CRISTINA MARIA DA SILVA ANALISTA DO MP ATIVO JOÃO PINHEIRO - COMARCA; JOAO PINHEIRO-PJ-01PJ 6.068,01 364,08 0,00 3.412,04 0,00 0,00 9.844,13 1.678,94 1.531,77 0,00 3.210,71 6.633,42 457,00 2.415,05 31/12/2013
548 434900 CRISTINA MELO DE MADUREIRA ANALISTA DO MP ATIVO BELO HORIZONTE - COMARCA; CAO-CRIMINAL-SECRETARIA 6.793,15 407,59 0,00 4.082,36 2.400,25 0,00 13.683,35 1.871,95 2.568,10 0,00 4.440,05 9.243,30 692,00 2.629,52 31/12/2013
549 117100 CRISTINA PEDROSA GARABINI COORDENADOR/ANALISTA ATIVO BELO HORIZONTE - COMARCA; DIRET DE INFORMACAO E CONHECIMENTO-DINC/CEAF 17.524,60 11.234,98 0,00 12.661,75 8.441,17 0,00 49.862,50 5.571,18 12.907,02 3.436,08 21.914,28 27.948,22 457,00 0,00 31/12/2013
550 307700 CRISTINA TEIXEIRA MARQUES OFICIAL DO MP ATIVO BELO HORIZONTE - COMARCA; CENTRAL DE APOIO TECNICO-SECRETARIA 5.006,87 500,69 0,00 2.921,61 0,00 0,00 8.429,17 1.436,69 1.079,23 0,00 2.515,92 5.913,25 457,00 2.055,58 31/12/2013
551 265300 CRISTOVAO SANCHES DE MEDEIROS ANALISTA DO MP ATIVO BELO HORIZONTE - COMARCA; BH-02PJ FAMILIA-SECRETARIA 9.358,72 1.871,74 0,00 6.396,86 0,00 0,00 17.627,32 2.927,37 3.687,15 0,00 6.614,52 11.012,80 457,00 4.401,55 31/12/2013
552 349800 CROZEIR LUIZ DA SILVA OFICIAL DO MP ATIVO UNAÍ - COMARCA; UNAI-PJ-SECRETARIA 4.848,98 484,90 0,00 2.740,24 1.777,96 0,00 9.852,08 1.442,26 1.345,27 0,00 2.787,53 7.064,55 1.370,70 2.631,87 31/12/2013
553 490500 CYNTHIA CRISTINA DE SOUZA OLIVEIRA VALENTE ANALISTA DO MP ATIVO BELO HORIZONTE - COMARCA; BH-09PJ AUDITORIA MILITAR 5.511,94 0,00 0,00 5.511,94 0,00 0,00 11.023,88 1.431,84 1.081,37 0,00 2.513,21 8.510,67 692,00 2.115,37 31/12/2013
554 389800 CYNTHIA GARIGLIO DOS SANTOS OFICIAL DO MP ATIVO PERDIZES - COMARCA; PERDIZES-PJ-SECRETARIA 3.814,70 381,47 0,00 2.225,95 1.398,72 0,00 7.820,84 1.093,79 674,67 0,00 1.768,46 6.052,38 692,00 1.644,71 31/12/2013
555 335101 CYNTHIA GONTIJO D ASSUNCAO ANALISTA DO MP ATIVO BELO HORIZONTE - COMARCA; PROC. JUSTICA DIR. DIFUSOS E COLETIVOS-SEC 6.068,01 364,08 0,00 3.218,91 0,00 0,00 9.651,00 1.701,92 1.442,67 0,00 3.144,59 6.506,41 457,00 3.106,94 31/12/2013
556 154000 CYNTHIA LOPES DOS SANTOS LAGES ASSESSOR ATIVO BELO HORIZONTE - COMARCA; PROCURADOR-GERAL DE JUSTICA- GABINETE 0,00 4.121,13 10.302,83 7.651,51 4.807,99 0,00 26.883,46 3.760,87 6.669,28 0,00 10.430,15 16.453,31 1.336,05 5.372,61 31/12/2013
557 269700 CYNTIA ROCHA CAVALCANTI OFICIAL DO MP ATIVO UBERLÂNDIA - COMARCA; UBERLANDIA-PJ-06PJ 6.578,93 1.315,79 0,00 4.760,71 0,00 0,00 12.655,43 2.193,88 2.578,98 0,00 4.772,86 7.882,57 457,00 4.168,69 31/12/2013
558 278000 DAIRTON LOPES MARTINS FILHO COORDENADOR/ANALISTA ATIVO BELO HORIZONTE - COMARCA; DIRETORIA DE SISTEMAS DE INFORMACAO 0,00 2.060,57 10.302,83 7.042,19 4.121,13 0,00 23.526,72 2.390,01 5.755,84 0,00 8.145,85 15.380,87 457,00 4.369,41 31/12/2013
559 392700 DALIANA CHAVES SILVA OFICIAL DO MP ATIVO ITAÚNA - COMARCA; ITAUNA-PJ-SECRETARIA 4.848,98 484,90 0,00 2.653,86 1.777,96 0,00 9.765,70 1.451,73 1.402,12 0,00 2.853,85 6.911,85 578,96 2.870,66 31/12/2013
560 558100 DALLEY TASSIA SILVA OFICIAL DO MP ATIVO MORADA NOVA DE MINAS - COMARCA; MORADA NOVA DE MINAS-PJ-UNPJ 2.859,08 0,00 0,00 1.429,54 0,00 0,00 4.288,62 549,09 56,76 0,00 605,85 3.682,77 457,00 706,53 31/12/2013
561 476700 DALTON DAUD ANALISTA DO MP ATIVO ARAGUARI - COMARCA; ARAGUARI-PJ-05PJ 6.068,01 0,00 0,00 3.218,91 2.022,67 0,00 11.309,59 1.635,68 1.805,48 0,00 3.441,16 7.868,43 457,00 2.745,52 31/12/2013
562 548700 DALVA DE SOUZA ROCHA ALMEIDA OFICIAL DO MP ATIVO IPATINGA - COMARCA; IPATINGA-PJ-02PJ 3.147,52 0,00 0,00 1.605,73 0,00 0,00 4.753,25 705,54 49,06 0,00 754,60 3.998,65 457,00 1.173,91 31/12/2013
563 121900 DALVA MARIA DE LIMA ANALISTA DO MP ATIVO BELO HORIZONTE - COMARCA; EXTINTA-TUTELA DAS FUNDACOES-21 PJ- GABINETE 17.524,60 15.772,14 0,00 12.661,75 0,00 2.785,59 48.744,08 5.571,18 12.311,19 7.973,24 25.855,61 22.888,47 457,00 2.785,59 31/12/2013
564 426900 DANIEL ALVES DA SILVA OFICIAL DO MP ATIVO BELO HORIZONTE - COMARCA; EXTINTA - PROTOCOLO DA PGJ 3.694,41 221,66 0,00 2.077,36 1.305,36 0,00 7.298,79 818,56 485,30 0,00 1.303,86 5.994,93 732,83 1.455,06 31/12/2013
565 122000 DANIEL ANTONIO VIEIRA OFICIAL DO MP ATIVO ENTRE-RIOS DE MINAS - COMARCA; ENTRE RIOS DE MINAS-PJ-SECRETARIA 7.478,49 3.739,25 0,00 11.217,74 0,00 0,00 22.435,48 2.924,05 3.390,79 0,00 6.314,84 16.120,64 457,00 4.396,70 31/12/2013
566 272401 DANIEL AUGUSTO DOS REIS ANALISTA DO MP ATIVO BELO HORIZONTE - COMARCA; BH-22PJ PES COM DEF E IDOSOS-ASS JURIDICA 7.973,40 797,34 0,00 4.054,28 2.923,58 0,00 15.748,60 2.584,39 3.153,66 0,00 5.738,05 10.010,55 895,84 7.304,36 31/12/2013
567 536300 DANIEL BATISTA MARIANO OFICIAL DO MP ATIVO LAGOA SANTA - COMARCA; LAGOA SANTA-PJ-02PJ 2.859,08 0,00 0,00 1.487,63 0,00 0,00 4.346,71 692,79 87,49 0,00 780,28 3.566,43 494,12 1.061,57 31/12/2013
568 411000 DANIEL FERREIRA DA SILVA ANALISTA DO MP ATIVO GOVERNADOR VALADARES - COMARCA; GOVERNADOR VALADARES-PJ-15PJ 7.014,37 1.402,87 0,00 4.324,29 0,00 0,00 12.741,53 2.229,02 2.245,11 0,00 4.474,13 8.267,40 4.068,47 4.185,69 31/12/2013
569 540300 DANIEL FRANCO RIBEIRO OFICIAL DO MP ATIVO SÃO JOÃO DEL REI - COMARCA; SAO JOAO DEL REI-PJ-SECRETARIA 2.859,08 0,00 0,00 1.487,63 0,00 0,00 4.346,71 692,79 87,49 0,00 780,28 3.566,43 457,00 1.061,57 31/12/2013
570 309000 DANIEL GOMES DOS SANTOS ANALISTA DO MP ATIVO POÇOS DE CALDAS - COMARCA; POCOS DE CALDAS-PJ-03PJ 7.973,40 797,34 0,00 4.485,61 0,00 0,00 13.256,35 2.409,89 2.543,31 0,00 4.953,20 8.303,15 1.237,77 4.928,51 31/12/2013
571 554500 DANIEL GOMES PEREIRA OFICIAL DO MP ATIVO NANUQUE - COMARCA; NANUQUE-PJ-02PJ 2.859,08 0,00 0,00 1.458,58 0,00 0,00 4.317,66 645,10 56,76 0,00 701,86 3.615,80 457,00 1.104,65 31/12/2013
572 453000 DANIEL GONCALVES PEREIRA ANALISTA DO MP ATIVO UNAÍ - COMARCA; UNAI-PJ-SECRETARIA 6.265,58 375,93 0,00 3.621,46 2.213,84 0,00 12.476,81 1.730,39 2.243,09 0,00 3.973,48 8.503,33 457,00 2.460,09 31/12/2013
573 495500 DANIEL GUIMARAES CABRAL OFICIAL DO MP ATIVO LAGOA DA PRATA - COMARCA; LAGOA DA PRATA-PJ-02PJ 3.250,03 0,00 0,00 1.863,91 0,00 0,00 5.113,94 843,30 212,13 0,00 1.055,43 4.058,51 496,61 1.238,70 31/12/2013
574 442900 DANIEL GUIMARAES GONCALVES ANALISTA DO MP ATIVO UBERLÂNDIA - COMARCA; UBERLANDIA-PJ-03PJ 6.793,15 407,59 0,00 3.523,13 2.400,25 0,00 13.124,12 1.946,31 2.431,23 0,00 4.377,54 8.746,58 457,00 3.863,94 31/12/2013
575 491200 DANIEL HENRIQUE SOUTO COSTA ANALISTA DO MP ATIVO CORAÇÃO DE JESUS - COMARCA; CORACAO DE JESUS-PJ-UNPJ 6.068,01 0,00 0,00 3.480,00 0,00 0,00 9.548,01 1.577,64 1.353,57 0,00 2.931,21 6.616,80 457,00 2.217,22 31/12/2013
576 464600 DANIEL PIACENTINI STIVANIN ANALISTA DO MP ATIVO ANDRADAS - COMARCA; ANDRADAS-PJ-02PJ 5.691,44 341,49 0,00 3.254,65 0,00 0,00 9.287,58 1.583,46 1.289,82 0,00 2.873,28 6.414,30 457,00 2.642,37 31/12/2013
577 417000 DANIEL QUEIROZ FERREIRA ANALISTA DO MP ATIVO SÃO SEBASTIÃO DO PARAÍSO - COMARCA; SAO SEBASTIAO DO PARAISO-PJ-05PJ 7.014,37 701,44 0,00 3.819,79 2.571,94 0,00 14.107,54 2.078,50 2.741,38 0,00 4.819,88 9.287,66 457,00 3.992,39 31/12/2013
578 396700 DANIEL SILVA CARNEVALLI DIRETOR/ANALISTA ATIVO BELO HORIZONTE - COMARCA; SUPERINTENDENCIA DE TECNOLOGIA DA INFORMACAO 0,00 1.335,40 13.353,95 7.792,29 4.896,45 0,00 27.378,09 2.363,44 7.245,82 0,00 9.609,26 17.768,83 926,96 5.464,90 31/12/2013
579 489300 DANIEL TABOZA ROCHA ANALISTA DO MP ATIVO IPATINGA - COMARCA; IPATINGA-PJ-08PJ 6.068,01 0,00 0,00 3.480,00 0,00 0,00 9.548,01 1.575,51 1.353,57 0,00 2.929,08 6.618,93 457,00 2.321,61 31/12/2013
580 414100 DANIEL TARDELI VALADAO ANALISTA DO MP ATIVO TRÊS CORACOES - COMARCA; TRES CORACOES-PJ-02PJ 7.014,37 701,44 0,00 3.819,79 0,00 0,00 11.535,60 2.089,61 2.034,09 0,00 4.123,70 7.411,90 895,84 4.095,94 31/12/2013
581 446600 DANIEL VIEIRA BUENO OFICIAL DO MP ATIVO RIO PIRACICABA - COMARCA; RIO PIRACICABA-PJ-UNPJ 3.694,41 221,66 0,00 3.916,07 1.305,36 0,00 9.137,50 1.021,28 698,47 0,00 1.719,75 7.417,75 695,66 1.460,20 31/12/2013
582 253200 DANIELA BATISTA LIMA BARBOSA ASSESSOR ATIVO BELO HORIZONTE - COMARCA; CENTRAL DE APOIO TECN-SETOR DE MEIO AMBIENTE 0,00 393,88 3.938,84 2.298,38 1.532,26 0,00 8.163,36 914,98 1.081,51 0,00 1.996,49 6.166,87 457,00 1.610,51 31/12/2013
583 505800 DANIELA BORGES DE MATTOS RESENDE ANALISTA DO MP ATIVO JUIZ DE FORA - COMARCA; JUIZ DE FORA-PJ-20PJ 6.068,01 0,00 0,00 3.717,14 0,00 0,00 9.785,15 1.557,92 1.353,57 0,00 2.911,49 6.873,66 457,00 2.036,84 31/12/2013
584 478000 DANIELA CARVALHO SOARES ANALISTA DO MP ATIVO SÃO JOÃO DEL REI - COMARCA; SAO JOAO DEL REI-PJ-06PJ 6.068,01 364,08 0,00 3.218,91 0,00 0,00 9.651,00 1.701,71 1.442,67 0,00 3.144,38 6.506,62 457,00 2.981,14 31/12/2013
585 275900 DANIELA CHAGAS SODRE ANALISTA DO MP ATIVO BELO HORIZONTE - COMARCA; CENTRAL DE APOIO TECNICO-SETOR CONTABIL 9.663,38 1.932,68 0,00 6.762,46 3.865,35 0,00 22.223,87 2.982,35 5.025,80 0,00 8.008,15 14.215,72 942,96 3.941,17 31/12/2013
586 234301 DANIELA CRUZ SOARES ANALISTA DO MP ATIVO BELO HORIZONTE - COMARCA; CAO-ORDEM ECONOMICA E TRIBUTARIA-SECRETARIA 9.977,95 1.995,59 0,00 6.528,87 3.991,18 0,00 22.493,59 3.106,07 5.341,89 0,00 8.447,96 14.045,63 746,32 4.312,75 31/12/2013
587 301000 DANIELA DE ALMEIDA E OLIVEIRA ANALISTA DO MP ATIVO BELO HORIZONTE - COMARCA; DIRETORIA DE REDES E BANCOS DE DADOS 9.663,38 966,34 0,00 5.796,12 0,00 0,00 16.425,84 2.758,01 3.586,51 0,00 6.344,52 10.081,32 1.084,40 3.835,80 31/12/2013
588 296000 DANIELA DE AZEVEDO SILVA ANALISTA DO MP ATIVO ITAJUBA - COMARCA; ITAJUBA-PJ-03PJ 8.501,02 1.700,20 0,00 5.240,86 3.400,41 0,00 18.842,49 2.716,73 4.233,17 0,00 6.949,90 11.892,59 697,84 4.636,26 31/12/2013
589 453500 DANIELA DE CASTRO SOUSA BARBOSA ANALISTA DO MP ATIVO BELO HORIZONTE - COMARCA; BH-08PJ JUIZADO ESPECIAL-SECRETARIA 6.265,58 375,93 0,00 3.621,46 2.213,84 0,00 12.476,81 1.905,25 2.521,77 0,00 4.427,02 8.049,79 861,76 4.189,70 31/12/2013
590 506000 DANIELA DE OLIVEIRA CAVALIERI ANALISTA DO MP ATIVO BELO HORIZONTE - COMARCA; BH-14PJ DEFESA CONSUMIDOR-GAB 005PJ 5.006,87 0,00 0,00 2.871,44 0,00 0,00 7.878,31 1.293,99 834,51 0,00 2.128,50 5.749,81 457,00 1.860,67 31/12/2013
591 546200 DANIELA DE VILHENA LEMES GONCALVES OFICIAL DO MP ATIVO TRÊS CORACOES - COMARCA; TRES CORACOES-PJ-05PJ 2.859,08 0,00 0,00 1.473,10 0,00 0,00 4.332,18 592,76 23,53 0,00 616,29 3.715,89 457,00 1.061,57 31/12/2013
592 393700 DANIELA GOMES CARDOSO OFICIAL DO MP ATIVO SABARÁ - COMARCA; SABARA-PJ-02PJ 3.147,52 314,75 0,00 1.836,63 0,00 0,00 5.298,90 903,82 163,29 0,00 1.067,11 4.231,79 692,00 1.369,19 31/12/2013
593 356400 DANIELA LEAL FERRAZ ANALISTA DO MP ATIVO MONTES CLAROS - COMARCA; COORD REG PJ DEF EDUC DIR CRIANCA ADOL NORTE 8.233,02 823,30 0,00 4.652,63 3.018,77 0,00 16.727,72 2.431,74 3.576,60 0,00 6.008,34 10.719,38 574,13 4.297,76 31/12/2013
594 501000 DANIELA LOURENCO SANTOS DA SILVA GUIMARAES ANALISTA DO MP ATIVO BELO HORIZONTE - COMARCA; BH-12PJ JUIZO CRIMINAL 6.068,01 0,00 0,00 3.480,00 0,00 0,00 9.548,01 1.570,47 1.353,57 0,00 2.924,04 6.623,97 457,00 2.264,22 31/12/2013
595 195801 DANIELA MARIA DE OLIVEIRA QUEIROZ ANALISTA DO MP ATIVO ARAGUARI - COMARCA; ARAGUARI-PJ-06PJ 7.014,37 1.402,87 0,00 4.324,29 0,00 0,00 12.741,53 2.219,31 2.438,54 0,00 4.657,85 8.083,68 457,00 3.787,94 31/12/2013
596 511400 DANIELA MARIA LARA DE OLIVEIRA ANALISTA DO MP ATIVO BOA ESPERANÇA - COMARCA; BOA ESPERANCA-PJ-02PJ 5.511,94 0,00 0,00 5.006,87 0,00 0,00 10.518,81 1.510,64 861,04 0,00 2.371,68 8.147,13 457,00 3.493,85 31/12/2013
597 252101 DANIELA PAULA ALVES PENA ANALISTA DO MP ATIVO CONTAGEM - COMARCA; CONTAGEM-PJ-APO TECNICO 7.973,40 1.594,68 0,00 5.615,95 0,00 0,00 15.184,03 2.012,54 2.494,85 0,00 4.507,39 10.676,64 552,59 3.127,78 31/12/2013
598 604700 DANIELA PEIXOTO NOGUEIRA OFICIAL DO MP ATIVO BELO HORIZONTE - COMARCA; DIRET DE FORMACAO, APERFEIC. E POS-GRADUACAO 3.147,52 0,00 0,00 476,51 0,00 0,00 3.624,03 443,07 85,16 0,00 528,23 3.095,80 457,00 403,81 31/12/2013
599 429600 DANIELA PIMENTA NUNES MACHADO ANALISTA DO MP ATIVO BELO HORIZONTE - COMARCA; BH-05PJ JUÍZO DE SUCESSÕES 6.793,15 407,59 0,00 7.200,74 0,00 0,00 14.401,48 1.880,75 1.908,03 0,00 3.788,78 10.612,70 457,00 2.857,02 31/12/2013
600 424300 DANIELA PORTO PINTO OFICIAL DO MP ATIVO BELO HORIZONTE - COMARCA; EXTINTA-DEFESA DA SAUDE-19 PJ-GABINETE 3.465,07 346,51 0,00 1.948,41 0,00 0,00 5.759,99 813,47 273,63 0,00 1.087,10 4.672,89 457,00 1.717,09 31/12/2013
601 462000 DANIELA SOUSA GOMES DO AMARAL ANALISTA DO MP ATIVO BETIM - COMARCA; BETIM-PJ-08PJ 6.265,58 375,93 0,00 6.432,09 0,00 0,00 13.073,60 1.743,22 1.583,03 0,00 3.326,25 9.747,35 692,00 2.908,87 31/12/2013
602 427000 DANIELA TEIXEIRA DINIZ ANDRADE ANALISTA DO MP ATIVO BELO HORIZONTE - COMARCA; DIRETORIA DE PROJETOS DE EDIFICACOES 6.265,58 375,93 0,00 6.641,51 0,00 0,00 13.283,02 1.731,33 1.537,58 0,00 3.268,91 10.014,11 692,00 2.604,39 31/12/2013
603 337200 DANIELA TOLEDO SENIUK ANALISTA DO MP ATIVO BELO HORIZONTE - COMARCA; CGMP-SECRETARIA DA CORREGEDORIA-GERAL DO MP 7.478,49 747,85 0,00 4.363,84 2.742,11 0,00 15.332,29 1.720,95 2.541,02 0,00 4.261,97 11.070,32 692,00 3.070,35 31/12/2013
604 605600 DANIELE ALZIRA SILVA CABRAL MOREIRA OFICIAL DO MP ATIVO BELO HORIZONTE - COMARCA; BH-10PJ EXECUÇÃO PENAL 2.859,08 0,00 0,00 0,00 0,00 0,00 2.859,08 545,14 56,76 0,00 601,90 2.257,18 727,04 2.096,66 31/12/2013
605 195500 DANIELE CHAVES FONSECA OFICIAL DO MP ATIVO BELO HORIZONTE - COMARCA; ASSESSORIA ESPECIAL DO PGJ 8.777,78 1.755,56 0,00 5.075,60 3.511,11 0,00 19.120,05 3.930,86 4.110,00 0,00 8.040,86 11.079,19 457,00 10.431,61 31/12/2013
606 323400 DANIELE MEGALE SANTINI OFICIAL DO MP ATIVO BELO HORIZONTE - COMARCA; ASSESS TECNICO-JUR JUNTO AS PROC. DE JUST 5.691,44 569,14 0,00 3.216,32 0,00 0,00 9.476,90 1.667,11 1.302,79 0,00 2.969,90 6.507,00 692,00 2.843,47 31/12/2013
607 357900 DANIELE REJANE PINTO VERSIEUX OFICIAL DO MP ATIVO PEDRO LEOPOLDO - COMARCA; PEDRO LEOPOLDO-PJ-03PJ 5.169,86 516,99 0,00 2.921,61 1.895,62 0,00 10.504,08 1.514,41 1.644,40 0,00 3.158,81 7.345,27 457,00 2.582,72 31/12/2013
608 389500 DANIELE VASCONCELOS AMORIM OFICIAL DO MP ATIVO SÃO SEBASTIÃO DO PARAÍSO - COMARCA; SAO SEBASTIAO DO PARAISO-PJ-04PJ 5.006,87 500,69 0,00 2.829,47 0,00 0,00 8.337,03 1.466,64 1.036,72 0,00 2.503,36 5.833,67 457,00 2.501,42 31/12/2013
609 265000 DANIELLE CASTANHEIRA SCALABRINI OFICIAL DO MP ATIVO BELO HORIZONTE - COMARCA; JUNTA RECURSAL DO PROCON ESTADUAL 5.691,44 1.138,29 0,00 3.890,21 0,00 0,00 10.719,94 1.884,59 1.579,59 0,00 3.464,18 7.255,76 629,86 3.488,60 31/12/2013
610 490100 DANIELLE DE AVILA SILVA LOPES ANALISTA DO MP ATIVO BELO HORIZONTE - COMARCA; PROC. JUSTICA DIR. DIFUSOS E COLETIVOS-SEC 6.068,01 1.213,60 0,00 4.434,80 0,00 0,00 11.716,41 1.882,05 1.947,61 0,00 3.829,66 7.886,75 863,79 2.697,32 31/12/2013
611 549600 DANIELLE GOMES LOPES RODRIGUES OFICIAL DO MP ATIVO ITABIRA - COMARCA; ITABIRA-PJ-03PJ 3.147,52 0,00 0,00 2.360,64 0,00 0,00 5.508,16 734,85 114,42 0,00 849,27 4.658,89 692,00 1.178,18 31/12/2013
612 379900 DANIELLE GUIMARAES CARNEIRO PERES ANALISTA DO MP ATIVO BELO HORIZONTE - COMARCA; DIRETORIA DE ORCAMENTO-DIOR/SPC 7.973,40 797,34 0,00 4.093,02 0,00 0,00 12.863,76 2.475,31 2.224,93 0,00 4.700,24 8.163,52 927,00 6.540,16 31/12/2013
613 380800 DANILLO RIBEIRO ANTUNES ANALISTA DO MP ATIVO MONTES CLAROS - COMARCA; MONTES CLAROS-PJ-SECRETARIA 7.973,40 797,34 0,00 4.093,02 2.923,58 0,00 15.787,34 2.475,76 3.028,91 0,00 5.504,67 10.282,67 718,54 6.036,38 31/12/2013
614 453700 DANILO BOTELHO DE CARVALHO ASSESSOR/ANALISTA ATIVO BELO HORIZONTE - COMARCA; DIRETORIA DE ADMINISTRACAO FINANCEIRA 0,00 478,40 7.973,40 4.483,44 0,00 0,00 12.935,24 1.746,95 2.629,55 0,00 4.376,50 8.558,74 457,00 3.165,30 31/12/2013
615 391200 DANILO D'AVILA MENDES ANALISTA DO MP ATIVO SÃO ROMÃO - COMARCA; SAO ROMAO-PJ-UNPJ 7.973,40 797,34 0,00 4.093,02 2.923,58 0,00 15.787,34 2.112,91 2.730,94 0,00 4.843,85 10.943,49 465,90 6.360,50 31/12/2013
616 494900 DANILO GAVIAO AVELINO DE MELLO ANALISTA DO MP ATIVO POUSO ALEGRE - COMARCA; POUSO ALEGRE-PJ-08PJ 6.068,01 0,00 0,00 3.480,00 2.022,67 0,00 11.570,68 1.290,50 1.671,67 0,00 2.962,17 8.608,51 475,47 2.194,77 31/12/2013
617 604300 DANILO NASCIMENTO SALGADO ANALISTA DO MP ATIVO JANAÚBA - COMARCA; JANAUBA-PJ-01PJ 4.404,59 0,00 0,00 1.101,15 0,00 0,00 5.505,74 605,63 279,06 0,00 884,69 4.621,05 457,00 0,00 31/12/2013
618 600700 DANILO OLIVEIRA CARILLI OFICIAL DO MP ATIVO ARAGUARI - COMARCA; ARAGUARI-PJ-SECRETARIA 2.859,08 0,00 0,00 953,03 0,00 0,00 3.812,11 465,69 56,76 0,00 522,45 3.289,66 457,00 423,52 31/12/2013
619 550800 DANTE MENDES BIANCHETTI FILHO ANALISTA DO MP ATIVO BARBACENA - COMARCA; BARBACENA-PJ-09PJ 4.404,59 0,00 0,00 2.247,03 0,00 0,00 6.651,62 986,51 350,47 0,00 1.336,98 5.314,64 457,00 1.635,40 31/12/2013
620 298300 DANUZA MONICA DE SOUZA DINIZ ANALISTA DO MP ATIVO DIVINÓPOLIS - COMARCA; DIVINOPOLIS-PJ-02PJ 7.721,95 772,20 0,00 4.505,91 2.831,38 0,00 15.831,44 2.219,21 3.223,07 0,00 5.442,28 10.389,16 462,34 3.201,92 31/12/2013
621 398700 DARCY LUIZ MILEO GREGATTI OFICIAL DO MP ATIVO LAMBARI - COMARCA; LAMBARI-PJ-SECRETARIA 4.131,19 413,12 0,00 2.410,63 0,00 0,00 6.954,94 949,83 501,27 0,00 1.451,10 5.503,84 457,00 1.781,43 31/12/2013
622 406200 DARIANA AUGUSTA DE TOLEDO PATROCINIO ASSESSOR/OFICIAL ATIVO BELO HORIZONTE - COMARCA; EXTINTA - DIRETORIA DE CONTRATOS E CONVÊNIOS 0,00 797,34 7.973,40 4.483,44 2.923,58 0,00 16.177,76 1.530,60 3.590,86 0,00 5.121,46 11.056,30 1.214,20 4.914,54 31/12/2013
623 305000 DARLI LEITE DE OLIVEIRA OFICIAL DO MP ATIVO ARAÇUAÍ - COMARCA; ARACUAI-PJ-01PJ 4.696,06 469,61 0,00 2.740,24 1.721,89 0,00 9.627,80 1.379,34 1.104,76 0,00 2.484,10 7.143,70 692,00 2.219,25 31/12/2013
624 122200 DAVID RIBEIRO DOS SANTOS ANALISTA DO MP ATIVO BORDA DA MATA - COMARCA; BORDA DA MATA-PJ-UNPJ 13.882,65 9.717,87 0,00 12.519,43 7.866,84 0,00 43.986,79 6.379,51 12.445,68 0,00 18.825,19 25.161,60 1.269,22 10.845,13 31/12/2013
625 389400 DAWSON CANEDO MARQUES OFICIAL DO MP ATIVO GOVERNADOR VALADARES - COMARCA; GOVERNADOR VALADARES-PJ-03PJ 5.006,87 500,69 0,00 5.507,56 0,00 0,00 11.015,12 1.444,39 982,51 0,00 2.426,90 8.588,22 792,65 2.127,59 31/12/2013
626 537200 DAYANE TEIXEIRA DE OLIVEIRA ANALISTA DO MP ATIVO BONFINÓPOLIS DE MINAS - COMARCA; BONFINOPOLIS DE MINAS-PJ-UNPJ 4.404,59 0,00 0,00 2.291,77 0,00 0,00 6.696,36 1.067,26 448,47 0,00 1.515,73 5.180,63 457,00 1.635,40 31/12/2013
627 256100 DAYSE ROSALY PEREIRA BATISTA OFICIAL DO MP ATIVO BELO HORIZONTE - COMARCA; PROCON-MG-SECRETARIA DE FISCALIZACOES 5.006,87 2.109,69 0,00 3.674,63 2.372,19 0,00 13.163,38 1.600,43 2.249,73 0,00 3.850,16 9.313,22 457,00 3.140,35 31/12/2013
628 311901 DEBORA APARECIDA DA SILVA ASSESSOR ATIVO BELO HORIZONTE - COMARCA; BH-23PJ CIVEL-SETOR ATEND PUB 0,00 0,00 2.359,08 1.251,42 47,92 0,00 3.658,42 665,20 53,07 0,00 718,27 2.940,15 457,00 876,71 31/12/2013
629 194301 DEBORA APARECIDA DOS SANTOS ANALISTA DO MP ATIVO UBERLÂNDIA - COMARCA; UBERLANDIA-PJ-SEC FAMILIA 10.302,83 2.060,57 0,00 5.957,44 4.121,13 0,00 22.441,97 3.443,31 5.194,46 0,00 8.637,77 13.804,20 867,66 7.739,76 31/12/2013
630 518800 DEBORA CARVALHO FIORATTO OFICIAL DO MP ATIVO BELO HORIZONTE - COMARCA; BH-12PJ JUIZO CRIMINAL 3.577,90 0,00 0,00 3.577,90 1.192,63 0,00 8.348,43 933,90 538,91 0,00 1.472,81 6.875,62 457,00 1.413,65 31/12/2013
631 444900 DEBORA CLAUDIA PEREIRA ALVES ANALISTA DO MP ATIVO BELO HORIZONTE - COMARCA; BH-08PJ JUIZADO ESPECIAL-SECRETARIA 6.793,15 407,59 0,00 3.523,13 0,00 0,00 10.723,87 1.932,09 1.674,45 0,00 3.606,54 7.117,33 692,00 3.870,28 31/12/2013
632 555700 DEBORA CRISTINA BUITRAGO PEREIRA ANALISTA DO MP ATIVO BELO HORIZONTE - COMARCA; EXTINTA - DIRETORIA DE CONTRATOS E CONVÊNIOS 4.404,59 0,00 0,00 2.224,66 0,00 0,00 6.629,25 920,14 322,25 0,00 1.242,39 5.386,86 457,00 1.397,83 31/12/2013
633 513100 DEBORA CRISTINA PEREIRA DE OLIVEIRA ANALISTA DO MP ATIVO BELO HORIZONTE - COMARCA; BH-23PJ CIVEL-SETOR JURIDICO 5.511,94 0,00 0,00 2.656,00 1.837,31 0,00 10.005,25 1.484,71 1.463,01 0,00 2.947,72 7.057,53 692,00 3.258,15 31/12/2013
634 600600 DEBORA PEREIRA GONCALVES ANALISTA DO MP ATIVO BELO HORIZONTE - COMARCA; BH-18PJ VIOLENCIA DOMESTICA-SECRETARIA 4.848,98 0,00 0,00 2.020,41 0,00 0,00 6.869,39 854,98 374,60 0,00 1.229,58 5.639,81 457,00 907,56 31/12/2013
635 539700 DEBORA SALES CARVALHO ANALISTA DO MP ATIVO PATOS DE MINAS - COMARCA; COORD REG PJ DEF EDU DIR CRI ADO AL PAR NOROE 4.404,59 0,00 0,00 3.670,49 0,00 0,00 8.075,08 1.067,26 448,47 0,00 1.515,73 6.559,35 457,00 1.635,40 31/12/2013
636 424100 DEBORA SANTOS E ALVES ANALISTA DO MP ATIVO JANUÁRIA - COMARCA; JANUARIA-PJ-01PJ 6.793,15 407,59 0,00 3.819,79 2.400,25 0,00 13.420,78 1.902,46 2.568,10 0,00 4.470,56 8.950,22 720,30 2.909,50 31/12/2013
637 426301 DEBORA SCUCATO MACHADO SOARES OFICIAL DO MP ATIVO NOVA LIMA - COMARCA; NOVA LIMA-PJ-01PJ 3.147,52 0,00 0,00 1.637,70 1.049,17 0,00 5.834,39 762,67 310,16 0,00 1.072,83 4.761,56 457,00 1.168,60 31/12/2013
638 550200 DEBORA TRINDADE LEITE ANALISTA DO MP ATIVO MANHUAÇU - COMARCA; MANHUACU-PJ-05PJ 4.404,59 0,00 0,00 2.936,39 0,00 0,00 7.340,98 986,51 240,97 0,00 1.227,48 6.113,50 457,00 1.635,40 31/12/2013
639 438000 DEBORAH COSTA LAGE ANALISTA DO MP ATIVO BELO HORIZONTE - COMARCA; ASSESS TECNICO-JUR JUNTO AS PROC. DE JUST 6.793,15 407,59 0,00 4.082,36 2.400,25 0,00 13.683,35 1.868,02 2.568,10 0,00 4.436,12 9.247,23 618,91 2.667,13 31/12/2013
640 475700 DEBORAH LOBAO LACERDA OFICIAL DO MP ATIVO BELO HORIZONTE - COMARCA; BH-23PJ INFRACIONAL 3.577,90 214,67 0,00 1.897,97 1.264,19 0,00 6.954,73 1.003,39 606,78 0,00 1.610,17 5.344,56 457,00 1.750,39 31/12/2013
641 551900 DEISY ROCHA DA SILVA ANALISTA DO MP ATIVO AREADO - COMARCA; AREADO-PJ-UNPJ 4.404,59 0,00 0,00 2.936,39 0,00 0,00 7.340,98 985,51 350,47 0,00 1.335,98 6.005,00 457,00 1.626,27 31/12/2013
642 501900 DELI RAQUEL RODRIGUES ANALISTA DO MP ATIVO ITUIUTABA - COMARCA; ITUIUTABA-PJ-04PJ 6.068,01 0,00 0,00 3.717,14 0,00 0,00 9.785,15 1.559,31 1.353,57 0,00 2.912,88 6.872,27 457,00 2.151,72 31/12/2013
643 378600 DELIANE LOPES VIEIRA BREIJAO NEVES ANALISTA DO MP ATIVO JUIZ DE FORA - COMARCA; JUIZ DE FORA-PJ-12PJ 7.973,40 797,34 0,00 7.715,81 0,00 0,00 16.486,55 2.475,37 2.418,35 0,00 4.893,72 11.592,83 457,00 6.189,01 31/12/2013
644 522500 DELMINDA MARIA LEAO E SILVA OFICIAL DO MP ATIVO ITAGUARA - COMARCA; ITAGUARA-PJ-UNPJ 2.952,15 2.066,52 0,00 2.662,27 1.672,89 0,00 9.353,83 1.317,01 1.113,97 0,00 2.430,98 6.922,85 676,13 2.048,56 31/12/2013
645 393000 DENER LOPES MACHADO ANALISTA DO MP ATIVO PATOS DE MINAS - COMARCA; COORD REG BACIAS PARACATU,URUCUIA E ABAETE 5.876,69 587,67 0,00 3.429,16 2.154,79 0,00 12.048,31 1.686,77 2.140,14 0,00 3.826,91 8.221,40 457,00 2.549,35 31/12/2013
646 487700 DENIA FERREIRA MAIA SILVA OFICIAL DO MP ATIVO TRÊS CORACOES - COMARCA; TRES CORACOES-PJ-01PJ 3.577,90 0,00 0,00 2.051,92 1.192,63 0,00 6.822,45 931,53 472,67 0,00 1.404,20 5.418,25 692,00 1.391,99 31/12/2013
647 424800 DENIS APARECIDO CAMPOS DELFINO ANALISTA DO MP ATIVO LUZ - COMARCA; LUZ-PJ-UNPJ 6.793,15 407,59 0,00 3.819,79 2.400,25 0,00 13.420,78 1.876,77 2.181,25 0,00 4.058,02 9.362,76 692,00 2.673,57 31/12/2013
648 381400 DENISE ANGELICA MELLO DE PAULA OFICIAL DO MP ATIVO BELO HORIZONTE - COMARCA; BH-18PJ DIREITOS HUMANOS-SECRETARIA 5.006,87 500,69 0,00 2.921,61 0,00 0,00 8.429,17 1.436,82 1.079,23 0,00 2.516,05 5.913,12 457,00 2.169,20 31/12/2013
649 196300 DENISE DE ALMEIDA VILELA FURTADO OFICIAL DO MP ATIVO BELO HORIZONTE - COMARCA; CENTRAL DE APOIO TECNICO-SECRETARIA 6.793,15 1.358,63 0,00 4.187,93 0,00 0,00 12.339,71 2.171,36 2.213,94 0,00 4.385,30 7.954,41 729,44 3.795,00 31/12/2013
650 336900 DENISE DE SOUSA MORAES SILVA OFICIAL DO MP ATIVO MATEUS LEME - COMARCA; MATEUS LEME-PJ-02PJ 4.696,06 469,61 0,00 2.962,49 0,00 0,00 8.128,16 1.343,16 911,87 0,00 2.255,03 5.873,13 457,00 1.888,51 31/12/2013
651 271100 DENISE ELOY PEIXOTO OFICIAL DO MP ATIVO BELO HORIZONTE - COMARCA; DIRET DE DESENV DE RECURSOS HUMANOS-DDRH 6.578,93 1.315,79 0,00 4.760,71 2.631,57 0,00 15.287,00 2.020,42 2.971,41 0,00 4.991,83 10.295,17 457,00 2.590,63 31/12/2013
652 385400 DENISE FREITAS DE ASSIS OFICIAL DO MP ATIVO CARATINGA - COMARCA; CARATINGA-PJ-01PJ 4.848,98 1.593,22 0,00 3.762,18 0,00 0,00 10.204,38 1.451,84 1.329,33 0,00 2.781,17 7.423,21 457,00 2.973,30 31/12/2013
653 437100 DENISE NOGUEIRA MAGRI MENDES ANALISTA DO MP ATIVO BELO HORIZONTE - COMARCA; CAO-ORDEM ECONOMICA E TRIBUTARIA-SECRETARIA 6.793,15 1.358,63 0,00 8.151,78 0,00 0,00 16.303,56 2.115,91 2.083,43 0,00 4.199,34 12.104,22 457,00 2.946,66 31/12/2013
654 524700 DENISE RAMOS GUIMARAES OFICIAL DO MP ATIVO SANTA LUZIA - COMARCA; SANTA LUZIA-PJ-SECRETARIA 3.250,03 0,00 0,00 1.724,05 1.083,34 0,00 6.057,42 847,09 404,89 0,00 1.251,98 4.805,44 457,00 1.206,71 31/12/2013
655 239100 DENISE RIBEIRO DOS SANTOS CAETANO OFICIAL DO MP ATIVO ITANHANDU - COMARCA; ITANHANDU-PJ-SECRETARIA 6.793,15 1.358,63 0,00 3.988,46 2.717,26 0,00 14.857,50 2.351,64 2.943,45 0,00 5.295,09 9.562,41 497,83 5.723,86 31/12/2013
656 325500 DENISE ROSA TORRES ASSESSOR/OFICIAL ATIVO BELO HORIZONTE - COMARCA; DIRETORIA DE PESSOAL ADMINISTRATIVO - DPAD 0,00 877,78 8.777,78 5.122,01 3.218,52 0,00 17.996,09 1.681,78 4.187,83 0,00 5.869,61 12.126,48 457,00 3.619,67 31/12/2013
657 437200 DENISE VIVIANE DOS SANTOS ANALISTA DO MP ATIVO BELO HORIZONTE - COMARCA; ASSESS TECNICA DA CORREGEDORIA-GERAL DO MP 6.793,15 407,59 0,00 4.082,36 0,00 0,00 11.283,10 1.866,76 1.908,03 0,00 3.774,79 7.508,31 457,00 2.582,14 31/12/2013
658 267900 DENISIA DE ALMEIDA SALES OFICIAL DO MP ATIVO BELO HORIZONTE - COMARCA; CAO-CRIMINAL-SECRETARIA 4.696,06 939,21 0,00 3.209,84 1.878,42 0,00 10.723,53 1.465,57 1.464,88 0,00 2.930,45 7.793,08 457,00 2.063,01 31/12/2013
659 480300 DESIREE ARANTES FERREIRA GOUVEA OFICIAL DO MP ATIVO PRATÁPOLIS - COMARCA; PRATAPOLIS-PJ-UNPJ 3.250,03 0,00 0,00 1.724,05 0,00 0,00 4.974,08 679,34 168,71 0,00 848,05 4.126,03 457,00 1.274,08 31/12/2013
660 355300 DEYSE CRISTINA MORAIS OFICIAL DO MP ATIVO PASSOS - COMARCA; PASSOS-PJ-02PJ 5.338,12 533,81 0,00 2.984,91 1.957,31 0,00 10.814,15 1.968,63 1.664,16 0,00 3.632,79 7.181,36 457,00 6.699,96 31/12/2013
661 523700 DIANA CAMPOS RESENDE OFICIAL DO MP ATIVO SÃO JOÃO DEL REI - COMARCA; SAO JOAO DEL REI-PJ-04PJ 3.577,90 1.431,16 0,00 2.872,69 0,00 0,00 7.881,75 1.300,57 667,91 0,00 1.968,48 5.913,27 457,00 1.814,12 31/12/2013
662 241900 DIANA CARDOSO MARTINS OFICIAL DO MP ATIVO BELO HORIZONTE - COMARCA; CGMP-DIVISAO DE APOIO ADMINISTRATIVO 5.169,86 1.033,97 0,00 3.290,96 0,00 0,00 9.494,79 1.618,74 1.420,05 0,00 3.038,79 6.456,00 683,85 2.447,54 31/12/2013
663 410100 DIANA GORDILHO SILVEIRA SENA ANALISTA DO MP ATIVO BELO HORIZONTE - COMARCA; ASSESS TECNICO-JUR JUNTO AS PROC. DE JUST 7.014,37 701,44 0,00 3.819,79 2.571,94 0,00 14.107,54 2.098,84 2.741,38 0,00 4.840,22 9.267,32 457,00 4.177,51 31/12/2013
664 553000 DIANA MARIA MARQUES ANALISTA DO MP ATIVO BETIM - COMARCA; BETIM-PJ-06PJ 4.404,59 0,00 0,00 2.247,03 0,00 0,00 6.651,62 986,51 293,43 0,00 1.279,94 5.371,68 457,00 1.635,40 31/12/2013
665 520000 DIARLE TOSTE DOS SANTOS ANALISTA DO MP ATIVO RIO POMBA - COMARCA; RIO POMBA-PJ-UNPJ 5.511,94 0,00 0,00 5.511,94 0,00 0,00 11.023,88 1.436,68 796,09 0,00 2.232,77 8.791,11 692,00 2.159,69 31/12/2013
666 539800 DIEGO CAMARGOS RODRIGUES OFICIAL DO MP ATIVO CONTAGEM - COMARCA; CONTAGEM-PJ-09PJ 2.859,08 0,00 0,00 1.487,63 0,00 0,00 4.346,71 694,78 87,49 0,00 782,27 3.564,44 457,00 1.079,71 31/12/2013
667 388100 DIEGO CESAR DO NASCIMENTO PERONI OFICIAL DO MP ATIVO CASSIA - COMARCA; CASSIA-PJ-02PJ 3.814,70 381,47 0,00 2.225,95 0,00 0,00 6.422,12 877,06 394,56 0,00 1.271,62 5.150,50 457,00 1.644,71 31/12/2013
668 446900 DIEGO DE FREITAS OFICIAL DO MP ATIVO UBERABA - COMARCA; UBERABA-PJ-06PJ 3.355,81 201,35 0,00 1.886,97 0,00 0,00 5.444,13 927,21 294,13 0,00 1.221,34 4.222,79 543,72 1.321,70 31/12/2013
669 379801 DIEGO OSORIO DA SILVA CORDEIRO ANALISTA DO MP ATIVO CONSELHEIRO LAFAIETE - COMARCA; CONSELHEIRO LAFAIETE-PJ-08PJ 4.848,98 0,00 0,00 2.498,37 0,00 0,00 7.347,35 1.130,59 532,96 0,00 1.663,55 5.683,80 457,00 1.801,19 31/12/2013
670 288800 DILENE NEPOMUCENO ALVES OFICIAL DO MP ATIVO BELO HORIZONTE - COMARCA; DIRETORIA DE PESSOAL ADMINISTRATIVO - DPAD 6.068,01 1.213,60 0,00 3.639,61 0,00 0,00 10.921,22 1.598,00 1.451,52 0,00 3.049,52 7.871,70 642,27 3.618,66 31/12/2013
671 270101 DILSON DO AMARAL ANALISTA DO MP ATIVO RIO CASCA - COMARCA; RIO CASCA-PJ-UNPJ 4.848,98 0,00 0,00 2.498,37 0,00 0,00 7.347,35 1.141,48 532,96 0,00 1.674,44 5.672,91 457,00 1.900,52 31/12/2013
672 466000 DIMITRI GUDE MARCIAL ANALISTA DO MP ATIVO NANUQUE - COMARCA; NANUQUE-PJ-02PJ 4.696,06 0,00 0,00 2.412,60 0,00 0,00 7.108,66 1.256,83 592,04 0,00 1.848,87 5.259,79 692,00 2.190,81 31/12/2013
673 516300 DINORA APARECIDA MACEDO BRANDAO ANALISTA DO MP ATIVO BELO HORIZONTE - COMARCA; PROC. JUSTICA DIR. DIFUSOS E COLETIVOS-SEC 4.548,03 0,00 0,00 2.412,60 0,00 0,00 6.960,63 1.185,39 641,52 0,00 1.826,91 5.133,72 457,00 1.688,63 31/12/2013
674 511700 DIOGENES HENRIQUES PEREIRA LOURENCO ANALISTA DO MP ATIVO CONTAGEM - COMARCA; CONTAGEM-PJ-22PJ 6.068,01 0,00 0,00 2.923,93 0,00 0,00 8.991,94 1.634,63 1.217,47 0,00 2.852,10 6.139,84 925,01 3.403,80 31/12/2013
675 604100 DIOGO CESAR DE OLIVEIRA HONORIO ASSESSOR ATIVO PIUMHI - COMARCA; PIUMHI-PJ-02PJ 0,00 0,00 2.359,08 589,77 0,00 0,00 2.948,85 356,95 53,89 0,00 410,84 2.538,01 457,00 0,00 31/12/2013
676 387800 DIOGO FELIX DA SILVA OFICIAL DO MP ATIVO MANTENA - COMARCA; MANTENA-PJ-SECRETARIA 3.814,70 381,47 0,00 2.225,95 1.398,72 0,00 7.820,84 879,89 742,75 0,00 1.622,64 6.198,20 465,06 1.584,95 31/12/2013
677 259600 DIOGO MESQUITA MAIA ANALISTA DO MP ATIVO BELO HORIZONTE - COMARCA; DIRET DE APOIO AS PROCURADORIAS DE JUSTICA 9.358,72 6.551,11 0,00 8.439,72 0,00 0,00 24.349,55 4.157,84 5.881,00 0,00 10.038,84 14.310,71 1.452,91 6.012,95 31/12/2013
678 364100 DIOGO OLIVEIRA CANUTO OFICIAL DO MP ATIVO BELO HORIZONTE - COMARCA; EXTINTA-04ª PJ JUÍZO REG PÚBLICOS-SECRETARIA 5.511,94 551,19 0,00 3.114,89 2.021,04 0,00 11.199,06 1.309,71 1.580,67 0,00 2.890,38 8.308,68 457,00 2.739,19 31/12/2013
679 386700 DIRCIMAR FERNANDES CARNEIRO OFICIAL DO MP ATIVO VISCONDE DO RIO BRANCO - COMARCA; VISCONDE DO RIO BRANCO-PJ-03PJ 5.006,87 2.503,44 0,00 4.086,04 0,00 0,00 11.596,35 2.085,31 2.159,17 0,00 4.244,48 7.351,87 510,39 4.187,78 31/12/2013
680 113800 DIRSON APARECIDO GUIMARAES ASSESSOR ATIVO BELO HORIZONTE - COMARCA; DIVISAO DE MANUTENCAO PREDIAL 0,00 3.151,07 3.938,84 2.963,45 0,00 0,00 10.053,36 914,98 405,31 0,00 1.320,29 8.733,07 625,21 1.775,53 31/12/2013
681 216700 DOMICIO VALDETE PEREIRA OFICIAL DO MP ATIVO TEÓFILO OTONI - COMARCA; COORD REG PJ DEF EDU DIR CRIAN ADOL JEQUI MUC 8.233,02 1.646,60 0,00 5.075,60 3.293,21 0,00 18.248,43 2.729,35 3.882,94 0,00 6.612,29 11.636,14 831,42 5.386,00 31/12/2013
682 85700 DONIZETTE PEREIRA DOS SANTOS OFICIAL DO MP ATIVO BELO HORIZONTE - COMARCA; EXTINTA - PROTOCOLO DA PGJ 16.215,23 11.350,66 0,00 12.661,75 0,00 0,00 40.227,64 5.571,18 10.585,69 2.242,39 18.399,26 21.828,38 457,00 0,00 31/12/2013
683 192701 DONIZETTI APARECIDO AMORIM ANALISTA DO MP ATIVO PRATÁPOLIS - COMARCA; PRATAPOLIS-PJ-UNPJ 5.006,87 1.001,37 0,00 3.187,20 2.002,75 0,00 11.198,19 1.566,15 1.778,34 0,00 3.344,49 7.853,70 457,00 2.354,92 31/12/2013
684 276700 DORALICE ROSA DE OLIVEIRA FREITAS OFICIAL DO MP ATIVO CARMO DA MATA - COMARCA; CARMO DA MATA-PJ-SECRETARIA 4.696,06 3.756,85 0,00 4.484,03 0,00 929,82 13.866,76 2.203,11 3.032,37 0,00 5.235,48 8.631,28 457,00 4.411,75 31/12/2013
685 558700 DORCILIA FATIMA DE OLIVEIRA OFICIAL DO MP ATIVO DIVINÓPOLIS - COMARCA; DIVINOPOLIS-PJ-02PJ 3.147,52 0,00 0,00 1.573,76 0,00 0,00 4.721,28 603,58 49,06 0,00 652,64 4.068,64 692,00 769,47 31/12/2013
686 555300 DOUGLAS CUNHA DE SOUZA ANALISTA DO MP ATIVO VARZEA DA PALMA - COMARCA; VARZEA DA PALMA-PJ-01PJ 4.848,98 0,00 0,00 2.828,57 0,00 0,00 7.677,55 995,54 428,55 0,00 1.424,09 6.253,46 457,00 1.379,60 31/12/2013
687 265900 DOUGLAS GOMES MOREIRA ANALISTA DO MP ATIVO BELO HORIZONTE - COMARCA; CENTRAL DE APOIO TECNICO-SETOR DE ENGENHARIA 10.302,83 2.060,57 0,00 7.042,19 0,00 0,00 19.405,59 3.222,86 4.435,15 0,00 7.658,01 11.747,58 457,00 4.826,38 31/12/2013
688 241000 DOUGLAS MEIRELLES DE CASTRO OFICIAL DO MP ATIVO CONCEIÇÃO DO RIO VERDE - COMARCA; CONCEICAO DO RIO VERDE-PJ-UNPJ 6.578,93 1.973,68 0,00 4.907,42 2.850,87 0,00 16.310,90 2.219,53 3.160,34 0,00 5.379,87 10.931,03 960,22 3.089,21 31/12/2013
689 534900 DOUGLAS SILVA E SOUZA ANALISTA DO MP ATIVO CAMPOS GERAIS - COMARCA; CAMPOS GERAIS-PJ-SECRETARIA 4.404,59 0,00 0,00 2.314,14 0,00 0,00 6.718,73 1.156,83 507,06 0,00 1.663,89 5.054,84 457,00 2.082,93 31/12/2013
690 146800 DUCINALVA AMARAL LOPES REIS OFICIAL DO MP ATIVO PARAISÓPOLIS - COMARCA; PARAISOPOLIS-PJ-UNPJ 10.302,83 5.151,42 0,00 7.446,81 5.151,42 0,00 28.052,48 4.282,88 6.631,31 0,00 10.914,19 17.138,29 1.130,15 9.470,94 31/12/2013
691 122500 DUILIO CARLOS FERREIRA UTSCH OFICIAL DO MP ATIVO CONCEIÇÃO DO MATO DENTRO - COMARCA; CONCEICAO DO MATO DENTRO-PJ-UNPJ 8.233,02 5.763,12 0,00 7.190,43 0,00 0,00 21.186,57 3.027,34 3.963,96 0,00 6.991,30 14.195,27 457,00 6.636,41 31/12/2013
692 201800 DULCINEIA ANDRE DE SOUZA OFICIAL DO MP ATIVO JEQUITINHONHA - COMARCA; JEQUITINHONHA-PJ-SECRETARIA 8.233,02 1.646,60 0,00 5.075,60 3.293,21 0,00 18.248,43 2.653,09 3.661,88 0,00 6.314,97 11.933,46 690,25 4.691,25 31/12/2013
693 395800 DUVIDIER MEDIRCIO JUNIOR ANALISTA DO MP ATIVO BELO HORIZONTE - COMARCA; CENTRAL DE APOIO TECNICO-SETOR DE ENGENHARIA 6.469,61 646,96 0,00 3.775,14 2.372,19 0,00 13.263,90 1.856,94 2.519,18 0,00 4.376,12 8.887,78 665,18 2.662,41 31/12/2013
694 604800 ECIA RAMILIS ISSA DE ABREU ANALISTA DO MP ATIVO MONTALVÂNIA - COMARCA; MONTALVANIA-PJ-UNPJ 4.404,59 0,00 0,00 734,10 0,00 0,00 5.138,69 565,25 279,06 0,00 844,31 4.294,38 457,00 0,00 31/12/2013
695 273000 EDELFINA APARECIDA GUIMARAES OFICIAL DO MP ATIVO BELO HORIZONTE - COMARCA; PROMOT ESTADUAL DE DEF PATRI CULT E TUR DE MG 5.691,44 2.276,57 0,00 7.968,01 2.656,00 0,00 18.592,02 2.081,73 2.820,59 0,00 4.902,32 13.689,70 457,00 3.003,54 31/12/2013
696 523300 EDER DOS SANTOS PATRICIO ANALISTA DO MP ATIVO NOVA SERRANA - COMARCA; NOVA SERRANA-PJ-03PJ 5.006,87 0,00 0,00 2.656,00 1.668,96 0,00 9.331,83 1.305,95 1.293,09 0,00 2.599,04 6.732,79 3.644,21 2.103,11 31/12/2013
697 356700 EDER JOSE PACHECO OFICIAL DO MP ATIVO CAMPO BELO - COMARCA; CAMPO BELO-PJ-SECRETARIA 5.169,86 516,99 0,00 3.016,72 1.895,62 0,00 10.599,19 1.188,52 1.356,99 0,00 2.545,51 8.053,68 759,20 2.111,50 31/12/2013
698 507900 EDERSON SILVA LOPES OFICIAL DO MP ATIVO BELO HORIZONTE - COMARCA; SERVICO MEDICO-DEPTO PERIC MEDICA SAUDE OCUP 3.250,03 0,00 0,00 1.863,91 1.083,34 0,00 6.197,28 835,17 273,57 0,00 1.108,74 5.088,54 871,92 1.098,91 31/12/2013
699 296200 EDGARD GOULART MATOSINHO DE LAET JUNIOR ANALISTA DO MP ATIVO GOVERNADOR VALADARES - COMARCA; GOVERNADOR VALADARES-PJ-12PJ 9.358,72 935,87 0,00 5.460,99 3.431,53 0,00 19.187,11 2.689,51 4.076,01 0,00 6.765,52 12.421,59 692,00 3.880,52 31/12/2013
700 295000 EDILA MARIA DA SILVEIRA OFICIAL DO MP ATIVO FORMIGA - COMARCA; FORMIGA-PJ-SECRETARIA 5.006,87 500,69 0,00 2.829,47 1.835,85 0,00 10.172,88 1.212,80 1.323,90 0,00 2.536,70 7.636,18 457,00 2.699,31 31/12/2013
701 332300 EDILA MARILAC MIRANDA PRADO OFICIAL DO MP ATIVO DIAMANTINA - COMARCA; COORD REG BACIAS RIOS JEQUITINHONHA E MUCURI 5.169,86 2.067,94 0,00 3.953,49 2.412,60 0,00 13.603,89 1.907,06 2.340,37 0,00 4.247,43 9.356,46 457,00 3.101,23 31/12/2013
702 376600 EDILANE CONSOLACAO ROSA NAZARETH ANALISTA DO MP ATIVO BETIM - COMARCA; BETIM-PJ-10PJ 7.973,40 797,34 0,00 4.093,02 0,00 0,00 12.863,76 2.076,65 1.926,96 0,00 4.003,61 8.860,15 457,00 6.029,60 31/12/2013
703 301500 EDILENE APARECIDA DE CARVALHO ANALISTA DO MP ATIVO BELO HORIZONTE - COMARCA; DIRETORIA DE ADMINISTRACAO FINANCEIRA 9.358,72 935,87 0,00 5.460,99 3.431,53 0,00 19.187,11 2.689,83 4.269,43 0,00 6.959,26 12.227,85 707,96 3.884,69 31/12/2013
704 309800 EDILZA DOS REIS OFICIAL DO MP ATIVO UBERLÂNDIA - COMARCA; UBERLANDIA-PJ-03PJ 6.265,58 626,56 0,00 3.321,06 2.297,38 0,00 12.510,58 1.909,63 2.137,47 0,00 4.047,10 8.463,48 457,00 4.219,14 31/12/2013
705 200500 EDINEIA MARIA DE OLIVEIRA ANTUNES OFICIAL DO MP ATIVO MONTES CLAROS - COMARCA; MONTES CLAROS-PJ-10PJ 8.233,02 2.469,91 0,00 5.677,61 3.567,64 0,00 19.948,18 2.792,45 4.603,45 0,00 7.395,90 12.552,28 1.130,26 4.220,72 31/12/2013
706 427700 EDISANGELA SOARES LOPES OFICIAL DO MP ATIVO PIRAPORA - COMARCA; PIRAPORA-PJ-03PJ 4.000,95 240,06 0,00 4.241,01 0,00 0,00 8.482,02 1.105,56 518,56 0,00 1.624,12 6.857,90 478,37 1.663,11 31/12/2013
707 555400 EDISON MONTEIRO SAMPAIO NETO ANALISTA DO MP ATIVO BELO HORIZONTE - COMARCA; BH-12PJ JUIZO CRIMINAL 4.404,59 0,00 0,00 2.224,66 0,00 0,00 6.629,25 925,12 322,25 0,00 1.247,37 5.381,88 457,00 1.443,34 31/12/2013
708 517700 EDMILSON TADEU FERNANDES OFICIAL DO MP ATIVO POUSO ALEGRE - COMARCA; POUSO ALEGRE-PJ-04PJ 3.577,90 0,00 0,00 1.897,97 1.192,63 0,00 6.668,50 932,59 538,91 0,00 1.471,50 5.197,00 466,36 1.328,65 31/12/2013
709 358400 EDNA APARECIDA SILVA FERREIRA OFICIAL DO MP ATIVO CORONEL FABRICIANO - COMARCA; CORONEL FABRICIANO-PJ-SECRETARIA 5.006,87 500,69 0,00 2.921,61 1.835,85 0,00 10.265,02 1.435,53 1.584,08 0,00 3.019,61 7.245,41 692,00 2.044,85 31/12/2013
710 331800 EDNA MARCIA CAMILO DA SILVA OFICIAL DO MP ATIVO SETE LAGOAS - COMARCA; SETE LAGOAS-PJ-07PJ 5.876,69 587,67 0,00 3.524,84 2.154,79 0,00 12.143,99 1.680,21 2.140,14 0,00 3.820,35 8.323,64 457,00 2.357,65 31/12/2013
711 87400 EDNA MARIA DE LIMA OFICIAL DO MP ATIVO BELO HORIZONTE - COMARCA; EXTINTA - DIVISÃO DE MATERIAL PERMANENTE 8.233,02 5.763,11 0,00 6.344,50 0,00 1.539,57 21.880,20 4.191,56 4.180,31 0,00 8.371,87 13.508,33 559,81 12.091,62 31/12/2013
712 422800 EDNILSON DE SOUZA FERREIRA ASSESSOR ATIVO BELO HORIZONTE - COMARCA; DIRET DE INFORMACAO E EXPEDICAO DE PROCESSOS 0,00 0,00 2.359,08 1.373,26 0,00 0,00 3.732,34 665,14 23,11 0,00 688,25 3.044,09 457,00 875,90 31/12/2013
713 327900 EDRIEL SANTANA PEREIRA OFICIAL DO MP ATIVO TUPACIGUARA - COMARCA; TUPACIGUARA-PJ-UNPJ 5.876,69 587,67 0,00 3.524,84 0,00 0,00 9.989,20 1.676,79 1.547,57 0,00 3.224,36 6.764,84 3.833,47 2.763,79 31/12/2013
714 482400 EDSON GARCIA OFICIAL DO MP ATIVO MACHADO - COMARCA; MACHADO-PJ-02PJ 3.250,03 0,00 0,00 1.724,05 0,00 0,00 4.974,08 856,05 122,45 0,00 978,50 3.995,58 2.147,02 1.330,55 31/12/2013
715 225601 EDSON LABRE FILHO ANALISTA DO MP ATIVO VARGINHA - COMARCA; VARGINHA-PJ-01PJ 9.358,72 1.871,74 0,00 5.957,44 3.743,49 0,00 20.931,39 2.934,06 4.813,32 0,00 7.747,38 13.184,01 457,00 4.233,26 31/12/2013
716 602700 EDSON NOGUEIRA BUENO OFICIAL DO MP ATIVO PITANGUI - COMARCA; PITANGUI-PJ-01PJ 2.859,08 0,00 0,00 714,77 0,00 0,00 3.573,85 412,42 56,76 0,00 469,18 3.104,67 645,16 176,19 31/12/2013
717 414400 EDUARDO ABRANTES CAMPOS ANALISTA DO MP ATIVO OLIVEIRA - COMARCA; OLIVEIRA-PJ-02PJ 6.793,15 679,32 0,00 3.819,79 2.490,82 0,00 13.783,08 1.966,44 2.659,51 0,00 4.625,95 9.157,13 457,00 3.217,03 31/12/2013
718 476800 EDUARDO ALVES DE MOURA ANALISTA DO MP ATIVO UBERLÂNDIA - COMARCA; UBERLANDIA-PJ-19PJ 6.068,01 0,00 0,00 6.068,01 0,00 0,00 12.136,02 1.638,26 1.353,57 0,00 2.991,83 9.144,19 482,28 2.895,06 31/12/2013
719 390800 EDUARDO AMORIM PETTERSEN OFICIAL DO MP ATIVO CARANGOLA - COMARCA; CARANGOLA-PJ-03PJ 4.848,98 484,90 0,00 2.653,86 0,00 0,00 7.987,74 1.449,85 913,18 0,00 2.363,03 5.624,71 457,00 2.954,99 31/12/2013
720 461600 EDUARDO ANTONIO DE ASSIS FARIA ASSESSOR ATIVO BELO HORIZONTE - COMARCA; ASSESS EXECUTIVA DO CONSELHO SUPERIOR DO MP 0,00 0,00 3.938,84 2.089,44 1.312,95 0,00 7.341,23 890,76 747,98 0,00 1.638,74 5.702,49 457,00 1.462,43 31/12/2013
721 248800 EDUARDO DE CASTRO AMORIM ANALISTA DO MP ATIVO BELO HORIZONTE - COMARCA; BH-01PJ FAZENDA PUBLICA EXEC FISCAIS 10.984,62 2.196,92 0,00 7.559,63 4.393,85 0,00 25.135,02 3.387,10 6.043,94 0,00 9.431,04 15.703,98 457,00 4.695,29 31/12/2013
722 209100 EDUARDO DE SOUZA MAIA ANALISTA DO MP ATIVO BELO HORIZONTE - COMARCA; CAO-TS-TERCEIRO SETOR-ASSESSORIA JURIDICA 11.711,44 2.342,29 0,00 7.455,11 0,00 0,00 21.508,84 3.662,91 4.972,44 0,00 8.635,35 12.873,49 457,00 5.217,96 31/12/2013
723 350500 EDUARDO GONCALVES RIBEIRO OFICIAL DO MP ATIVO VESPASIANO - COMARCA; VESPASIANO-PJ-04PJ 4.265,74 426,57 0,00 4.692,31 1.564,10 0,00 10.948,72 1.238,67 1.115,06 0,00 2.353,73 8.594,99 737,56 1.886,78 31/12/2013
724 115800 EDUARDO HENRIQUE DE CAMPOS MAIA OFICIAL DO MP ATIVO BELO HORIZONTE - COMARCA; EXTINTA - DIVISAO DE SERVICOS GERAIS 9.358,72 3.743,49 0,00 6.313,38 0,00 0,00 19.415,59 3.630,34 4.309,49 0,00 7.939,83 11.475,76 457,00 8.021,18 31/12/2013
725 392600 EDUARDO HENRIQUE DOS SANTOS COSTA ELIAZAR OFICIAL DO MP ATIVO MATOZINHOS - COMARCA; MATOZINHOS-PJ-02PJ 4.131,19 413,12 0,00 2.410,63 1.514,77 0,00 8.469,71 951,69 759,32 0,00 1.711,01 6.758,70 968,95 1.799,80 31/12/2013
726 122900 EDUARDO JOSE COSTA SILVA OFICIAL DO MP ATIVO SETE LAGOAS - COMARCA; SETE LAGOAS-PJ-04PJ 11.885,64 8.319,94 0,00 10.718,50 6.735,19 0,00 37.659,27 5.267,41 10.029,37 0,00 15.296,78 22.362,49 1.062,32 7.515,29 31/12/2013
727 418700 EDUARDO LEMOS SIMOES OFICIAL DO MP ATIVO LAVRAS - COMARCA; COORD REG DO MA DA BACIA DO RIO GRANDE 3.694,41 369,44 0,00 2.077,36 0,00 0,00 6.141,21 1.069,50 418,02 0,00 1.487,52 4.653,69 457,00 1.749,53 31/12/2013
728 407500 EDUARDO MASCARENHAS CURI AZEVEDO ANALISTA DO MP ATIVO BELO HORIZONTE - COMARCA; DIRETORIA DE IMPRENSA 6.469,61 388,18 0,00 3.523,13 0,00 0,00 10.380,92 1.811,11 1.687,22 0,00 3.498,33 6.882,59 457,00 2.977,72 31/12/2013
729 601300 EDUARDO TRAD VIEIRA OFICIAL DO MP ATIVO CAMANDUCAIA - COMARCA; CAMANDUCAIA-PJ-UNPJ 2.859,08 0,00 0,00 1.191,28 0,00 0,00 4.050,36 495,77 56,76 0,00 552,53 3.497,83 457,00 458,86 31/12/2013
730 257600 EDUARDO VALADARES CABRAL ASSESSOR/ANALISTA ATIVO BELO HORIZONTE - COMARCA; EXTINTA - SECRETARIA ADMINISTRATIVA 0,00 1.755,56 8.777,78 10.533,34 0,00 0,00 21.066,68 2.562,73 3.578,89 0,00 6.141,62 14.925,06 457,00 3.910,90 31/12/2013
731 545700 EDVAIR FERREIRA DE CARVALHO OFICIAL DO MP ATIVO ARAGUARI - COMARCA; ARAGUARI-PJ-02PJ 2.859,08 0,00 0,00 1.473,10 0,00 0,00 4.332,18 672,07 16,33 0,00 688,40 3.643,78 457,00 1.111,54 31/12/2013
732 401700 EDWANIA AMORIM DO CARMO OFICIAL DO MP ATIVO RIBEIRÃO DAS NEVES - COMARCA; RIBEIRAO DAS NEVES-PJ-03PJ 5.006,87 500,69 0,00 2.920,54 0,00 0,00 8.428,10 1.464,26 1.036,72 0,00 2.500,98 5.927,12 656,50 2.589,20 31/12/2013
733 303600 EFIGENIO SARAIVA LOPES ANALISTA DO MP ATIVO BELO HORIZONTE - COMARCA; DIRETORIA DE PAGAMENTO DE PESSOAL-DPAG 10.302,83 1.030,28 0,00 6.011,90 0,00 0,00 17.345,01 2.961,69 3.737,41 0,00 6.699,10 10.645,91 1.147,68 4.304,09 31/12/2013
734 312000 ELAINE APARECIDA DE ARAUJO RODRIGUES ASSESSOR/OFICIAL ATIVO DIVINÓPOLIS - COMARCA; DIVINOPOLIS-PJ-02PJ 0,00 4.385,91 6.265,58 6.238,69 3.550,50 0,00 20.440,68 2.542,73 4.509,08 0,00 7.051,81 13.388,87 821,08 3.498,28 31/12/2013
735 286000 ELAINE APARECIDA SILVA BERZOINI OFICIAL DO MP ATIVO JUIZ DE FORA - COMARCA; JUIZ DE FORA-PJ-07PJ 6.068,01 1.213,60 0,00 3.639,61 2.427,20 0,00 13.348,42 1.931,43 2.466,58 0,00 4.398,01 8.950,41 692,00 3.613,73 31/12/2013
736 509000 ELAINE CANDIDA PONTES OFICIAL DO MP ATIVO BELO HORIZONTE - COMARCA; BH-02PJ FAMILIA-SECRETARIA 3.577,90 0,00 0,00 2.191,78 0,00 0,00 5.769,68 907,41 299,67 0,00 1.207,08 4.562,60 457,00 1.560,61 31/12/2013
737 283601 ELAINE CRISTINA MEQUELINO DUARTE ANALISTA DO MP ATIVO ALFENAS - COMARCA; ALFENAS-PJ-04PJ 7.973,40 797,34 0,00 4.093,02 0,00 0,00 12.863,76 2.475,74 2.321,64 0,00 4.797,38 8.066,38 1.180,51 6.036,17 31/12/2013
738 535500 ELAINE DE OLIVEIRA CAMPOS REIS OFICIAL DO MP ATIVO RIBEIRÃO DAS NEVES - COMARCA; RIBEIRAO DAS NEVES-PJ-11PJ 2.859,08 0,00 0,00 2.382,57 0,00 0,00 5.241,65 692,79 87,49 0,00 780,28 4.461,37 457,00 1.061,57 31/12/2013
739 455700 ELAINE DE OLIVEIRA CASTRO ANALISTA DO MP ATIVO POMPÉU - COMARCA; POMPEU-PJ-UNPJ 5.691,44 341,49 0,00 6.032,93 0,00 0,00 12.065,86 1.564,69 1.336,39 0,00 2.901,08 9.164,78 457,00 2.282,05 31/12/2013
740 367200 ELAINE MUNIZ BARBOSA ANALISTA DO MP ATIVO BELO HORIZONTE - COMARCA; DIRETORIA DE REDES E BANCOS DE DADOS 8.233,02 823,30 0,00 4.804,12 0,00 0,00 13.860,44 2.362,35 2.816,33 0,00 5.178,68 8.681,76 457,00 3.380,17 31/12/2013
741 176900 ELAINE RIBEIRO TAVEIRA OFICIAL DO MP ATIVO BELO HORIZONTE - COMARCA; DIRETORIA DE PESSOAL ADMINISTRATIVO - DPAD 7.242,73 1.448,55 0,00 4.475,80 2.897,09 0,00 16.064,17 2.909,66 3.239,39 0,00 6.149,05 9.915,12 1.697,33 9.880,89 31/12/2013
742 496200 ELAINE SABRINA DIAS MOREIRA ANALISTA DO MP ATIVO CORONEL FABRICIANO - COMARCA; CORONEL FABRICIANO-PJ-03PJ 6.068,01 0,00 0,00 3.480,00 0,00 0,00 9.548,01 1.599,62 1.353,57 0,00 2.953,19 6.594,82 457,00 2.541,86 31/12/2013
743 489200 ELAINE VICENTINO GARCIA ANALISTA DO MP ATIVO BELO HORIZONTE - COMARCA; CENTRAL DE APOIO TECNICO-SETOR CONTABIL 6.068,01 1.213,60 0,00 4.176,00 0,00 0,00 11.457,61 1.894,41 1.754,19 0,00 3.648,60 7.809,01 927,00 2.820,38 31/12/2013
744 244500 ELCI ALVES DE SOUZA ASSESSOR ATIVO BELO HORIZONTE - COMARCA; CAO-CONFLITOS AGRARIOS-SECRETARIA 0,00 787,77 3.938,84 2.507,33 0,00 0,00 7.233,94 914,98 768,97 0,00 1.683,95 5.549,99 457,00 1.754,92 31/12/2013
745 472500 ELCI VAZ DE OLIVEIRA FILHO ANALISTA DO MP ATIVO PIUMHI - COMARCA; PIUMHI-PJ-02PJ 6.068,01 2.427,20 0,00 4.791,38 0,00 0,00 13.286,59 2.197,89 2.541,67 0,00 4.739,56 8.547,03 457,00 3.166,58 31/12/2013
746 385200 ELCI VIANA REIS OFICIAL DO MP ATIVO RIO PARDO DE MINAS - COMARCA; RIO PARDO DE MINAS-PJ-SECRETARIA 5.006,87 1.502,06 0,00 3.452,80 2.169,64 0,00 12.131,37 1.712,88 2.166,04 0,00 3.878,92 8.252,45 644,47 2.566,33 31/12/2013
747 289801 ELCIO JOSE DOS SANTOS ANALISTA DO MP ATIVO BELO HORIZONTE - COMARCA; EXTINTA - DIVISAO DE SERVICOS GERAIS 6.265,58 375,93 0,00 3.523,13 2.213,84 0,00 12.378,48 1.388,09 1.875,15 0,00 3.263,24 9.115,24 457,00 2.602,29 31/12/2013
748 123000 ELCIO VILHENA DE FARIA OFICIAL DO MP ATIVO BELO HORIZONTE - COMARCA; ARQUIVO DO MINISTERIO PUBLICO DO ESTADO DE MG 11.885,64 9.508,51 0,00 11.349,00 7.131,38 2.353,36 42.227,89 5.576,12 12.111,18 0,00 17.687,30 24.540,59 457,00 11.166,21 31/12/2013
749 503200 ELDER GOMES DUTRA ANALISTA DO MP ATIVO IGARAPÉ - COMARCA; IGARAPE-PJ-03PJ 6.068,01 0,00 0,00 3.480,00 0,00 0,00 9.548,01 1.559,14 1.353,57 0,00 2.912,71 6.635,30 457,00 2.160,75 31/12/2013
750 319600 ELEN TULER DE ALBERGARIA ANALISTA DO MP ATIVO BELO HORIZONTE - COMARCA; BH-19PJ SAUDE 6.793,15 1.358,63 0,00 4.324,29 0,00 0,00 12.476,07 2.124,68 2.373,57 0,00 4.498,25 7.977,82 1.162,00 3.026,66 31/12/2013
751 333100 ELENILDA ROCHA DE MORAES MELO OFICIAL DO MP ATIVO MAR DE ESPANHA - COMARCA; MAR DE ESPANHA-PJ-SECRETARIA 4.696,06 469,61 0,00 2.962,49 0,00 0,00 8.128,16 1.344,76 817,46 0,00 2.162,22 5.965,94 457,00 2.008,76 31/12/2013
752 151000 ELI LOURENCO RIBEIRO AGENTE DO MP ATIVO BELO HORIZONTE - COMARCA; BH-17PJ PATRIMONIO PUBLICO-SECRETARIA 6.793,15 2.037,95 0,00 4.684,66 0,00 0,00 13.515,76 2.306,35 1.728,41 0,00 4.034,76 9.481,00 463,65 3.321,37 31/12/2013
753 205500 ELIANA ALVES DE SOUSA OFICIAL DO MP ATIVO GOVERNADOR VALADARES - COMARCA; GOVERNADOR VALADARES-PJ-07PJ 5.691,44 1.138,29 0,00 3.622,98 2.276,58 0,00 12.729,29 1.784,31 2.352,49 0,00 4.136,80 8.592,49 474,09 2.574,71 31/12/2013
754 301700 ELIANA DA SILVEIRA ANALISTA DO MP ATIVO BELO HORIZONTE - COMARCA; ASSESS TECNICO-JUR JUNTO AS PROC. DE JUST 8.501,02 850,10 0,00 4.804,12 3.117,04 0,00 17.272,28 2.490,13 3.648,96 0,00 6.139,09 11.133,19 457,00 4.246,93 31/12/2013
755 103400 ELIANA DE FARIA MORAIS JOTTA OFICIAL DO MP ATIVO BELO HORIZONTE - COMARCA; DIRET DE PESSOAL DO MINISTERIO PUBLICO - DPMP 18.939,65 7.575,87 0,00 12.873,73 8.441,17 0,00 47.830,42 5.855,64 12.810,31 8.344,08 27.010,03 20.820,39 1.642,03 9.756,77 31/12/2013
756 251500 ELIANA DE LIMA MILAGRES FONSECA ANALISTA DO MP ATIVO CONTAGEM - COMARCA; CONTAGEM-PJ-06PJ 9.063,59 1.812,72 0,00 6.237,55 3.625,44 0,00 20.739,30 2.794,26 4.510,79 0,00 7.305,05 13.434,25 457,00 3.668,18 31/12/2013
757 503900 ELIANA DIAS DUTRA FERREIRA OFICIAL DO MP ATIVO GOVERNADOR VALADARES - COMARCA; GOVERNADOR VALADARES-PJ-10PJ 3.938,84 0,00 0,00 2.258,91 1.312,95 0,00 7.510,70 834,24 515,80 0,00 1.350,04 6.160,66 692,00 1.392,90 31/12/2013
758 413900 ELIANA PINTO DE OLIVEIRA NEVES ANALISTA DO MP ATIVO CAMPO BELO - COMARCA; CAMPO BELO-PJ-03PJ 7.014,37 701,44 0,00 3.819,79 2.571,94 0,00 14.107,54 2.087,47 2.741,38 0,00 4.828,85 9.278,69 478,45 4.074,07 31/12/2013
759 228200 ELIANA RODRIGUES DA CUNHA PINHEIRO DIRETOR/OFICIAL ATIVO BELO HORIZONTE - COMARCA; SUPERINTENDÊNCIA DE ENGENHARIA E ARQUITETURA 0,00 2.670,79 13.353,95 16.024,74 0,00 925,90 32.975,38 2.187,38 6.726,72 0,00 8.914,10 24.061,28 1.001,78 5.865,41 31/12/2013
760 386600 ELIANA SABINO CHAVES ANALISTA DO MP ATIVO CARATINGA - COMARCA; CARATINGA-PJ-06PJ 6.578,93 2.631,57 0,00 4.885,91 0,00 0,00 14.096,41 2.410,94 2.795,10 0,00 5.206,04 8.890,37 809,63 3.516,12 31/12/2013
761 297400 ELIANE AUGUSTA RIBEIRO COSTA ANALISTA DO MP ATIVO CONSELHEIRO LAFAIETE - COMARCA; CONSELHEIRO LAFAIETE-PJ-05PJ 9.663,38 966,34 0,00 5.796,12 0,00 0,00 16.425,84 2.757,73 3.296,38 0,00 6.054,11 10.371,73 875,70 3.832,18 31/12/2013
762 510600 ELIANE CAROLINA MAIA ANALISTA DO MP ATIVO IGARAPÉ - COMARCA; IGARAPE-PJ-01PJ 5.511,94 0,00 0,00 2.871,44 0,00 0,00 8.383,38 1.517,30 609,92 0,00 2.127,22 6.256,16 927,00 3.554,26 31/12/2013
763 269300 ELIANE EDLAMAR ROCHA OFICIAL DO MP ATIVO PEDRO LEOPOLDO - COMARCA; PEDRO LEOPOLDO-PJ-02PJ 6.068,01 1.213,60 0,00 4.147,60 0,00 0,00 11.429,21 1.886,94 1.754,19 0,00 3.641,13 7.788,08 927,00 2.603,42 31/12/2013
764 359100 ELIANE FARIAS DE OLIVEIRA ASSESSOR ATIVO BELO HORIZONTE - COMARCA; EXTINTA-TUTELA DAS FUNDACOES-21 PJ- GABINETE 0,00 0,00 2.359,08 1.251,42 47,92 0,00 3.658,42 665,20 79,45 0,00 744,65 2.913,77 457,00 876,71 31/12/2013
765 262600 ELIANE FERREIRA SOARES ASSESSOR ATIVO BELO HORIZONTE - COMARCA; BH-18PJ DIREITOS HUMANOS-SECRETARIA 0,00 1.181,65 3.938,84 2.901,21 0,00 0,00 8.021,70 914,98 976,88 0,00 1.891,86 6.129,84 692,00 1.852,30 31/12/2013
766 204400 ELIANE GLAUCE DE QUEIROS MAIA OFICIAL DO MP ATIVO GUANHÃES - COMARCA; GUANHAES-PJ-01PJ 8.233,02 1.646,60 0,00 9.568,08 0,00 0,00 19.447,70 2.631,06 3.046,39 0,00 5.677,45 13.770,25 457,00 4.788,07 31/12/2013
767 91800 ELIANE KAPLER COORDENADOR/OFICIAL ATIVO BELO HORIZONTE - COMARCA; DIRET DE CONTROLE E DE MANUTENCAO DE IMOVEIS 11.342,29 6.803,55 0,00 9.625,87 0,00 0,00 27.771,71 4.160,15 7.209,37 0,00 11.369,52 16.402,19 1.247,59 6.926,26 31/12/2013
768 334200 ELIANE MARCIA DE OLIVEIRA BRITO OFICIAL DO MP ATIVO BELO HORIZONTE - COMARCA; BH-09PJ AUDITORIA MILITAR 4.696,06 469,61 0,00 2.962,49 0,00 0,00 8.128,16 1.345,06 911,87 0,00 2.256,93 5.871,23 457,00 1.905,98 31/12/2013
769 365900 ELIANE MARIA DE OLIVEIRA FERREIRA OFICIAL DO MP ATIVO SETE LAGOAS - COMARCA; SETE LAGOAS-PJ-11PJ 5.691,44 2.276,58 0,00 4.082,19 2.656,01 0,00 14.706,22 2.216,33 2.835,30 0,00 5.051,63 9.654,59 457,00 4.956,41 31/12/2013
770 320600 ELIANE STADLER DE SOUZA OFICIAL DO MP ATIVO FRANCISCO SÁ - COMARCA; FRANCISCO SA-PJ-SECRETARIA 5.169,86 516,99 0,00 3.016,72 0,00 0,00 8.703,57 1.483,45 1.070,28 0,00 2.553,73 6.149,84 457,00 2.122,55 31/12/2013
771 448900 ELIAS PEREIRA OTONI ASSESSOR ATIVO BELO HORIZONTE - COMARCA; EXTINTA - DIVISAO DE TRANSPORTES 0,00 0,00 3.938,84 1.694,50 0,00 0,00 5.633,34 847,32 303,22 0,00 1.150,54 4.482,80 457,00 1.462,43 31/12/2013
772 495400 ELICA SOUZA GASPARONI MATTOS OFICIAL DO MP ATIVO UBÁ - COMARCA; UBA-PJ-SECRETARIA 3.577,90 0,00 0,00 2.191,78 0,00 0,00 5.769,68 768,12 271,30 0,00 1.039,42 4.730,26 692,00 1.292,33 31/12/2013
773 86600 ELIENE FERREIRA DA SILVA OFICIAL DO MP ATIVO BELO HORIZONTE - COMARCA; BH-22PJ PES COM DEF E IDOSOS 16.215,23 8.107,62 0,00 12.902,60 8.107,62 0,00 45.333,07 6.341,03 12.228,76 0,00 18.569,79 26.763,28 1.941,48 9.050,08 31/12/2013
774 183800 ELIENE MARIA CUNHA OFICIAL DO MP ATIVO BELO HORIZONTE - COMARCA; DIRETORIA DE PESSOAL ADMINISTRATIVO - DPAD 8.501,02 1.700,20 0,00 9.879,62 3.400,41 0,00 23.481,25 2.716,50 4.136,45 0,00 6.852,95 16.628,30 457,00 4.632,98 31/12/2013
775 172300 ELINA APARECIDA SILVA ASSESSOR ATIVO BELO HORIZONTE - COMARCA; BH-19PJ SAUDE-SECRETARIA 130PJ 0,00 707,72 2.359,08 1.501,71 1.022,27 0,00 5.590,78 768,89 270,96 0,00 1.039,85 4.550,93 761,01 1.524,26 31/12/2013
776 492500 ELINE CAMPOS DA FONSECA CUNHA ANALISTA DO MP ATIVO CAPELINHA - COMARCA; CAPELINHA-PJ-02PJ 5.006,87 0,00 0,00 2.871,44 0,00 0,00 7.878,31 1.300,95 834,51 0,00 2.135,46 5.742,85 692,00 1.821,93 31/12/2013
777 256500 ELISABETE NOGUEIRA ANALISTA DO MP ATIVO BELO HORIZONTE - COMARCA; BH-21PJ TUTELA DAS FUNDACOES-ASS CURADORES 8.233,02 2.469,91 0,00 5.836,08 3.567,64 0,00 20.106,65 2.775,89 4.313,32 0,00 7.089,21 13.017,44 932,62 3.848,72 31/12/2013
778 355000 ELISANGELA DARLANTONI RIBEIRO OFICIAL DO MP ATIVO ARAXÁ - COMARCA; ARAXA-PJ-05PJ 4.265,74 426,57 0,00 2.558,63 1.564,10 0,00 8.815,04 1.222,91 1.026,94 0,00 2.249,85 6.565,19 760,25 1.741,78 31/12/2013
779 323800 ELISANGELA GONCALVES DE JESUS OFICIAL DO MP ATIVO BELO HORIZONTE - COMARCA; BH-09PJ AUDITORIA MILITAR-SECRETARIA 4.696,06 469,61 0,00 2.740,24 1.721,89 0,00 9.627,80 1.357,57 1.385,39 0,00 2.742,96 6.884,84 771,82 2.021,90 31/12/2013
780 261400 ELISANGELA MENDES OFICIAL DO MP ATIVO POUSO ALEGRE - COMARCA; POUSO ALEGRE-PJ-05PJ 5.691,44 1.138,29 0,00 3.508,72 2.276,58 0,00 12.615,03 1.818,71 2.299,77 0,00 4.118,48 8.496,55 457,00 3.101,96 31/12/2013
781 507400 ELISANGELA MIGUEL DA ROCHA ASSESSOR ATIVO BELO HORIZONTE - COMARCA; CGMP-DIVIS DE APOIO FISC ORIENTACAO FUNCIONAL 0,00 0,00 2.359,08 1.251,42 786,36 0,00 4.396,86 665,33 173,62 0,00 838,95 3.557,91 600,77 878,33 31/12/2013
782 534100 ELISANGELA ROSINE SILVA OFICIAL DO MP ATIVO UBERABA - COMARCA; UBERABA-PJ-06PJ 2.859,08 0,00 0,00 1.502,14 953,03 0,00 5.314,25 719,00 236,24 0,00 955,24 4.359,01 457,00 1.061,57 31/12/2013
783 461700 ELIZABETH ALEIXO DA PAZ ANALISTA DO MP ATIVO JUIZ DE FORA - COMARCA; JUIZ DE FORA-PJ-24PJ 6.265,58 375,93 0,00 3.582,99 2.213,84 0,00 12.438,34 1.751,51 2.191,83 0,00 3.943,34 8.495,00 457,00 2.860,30 31/12/2013
784 198100 ELIZABETH CARDOSO CAMPOS OFICIAL DO MP ATIVO PIUMHI - COMARCA; PIUMHI-PJ-02PJ 6.793,15 5.434,53 0,00 6.486,45 0,00 1.460,34 20.174,47 3.363,24 5.300,01 0,00 8.663,25 11.511,22 1.114,39 8.070,71 31/12/2013
785 227300 ELIZABETH COIMBRA FELIX ASSESSOR/OFICIAL ATIVO BELO HORIZONTE - COMARCA; DIRETORIA DE PAGAMENTO DE PESSOAL-DPAG 0,00 2.633,33 8.777,78 6.053,27 3.803,70 0,00 21.268,08 2.129,46 4.919,72 0,00 7.049,18 14.218,90 526,35 4.238,49 31/12/2013
786 354800 ELIZABETH DOS REIS OFICIAL DO MP ATIVO BELO HORIZONTE - COMARCA; EXTINTA - DIVISÃO DE MATERIAL PERMANENTE 5.691,44 569,14 0,00 3.016,72 0,00 0,00 9.277,30 1.734,92 1.210,70 0,00 2.945,62 6.331,68 457,00 4.018,55 31/12/2013
787 452800 ELIZANGELA MARIA DAVI OFICIAL DO MP ATIVO ARCOS - COMARCA; ARCOS-PJ-01PJ 3.355,81 201,35 0,00 1.939,62 0,00 0,00 5.496,78 748,99 185,74 0,00 934,73 4.562,05 927,00 1.391,20 31/12/2013
788 496300 ELIZANGELA MARQUES PINTO COELHO OFICIAL DO MP ATIVO BELO HORIZONTE - COMARCA; DIRETORIA DE PESSOAL ADMINISTRATIVO - DPAD 3.938,84 0,00 0,00 2.258,91 1.312,95 0,00 7.510,70 1.027,87 710,69 0,00 1.738,56 5.772,14 692,00 1.473,76 31/12/2013
789 422500 ELIZETE FORTES DA CUNHA ANALISTA DO MP ATIVO RIBEIRÃO DAS NEVES - COMARCA; RIBEIRAO DAS NEVES-PJ-07PJ 6.793,15 407,59 0,00 3.819,79 0,00 0,00 11.020,53 1.877,02 1.811,32 0,00 3.688,34 7.332,19 692,00 2.822,85 31/12/2013
790 506100 ELLEM CRISTINA ROCHA FONSECA BOWEN ANALISTA DO MP ATIVO GOVERNADOR VALADARES - COMARCA; COORD REG PJ DEF EDU DIR CRIANCA ADOL RIODOCE 6.068,01 0,00 0,00 6.068,01 0,00 0,00 12.136,02 1.584,08 1.353,57 0,00 2.937,65 9.198,37 927,00 2.388,57 31/12/2013
791 468200 ELLEN CRISTINA BERNARDES DARE ANALISTA DO MP ATIVO TRÊS PONTAS - COMARCA; TRES PONTAS-PJ-02PJ 6.265,58 375,93 0,00 3.582,99 2.213,84 0,00 12.438,34 1.821,04 2.234,46 0,00 4.055,50 8.382,84 457,00 3.493,40 31/12/2013
792 418800 ELLEN CRISTINA DE QUEIROZ FERREIRA ANALISTA DO MP ATIVO BELO HORIZONTE - COMARCA; CENTRAL DE APOIO TECNICO-SETOR CONTABIL 6.793,15 407,59 0,00 3.819,79 2.400,25 0,00 13.420,78 1.504,99 2.135,90 0,00 3.640,89 9.779,89 457,00 2.797,63 31/12/2013
793 328401 ELLEN CRISTINA FERREIRA MORAIS MONTEIRO ANALISTA DO MP ATIVO CAMANDUCAIA - COMARCA; CAMANDUCAIA-PJ-UNPJ 7.014,37 701,44 0,00 7.200,74 2.571,94 0,00 17.488,49 2.081,18 2.547,96 0,00 4.629,14 12.859,35 692,00 4.016,73 31/12/2013
794 556100 ELLEN CRISTINE BIANCHIN DA SILVA OFICIAL DO MP ATIVO SÃO GONÇALO DO SAPUCAÍ - COMARCA; SAO GONCALO DO SAPUCAI-PJ-02PJ 2.859,08 0,00 0,00 1.444,06 0,00 0,00 4.303,14 597,29 16,33 0,00 613,62 3.689,52 457,00 907,37 31/12/2013
795 447100 ELLEN ROSANA DE MACEDO BORGES OFICIAL DO MP ATIVO UBERLÂNDIA - COMARCA; UBERLANDIA-PJ-17PJ 4.000,95 240,06 0,00 2.249,74 0,00 0,00 6.490,75 1.105,36 518,56 0,00 1.623,92 4.866,83 457,00 1.574,66 31/12/2013
796 477700 ELMA JACOB OFICIAL DO MP ATIVO BELO HORIZONTE - COMARCA; CAO-CRIANCAS E ADOLESCENTES 3.938,84 1.969,42 0,00 3.134,16 0,00 0,00 9.042,42 1.564,00 1.275,37 0,00 2.839,37 6.203,05 490,00 2.424,85 31/12/2013
797 123300 ELMA PAULA DOS SANTOS COELHO OFICIAL DO MP ATIVO BELO HORIZONTE - COMARCA; BH-19PJ SAUDE-SECRETARIA 130PJ 10.302,83 8.242,26 0,00 9.837,65 0,00 2.039,96 30.422,70 4.846,56 8.486,36 0,00 13.332,92 17.089,78 1.378,52 9.815,20 31/12/2013
798 356500 ELOISA CARDOSO SILVA FRANCA OFICIAL DO MP ATIVO PEÇANHA - COMARCA; PECANHA-PJ-SECRETARIA 4.265,74 426,57 0,00 4.692,31 1.564,10 0,00 10.948,72 1.221,07 850,72 0,00 2.071,79 8.876,93 457,00 1.724,73 31/12/2013
799 251901 ELOISA COSTA E SILVA ANALISTA DO MP ATIVO SANTOS DUMONT - COMARCA; SANTOS DUMONT-PJ-02PJ 6.068,01 1.213,60 0,00 4.176,00 0,00 0,00 11.457,61 1.901,59 1.947,61 0,00 3.849,20 7.608,41 723,26 2.738,90 31/12/2013
800 400400 ELOIZA MARIA FERRI PIRES DA SILVA OFICIAL DO MP ATIVO BELO HORIZONTE - COMARCA; CAO-MEIO AMBIENTE 4.131,19 413,12 0,00 2.553,04 0,00 0,00 7.097,35 1.232,82 599,92 0,00 1.832,74 5.264,61 623,17 2.129,67 31/12/2013
801 258000 ELSO CECIANO PALMEIRA ASSESSOR/OFICIAL ATIVO BELO HORIZONTE - COMARCA; DIRET DE PESSOAL DO MINISTERIO PUBLICO - DPMP 0,00 3.986,70 7.973,40 6.344,50 3.986,70 0,00 22.291,30 2.549,36 5.267,21 0,00 7.816,57 14.474,73 511,22 4.507,01 31/12/2013
802 206900 ELVIRA RITA DOS SANTOS ANALISTA DO MP ATIVO BELO HORIZONTE - COMARCA; CENTRAL DE APOIO TECNICO-SETOR CONTABIL 12.845,44 2.569,09 0,00 8.176,98 0,00 0,00 23.591,51 4.018,25 5.928,69 0,00 9.946,94 13.644,57 770,34 5.730,97 31/12/2013
803 506800 ELVIS FERREIRA DA SILVA ANALISTA DO MP ATIVO BELO HORIZONTE - COMARCA; DIRETORIA DE SISTEMAS DE INFORMACAO 6.068,01 0,00 0,00 3.480,00 0,00 0,00 9.548,01 1.558,95 1.256,85 0,00 2.815,80 6.732,21 457,00 2.046,48 31/12/2013
804 154300 ELZA MARIA DA SILVA OFICIAL DO MP ATIVO ERVÁLIA - COMARCA; ERVALIA-PJ-SECRETARIA 7.242,73 5.794,18 0,00 7.255,78 4.345,64 1.434,06 26.072,39 2.752,24 5.554,10 0,00 8.306,34 17.766,05 457,00 6.068,75 31/12/2013
805 206600 ELZA MARIA GONTIJO DE MAGALHAES GOMES ANALISTA DO MP ATIVO BELO HORIZONTE - COMARCA; DIVISAO DE ACERVOS BIBLIOGRAFICOS 10.302,83 2.060,57 0,00 5.957,44 0,00 1.359,97 19.680,81 2.845,69 3.816,80 0,00 6.662,49 13.018,32 515,34 9.055,74 31/12/2013
806 602400 ELZA MARIA MOREIRA MUNIZ ANALISTA DO MP ATIVO CARMO DO PARANAÍBA - COMARCA; CARMO DO PARANAIBA-PJ-01PJ 4.404,59 0,00 0,00 1.101,15 0,00 0,00 5.505,74 643,26 279,06 0,00 922,32 4.583,42 457,00 343,80 31/12/2013
807 368401 ELZIRA SIMOES DOS SANTOS ASSESSOR ATIVO BELO HORIZONTE - COMARCA; DIRETORIA DE RELACOES PUBLICAS E CERIMONIAL 0,00 0,00 8.777,78 4.455,27 0,00 0,00 13.233,05 914,98 3.029,80 0,00 3.944,78 9.288,27 457,00 3.259,09 31/12/2013
808 437400 EMANOELLE DA SILVA RODRIGUES OFICIAL DO MP ATIVO UNAÍ - COMARCA; UNAI-PJ-03PJ 4.404,59 264,28 0,00 2.677,60 1.556,29 0,00 8.902,76 1.210,80 1.014,36 0,00 2.225,16 6.677,60 741,54 1.679,35 31/12/2013
809 458900 EMANUELLE CONRAD SILVA FREDERICO ANALISTA DO MP ATIVO DIVINÓPOLIS - COMARCA; DIVINOPOLIS-PJ-08PJ 6.265,58 375,93 0,00 3.792,41 2.213,84 0,00 12.647,76 1.712,65 2.243,09 0,00 3.955,74 8.692,02 457,00 2.297,85 31/12/2013
810 284100 EMERSON MAGNO ALMEIDA PEDROSA DA FONSECA ANALISTA DO MP ATIVO BELO HORIZONTE - COMARCA; CENTRAL DE APOIO TECNICO-SETOR CONTABIL 9.663,38 966,34 0,00 5.796,12 3.543,24 0,00 19.969,08 2.756,87 2.810,39 0,00 5.567,26 14.401,82 693,31 3.822,28 31/12/2013
811 179900 EMERSON MORAIS DIAS OFICIAL DO MP ATIVO BELO HORIZONTE - COMARCA; EXTINTA - DIVISÃO DE APOIO À LICITAÇÃO 8.501,02 2.550,31 0,00 6.261,57 0,00 0,00 17.312,90 2.866,49 3.792,89 0,00 6.659,38 10.653,52 1.094,00 4.187,47 31/12/2013
812 488700 EMERSON SIQUEIRA DE SOUSA TEIXEIRA ANALISTA DO MP ATIVO TARUMIRIM - COMARCA; TARUMIRIM-PJ-UNPJ 6.068,01 0,00 0,00 3.480,00 0,00 0,00 9.548,01 1.579,31 1.063,43 0,00 2.642,74 6.905,27 1.296,81 2.358,23 31/12/2013
813 194200 EMILIA ALVES FERREIRA RAMOS OFICIAL DO MP ATIVO UBERLÂNDIA - COMARCA; UBERLANDIA-PJ-19PJ 4.696,06 939,21 0,00 2.989,35 0,00 0,00 8.624,62 1.468,78 948,31 0,00 2.417,09 6.207,53 457,00 2.092,30 31/12/2013
814 123400 EMILIO CARLOS MARTINS OFICIAL DO MP ATIVO AREADO - COMARCA; AREADO-PJ-UNPJ 9.977,95 6.984,58 0,00 16.962,53 0,00 0,00 33.925,06 4.419,41 6.589,72 0,00 11.009,13 22.915,93 3.159,75 6.809,30 31/12/2013
815 549300 EMILIO VIEIRA SILVA ASSESSOR ATIVO BELO HORIZONTE - COMARCA; EXTINTA - DIVISAO DE TRANSPORTES 0,00 0,00 2.359,08 1.215,48 0,00 0,00 3.574,56 564,88 46,70 0,00 611,58 2.962,98 457,00 875,90 31/12/2013
816 297000 ENEIDA SOARES COSTA MELO ANALISTA DO MP ATIVO PIUMHI - COMARCA; PIUMHI-PJ-01PJ 9.663,38 966,34 0,00 5.796,12 3.543,24 0,00 19.969,08 2.756,87 4.560,90 0,00 7.317,77 12.651,31 458,31 3.822,28 31/12/2013
817 276000 ENEZIO RODRIGUES DE SOUZA FILHO OFICIAL DO MP ATIVO UBERLÂNDIA - COMARCA; UBERLANDIA-PJ-SEC FAMILIA 5.876,69 1.175,34 0,00 4.112,51 0,00 0,00 11.164,54 1.806,09 1.835,25 0,00 3.641,34 7.523,20 676,13 2.455,52 31/12/2013
818 387700 ENI MARIA DOS REIS OFICIAL DO MP ATIVO POUSO ALEGRE - COMARCA; POUSO ALEGRE-PJ-03PJ 5.006,87 1.609,01 0,00 3.937,79 2.205,29 0,00 12.758,96 1.191,15 1.962,01 0,00 3.153,16 9.605,80 457,00 2.501,42 31/12/2013
819 605100 ENIA MAIA OFICIAL DO MP ATIVO BELO HORIZONTE - COMARCA; BH-17PJ PATRIMONIO PUBLICO 2.859,08 0,00 0,00 0,00 0,00 0,00 2.859,08 555,62 313,09 0,00 868,71 1.990,37 747,82 2.191,96 31/12/2013
820 553700 ENIVALDO NOVATO PUBLIO ANALISTA DO MP ATIVO DIVINÓPOLIS - COMARCA; DIVINOPOLIS-PJ-09PJ 4.404,59 0,00 0,00 2.247,03 0,00 0,00 6.651,62 972,46 293,43 0,00 1.265,89 5.385,73 457,00 1.507,04 31/12/2013
821 417300 ERIC BARATTI DA SILVA ANALISTA DO MP ATIVO PRATA - COMARCA; PRATA-PJ-UNPJ 6.265,58 375,93 0,00 3.523,13 0,00 0,00 10.164,64 1.388,00 1.266,35 0,00 2.654,35 7.510,29 457,00 2.465,88 31/12/2013
822 398900 ERIC TEIXEIRA SILVA OFICIAL DO MP ATIVO UBERLÂNDIA - COMARCA; UBERLANDIA-PJ-08PJ 4.131,19 413,12 0,00 2.410,63 0,00 0,00 6.954,94 1.184,44 640,04 0,00 1.824,48 5.130,46 457,00 1.687,79 31/12/2013
823 274200 ERICA DE SOUZA ANDRADE OFICIAL DO MP ATIVO BELO HORIZONTE - COMARCA; BH-18PJ DIREITOS HUMANOS 6.265,58 1.253,12 0,00 7.518,70 2.506,23 0,00 17.543,63 1.938,91 2.559,46 0,00 4.498,37 13.045,26 668,34 2.603,22 31/12/2013
824 225700 ERICA GOMES DO COUTO OFICIAL DO MP ATIVO BELO HORIZONTE - COMARCA; CAO-TS-TERCEIRO SETOR-SECRETARIA 7.242,73 1.448,55 0,00 4.984,49 2.897,09 0,00 16.572,86 2.232,88 3.434,35 0,00 5.667,23 10.905,63 457,00 2.931,20 31/12/2013
825 524800 ERICA MACHADO DA COSTA E SOUZA ANALISTA DO MP ATIVO BELO HORIZONTE - COMARCA; PROC JUST RECURSOS ESP E EXTRAORD CRIMINAIS 5.511,94 0,00 0,00 2.923,93 0,00 0,00 8.435,87 1.436,80 1.081,37 0,00 2.518,17 5.917,70 658,55 2.049,28 31/12/2013
826 249500 ERICA RODRIGUES ANDRADE OFICIAL DO MP ATIVO SÃO FRANCISCO - COMARCA; SAO FRANCISCO-PJ-02PJ 4.696,06 939,21 0,00 2.989,35 0,00 0,00 8.624,62 1.468,78 1.045,02 0,00 2.513,80 6.110,82 927,00 2.092,30 31/12/2013
827 260800 ERICA VIANA GIARDINI DE OLIVEIRA OFICIAL DO MP ATIVO BELO HORIZONTE - COMARCA; EXTINTA - DIVISÃO DE COMPRAS 6.469,61 1.293,92 0,00 4.233,29 2.587,84 0,00 14.584,66 2.013,50 2.895,17 0,00 4.908,67 9.675,99 457,00 2.791,59 31/12/2013
828 299800 ERICH DOUGLAS RIBEIRO GARCIA ANALISTA DO MP ATIVO BELO HORIZONTE - COMARCA; CENTRAL DE APOIO TECNICO-SETOR CONTABIL 9.358,72 935,87 0,00 5.460,99 0,00 0,00 15.755,58 2.689,92 3.422,47 0,00 6.112,39 9.643,19 645,96 3.885,19 31/12/2013
829 365000 ERICK EDUARDO JOSE DA SILVA OFICIAL DO MP ATIVO SANTOS DUMONT - COMARCA; SANTOS DUMONT-PJ-02PJ 4.265,74 426,57 0,00 4.692,31 0,00 0,00 9.384,62 1.231,35 699,32 0,00 1.930,67 7.453,95 525,25 1.819,19 31/12/2013
830 123500 ERICO SEGISMUNDO LIMA VILASBOAS ANALISTA DO MP ATIVO MONTES CLAROS - COMARCA; COORD REG PJ DEF EDUC DIR CRIANCA ADOL NORTE 13.882,65 11.106,13 0,00 13.255,86 0,00 0,00 38.244,64 5.224,33 7.846,67 0,00 13.071,00 25.173,64 1.771,22 9.301,56 31/12/2013
831 227400 ERIKA DE LAET GOULART BOECHAT ASSESSOR/OFICIAL ATIVO BELO HORIZONTE - COMARCA; ASSESSORIA ESPECIAL DO PGJ 0,00 1.594,68 7.973,40 5.075,60 0,00 0,00 14.643,68 2.523,64 3.040,32 0,00 5.563,96 9.079,72 690,25 3.755,65 31/12/2013
832 451800 ERIKA DELLARETTI GUIMARAES OFICIAL DO MP ATIVO LAVRAS - COMARCA; LAVRAS-PJ-04PJ 3.694,41 221,66 0,00 3.916,07 1.305,36 0,00 9.137,50 1.020,55 618,26 0,00 1.638,81 7.498,69 457,00 1.452,49 31/12/2013
833 285100 ERIKA FERREIRA DA SILVA OFICIAL DO MP ATIVO JUIZ DE FORA - COMARCA; JUIZ DE FORA-PJ-14PJ 6.265,58 1.253,12 0,00 3.656,09 2.506,23 0,00 13.681,02 2.076,94 2.599,53 0,00 4.676,47 9.004,55 873,54 4.498,56 31/12/2013
834 420100 ERIKA JEANINE VERSIANI DE CASTRO ANALISTA DO MP ATIVO MONTES CLAROS - COMARCA; COORD REG PJ DEF EDUC DIR CRIANCA ADOL NORTE 6.793,15 407,59 0,00 3.819,79 2.400,25 0,00 13.420,78 1.906,03 2.471,39 0,00 4.377,42 9.043,36 457,00 2.940,76 31/12/2013
835 491000 ERIKA ROCHA PEREIRA E SILVA ANALISTA DO MP ATIVO BELO HORIZONTE - COMARCA; DIRETORIA DE SISTEMAS DE INFORMACAO 6.068,01 0,00 0,00 3.480,00 0,00 0,00 9.548,01 1.577,13 1.353,57 0,00 2.930,70 6.617,31 2.641,48 2.412,87 31/12/2013
836 283201 ERIKA STEHLING ASSESSOR/ANALISTA ATIVO BELO HORIZONTE - COMARCA; CENTRAL DE APOIO TECNICO-SETOR DE ENGENHARIA 0,00 0,00 7.973,40 4.229,67 0,00 0,00 12.203,07 1.293,89 1.697,45 0,00 2.991,34 9.211,73 457,00 3.125,05 31/12/2013
837 383500 ERIKO RODRIGUES VELOSO ANALISTA DO MP ATIVO BOCAIÚVA - COMARCA; BOCAIUVA-PJ-01PJ 6.578,93 657,89 0,00 3.429,16 2.412,27 0,00 13.078,25 2.024,79 2.400,01 0,00 4.424,80 8.653,45 469,42 4.717,84 31/12/2013
838 254000 ERLANDIA DA SILVA MENDES OFICIAL DO MP ATIVO IPATINGA - COMARCA; IPATINGA-PJ-03PJ 6.265,58 1.879,67 0,00 4.184,58 2.715,08 0,00 15.044,91 2.174,19 2.764,02 0,00 4.938,21 10.106,70 755,36 3.746,96 31/12/2013
839 208600 ERNANE JOSE DA COSTA ANALISTA DO MP ATIVO BELO HORIZONTE - COMARCA; CENTRAL DE APOIO TECNICO-SETOR MEDICO 12.845,44 6.422,72 0,00 19.268,16 0,00 0,00 38.536,32 5.022,35 7.815,03 0,00 12.837,38 25.698,94 457,00 7.550,96 31/12/2013
840 260600 ERNANI CALDEIRA DE ANDRADE ANALISTA DO MP ATIVO BELO HORIZONTE - COMARCA; CENTRAL DE APOIO TECNICO-SETOR CONTABIL 10.638,28 2.127,66 0,00 6.960,98 4.255,31 0,00 23.982,23 3.310,91 5.802,41 0,00 9.113,32 14.868,91 457,00 4.590,36 31/12/2013
841 348500 ERNILANDIA OLIVEIRA DIAS OFICIAL DO MP ATIVO BELO HORIZONTE - COMARCA; EXTINTA - JUIZO DE FAMILIA-02 PJ-02 VARA 5.006,87 500,69 0,00 5.333,88 0,00 0,00 10.841,44 1.466,64 1.036,72 0,00 2.503,36 8.338,08 457,00 2.501,42 31/12/2013
842 199300 ERTON PORTINARI DE ANDRADE OFICIAL DO MP ATIVO SETE LAGOAS - COMARCA; SETE LAGOAS-PJ-01PJ 8.233,02 2.469,91 0,00 5.498,57 3.567,64 0,00 19.769,14 2.892,26 4.327,42 0,00 7.219,68 12.549,46 462,62 5.245,84 31/12/2013
843 430400 ESDRAS SOARES VILAS BOAS RIBEIRO OFICIAL DO MP ATIVO BELO HORIZONTE - COMARCA; BH-17PJ PATRIMONIO PUBLICO-SECRETARIA 4.404,59 264,28 0,00 2.476,71 0,00 0,00 7.145,58 1.217,66 689,92 0,00 1.907,58 5.238,00 457,00 1.740,52 31/12/2013
844 537000 ESTANISLAU CORREIA ALMEIDA JUNIOR OFICIAL DO MP ATIVO UBERLÂNDIA - COMARCA; UBERLANDIA-PJ-04PJ 2.859,08 0,00 0,00 1.487,63 0,00 0,00 4.346,71 692,79 87,49 0,00 780,28 3.566,43 457,00 1.061,57 31/12/2013
845 326900 ESTER ALICE PIMENTA OFICIAL DO MP ATIVO BELO HORIZONTE - COMARCA; COORD DE INCLUSAO E MOBILIZACAO SOCIAIS 4.848,98 484,90 0,00 2.740,24 1.777,96 0,00 9.852,08 1.426,54 1.345,27 0,00 2.771,81 7.080,27 457,00 2.478,82 31/12/2013
846 503700 ESTHER GONCALVES FONSECA ANALISTA DO MP ATIVO BELO HORIZONTE - COMARCA; DIRETORIA DE PUBLICIDADE INSTITUCIONAL 5.006,87 0,00 0,00 2.871,44 0,00 0,00 7.878,31 1.292,65 834,51 0,00 2.127,16 5.751,15 457,00 1.746,13 31/12/2013
847 475600 ETIENE DE FATIMA OLIVEIRA PEREIRA ANALISTA DO MP ATIVO PATROCÍNIO - COMARCA; PATROCINIO-PJ-04PJ 6.068,01 364,08 0,00 3.218,91 0,00 0,00 9.651,00 1.701,87 1.345,95 0,00 3.047,82 6.603,18 457,00 3.106,50 31/12/2013
848 428800 EUGENIA RODRIGUES TRAJANO BORGES ANALISTA DO MP ATIVO UBERABA - COMARCA; UBERABA-PJ-08PJ 6.793,15 407,59 0,00 7.200,74 0,00 0,00 14.401,48 1.881,88 1.908,03 0,00 3.789,91 10.611,57 632,54 2.732,64 31/12/2013
849 272700 EUGENIO DE BARCELOS FILHO OFICIAL DO MP ATIVO FRUTAL - COMARCA; FRUTAL-PJ-02PJ 5.006,87 1.001,37 0,00 3.314,37 2.002,75 0,00 11.325,36 1.336,19 1.537,95 0,00 2.874,14 8.451,22 457,00 2.835,78 31/12/2013
850 254100 EULALIA ALVES MIRANDA LUCAS OFICIAL DO MP ATIVO ALMENARA - COMARCA; ALMENARA-PJ-SECRETARIA 6.265,58 2.361,44 0,00 3.988,46 0,00 0,00 12.615,48 2.354,98 2.078,33 0,00 4.433,31 8.182,17 706,53 6.387,00 31/12/2013
851 557900 EURIPEDES JUSUE PERES OFICIAL DO MP ATIVO IBIÁ - COMARCA; IBIA-PJ-UNPJ 2.859,08 0,00 0,00 1.429,54 0,00 0,00 4.288,62 549,09 56,76 0,00 605,85 3.682,77 457,00 706,53 31/12/2013
852 225800 EURO CESAR VIEIRA BARBOSA ANALISTA DO MP ATIVO BELO HORIZONTE - COMARCA; BH-17PJ PATRIMONIO PUBLICO 11.885,64 2.377,13 0,00 8.073,67 4.754,26 0,00 27.090,70 3.674,58 6.478,90 0,00 10.153,48 16.937,22 1.521,64 4.907,09 31/12/2013
853 199400 EUSTAQUIO ADAILTON LIMA E SILVA OFICIAL DO MP ATIVO MANGA - COMARCA; MANGA-PJ-01PJ 8.233,02 3.293,21 0,00 6.114,34 0,00 0,00 17.640,57 2.411,63 2.803,82 0,00 5.215,45 12.425,12 457,00 4.540,13 31/12/2013
854 249000 EUSTAQUIO GOMES DE OLIVEIRA OFICIAL DO MP ATIVO BELO HORIZONTE - COMARCA; CAO-TS-CONTROLADORIA E APOIO AS ENTIDADES  6.469,61 2.587,84 0,00 4.938,84 0,00 0,00 13.996,29 2.349,43 2.720,18 0,00 5.069,61 8.926,68 2.256,75 3.585,16 31/12/2013
855 67100 EVA DAS DORES BARROS VALGAS ANALISTA DO MP ATIVO FERROS - COMARCA; FERROS-PJ-SECRETARIA 13.353,95 9.347,78 0,00 12.042,64 7.567,24 0,00 42.311,61 5.917,98 11.286,62 0,00 17.204,60 25.107,01 1.005,19 8.441,14 31/12/2013
856 548000 EVA VILMA LEAO DOS REIS JULIO OFICIAL DO MP ATIVO BELO HORIZONTE - COMARCA; BH-15PJ M AMB 16PJ HAB URB-SECRETARIA 2.859,08 571,82 0,00 2.287,27 0,00 0,00 5.718,17 760,66 147,37 0,00 908,03 4.810,14 457,00 1.202,81 31/12/2013
857 517000 EVALDO SENA COSTA FILHO ANALISTA DO MP ATIVO CONTAGEM - COMARCA; CONTAGEM-PJ-21PJ 5.511,94 1.102,39 0,00 3.508,72 0,00 0,00 10.123,05 1.722,79 1.330,85 0,00 3.053,64 7.069,41 692,00 2.580,23 31/12/2013
858 217500 EVELANGE LEAO RABELO ASSESSOR ATIVO BELO HORIZONTE - COMARCA; COORD EST DEF DIR FAMILIA PESSOA DEFICI IDOSO 0,00 471,82 2.359,08 1.501,71 0,00 0,00 4.332,61 768,89 150,18 0,00 919,07 3.413,54 457,00 1.051,02 31/12/2013
859 540400 EVIE SARAMELLA DE RESENDE OFICIAL DO MP ATIVO BARBACENA - COMARCA; BARBACENA-PJ-01PJ 2.859,08 0,00 0,00 2.144,31 0,00 0,00 5.003,39 701,16 94,20 0,00 795,36 4.208,03 457,00 1.376,28 31/12/2013
860 469000 EWERTON CARDOSO DE SA RODRIGUES ANALISTA DO MP ATIVO CAMPO BELO - COMARCA; CAMPO BELO-PJ-01PJ 6.265,58 375,93 0,00 3.582,99 0,00 0,00 10.224,50 1.861,66 1.764,99 0,00 3.626,65 6.597,85 3.833,47 4.295,15 31/12/2013
861 368900 FABIANA BARBOSA SIQUEIRA OFICIAL DO MP ATIVO BELO HORIZONTE - COMARCA; CAO-ORDEM ECONOMICA E TRIBUTARIA-SECRETARIA 5.169,86 516,99 0,00 3.016,72 0,00 0,00 8.703,57 1.483,99 1.070,28 0,00 2.554,27 6.149,30 3.174,69 2.453,17 31/12/2013
862 273800 FABIANA CARNEIRO AMORIM COORDENADOR/OFICIAL ATIVO BELO HORIZONTE - COMARCA; BH-23PJ INFRACIONAL-COORD ADM INFRACIONAL 0,00 1.812,72 9.063,59 6.195,14 3.625,44 0,00 20.696,89 1.787,88 4.749,10 0,00 6.536,98 14.159,91 457,00 3.869,61 31/12/2013
863 519300 FABIANA DE OLIVEIRA LOUREIRO ANALISTA DO MP ATIVO BELO HORIZONTE - COMARCA; BH-09PJ AUDITORIA MILITAR 5.511,94 0,00 0,00 2.923,93 0,00 0,00 8.435,87 1.436,61 1.081,37 0,00 2.517,98 5.917,89 457,00 2.046,48 31/12/2013
864 363400 FABIANA DOURADO DUPIN VIEGAS ANALISTA DO MP ATIVO BELO HORIZONTE - COMARCA; PROC. JUSTICA DE HABEAS CORPUS 8.501,02 850,10 0,00 4.804,12 0,00 0,00 14.155,24 2.490,56 2.791,78 0,00 5.282,34 8.872,90 692,00 4.435,80 31/12/2013
865 410800 FABIANA DUARTE QUITITE ANALISTA DO MP ATIVO BELO HORIZONTE - COMARCA; COORD ESTADUAL COMBATE CRIMES CIBERNETICOS 7.014,37 701,44 0,00 4.091,52 2.571,94 0,00 14.379,27 2.036,33 2.807,89 0,00 4.844,22 9.535,05 632,54 3.338,50 31/12/2013
866 419500 FABIANA EULALIA DOS SANTOS ANALISTA DO MP ATIVO SÃO JOÃO DEL REI - COMARCA; SAO JOAO DEL REI-PJ-01PJ 6.793,15 407,59 0,00 3.819,79 2.400,25 0,00 13.420,78 1.514,30 2.135,90 0,00 3.650,20 9.770,58 720,30 2.761,07 31/12/2013
867 376300 FABIANA MATTOSO LEMOS ANALISTA DO MP ATIVO BELO HORIZONTE - COMARCA; COORD-GERAL DAS PJS POR BACIA HIDRO. DE MG 7.973,40 797,34 0,00 4.093,02 0,00 0,00 12.863,76 2.475,16 2.418,35 0,00 4.893,51 7.970,25 457,00 6.029,60 31/12/2013
868 331500 FABIANA PACHECO OFICIAL DO MP ATIVO GUAXUPÉ - COMARCA; GUAXUPE-PJ-01PJ 5.691,44 569,14 0,00 3.016,72 2.086,86 0,00 11.364,16 1.734,68 1.687,86 0,00 3.422,54 7.941,62 457,00 3.832,72 31/12/2013
869 510700 FABIANA PEREIRA SANTOS BORGES ANALISTA DO MP ATIVO BELO HORIZONTE - COMARCA; DIRETORIA DE SISTEMAS DE INFORMACAO 5.511,94 0,00 0,00 2.656,00 0,00 0,00 8.167,94 1.479,94 861,04 0,00 2.340,98 5.826,96 692,00 3.046,43 31/12/2013
870 181700 FABIANA SOUZA FERREIRA OFICIAL DO MP ATIVO BELO HORIZONTE - COMARCA; BH-19PJ SAUDE 4.404,59 880,92 0,00 2.803,82 1.761,84 0,00 9.851,17 1.377,63 1.261,60 0,00 2.639,23 7.211,94 692,00 1.940,68 31/12/2013
871 272900 FABIANA STOCKLER LEITE OFICIAL DO MP ATIVO LAJINHA - COMARCA; LAJINHA-PJ-SECRETARIA 6.265,58 1.879,67 0,00 3.924,89 0,00 0,00 12.070,14 2.257,74 1.994,27 0,00 4.252,01 7.818,13 1.142,92 4.996,80 31/12/2013
872 225500 FABIANE DE FATIMA PORTELLA ANALISTA DO MP ATIVO BELO HORIZONTE - COMARCA; SERVICO MEDICO-DEPTO PERIC MEDICA SAUDE OCUP 10.984,62 2.196,92 0,00 7.187,58 4.393,85 0,00 24.762,97 3.419,08 6.043,94 0,00 9.463,02 15.299,95 608,92 4.743,90 31/12/2013
873 433800 FABIANE DINIZ MATTOS ANALISTA DO MP ATIVO BELO HORIZONTE - COMARCA; BH-23PJ INFRACIONAL-ASS JURIDICA 6.793,15 407,59 0,00 4.082,36 0,00 0,00 11.283,10 1.887,54 1.908,03 0,00 3.795,57 7.487,53 676,13 2.773,26 31/12/2013
874 455000 FABIANO CARVALHO DA SILVA ANALISTA DO MP ATIVO LAVRAS - COMARCA; COORD REG DO MA DA BACIA DO RIO GRANDE 6.265,58 375,93 0,00 3.792,41 0,00 0,00 10.433,92 1.726,21 1.634,29 0,00 3.360,50 7.073,42 846,31 2.593,15 31/12/2013
875 498800 FABIANO FURTADO PESSOA COELHO ANALISTA DO MP ATIVO BELO HORIZONTE - COMARCA; DIRETORIA DE REDES E BANCOS DE DADOS 5.511,94 0,00 0,00 3.161,07 1.837,31 0,00 10.510,32 1.448,45 1.489,92 0,00 2.938,37 7.571,95 927,00 2.154,34 31/12/2013
876 394600 FABIANO PALHARES SILVA ANALISTA DO MP ATIVO BELO HORIZONTE - COMARCA; CENTRAL DE APOIO TECN-SETOR DE MEIO AMBIENTE 7.973,40 797,34 0,00 4.093,02 0,00 0,00 12.863,76 2.477,72 2.321,64 0,00 4.799,36 8.064,40 4.068,47 6.519,99 31/12/2013
877 444400 FABIANO SARAIVA MEDEIROS ANALISTA DO MP ATIVO BETIM - COMARCA; BETIM-PJ-11PJ 6.265,58 375,93 0,00 3.523,13 2.213,84 0,00 12.378,48 1.731,02 2.146,38 0,00 3.877,40 8.501,08 692,00 2.465,88 31/12/2013
878 408700 FABIANO SOARES PORTILHO ANALISTA DO MP ATIVO VIÇOSA - COMARCA; VICOSA-PJ-02PJ 7.014,37 420,86 0,00 3.819,79 2.478,41 0,00 13.733,43 1.975,65 2.646,98 0,00 4.622,63 9.110,80 457,00 3.337,96 31/12/2013
879 384301 FABIO BRUNO DA SILVA ANALISTA DO MP ATIVO BONFIM - COMARCA; BONFIM-PJ-UNPJ 6.265,58 375,93 0,00 3.523,13 0,00 0,00 10.164,64 1.734,95 1.634,29 0,00 3.369,24 6.795,40 457,00 2.637,38 31/12/2013
880 442600 FABIO CARVALHO ANALISTA DO MP ATIVO MONTES CLAROS - COMARCA; MONTES CLAROS-PJ-SECRETARIA 5.169,86 310,19 0,00 4.110,04 0,00 0,00 9.590,09 1.168,26 761,12 0,00 1.929,38 7.660,71 457,00 1.326,57 31/12/2013
881 123700 FABIO JOSE ANDRADE NOGUEIRA OFICIAL DO MP ATIVO FORMIGA - COMARCA; FORMIGA-PJ-SECRETARIA 7.478,49 5.234,95 0,00 6.744,12 0,00 0,00 19.457,56 3.313,81 2.169,40 0,00 5.483,21 13.974,35 457,00 4.982,22 31/12/2013
882 240101 FABIO JUNQUEIRA DE ASSIS FONSECA OFICIAL DO MP ATIVO BELO HORIZONTE - COMARCA; EXTINTA - DIRETORIA DE CONTRATOS E CONVÊNIOS 4.131,19 413,12 0,00 2.334,64 1.514,77 0,00 8.393,72 1.210,37 1.006,94 0,00 2.217,31 6.176,41 725,22 2.067,68 31/12/2013
883 271500 FABIO LUIZ VIEIRA OFICIAL DO MP ATIVO SANTA VITÓRIA - COMARCA; SANTA VITORIA-PJ-UNPJ 5.006,87 1.001,37 0,00 3.422,29 2.002,75 0,00 11.433,28 1.703,95 1.837,01 0,00 3.540,96 7.892,32 644,28 3.485,90 31/12/2013
884 213100 FABIO PRATES GONCALVES ASSESSOR ATIVO BELO HORIZONTE - COMARCA; DIRETORIA DE RELACOES PUBLICAS E CERIMONIAL 0,00 787,77 3.938,84 2.507,33 1.575,54 0,00 8.809,48 914,98 1.114,14 0,00 2.029,12 6.780,36 692,00 1.754,92 31/12/2013
885 436700 FABIO SANTIAGO DE CARVALHO OFICIAL DO MP ATIVO POÇO FUNDO - COMARCA; POCO FUNDO-PJ-UNPJ 4.848,98 290,94 0,00 2.677,60 0,00 0,00 7.817,52 1.489,89 897,62 0,00 2.387,51 5.430,01 457,00 3.745,00 31/12/2013
886 208400 FABIOLA DE SOUSA CARDOSO ASSESSOR/ANALISTA ATIVO BELO HORIZONTE - COMARCA; ASSESS TECNICA DA CORREGEDORIA-GERAL DO MP 13.353,95 4.603,47 0,00 10.353,21 5.985,81 0,00 34.296,44 4.106,64 8.936,45 0,00 13.043,09 21.253,35 817,93 6.021,94 31/12/2013
887 392200 FABIOLA LEROY COSTA ANALISTA DO MP ATIVO ESMERALDAS - COMARCA; ESMERALDAS-PJ-01PJ 5.876,69 587,67 0,00 6.464,36 0,00 0,00 12.928,72 1.687,24 1.547,57 0,00 3.234,81 9.693,91 457,00 2.425,90 31/12/2013
888 409000 FABIOLA MONTEIRO DE CARVALHO CASTRO ANALISTA DO MP ATIVO BOM SUCESSO - COMARCA; BOM SUCESSO-PJ-UNPJ 7.014,37 420,86 0,00 3.819,79 2.478,41 0,00 13.733,43 1.974,79 2.646,98 0,00 4.621,77 9.111,66 457,00 3.330,15 31/12/2013
889 227900 FABIOLA PIMENTA DE CARVALHO OFICIAL DO MP ATIVO MONTES CLAROS - COMARCA; COORD REG BACIA RIOS VERDE GRANDE E PARDO 5.691,44 1.138,29 0,00 3.290,96 2.276,58 0,00 12.397,27 1.892,35 2.102,59 0,00 3.994,94 8.402,33 457,00 4.181,16 31/12/2013
890 525800 FABRICIA ALVES DANTAS OFICIAL DO MP ATIVO MONTES CLAROS - COMARCA; MONTES CLAROS-PJ-02PJ 3.577,90 0,00 0,00 1.897,97 1.192,63 0,00 6.668,50 934,00 406,45 0,00 1.340,45 5.328,05 692,00 1.341,50 31/12/2013
891 263400 FABRICIA PINTO TEIXEIRA SANTIAGO OFICIAL DO MP ATIVO BELO HORIZONTE - COMARCA; CAO-TS-TERCEIRO SETOR-SECRETARIA 6.469,61 1.293,92 0,00 4.233,29 0,00 0,00 11.996,82 2.013,69 1.990,09 0,00 4.003,78 7.993,04 692,00 2.946,78 31/12/2013
892 420800 FABRICIO BERNARDES DE OLIVEIRA OFICIAL DO MP ATIVO ITURAMA - COMARCA; ITURAMA-PJ-02PJ 4.848,98 290,94 0,00 2.476,71 0,00 0,00 7.616,63 1.447,00 705,12 0,00 2.152,12 5.464,51 539,50 3.355,31 31/12/2013
893 474000 FABRICIO DE FREITAS SALES ANALISTA DO MP ATIVO BUENÓPOLIS - COMARCA; BUENOPOLIS-PJ-UNPJ 6.068,01 364,08 0,00 3.218,91 2.144,03 0,00 11.795,03 1.723,40 2.032,28 0,00 3.755,68 8.039,35 1.061,81 3.304,94 31/12/2013
894 510100 FABRICIO FURTADO ASSIS DO CARMO ANALISTA DO MP ATIVO BELO HORIZONTE - COMARCA; SERVICO MEDICO-DEPTO PERIC MEDICA SAUDE OCUP 5.511,94 0,00 0,00 3.161,07 0,00 0,00 8.673,01 1.416,22 1.081,37 0,00 2.497,59 6.175,42 457,00 1.962,11 31/12/2013
895 519600 FABRICIO GONTIJO SALVATI ANALISTA DO MP ATIVO JUIZ DE FORA - COMARCA; JUIZ DE FORA-PJ-13PJ 5.511,94 0,00 0,00 5.511,94 1.837,31 0,00 12.861,19 1.436,89 1.586,63 0,00 3.023,52 9.837,67 3.898,53 2.465,41 31/12/2013
896 428200 FABRICIO ORZIL VIANA ANALISTA DO MP ATIVO SANTA LUZIA - COMARCA; SANTA LUZIA-PJ-04PJ 6.265,58 375,93 0,00 3.523,13 0,00 0,00 10.164,64 1.731,02 1.634,29 0,00 3.365,31 6.799,33 457,00 2.465,88 31/12/2013
897 455600 FABRICIO PAIVA DA ROCHA ANALISTA DO MP ATIVO ANDRELÂNDIA - COMARCA; ANDRELANDIA-PJ-UNPJ 6.265,58 375,93 0,00 4.053,50 0,00 0,00 10.695,01 1.763,16 1.635,12 0,00 3.398,28 7.296,73 618,91 2.892,95 31/12/2013
898 511500 FABRICIO RENE CARDOSO DE PADUA ANALISTA DO MP ATIVO SÃO SEBASTIÃO DO PARAÍSO - COMARCA; SAO SEBASTIAO DO PARAISO-PJ-03PJ 6.068,01 0,00 0,00 2.656,00 0,00 0,00 8.724,01 1.734,47 1.093,85 0,00 2.828,32 5.895,69 457,00 4.804,22 31/12/2013
899 496100 FABRICIO RESENDE GONCALVES OFICIAL DO MP ATIVO ENTRE-RIOS DE MINAS - COMARCA; ENTRE RIOS DE MINAS-PJ-UNPJ 3.577,90 1.108,32 0,00 3.577,90 0,00 0,00 8.264,12 1.422,85 519,94 0,00 1.942,79 6.321,33 457,00 5.858,41 31/12/2013
900 514900 FADUA MARIA DRUMOND CHEQUER ANALISTA DO MP ATIVO ALMENARA - COMARCA; COORD REG INCLUSAO MOBILIZ VALE JEQUITINHONHA 5.511,94 0,00 0,00 2.923,93 1.837,31 0,00 10.273,18 1.436,61 1.586,63 0,00 3.023,24 7.249,94 457,00 2.046,48 31/12/2013
901 282500 FANNY FERREIRA MELO FAVERO DE FRAVET OFICIAL DO MP ATIVO ARAXÁ - COMARCA; ARAXA-PJ-03PJ 5.006,87 1.001,37 0,00 3.003,15 2.002,75 0,00 11.014,14 1.753,97 2.046,62 0,00 3.800,59 7.213,55 927,00 4.440,50 31/12/2013
902 540100 FATIMA CRISTINA POVOA DA COSTA OFICIAL DO MP ATIVO BELO HORIZONTE - COMARCA; BH-18PJ VIOLENCIA DOMESTICA-SECRETARIA 2.859,08 571,82 0,00 2.859,08 0,00 0,00 6.289,98 831,31 185,53 0,00 1.016,84 5.273,14 457,00 1.273,75 31/12/2013
903 382800 FATIMA DE OLIVEIRA COELHO E SILVA OFICIAL DO MP ATIVO BELO HORIZONTE - COMARCA; DIRETORIA DE ADMINISTRACAO FINANCEIRA 4.000,95 800,19 0,00 2.430,83 0,00 0,00 7.231,97 1.775,05 911,48 0,00 2.686,53 4.545,44 4.303,47 7.414,63 31/12/2013
904 398601 FELIPE ANTONIO HORTA DE PAULA ANALISTA DO MP ATIVO BELO HORIZONTE - COMARCA; PROC. JUSTICA DIR. DIFUSOS E COLETIVOS-SEC 4.848,98 0,00 0,00 2.473,74 0,00 0,00 7.322,72 1.084,74 479,01 0,00 1.563,75 5.758,97 457,00 1.788,33 31/12/2013
905 529200 FELIPE AUGUSTO NASCIMENTO PEREIRA ASSESSOR ATIVO UBERABA - COMARCA; COORD REG PP TRIANGULO MINEIRO UBERABA 0,00 0,00 3.938,84 3.938,84 0,00 0,00 7.877,68 890,76 494,92 0,00 1.385,68 6.492,00 457,00 1.462,43 31/12/2013
906 430900 FELIPE BOY VIEIRA ANALISTA DO MP ATIVO BELO HORIZONTE - COMARCA; CAO-DH APOIO COMUNITARIO-SEC ADM 6.793,15 407,59 0,00 7.200,74 2.400,25 0,00 16.801,73 1.874,46 2.568,10 0,00 4.442,56 12.359,17 457,00 2.652,50 31/12/2013
907 549100 FELIPE FERNANDES ALVIM ANALISTA DO MP ATIVO LAJINHA - COMARCA; LAJINHA-PJ-UNPJ 4.404,59 0,00 0,00 2.269,40 0,00 0,00 6.673,99 1.029,45 399,47 0,00 1.428,92 5.245,07 457,00 1.658,76 31/12/2013
908 487300 FELIPE FERNANDES SILVEIRA ASSESSOR ATIVO BELO HORIZONTE - COMARCA; DIVISAO DE MANUTENCAO PREDIAL 0,00 0,00 2.359,08 1.251,42 47,92 0,00 3.658,42 665,18 79,45 0,00 744,63 2.913,79 457,00 876,56 31/12/2013
909 601600 FELIPE RODRIGUES DE SIQUEIRA ANALISTA DO MP ATIVO BELO HORIZONTE - COMARCA; BH-02PJ FAMILIA 4.404,59 0,00 0,00 1.468,20 0,00 0,00 5.872,79 702,52 279,06 0,00 981,58 4.891,21 457,00 516,38 31/12/2013
910 544500 FELLIPE LEMOS MARCONDES BUENO ANALISTA DO MP ATIVO SÃO SEBASTIÃO DO PARAÍSO - COMARCA; SAO SEBASTIAO DO PARAISO-PJ-04PJ 4.404,59 0,00 0,00 2.291,77 0,00 0,00 6.696,36 1.067,26 448,47 0,00 1.515,73 5.180,63 457,00 1.635,40 31/12/2013
911 508400 FERNANDA AGANETTI MATTOS DE OLIVEIRA ANALISTA DO MP ATIVO BELO HORIZONTE - COMARCA; BH-19PJ SAUDE 6.068,01 0,00 0,00 2.923,93 0,00 0,00 8.991,94 1.675,17 1.217,47 0,00 2.892,64 6.099,30 457,00 3.659,08 31/12/2013
912 453600 FERNANDA ALBERNAZ RABELO ANALISTA DO MP ATIVO BELO HORIZONTE - COMARCA; PROC. JUSTICA DE HABEAS CORPUS 6.265,58 375,93 0,00 3.792,41 0,00 0,00 10.433,92 1.727,41 1.634,29 0,00 3.361,70 7.072,22 457,00 2.556,72 31/12/2013
913 255600 FERNANDA ALINA DE ALMEIDA ANDRADE OFICIAL DO MP ATIVO BELO HORIZONTE - COMARCA; DIR ESTRUTURA E PROCESSOS ORGANIZACIONAIS 5.691,44 1.138,29 0,00 3.622,98 0,00 0,00 10.452,71 1.784,60 1.726,43 0,00 3.511,03 6.941,68 457,00 2.716,73 31/12/2013
914 443200 FERNANDA ALMEIDA LOPES ANALISTA DO MP ATIVO CONTAGEM - COMARCA; CONTAGEM-PJ-23PJ 6.793,15 407,59 0,00 3.523,13 2.400,25 0,00 13.124,12 2.063,39 2.582,32 0,00 4.645,71 8.478,41 618,91 5.066,00 31/12/2013
915 281100 FERNANDA ANANIAS MEIRA ANALISTA DO MP ATIVO BELO HORIZONTE - COMARCA; BH-23PJ INFRACIONAL-ASS JURIDICA 9.358,72 1.871,74 0,00 6.396,86 3.743,49 0,00 21.370,81 2.910,39 4.910,05 0,00 7.820,44 13.550,37 586,71 4.017,95 31/12/2013
916 539000 FERNANDA BARBOSA ALVES ANALISTA DO MP ATIVO CANÁPOLIS - COMARCA; CANAPOLIS-PJ-SECRETARIA 4.848,98 0,00 0,00 2.523,00 0,00 0,00 7.371,98 1.281,57 796,29 0,00 2.077,86 5.294,12 457,00 2.770,39 31/12/2013
917 451200 FERNANDA BLOISE PRADO OFICIAL DO MP ATIVO BELO HORIZONTE - COMARCA; NUCLEO DE NEGOCIACAO DE CONFLITOS AMBIENTAIS 3.694,41 221,66 0,00 2.077,36 0,00 0,00 5.993,43 1.021,75 394,96 0,00 1.416,71 4.576,72 600,20 1.543,96 31/12/2013
918 427900 FERNANDA BRAGA CARNEIRO BICALHO ANALISTA DO MP ATIVO PEÇANHA - COMARCA; PECANHA-PJ-SECRETARIA 6.793,15 407,59 0,00 3.819,79 0,00 0,00 11.020,53 1.906,24 1.811,32 0,00 3.717,56 7.302,97 457,00 3.089,84 31/12/2013
919 507100 FERNANDA CABRINI VAZ MOTA ANALISTA DO MP ATIVO BELO HORIZONTE - COMARCA; ASSESSORIA JURIDICO-ADMINISTRATIVA 6.068,01 0,00 0,00 3.161,07 2.022,67 0,00 11.251,75 1.623,90 1.773,70 0,00 3.397,60 7.854,15 457,00 3.192,71 31/12/2013
920 259800 FERNANDA CALZAVARA DE SOUSA COORDENADOR/OFICIAL ATIVO BELO HORIZONTE - COMARCA; DIRET DE FORMACAO, APERFEIC. E POS-GRADUACAO 0,00 2.060,57 10.302,83 6.558,44 4.121,13 0,00 23.042,97 2.039,17 5.838,82 0,00 7.877,99 15.164,98 521,60 4.629,80 31/12/2013
921 550300 FERNANDA CAMARGOS CALDEIRA BRANT ANALISTA DO MP ATIVO CONTAGEM - COMARCA; CONTAGEM-PJ-10PJ 4.848,98 0,00 0,00 2.473,74 0,00 0,00 7.322,72 1.086,05 479,01 0,00 1.565,06 5.757,66 457,00 1.800,37 31/12/2013
922 494400 FERNANDA CAMPOS BARATA OFICIAL DO MP ATIVO JUIZ DE FORA - COMARCA; JUIZ DE FORA-PJ-SECRETARIA 3.250,03 0,00 0,00 1.863,91 0,00 0,00 5.113,94 843,70 212,13 0,00 1.055,83 4.058,11 692,00 1.175,89 31/12/2013
923 555600 FERNANDA CAROLINE RIBEIRO ANALISTA DO MP ATIVO BELO HORIZONTE - COMARCA; EXTINTA - DIRETORIA DE CONTRATOS E CONVÊNIOS 4.848,98 0,00 0,00 2.483,89 0,00 0,00 7.332,87 1.018,75 428,55 0,00 1.447,30 5.885,57 457,00 1.591,69 31/12/2013
924 294500 FERNANDA COSTA FLORES OFICIAL DO MP ATIVO PARÁ DE MINAS - COMARCA; PARA DE MINAS-PJ-04PJ 6.265,58 626,56 0,00 3.656,09 2.297,38 0,00 12.845,61 1.800,62 2.292,04 0,00 4.092,66 8.752,95 457,00 2.597,97 31/12/2013
925 344500 FERNANDA CRISTINA DE SOUZA PAZ ASSESSOR ATIVO BELO HORIZONTE - COMARCA; CENTRAL DE APOIO TECN-SETOR DE MEIO AMBIENTE 0,00 0,00 3.938,84 2.089,44 0,00 0,00 6.028,28 890,76 355,94 0,00 1.246,70 4.781,58 927,00 1.462,43 31/12/2013
926 538100 FERNANDA CRISTINA DOS SANTOS ROSA MOREIRA OFICIAL DO MP ATIVO RIBEIRÃO DAS NEVES - COMARCA; RIBEIRAO DAS NEVES-PJ-SEC CIVEL 2.859,08 0,00 0,00 1.487,63 0,00 0,00 4.346,71 692,79 87,49 0,00 780,28 3.566,43 457,00 1.061,57 31/12/2013
927 337800 FERNANDA CRISTINA REIS ROLAND CLIMACO DA SILVA ASSESSOR/OFICIAL ATIVO BELO HORIZONTE - COMARCA; DIRETORIA-GERAL 0,00 877,78 8.777,78 5.122,01 3.218,52 0,00 17.996,09 1.646,95 4.194,18 0,00 5.841,13 12.154,96 457,00 3.585,02 31/12/2013
928 545400 FERNANDA CUNHA GUIMARAES ANALISTA DO MP ATIVO BELO HORIZONTE - COMARCA; EXTINTA - COORD DEFESA DO DIREITO DE FAMILIA 4.404,59 0,00 0,00 2.269,40 0,00 0,00 6.673,99 913,14 280,10 0,00 1.193,24 5.480,75 457,00 1.635,40 31/12/2013
929 429801 FERNANDA CUNHA PINHEIRO DA SILVA ANALISTA DO MP ATIVO BELO HORIZONTE - COMARCA; DIRETORIA DE PRODUCAO EDITORIAL 5.006,87 0,00 0,00 2.656,00 0,00 0,00 7.662,87 1.046,42 652,25 0,00 1.698,67 5.964,20 457,00 1.858,96 31/12/2013
930 408000 FERNANDA DAS NEVES RAMOS ANALISTA DO MP ATIVO BELO HORIZONTE - COMARCA; CENTRAL DE APOIO TECNICO-SETOR CONTABIL 7.014,37 420,86 0,00 3.819,79 0,00 0,00 11.255,02 1.974,79 1.965,42 0,00 3.940,21 7.314,81 457,00 3.330,15 31/12/2013
931 496000 FERNANDA DE ALMEIDA VIANA ANALISTA DO MP ATIVO BELO HORIZONTE - COMARCA; PROC JUST RECURSOS ESP E EXTRAORD CRIMINAIS 6.068,01 0,00 0,00 3.480,00 2.022,67 0,00 11.570,68 1.573,82 1.909,80 0,00 3.483,62 8.087,06 678,89 2.183,46 31/12/2013
932 266700 FERNANDA DE CASTRO LUCAS ASSESSOR/OFICIAL ATIVO BELO HORIZONTE - COMARCA; DIRET DE DESENV DE RECURSOS HUMANOS-DDRH 0,00 1.594,68 7.973,40 5.449,97 3.189,36 0,00 18.207,41 2.016,40 4.053,09 0,00 6.069,49 12.137,92 457,00 3.550,44 31/12/2013
933 433200 FERNANDA DE FIGUEIREDO NORTE ANALISTA DO MP ATIVO BELO HORIZONTE - COMARCA; ASSESS JUR DO CONS SUPERIOR DO MINISTERIO PUB 6.793,15 407,59 0,00 4.082,36 0,00 0,00 11.283,10 1.875,53 1.908,03 0,00 3.783,56 7.499,54 692,00 2.662,31 31/12/2013
934 419200 FERNANDA DE MIRANDA MARTINS SIMOES ANALISTA DO MP ATIVO UBERLÂNDIA - COMARCA; UBERLANDIA-PJ-19PJ 6.793,15 407,59 0,00 3.819,79 2.400,25 0,00 13.420,78 1.877,06 2.568,10 0,00 4.445,16 8.975,62 720,30 2.677,57 31/12/2013
935 441400 FERNANDA DE MORAIS PINTO ANALISTA DO MP ATIVO BELO HORIZONTE - COMARCA; PROC. JUSTICA DIR. DIFUSOS E COLETIVOS-SEC 6.793,15 407,59 0,00 4.082,36 0,00 0,00 11.283,10 1.863,44 1.908,03 0,00 3.771,47 7.511,63 457,00 2.687,42 31/12/2013
936 432200 FERNANDA DE MOURA GUIMARAES ANALISTA DO MP ATIVO BELO HORIZONTE - COMARCA; ASSESS TECNICO-JUR JUNTO AS PROC. DE JUST 6.793,15 407,59 0,00 4.082,36 2.400,25 0,00 13.683,35 1.872,96 2.568,10 0,00 4.441,06 9.242,29 457,00 2.638,75 31/12/2013
937 461800 FERNANDA DE OLIVEIRA SANTOS ANALISTA DO MP ATIVO JUIZ DE FORA - COMARCA; JUIZ DE FORA-PJ-21PJ 6.265,58 375,93 0,00 3.582,99 2.213,84 0,00 12.438,34 1.751,51 2.191,83 0,00 3.943,34 8.495,00 457,00 2.860,30 31/12/2013
938 432500 FERNANDA DE PAULA ABRANTES ANALISTA DO MP ATIVO BELO HORIZONTE - COMARCA; PROC JUST RECURSOS ESP E EXTRAORD CRIMINAIS 6.793,15 407,59 0,00 4.082,36 0,00 0,00 11.283,10 1.871,43 1.908,03 0,00 3.779,46 7.503,64 457,00 2.771,83 31/12/2013
939 431600 FERNANDA DIAS BARBOSA MENEZES ANALISTA DO MP ATIVO OURO BRANCO - COMARCA; OURO BRANCO-PJ-UNPJ 6.793,15 407,59 0,00 4.082,36 0,00 0,00 11.283,10 1.872,96 1.811,32 0,00 3.684,28 7.598,82 927,00 2.638,75 31/12/2013
940 162200 FERNANDA FERNANDES MONTEIRO ASSESSOR ATIVO BELO HORIZONTE - COMARCA; CAO-DH APOIO COMUNITARIO-SEC ADM 0,00 1.181,65 3.938,84 2.716,27 1.706,83 0,00 9.543,59 914,98 1.259,07 0,00 2.174,05 7.369,54 692,00 1.901,19 31/12/2013
941 512800 FERNANDA FERREIRA BARBOSA MOREIRA ANALISTA DO MP ATIVO IPATINGA - COMARCA; IPATINGA-PJ-05PJ 5.511,94 0,00 0,00 2.656,00 0,00 0,00 8.167,94 1.481,19 957,75 0,00 2.438,94 5.729,00 457,00 3.057,69 31/12/2013
942 329200 FERNANDA GABRIEL GUZELLA OFICIAL DO MP ATIVO BELO HORIZONTE - COMARCA; ASSESS ESPECIAL DO PGJ ATUACAO JUNTO A PGJAI 5.006,87 500,69 0,00 2.921,61 0,00 0,00 8.429,17 1.436,82 1.079,23 0,00 2.516,05 5.913,12 457,00 2.169,20 31/12/2013
943 324200 FERNANDA GEORGIA NEVES ZAHAN OFICIAL DO MP ATIVO IPANEMA - COMARCA; IPANEMA-PJ-SECRETARIA 4.848,98 2.424,49 0,00 3.966,07 2.424,49 0,00 13.664,03 1.886,40 2.416,95 0,00 4.303,35 9.360,68 457,00 2.615,39 31/12/2013
944 548200 FERNANDA GONCALVES DE CARVALHO ZUZA OFICIAL DO MP ATIVO TUPACIGUARA - COMARCA; TUPACIGUARA-PJ-UNPJ 2.859,08 0,00 0,00 1.473,10 0,00 0,00 4.332,18 666,59 71,58 0,00 738,17 3.594,01 457,00 1.061,57 31/12/2013
945 355400 FERNANDA HELENA BASQUES OFICIAL DO MP ATIVO SABARÁ - COMARCA; SABARA-PJ-01PJ 5.169,86 516,99 0,00 3.016,72 0,00 0,00 8.703,57 1.483,75 1.166,99 0,00 2.650,74 6.052,83 583,96 2.125,93 31/12/2013
946 454800 FERNANDA IATAROLA BARBOSA DIAS ANALISTA DO MP ATIVO BARBACENA - COMARCA; BARBACENA-PJ-01PJ 6.265,58 375,93 0,00 3.792,41 2.213,84 0,00 12.647,76 1.809,39 2.285,72 0,00 4.095,11 8.552,65 826,81 3.180,85 31/12/2013
947 515500 FERNANDA LILIANE MARUGEIRO ANALISTA DO MP ATIVO VESPASIANO - COMARCA; VESPASIANO-PJ-02PJ 5.511,94 0,00 0,00 3.161,07 0,00 0,00 8.673,01 1.443,90 1.081,37 0,00 2.525,27 6.147,74 457,00 2.113,01 31/12/2013
948 392900 FERNANDA MAGALHAES SILVA COORDENADOR/ANALISTA ATIVO BELO HORIZONTE - COMARCA; DIRETORIA DE IMPRENSA 0,00 1.030,28 10.302,83 6.011,90 3.777,70 0,00 21.122,71 2.272,23 5.124,27 0,00 7.396,50 13.726,21 457,00 4.224,12 31/12/2013
949 409200 FERNANDA MAIA SANTIAGO ANALISTA DO MP ATIVO PIRAPORA - COMARCA; PIRAPORA-PJ-02PJ 5.876,69 352,60 0,00 3.200,30 0,00 0,00 9.429,59 1.653,02 1.384,45 0,00 3.037,47 6.392,12 457,00 2.776,66 31/12/2013
950 556500 FERNANDA OTERO COSTA ANALISTA DO MP ATIVO BELO HORIZONTE - COMARCA; ASSESS TECNICO-JUR JUNTO AS PROC. DE JUST 4.404,59 0,00 0,00 2.224,66 0,00 0,00 6.629,25 912,16 322,25 0,00 1.234,41 5.394,84 457,00 1.325,04 31/12/2013
951 412900 FERNANDA PORTELA ROSA ANALISTA DO MP ATIVO BELO HORIZONTE - COMARCA; BH-08PJ JUIZADO ESPECIAL-SECRETARIA 7.014,37 701,44 0,00 3.819,79 2.571,94 0,00 14.107,54 1.919,12 2.632,93 0,00 4.552,05 9.555,49 3.833,47 6.236,20 31/12/2013
952 274301 FERNANDA QUEIROZ PARREIRA ANALISTA DO MP ATIVO PATOS DE MINAS - COMARCA; COORD REG PJ DEF EDU DIR CRI ADO AL PAR NOROE 6.068,01 0,00 0,00 3.480,00 0,00 0,00 9.548,01 1.573,87 1.353,57 0,00 2.927,44 6.620,57 457,00 2.295,34 31/12/2013
953 467900 FERNANDA QUEIROZ SIMOES GANNAM ANALISTA DO MP ATIVO SÃO LOURENÇO - COMARCA; SAO LOURENCO-PJ-02PJ 6.265,58 375,93 0,00 3.582,99 0,00 0,00 10.224,50 1.734,83 1.583,03 0,00 3.317,86 6.906,64 457,00 2.832,53 31/12/2013
954 255500 FERNANDA SIMOES LOPES MENDES ANALISTA DO MP ATIVO BELO HORIZONTE - COMARCA; BH-17PJ PATRIMONIO PUBLICO-SECRETARIA 9.977,95 1.995,59 0,00 6.528,87 3.991,18 0,00 22.493,59 3.105,43 5.148,47 0,00 8.253,90 14.239,69 927,00 4.305,48 31/12/2013
955 481700 FERNANDA VIANA FROES DA SILVA OFICIAL DO MP ATIVO GOVERNADOR VALADARES - COMARCA; GOVERNADOR VALADARES-PJ-09PJ 3.938,84 0,00 0,00 2.089,44 0,00 0,00 6.028,28 1.026,74 402,56 0,00 1.429,30 4.598,98 692,00 1.543,81 31/12/2013
956 123900 FERNANDO ANTONIO FARIA ABREU ASSESSOR/ANALISTA ATIVO BELO HORIZONTE - COMARCA; PROCURADORIA-GERAL ADJUNTA ADMINISTRATIVA 20.299,65 21.542,83 0,00 12.661,75 8.441,17 2.785,59 65.730,99 5.571,18 9.107,78 16.518,98 31.197,94 34.533,05 457,00 2.785,59 31/12/2013
957 416900 FERNANDO APARECIDO DA SILVA ANALISTA DO MP ATIVO BOM DESPACHO - COMARCA; BOM DESPACHO-PJ-01PJ 7.014,37 2.805,75 0,00 5.045,02 0,00 0,00 14.865,14 2.583,34 2.920,99 0,00 5.504,33 9.360,81 4.068,47 4.779,24 31/12/2013
958 395900 FERNANDO AUGUSTO ETO LAGES ANALISTA DO MP ATIVO BELO HORIZONTE - COMARCA; CENTRAL DE APOIO TECN-SETOR DE MEIO AMBIENTE 7.973,40 797,34 0,00 4.093,02 0,00 0,00 12.863,76 2.477,72 2.418,35 0,00 4.896,07 7.967,69 739,14 6.211,97 31/12/2013
959 380500 FERNANDO BONES COSTA OFICIAL DO MP ATIVO BELO HORIZONTE - COMARCA; EXTINTA - DIVISÃO DE MATERIAL PERMANENTE 3.814,70 381,47 0,00 2.225,95 1.398,72 0,00 7.820,84 878,67 742,75 0,00 1.621,42 6.199,42 457,00 1.573,65 31/12/2013
960 500100 FERNANDO CEZAR PINTO OFICIAL DO MP ATIVO BELO HORIZONTE - COMARCA; EXTINTA - DIVISÃO DE MATERIAL PERMANENTE 3.577,90 0,00 0,00 2.051,92 0,00 0,00 5.629,82 926,00 246,91 0,00 1.172,91 4.456,91 771,23 1.268,93 31/12/2013
961 346100 FERNANDO EUSTAQUIO CAMPOS UTSCH MOREIRA COORDENADOR/ANALISTA ATIVO BELO HORIZONTE - COMARCA; DIRETORIA DE REDES E BANCOS DE DADOS 8.501,02 2.910,67 0,00 6.090,48 0,00 0,00 17.502,17 2.452,07 3.803,58 0,00 6.255,65 11.246,52 1.382,68 4.400,51 31/12/2013
962 103500 FERNANDO LUIZ DA SILVA JUNIOR COORDENADOR/OFICIAL ATIVO BELO HORIZONTE - COMARCA; DIVISAO DE ATENDIMENTO E CONSULTA JURIDICA 11.885,64 6.748,24 0,00 10.820,99 0,00 0,00 29.454,87 4.337,52 7.625,19 0,00 11.962,71 17.492,16 3.833,47 7.201,22 31/12/2013
963 287300 FERNANDO MARCIO ALVES MARTINS OFICIAL DO MP ATIVO LEOPOLDINA - COMARCA; LEOPOLDINA-PJ-01PJ 4.848,98 969,80 0,00 2.740,24 1.939,59 0,00 10.498,61 1.578,72 1.324,47 0,00 2.903,19 7.595,42 457,00 3.377,08 31/12/2013
964 262200 FERNANDO MARCIO RESENDE PEREIRA COORDENADOR/OFICIAL ATIVO BELO HORIZONTE - COMARCA; BH-12PJ JUIZO CRIMINAL-SECRETARIA 0,00 1.812,72 9.063,59 10.876,31 0,00 0,00 21.752,62 1.727,03 3.964,33 0,00 5.691,36 16.061,26 457,00 4.056,99 31/12/2013
965 472900 FERNANDO RODRIGUES DE FREITAS ANALISTA DO MP ATIVO BELO HORIZONTE - COMARCA; BH-15PJ M AMB PAT HIST CULT-ASS TECNICA 5.511,94 330,72 0,00 2.923,93 0,00 0,00 8.766,59 1.545,75 1.065,60 0,00 2.611,35 6.155,24 457,00 2.707,92 31/12/2013
966 219600 FERNANDO SOARES MIRANDA COORDENADOR/ANALISTA ATIVO BELO HORIZONTE - COMARCA; PROCON-MG-GAB DO COORDENADOR DO PROCON-MG 11.885,64 14.703,26 0,00 12.994,67 8.441,17 2.484,10 50.508,84 5.869,15 14.439,09 6.872,10 27.180,34 23.328,50 1.342,01 13.065,41 31/12/2013
967 421400 FERNANDO TEODORO MACIEL ANALISTA DO MP ATIVO SANTA VITÓRIA - COMARCA; SANTA VITORIA-PJ-UNPJ 6.265,58 626,56 0,00 3.523,13 2.297,38 0,00 12.712,65 1.981,03 2.519,85 0,00 4.500,88 8.211,77 692,00 4.489,90 31/12/2013
968 446300 FERNANDO VITOR DE OLIVEIRA ANALISTA DO MP ATIVO MONTES CLAROS - COMARCA; COORD REG BACIA RIOS VERDE GRANDE E PARDO 6.265,58 375,93 0,00 3.523,13 2.213,84 0,00 12.378,48 1.753,75 2.243,09 0,00 3.996,84 8.381,64 3.113,60 2.917,08 31/12/2013
969 398400 FLAVIA ALVARES GUIMARAES OFICIAL DO MP ATIVO BELO HORIZONTE - COMARCA; CORREGEDORIA-GERAL 3.814,70 381,47 0,00 2.225,95 1.398,72 0,00 7.820,84 1.093,95 760,68 0,00 1.854,63 5.966,21 457,00 1.560,45 31/12/2013
970 398200 FLAVIA ALVES DE ASSUNCAO RODRIGUES ANALISTA DO MP ATIVO DIVINÓPOLIS - COMARCA; COORD REG DO MA DA BACIA DO ALTO SAO FRANC 7.014,37 701,44 0,00 7.715,81 0,00 0,00 15.431,62 2.012,47 2.160,15 0,00 4.172,62 11.259,00 927,23 3.038,13 31/12/2013
971 554400 FLAVIA BAO TRAVIZANI ANALISTA DO MP ATIVO SETE LAGOAS - COMARCA; SETE LAGOAS-PJ-11PJ 4.848,98 0,00 0,00 2.483,89 0,00 0,00 7.332,87 1.012,26 428,55 0,00 1.440,81 5.892,06 457,00 1.532,35 31/12/2013
972 318500 FLAVIA BEATRIZ NUNES CRUZ VIEIRA ANALISTA DO MP ATIVO BARBACENA - COMARCA; BARBACENA-PJ-SECRETARIA 9.358,72 935,87 0,00 9.351,12 0,00 0,00 19.645,71 2.852,57 3.094,85 0,00 5.947,42 13.698,29 692,00 6.495,00 31/12/2013
973 496500 FLAVIA CARAM BORLIDO ANALISTA DO MP ATIVO BELO HORIZONTE - COMARCA; EXTINTA - DIVISAO DE SERVICOS GERAIS 6.068,01 0,00 0,00 3.480,00 0,00 0,00 9.548,01 1.289,50 1.115,44 0,00 2.404,94 7.143,07 457,00 2.298,11 31/12/2013
974 534800 FLAVIA CONDE SOARES ANALISTA DO MP ATIVO RIBEIRÃO DAS NEVES - COMARCA; RIBEIRAO DAS NEVES-PJ-10PJ 4.848,98 0,00 0,00 2.547,62 0,00 0,00 7.396,60 1.226,43 681,14 0,00 1.907,57 5.489,03 457,00 1.864,64 31/12/2013
975 219500 FLAVIA CRISTINA ANCELMO OFICIAL DO MP ATIVO BELO HORIZONTE - COMARCA; BH-17PJ PATRIMONIO PUBLICO-SECRETARIA 6.068,01 1.213,60 0,00 3.740,90 2.427,20 0,00 13.449,71 1.939,59 2.558,91 0,00 4.498,50 8.951,21 678,08 3.312,91 31/12/2013
976 329600 FLAVIA CRISTINA DE MATOS XAVIER ANALISTA DO MP ATIVO UBERABA - COMARCA; UBERABA-PJ-15PJ 9.358,72 1.871,74 0,00 5.411,46 0,00 0,00 16.641,92 3.112,55 3.435,25 0,00 6.547,80 10.094,12 1.313,71 6.886,12 31/12/2013
977 207600 FLAVIA DE ANDRADE MANCINI ANALISTA DO MP ATIVO BELO HORIZONTE - COMARCA; ASSESSORIA JURIDICO-ADMINISTRATIVA 11.885,64 2.377,13 0,00 8.073,67 4.754,26 0,00 27.090,70 3.673,91 6.382,19 0,00 10.056,10 17.034,60 1.104,25 4.898,81 31/12/2013
978 402801 FLAVIA MARIA DE RESENDE NASCIMENTO ANALISTA DO MP ATIVO SÃO JOÃO DEL REI - COMARCA; SAO JOAO DEL REI-PJ-04PJ 5.511,94 0,00 0,00 2.923,93 0,00 0,00 8.435,87 1.436,92 1.081,37 0,00 2.518,29 5.917,58 826,37 2.050,06 31/12/2013
979 437500 FLAVIA MARIA TORRES MARCHETTI ANALISTA DO MP ATIVO BELO HORIZONTE - COMARCA; BH-13ª PJ JUÍXO DE TÓXICOS 6.793,15 407,59 0,00 4.082,36 2.400,25 0,00 13.683,35 2.102,96 2.960,92 0,00 5.063,88 8.619,47 632,54 4.732,95 31/12/2013
980 386000 FLAVIA NEVES BRIGIDO OFICIAL DO MP ATIVO BELO HORIZONTE - COMARCA; PROMOT ESTADUAL DE DEF PATRI CULT E TUR DE MG 3.814,70 381,47 0,00 2.225,95 1.398,72 0,00 7.820,84 1.094,10 848,79 0,00 1.942,89 5.877,95 712,73 1.563,14 31/12/2013
981 488600 FLAVIA PEREIRA COSTA ANALISTA DO MP ATIVO BELO HORIZONTE - COMARCA; SERVICO MEDICO-DEPTO PERIC MEDICA SAUDE OCUP 6.068,01 0,00 0,00 3.480,00 0,00 0,00 9.548,01 1.578,34 1.353,57 0,00 2.931,91 6.616,10 826,81 2.338,00 31/12/2013
982 365400 FLAVIA PEREIRA DA SILVA OFICIAL DO MP ATIVO BELO HORIZONTE - COMARCA; BH-15PJ M AMB 16PJ HAB URB-SECRETARIA 5.511,94 551,19 0,00 3.367,52 2.021,04 0,00 11.451,69 1.607,41 1.860,17 0,00 3.467,58 7.984,11 573,37 2.688,84 31/12/2013
983 515400 FLAVIA RODRIGUES DE OLIVEIRA E SILVA PAIVA ANALISTA DO MP ATIVO CARATINGA - COMARCA; CARATINGA-PJ-01PJ 5.511,94 0,00 0,00 2.923,93 0,00 0,00 8.435,87 1.152,07 558,69 0,00 1.710,76 6.725,11 457,00 2.160,36 31/12/2013
984 535800 FLAVIA SILVA VALADAO OFICIAL DO MP ATIVO TRÊS CORACOES - COMARCA; TRES CORACOES-PJ-04PJ 2.859,08 0,00 0,00 1.487,63 0,00 0,00 4.346,71 692,79 87,49 0,00 780,28 3.566,43 692,00 1.061,57 31/12/2013
985 515300 FLAVIA VIEIRA OLIVEIRA ANALISTA DO MP ATIVO BELO HORIZONTE - COMARCA; CAO-CRIMINAL-SECRETARIA 5.511,94 0,00 0,00 2.923,93 0,00 0,00 8.435,87 1.436,61 1.081,37 0,00 2.517,98 5.917,89 457,00 2.046,48 31/12/2013
986 377500 FLAVIANA GONCALVES DE OLIVEIRA ANALISTA DO MP ATIVO AÇUCENA - COMARCA; ACUCENA-PJ-UNPJ 7.973,40 797,34 0,00 4.093,02 0,00 0,00 12.863,76 2.475,27 2.418,35 0,00 4.893,62 7.970,14 457,00 6.539,72 31/12/2013
987 273100 FLAVIANE DOS SANTOS CASTRO OFICIAL DO MP ATIVO CAXAMBU - COMARCA; CAXAMBU-PJ-SECRETARIA 6.068,01 1.213,60 0,00 4.147,60 2.427,20 0,00 13.856,41 1.542,20 2.097,20 0,00 3.639,40 10.217,01 927,00 2.603,42 31/12/2013
988 310600 FLAVIANE NAVES ALCANTARA ASSESSOR/OFICIAL ATIVO BELO HORIZONTE - COMARCA; COMB CRIMES PRAT POR AG POL MUN-SECRETARIA 0,00 797,34 7.973,40 4.652,63 0,00 0,00 13.423,37 1.867,96 2.771,10 0,00 4.639,06 8.784,31 457,00 3.500,99 31/12/2013
989 455800 FLAVIO ANTONIO RIBEIRO OFICIAL DO MP ATIVO BELO HORIZONTE - COMARCA; GRUPO ESP PROM PROC JUST DEF PROB ADM PAT PUB 3.355,81 201,35 0,00 3.557,16 0,00 0,00 7.114,32 933,32 294,13 0,00 1.227,45 5.886,87 457,00 1.377,03 31/12/2013
990 458200 FLAVIO AUGUSTO BRAGA SOARES ANALISTA DO MP ATIVO BELO HORIZONTE - COMARCA; DIVISAO DE MANUTENCAO PREDIAL 6.265,58 375,93 0,00 3.792,41 0,00 0,00 10.433,92 1.713,57 1.634,29 0,00 3.347,86 7.086,06 457,00 2.430,09 31/12/2013
991 516500 FLAVIO AUGUSTO RODRIGUES CORREA ANALISTA DO MP ATIVO BELO HORIZONTE - COMARCA; COORD REG BACIAS RIO VELHAS E PARAOPEBA 5.006,87 0,00 0,00 5.006,87 0,00 0,00 10.013,74 1.305,02 834,51 0,00 2.139,53 7.874,21 457,00 1.858,96 31/12/2013
992 84300 FLAVIO DE FARIA BELTRAO OFICIAL DO MP ATIVO BELO HORIZONTE - COMARCA; DIRETORIA DE ADMINISTRACAO FINANCEIRA 18.218,36 12.752,85 0,00 25.323,50 8.441,17 0,00 64.735,88 5.571,18 13.003,73 5.647,71 24.222,62 40.513,26 457,00 0,00 31/12/2013
993 266600 FLAVIO GUIMARAES LANA ANALISTA DO MP ATIVO BELO HORIZONTE - COMARCA; CENTRAL DE APOIO TECN-SETOR DE MEIO AMBIENTE 7.973,40 1.594,68 0,00 9.568,08 0,00 0,00 19.136,16 2.459,48 3.066,85 0,00 5.526,33 13.609,83 457,00 3.239,17 31/12/2013
994 552600 FLAVIO HENRIQUE EVARISTO GOMES ANALISTA DO MP ATIVO BELO HORIZONTE - COMARCA; DIRETORIA DE SUPORTE E MANUTENCAO 4.848,98 0,00 0,00 3.232,65 0,00 0,00 8.081,63 1.140,25 573,34 0,00 1.713,59 6.368,04 457,00 2.293,53 31/12/2013
995 241500 FLAVIO HENRIQUE SILVA MARTINS LAGE OFICIAL DO MP ATIVO BELO HORIZONTE - COMARCA; CAO-DIREITOS HUMANOS E APOIO COMUNITARIO 6.265,58 1.879,67 0,00 4.671,27 0,00 0,00 12.816,52 2.110,70 2.370,37 0,00 4.481,07 8.335,45 457,00 2.912,26 31/12/2013
996 86700 FLAVIO LUCAS TOMAZ AGENTE DO MP ATIVO BELO HORIZONTE - COMARCA; BH-06PJ JUIZO CIVEL-SECRETARIA 5.169,86 2.584,93 0,00 3.984,00 2.584,93 0,00 14.323,72 2.065,06 1.745,79 0,00 3.810,85 10.512,87 457,00 3.521,93 31/12/2013
997 407200 FLAVIO LUCIO MONTEIRO PENA ANALISTA DO MP ATIVO BELO HORIZONTE - COMARCA; DIRETORIA DE IMPRENSA 6.469,61 646,96 0,00 4.283,94 0,00 0,00 11.400,51 1.832,04 1.866,83 0,00 3.698,87 7.701,64 457,00 2.770,66 31/12/2013
998 451700 FLAVIO MAGALHAES PEREIRA ANALISTA DO MP ATIVO BELO HORIZONTE - COMARCA; BH-12PJ JUIZO CRIMINAL-GAB 098PJ 6.265,58 375,93 0,00 3.523,13 0,00 0,00 10.164,64 1.734,05 1.634,29 0,00 3.368,34 6.796,30 457,00 2.501,29 31/12/2013
999 481500 FLAVIO NEVES GUELBER DE MACEDO OFICIAL DO MP ATIVO SÃO JOÃO NEPOMUCENO - COMARCA; SAO JOAO NEPOMUCENO-PJ-02PJ 3.577,90 0,00 0,00 1.897,97 0,00 0,00 5.475,87 932,56 299,67 0,00 1.232,23 4.243,64 457,00 1.328,40 31/12/2013
1000 547500 FRANCELINO MOREIRA DA SILVA ANALISTA DO MP ATIVO GRAO MOGOL - COMARCA; GRAO MOGOL-PJ-UNPJ 4.404,59 0,00 0,00 2.269,40 0,00 0,00 6.673,99 1.026,89 399,47 0,00 1.426,36 5.247,63 457,00 1.635,40 31/12/2013
1001 278100 FRANCIANE MARY DE SOUZA DOMENICI DE BRITO E CASTRO ANALISTA DO MP ATIVO BELO HORIZONTE - COMARCA; BH-12PJ JUIZO CRIMINAL 10.302,83 2.060,57 0,00 6.396,86 4.121,13 0,00 22.881,39 3.388,01 5.194,46 0,00 8.582,47 14.298,92 667,01 7.226,61 31/12/2013
1002 192501 FRANCIELLE REIS DE OLIVEIRA ANALISTA DO MP ATIVO PASSOS - COMARCA; PASSOS-PJ-04PJ 9.663,38 966,34 0,00 10.629,72 3.543,24 0,00 24.802,68 2.758,01 4.270,77 0,00 7.028,78 17.773,90 1.319,40 3.835,80 31/12/2013
1003 523600 FRANCINE MOURA LIMIRIO OFICIAL DO MP ATIVO UBERABA - COMARCA; UBERABA-PJ-02PJ 3.250,03 0,00 0,00 1.566,03 0,00 0,00 4.816,06 739,58 143,99 0,00 883,57 3.932,49 636,92 1.974,10 31/12/2013
1004 467200 FRANCINI RENNO ANALISTA DO MP ATIVO SILVIANÓPOLIS - COMARCA; SILVIANOPOLIS-PJ-UNPJ 5.496,68 341,49 0,00 3.254,65 0,00 0,00 9.092,82 1.574,39 1.236,26 0,00 2.810,65 6.282,17 457,00 2.559,93 31/12/2013
1005 189300 FRANCIS BERNARDO DO NASCIMENTO OFICIAL DO MP ATIVO VARGINHA - COMARCA; VARGINHA-PJ-05PJ 8.501,02 2.550,31 0,00 6.064,17 3.683,78 0,00 20.799,28 2.909,42 4.720,66 0,00 7.630,08 13.169,20 692,00 4.713,38 31/12/2013
1006 207800 FRANCISCO CAMPOS PIRES DE MORAIS ANALISTA DO MP ATIVO BELO HORIZONTE - COMARCA; CENTRAL DE APOIO TECN-SETOR DE MEIO AMBIENTE 12.845,44 2.569,09 0,00 8.176,98 0,00 0,00 23.591,51 4.019,05 5.735,26 0,00 9.754,31 13.837,20 1.396,42 5.741,33 31/12/2013
1007 424200 FRANCISCO DE FREITAS JUNIOR ANALISTA DO MP ATIVO MONTE AZUL - COMARCA; MONTE AZUL-PJ-UNPJ 5.691,44 569,14 0,00 6.032,93 2.086,86 0,00 14.380,37 1.706,53 2.097,33 0,00 3.803,86 10.576,51 583,72 3.231,84 31/12/2013
1008 204600 FRANCISCO FERREIRA NOVAIS OFICIAL DO MP ATIVO IPATINGA - COMARCA; IPATINGA-PJ-08PJ 6.265,58 1.879,67 0,00 4.320,82 2.715,08 0,00 15.181,15 2.124,67 2.923,60 0,00 5.048,27 10.132,88 457,00 3.040,09 31/12/2013
1009 60500 FRANCISCO OLIMPIO TEIXEIRA AGENTE DO MP ATIVO BELO HORIZONTE - COMARCA; EXTINTA - DIVISAO DE TRANSPORTES 4.696,06 3.756,85 0,00 4.484,03 2.817,64 1.328,31 17.082,89 2.724,18 4.513,33 0,00 7.237,51 9.845,38 692,00 9.276,78 31/12/2013
1010 411600 FRANCISCO PAIVA BRITO ANALISTA DO MP ATIVO BELO HORIZONTE - COMARCA; TRIBUNAL DO JURI-07 PJ-02 TRIBUNAL 6.469,61 646,96 0,00 3.523,13 0,00 0,00 10.639,70 1.927,33 1.750,56 0,00 3.677,89 6.961,81 457,00 3.775,43 31/12/2013
1011 515800 FRANCISCO RAFAEL DA SILVA NETO ANALISTA DO MP ATIVO SACRAMENTO - COMARCA; SACRAMENTO-PJ-01PJ 4.548,03 0,00 0,00 2.412,60 0,00 0,00 6.960,63 1.185,62 408,92 0,00 1.594,54 5.366,09 567,87 1.784,13 31/12/2013
1012 515200 FRANCISLEI ELIAS GONCALVES OFICIAL DO MP ATIVO PASSOS - COMARCA; PASSOS-PJ-01PJ 2.952,15 590,43 0,00 3.542,58 1.180,86 0,00 8.266,02 923,87 266,97 0,00 1.190,84 7.075,18 672,90 1.393,64 31/12/2013
1013 443600 FRANCISLEI MARTINS DE SOUSA ANALISTA DO MP ATIVO TIMÓTEO - COMARCA; TIMOTEO-PJ-01PJ 6.793,15 407,59 0,00 3.523,13 0,00 0,00 10.723,87 1.940,32 1.771,16 0,00 3.711,48 7.012,39 494,70 3.810,29 31/12/2013
1014 424500 FREDERICO AUGUSTO COBRA MULLER ANALISTA DO MP ATIVO POUSO ALEGRE - COMARCA; POUSO ALEGRE-PJ-03PJ 6.793,15 407,59 0,00 3.819,79 0,00 0,00 11.020,53 1.876,77 1.908,03 0,00 3.784,80 7.235,73 457,00 2.673,57 31/12/2013
1015 473100 FREDERICO AUGUSTO LIMA FELICIO ANALISTA DO MP ATIVO CONCEIÇÃO DO MATO DENTRO - COMARCA; CONCEICAO DO MATO DENTRO-PJ-UNPJ 6.068,01 364,08 0,00 3.480,00 0,00 0,00 9.912,09 1.688,51 1.442,67 0,00 3.131,18 6.780,91 792,92 2.862,23 31/12/2013
1016 318100 FREDERICO BIANCHINI JOVIANO DOS SANTOS ASSESSOR/OFICIAL ATIVO BELO HORIZONTE - COMARCA; PROMOT ESTADUAL DE DEF PATRI CULT E TUR DE MG 0,00 797,34 7.973,40 4.652,63 2.923,58 0,00 16.346,95 1.081,06 3.034,82 0,00 4.115,88 12.231,07 457,00 3.256,46 31/12/2013
1017 124200 FREDERICO DE SOUZA ROCHA OFICIAL DO MP ATIVO ESPINOSA - COMARCA; ESPINOSA-PJ-SECRETARIA 9.358,72 6.551,11 0,00 8.173,58 5.303,28 0,00 29.386,69 4.454,72 7.550,37 0,00 12.005,09 17.381,60 1.102,75 9.212,14 31/12/2013
1018 177100 FREDERICO FERNANDES DE ANDRADE ASSESSOR/OFICIAL ATIVO BELO HORIZONTE - COMARCA; DIRETORIA DE SUPORTE E MANUTENCAO 0,00 1.594,68 7.973,40 5.075,60 3.189,36 0,00 17.833,04 1.708,47 3.302,91 0,00 5.011,38 12.821,66 457,00 3.552,40 31/12/2013
1019 456200 FREDERICO FERNANDES PASSOS ANALISTA DO MP ATIVO BELO HORIZONTE - COMARCA; DIRETORIA DE REDES E BANCOS DE DADOS 6.265,58 375,93 0,00 3.792,41 0,00 0,00 10.433,92 1.733,78 1.537,58 0,00 3.271,36 7.162,56 457,00 2.614,85 31/12/2013
1020 400900 FREDERICO LUCIANO BORGES REIS ANALISTA DO MP ATIVO BELO HORIZONTE - COMARCA; DIRETORIA DE SISTEMAS DE INFORMACAO 7.014,37 701,44 0,00 4.334,86 2.571,94 0,00 14.622,61 2.030,33 2.867,44 0,00 4.897,77 9.724,84 739,14 3.200,03 31/12/2013
1021 466200 FREDERICO LUIS FERNANDES ANALISTA DO MP ATIVO BELO HORIZONTE - COMARCA; BH-12PJ JUIZO CRIMINAL-GAB 106PJ 5.691,44 341,49 0,00 3.254,65 0,00 0,00 9.287,58 1.580,53 1.193,11 0,00 2.773,64 6.513,94 457,00 2.503,13 31/12/2013
1022 419700 FREDERICO MECKLER SANTOS ANALISTA DO MP ATIVO CLÁUDIO - COMARCA; CLAUDIO-PJ-UNPJ 6.793,15 407,59 0,00 3.819,79 0,00 0,00 11.020,53 1.876,77 1.908,03 0,00 3.784,80 7.235,73 457,00 2.673,57 31/12/2013
1023 257100 FULVIA HERONVILLE DA SILVA OFICIAL DO MP ATIVO BELO HORIZONTE - COMARCA; DIVISAO DE MEMORIA INSTITUCIONAL 6.265,58 1.253,12 0,00 3.862,69 0,00 0,00 11.381,39 1.626,20 1.491,08 0,00 3.117,28 8.264,11 718,38 3.415,48 31/12/2013
1024 397200 GABRIEL DEIVID MARTINS LEITE OFICIAL DO MP ATIVO MONTE CARMELO - COMARCA; MONTE CARMELO-PJ-02PJ 5.006,87 500,69 0,00 2.829,47 0,00 0,00 8.337,03 1.466,89 1.036,72 0,00 2.503,61 5.833,42 895,12 2.671,61 31/12/2013
1025 540800 GABRIEL MOREIRA COURA ANALISTA DO MP ATIVO ABRE CAMPO - COMARCA; ABRE CAMPO-PJ-SECRETARIA 4.404,59 0,00 0,00 2.291,77 0,00 0,00 6.696,36 1.067,26 448,47 0,00 1.515,73 5.180,63 457,00 1.635,40 31/12/2013
1026 386800 GABRIELA SIMOES CHAVES ANALISTA DO MP ATIVO BELO HORIZONTE - COMARCA; EXTINTA - DIVISÃO DE COMPRAS 7.973,40 797,34 0,00 4.093,02 0,00 0,00 12.863,76 2.591,52 2.602,35 0,00 5.193,87 7.669,89 2.561,98 7.439,54 31/12/2013
1027 449700 GABRIELE COSTA FERREIRA OFICIAL DO MP ATIVO BELO HORIZONTE - COMARCA; DIRETORIA DE ORCAMENTO-DIOR/SPC 3.355,81 201,35 0,00 1.886,97 0,00 0,00 5.444,13 928,37 294,13 0,00 1.222,50 4.221,63 587,07 1.335,32 31/12/2013
1028 357600 GABRIELLA CRUZ EMRICH OFICIAL DO MP ATIVO ARCOS - COMARCA; ARCOS-PJ-SECRETARIA 4.265,74 426,57 0,00 2.558,63 0,00 0,00 7.250,94 1.220,59 699,32 0,00 1.919,91 5.331,03 457,00 1.720,44 31/12/2013
1029 470600 GABRIELLA SPIRANDELLI COIMBRA ANALISTA DO MP ATIVO UBERLÂNDIA - COMARCA; UBERLANDIA-PJ-19PJ 6.068,01 364,08 0,00 3.218,91 0,00 0,00 9.651,00 1.701,71 1.442,67 0,00 3.144,38 6.506,62 457,00 2.981,14 31/12/2013
1030 86000 GASPAR GOMES DE SOUSA AGENTE DO MP ATIVO BELO HORIZONTE - COMARCA; BH-15PJ M AMB PAT HIST CULT-RECEPCAO 18.218,36 12.752,86 0,00 12.661,75 8.441,17 0,00 52.074,14 5.571,18 13.100,45 5.647,72 24.319,35 27.754,79 457,00 0,00 31/12/2013
1031 183100 GECIELLE FERNANDA SILVA OFICIAL DO MP ATIVO PITANGUI - COMARCA; PITANGUI-PJ-02PJ 8.501,02 1.700,20 0,00 5.240,86 0,00 0,00 15.442,08 2.717,32 3.298,06 0,00 6.015,38 9.426,70 1.059,10 4.643,53 31/12/2013
1032 387300 GEOFFREY GIULLIANO OLIVEIRA ALMEIDA ANALISTA DO MP ATIVO JANAÚBA - COMARCA; JANAUBA-PJ-03PJ 6.469,61 646,96 0,00 7.116,57 2.372,19 0,00 16.605,33 1.858,01 2.519,18 0,00 4.377,19 12.228,14 630,49 2.671,98 31/12/2013
1033 277700 GEORGIA CRISTINA BASILIO MEDRADO ANALISTA DO MP ATIVO BELO HORIZONTE - COMARCA; SERVICO MEDICO-DEPTO PERIC MEDICA SAUDE OCUP 9.663,38 1.932,68 0,00 6.762,46 3.865,35 0,00 22.223,87 2.969,47 5.025,80 0,00 7.995,27 14.228,60 458,31 3.822,28 31/12/2013
1034 605200 GEOVANI PREZOTI TONUSSI ANALISTA DO MP ATIVO SANTOS DUMONT - COMARCA; SANTOS DUMONT-PJ-03PJ 4.404,59 0,00 0,00 0,00 0,00 0,00 4.404,59 855,95 321,38 0,00 1.177,33 3.227,26 747,82 3.376,85 31/12/2013
1035 512100 GEOVANI VICENTIN ANALISTA DO MP ATIVO SANTA RITA DE CALDAS - COMARCA; SANTA RITA DE CALDAS-PJ-UNPJ 5.511,94 0,00 0,00 5.006,87 0,00 0,00 10.518,81 1.495,93 957,75 0,00 2.453,68 8.065,13 457,00 3.191,77 31/12/2013
1036 116300 GEOVANNA DAS GRACAS ROSA REQUEIJO AGENTE DO MP ATIVO SANTA LUZIA - COMARCA; SANTA LUZIA-PJ-06PJ 13.353,95 5.341,59 0,00 9.917,47 6.231,85 0,00 34.844,86 4.902,51 9.055,07 0,00 13.957,58 20.887,28 1.787,65 7.600,46 31/12/2013
1037 207200 GERALDO AFONSO DE MOURA CALDEIRA ANALISTA DO MP ATIVO BELO HORIZONTE - COMARCA; BH-17PJ PATRIMONIO PUBLICO 12.845,44 2.569,09 0,00 8.176,98 0,00 1.695,60 25.287,11 4.017,89 6.861,27 0,00 10.879,16 14.407,95 457,00 8.363,07 31/12/2013
1038 274901 GERALDO ANDRE DE OLIVEIRA ANALISTA DO MP ATIVO CONTAGEM - COMARCA; CONTAGEM-PJ-18PJ 5.511,94 1.102,39 0,00 4.051,82 0,00 0,00 10.666,15 1.710,21 1.620,99 0,00 3.331,20 7.334,95 590,05 2.330,89 31/12/2013
1039 270900 GERALDO BATISTA BRITES OFICIAL DO MP ATIVO BOM DESPACHO - COMARCA; BOM DESPACHO-PJ-01PJ 6.265,58 1.253,12 0,00 3.988,46 0,00 0,00 11.507,16 1.974,50 1.773,54 0,00 3.748,04 7.759,12 1.130,33 2.943,62 31/12/2013
1040 204200 GERALDO CELIO ARAUJO SOARES OFICIAL DO MP ATIVO GOVERNADOR VALADARES - COMARCA; GOVERNADOR VALADARES-PJ-12PJ 8.501,02 2.550,31 0,00 5.677,61 3.683,78 0,00 20.412,72 2.942,86 4.623,95 0,00 7.566,81 12.845,91 692,00 5.018,90 31/12/2013
1041 66900 GERALDO DIAS CYRINO OFICIAL DO MP ATIVO BELO HORIZONTE - COMARCA; DIRET DE INFORMACAO E CONHECIMENTO-DINC/CEAF 12.356,19 8.649,34 0,00 10.718,50 7.001,84 0,00 38.725,87 5.599,28 10.298,49 0,00 15.897,77 22.828,10 1.271,02 9.735,51 31/12/2013
1042 366500 GERALDO LEVY ROMUALDO DA SILVA OFICIAL DO MP ATIVO RIO POMBA - COMARCA; RIO POMBA-PJ-SECRETARIA 4.131,19 413,12 0,00 2.410,63 1.514,77 0,00 8.469,71 1.184,58 947,52 0,00 2.132,10 6.337,61 623,17 1.689,81 31/12/2013
1043 124300 GERALDO MARCIO GOMES DA SILVA COORDENADOR/ANALISTA ATIVO BELO HORIZONTE - COMARCA; EXTINTA - DIRETORIA SERVIÇOS GERAIS E TRANS 17.524,60 16.904,48 0,00 12.661,75 8.441,17 2.785,59 58.317,59 5.571,18 14.342,38 9.105,58 29.019,14 29.298,45 457,00 2.785,59 31/12/2013
1044 124400 GERALDO MAURICIO DE FARIA ROCHA OFICIAL DO MP ATIVO BELO HORIZONTE - COMARCA; BH-13ª PJ JUÍXO DE TÓXICOS 7.478,49 5.234,95 0,00 6.932,31 0,00 0,00 19.645,75 2.673,53 3.440,72 0,00 6.114,25 13.531,50 457,00 4.682,18 31/12/2013
1045 472800 GERALDO MONTEIRO CAMARGO JUNIOR ANALISTA DO MP ATIVO ESPINOSA - COMARCA; ESPINOSA-PJ-UNPJ 5.006,87 1.001,37 0,00 3.187,20 0,00 0,00 9.195,44 1.566,34 1.324,31 0,00 2.890,65 6.304,79 823,17 2.235,82 31/12/2013
1046 124500 GERALDO ROGERIO GOMES SILVEIRA COORDENADOR/OFICIAL ATIVO BELO HORIZONTE - COMARCA; DIRETORIA DE PESSOAL ADMINISTRATIVO - DPAD 9.358,72 9.229,85 0,00 9.860,71 6.196,19 0,00 34.645,47 4.152,32 9.251,68 0,00 13.404,00 21.241,47 954,80 7.163,94 31/12/2013
1047 445900 GERALDO TAVARES FERREIRA ANALISTA DO MP ATIVO FORMIGA - COMARCA; FORMIGA-PJ-03PJ 6.265,58 375,93 0,00 3.523,13 2.213,84 0,00 12.378,48 1.730,44 2.243,09 0,00 3.973,53 8.404,95 632,02 2.461,44 31/12/2013
1048 521000 GERALDO VINICIUS IRENO ANALISTA DO MP ATIVO CURVELO - COMARCA; CURVELO-PJ-01PJ 5.006,87 0,00 0,00 5.006,87 0,00 0,00 10.013,74 1.305,11 834,51 0,00 2.139,62 7.874,12 457,00 1.962,08 31/12/2013
1049 325400 GERSONI FERREIRA LUCENA OFICIAL DO MP ATIVO POÇOS DE CALDAS - COMARCA; POCOS DE CALDAS-PJ-02PJ 5.006,87 1.609,01 0,00 3.937,79 2.205,29 0,00 12.758,96 1.483,05 1.962,61 0,00 3.445,66 9.313,30 692,00 2.651,36 31/12/2013
1050 445600 GERUSA E SILVA CASTRO LOPEZ ANALISTA DO MP ATIVO BELO HORIZONTE - COMARCA; ASSESSORIA JURIDICO-ADMINISTRATIVA 6.793,15 407,59 0,00 3.200,30 0,00 0,00 10.401,04 1.979,09 1.622,21 0,00 3.601,30 6.799,74 457,00 4.893,56 31/12/2013
1051 468600 GILDA MARIA SANTOS DE FILIPPO ANDRADE OFICIAL DO MP ATIVO UBÁ - COMARCA; COORD REG BACIA DO RIO PARAIBA DO SUL 4.000,95 240,06 0,00 4.175,17 0,00 0,00 8.416,18 1.101,32 505,38 0,00 1.606,70 6.809,48 457,00 1.602,89 31/12/2013
1052 508300 GILMAR ALVES FERREIRA OFICIAL DO MP ATIVO BELO HORIZONTE - COMARCA; BH-13ª PJ JUÍXO DE TÓXICOS 3.250,03 0,00 0,00 1.863,91 0,00 0,00 5.113,94 834,97 212,13 0,00 1.047,10 4.066,84 457,00 1.096,13 31/12/2013
1053 455400 GILMAR DIAS NASCIMENTO OFICIAL DO MP ATIVO SÃO FRANCISCO - COMARCA; SAO FRANCISCO-PJ-01PJ 3.355,81 201,35 0,00 2.031,18 0,00 0,00 5.588,34 979,93 310,60 0,00 1.290,53 4.297,81 457,00 1.872,95 31/12/2013
1054 213000 GILMAR JOSE DA SILVA OFICIAL DO MP ATIVO DIVINÓPOLIS - COMARCA; DIVINOPOLIS-PJ-SECRETARIA 8.501,02 1.700,20 0,00 5.240,86 3.400,41 0,00 18.842,49 2.716,50 4.136,45 0,00 6.852,95 11.989,54 692,00 4.632,98 31/12/2013
1055 496900 GILSON NOGUEIRA GUIMARAES ANALISTA DO MP ATIVO MANHUMIRIM - COMARCA; MANHUMIRIM-PJ-01PJ 6.068,01 0,00 0,00 3.480,00 0,00 0,00 9.548,01 1.573,72 1.256,85 0,00 2.830,57 6.717,44 2.929,41 2.520,70 31/12/2013
1056 552000 GILVANIA MACEDO DE SA OFICIAL DO MP ATIVO BONFINÓPOLIS DE MINAS - COMARCA; BONFINOPOLIS DE MINAS-PJ-UNPJ 2.859,08 571,82 0,00 2.287,27 0,00 0,00 5.718,17 752,91 147,37 0,00 900,28 4.817,89 457,00 1.132,05 31/12/2013
1057 476600 GIMENNI JULIANA VILELA MACHADO MOREIRA OFICIAL DO MP ATIVO CONTAGEM - COMARCA; CONTAGEM-PJ-12PJ 3.577,90 214,67 0,00 3.577,90 0,00 0,00 7.370,47 1.003,39 222,83 0,00 1.226,22 6.144,25 692,00 1.757,74 31/12/2013
1058 391700 GIORDANI LOPES TAVARES ANALISTA DO MP ATIVO BELO HORIZONTE - COMARCA; SUPERINTENDÊNCIA DE ENGENHARIA E ARQUITETURA 7.973,40 797,34 0,00 8.770,74 0,00 0,00 17.541,48 2.245,12 2.676,55 0,00 4.921,67 12.619,81 457,00 2.883,47 31/12/2013
1059 251300 GIOVANE SOUZA PEREIRA OFICIAL DO MP ATIVO PARAGUAÇU - COMARCA; PARAGUACU-PJ-SECRETARIA 5.006,87 1.001,37 0,00 3.187,20 0,00 0,00 9.195,44 1.641,57 1.256,92 0,00 2.898,49 6.296,95 1.058,17 3.043,29 31/12/2013
1060 438800 GIOVANNA BRANDAO DE ARAUJO ANALISTA DO MP ATIVO ALMENARA - COMARCA; ALMENARA-PJ-01PJ 6.793,15 407,59 0,00 4.082,36 0,00 0,00 11.283,10 1.864,78 1.908,03 0,00 3.772,81 7.510,29 457,00 2.699,60 31/12/2013
1061 243400 GIOVANNA FRANCA BISTENE ASSESSOR/OFICIAL ATIVO BELO HORIZONTE - COMARCA; ASSESS EXECUTIVA DO CONSELHO SUPERIOR DO MP 0,00 1.755,56 8.777,78 10.533,34 0,00 0,00 21.066,68 2.054,56 3.505,55 0,00 5.560,11 15.506,57 1.568,94 4.139,25 31/12/2013
1062 124600 GIOVANNI ANANIAS CAMILO DO VALLE ANALISTA DO MP ATIVO OLIVEIRA - COMARCA; OLIVEIRA-PJ-01PJ 13.882,65 9.717,87 0,00 12.519,43 0,00 0,00 36.119,95 6.151,23 9.935,73 0,00 16.086,96 20.032,99 457,00 8.762,54 31/12/2013
1063 366700 GIOVANNI DE SOUZA ANDRADE OFICIAL DO MP ATIVO PASSOS - COMARCA; PASSOS-PJ-01PJ 4.265,74 1.534,89 0,00 5.652,63 1.933,54 0,00 13.386,80 1.236,70 1.495,09 0,00 2.731,79 10.655,01 623,17 2.015,68 31/12/2013
1064 124700 GIOVANNI REIS CONDE OFICIAL DO MP ATIVO MERCÊS - COMARCA; MERCES-PJ-SECRETARIA 5.876,69 4.113,69 0,00 9.990,38 3.330,13 0,00 23.310,89 2.600,63 3.358,39 0,00 5.959,02 17.351,87 457,00 3.679,34 31/12/2013
1065 219000 GIRLEI DE FATIMA SOUSA ASSESSOR ATIVO BELO HORIZONTE - COMARCA; OUVIDORIA DO MPMG 0,00 1.755,56 8.777,78 5.587,65 0,00 0,00 16.120,99 914,98 3.953,95 0,00 4.868,93 11.252,06 457,00 3.910,90 31/12/2013
1066 444600 GISELE ADRIANE FONSECA ANALISTA DO MP ATIVO BETIM - COMARCA; BETIM-PJ-03PJ 6.793,15 407,59 0,00 6.641,51 0,00 0,00 13.842,25 1.934,18 1.771,16 0,00 3.705,34 10.136,91 457,00 3.889,31 31/12/2013
1067 536600 GISELE APARECIDA VAZ DO CARMO ANALISTA DO MP ATIVO OURO PRETO - COMARCA; OURO PRETO-PJ-02PJ 4.404,59 0,00 0,00 3.670,49 0,00 0,00 8.075,08 1.067,26 448,47 0,00 1.515,73 6.559,35 457,00 1.635,40 31/12/2013
1068 445100 GISELE DE CAMPOS VERSIANI COORDENADOR/OFICIAL ATIVO BELO HORIZONTE - COMARCA; DIRETORIA DE SERVICO CRIMINAL 0,00 618,17 10.302,83 6.952,64 0,00 0,00 17.873,64 1.018,40 4.152,89 0,00 5.171,29 12.702,35 457,00 3.402,11 31/12/2013
1069 542000 GISELE GOMES ROCHA OFICIAL DO MP ATIVO ITUIUTABA - COMARCA; ITUIUTABA-PJ-04PJ 3.147,52 0,00 0,00 2.360,64 0,00 0,00 5.508,16 735,64 114,42 0,00 850,06 4.658,10 457,00 1.185,29 31/12/2013
1070 602900 GISELE MARIANA PAGANO DO AMARAL OFICIAL DO MP ATIVO BETIM - COMARCA; BETIM-PJ-02PJ 2.859,08 0,00 0,00 714,77 0,00 0,00 3.573,85 417,56 56,76 0,00 474,32